<gpx xmlns="http://www.topografix.com/GPX/1/1" xmlns:xsi="http://www.w3.org/2001/XMLSchema-instance" version="1.1" xsi:schemaLocation="http://www.topografix.com/GPX/1/1 http://www.topografix.com/GPX/1/1/gpx.xsd" creator="MotionXGPSFull 24.1 Build 5049R64">
<trk>
<name>Band of Bikers  21-5-16</name>
<desc>21 May 2016  8:39 am</desc>
<trkseg>
<trkpt lat="-27.3751774" lon="152.8881500">
<ele>64.440</ele>
<time>2016-05-20T22:39:11.482Z</time>
</trkpt>
<trkpt lat="-27.3751774" lon="152.8881500">
<ele>64.434</ele>
<time>2016-05-20T23:09:16.736Z</time>
</trkpt>
<trkpt lat="-27.3750620" lon="152.8879991">
<ele>64.418</ele>
<time>2016-05-20T23:09:26.286Z</time>
</trkpt>
<trkpt lat="-27.3750263" lon="152.8879624">
<ele>64.274</ele>
<time>2016-05-20T23:09:27.277Z</time>
</trkpt>
<trkpt lat="-27.3748664" lon="152.8878332">
<ele>63.925</ele>
<time>2016-05-20T23:09:30.025Z</time>
</trkpt>
<trkpt lat="-27.3746149" lon="152.8876236">
<ele>63.545</ele>
<time>2016-05-20T23:09:33.253Z</time>
</trkpt>
<trkpt lat="-27.3743532" lon="152.8873610">
<ele>63.373</ele>
<time>2016-05-20T23:09:36.403Z</time>
</trkpt>
<trkpt lat="-27.3740909" lon="152.8871005">
<ele>63.417</ele>
<time>2016-05-20T23:09:39.623Z</time>
</trkpt>
<trkpt lat="-27.3739548" lon="152.8869206">
<ele>63.227</ele>
<time>2016-05-20T23:09:41.885Z</time>
</trkpt>
<trkpt lat="-27.3738644" lon="152.8867306">
<ele>62.253</ele>
<time>2016-05-20T23:09:44.260Z</time>
</trkpt>
<trkpt lat="-27.3738136" lon="152.8864783">
<ele>60.597</ele>
<time>2016-05-20T23:09:47.805Z</time>
</trkpt>
<trkpt lat="-27.3736788" lon="152.8863519">
<ele>58.584</ele>
<time>2016-05-20T23:09:50.330Z</time>
</trkpt>
<trkpt lat="-27.3734753" lon="152.8864634">
<ele>56.460</ele>
<time>2016-05-20T23:09:52.794Z</time>
</trkpt>
<trkpt lat="-27.3733036" lon="152.8865523">
<ele>54.817</ele>
<time>2016-05-20T23:09:54.599Z</time>
</trkpt>
<trkpt lat="-27.3729762" lon="152.8866445">
<ele>54.112</ele>
<time>2016-05-20T23:09:57.563Z</time>
</trkpt>
<trkpt lat="-27.3726123" lon="152.8866797">
<ele>54.127</ele>
<time>2016-05-20T23:10:00.743Z</time>
</trkpt>
<trkpt lat="-27.3722720" lon="152.8867745">
<ele>54.206</ele>
<time>2016-05-20T23:10:04.119Z</time>
</trkpt>
<trkpt lat="-27.3720749" lon="152.8868226">
<ele>53.798</ele>
<time>2016-05-20T23:10:06.203Z</time>
</trkpt>
<trkpt lat="-27.3717995" lon="152.8868783">
<ele>52.940</ele>
<time>2016-05-20T23:10:09.063Z</time>
</trkpt>
<trkpt lat="-27.3716099" lon="152.8869193">
<ele>52.102</ele>
<time>2016-05-20T23:10:10.937Z</time>
</trkpt>
<trkpt lat="-27.3713962" lon="152.8869784">
<ele>51.711</ele>
<time>2016-05-20T23:10:13.091Z</time>
</trkpt>
<trkpt lat="-27.3711840" lon="152.8869984">
<ele>51.809</ele>
<time>2016-05-20T23:10:15.214Z</time>
</trkpt>
<trkpt lat="-27.3708945" lon="152.8870397">
<ele>51.935</ele>
<time>2016-05-20T23:10:18.041Z</time>
</trkpt>
<trkpt lat="-27.3705811" lon="152.8870866">
<ele>51.736</ele>
<time>2016-05-20T23:10:20.966Z</time>
</trkpt>
<trkpt lat="-27.3703645" lon="152.8871461">
<ele>51.387</ele>
<time>2016-05-20T23:10:23.032Z</time>
</trkpt>
<trkpt lat="-27.3700493" lon="152.8872028">
<ele>51.040</ele>
<time>2016-05-20T23:10:25.912Z</time>
</trkpt>
<trkpt lat="-27.3698162" lon="152.8872412">
<ele>50.632</ele>
<time>2016-05-20T23:10:28.002Z</time>
</trkpt>
<trkpt lat="-27.3694881" lon="152.8872912">
<ele>50.098</ele>
<time>2016-05-20T23:10:30.839Z</time>
</trkpt>
<trkpt lat="-27.3692567" lon="152.8873409">
<ele>49.520</ele>
<time>2016-05-20T23:10:32.808Z</time>
</trkpt>
<trkpt lat="-27.3689132" lon="152.8874487">
<ele>49.042</ele>
<time>2016-05-20T23:10:35.630Z</time>
</trkpt>
<trkpt lat="-27.3685670" lon="152.8876306">
<ele>48.693</ele>
<time>2016-05-20T23:10:38.427Z</time>
</trkpt>
<trkpt lat="-27.3681872" lon="152.8878616">
<ele>48.478</ele>
<time>2016-05-20T23:10:41.440Z</time>
</trkpt>
<trkpt lat="-27.3678244" lon="152.8881320">
<ele>48.623</ele>
<time>2016-05-20T23:10:44.390Z</time>
</trkpt>
<trkpt lat="-27.3675746" lon="152.8883044">
<ele>49.182</ele>
<time>2016-05-20T23:10:46.331Z</time>
</trkpt>
<trkpt lat="-27.3671438" lon="152.8884237">
<ele>49.841</ele>
<time>2016-05-20T23:10:49.206Z</time>
</trkpt>
<trkpt lat="-27.3668129" lon="152.8884198">
<ele>50.357</ele>
<time>2016-05-20T23:10:51.164Z</time>
</trkpt>
<trkpt lat="-27.3662873" lon="152.8883893">
<ele>50.753</ele>
<time>2016-05-20T23:10:54.049Z</time>
</trkpt>
<trkpt lat="-27.3656830" lon="152.8883583">
<ele>51.196</ele>
<time>2016-05-20T23:10:57.297Z</time>
</trkpt>
<trkpt lat="-27.3651605" lon="152.8883457">
<ele>51.799</ele>
<time>2016-05-20T23:11:00.326Z</time>
</trkpt>
<trkpt lat="-27.3646800" lon="152.8883133">
<ele>52.059</ele>
<time>2016-05-20T23:11:03.301Z</time>
</trkpt>
<trkpt lat="-27.3641977" lon="152.8882701">
<ele>51.401</ele>
<time>2016-05-20T23:11:06.383Z</time>
</trkpt>
<trkpt lat="-27.3638889" lon="152.8882487">
<ele>50.108</ele>
<time>2016-05-20T23:11:08.377Z</time>
</trkpt>
<trkpt lat="-27.3634277" lon="152.8882631">
<ele>48.908</ele>
<time>2016-05-20T23:11:11.352Z</time>
</trkpt>
<trkpt lat="-27.3631155" lon="152.8882304">
<ele>48.593</ele>
<time>2016-05-20T23:11:13.373Z</time>
</trkpt>
<trkpt lat="-27.3626596" lon="152.8881991">
<ele>49.695</ele>
<time>2016-05-20T23:11:16.247Z</time>
</trkpt>
<trkpt lat="-27.3623564" lon="152.8881334">
<ele>51.606</ele>
<time>2016-05-20T23:11:18.072Z</time>
</trkpt>
<trkpt lat="-27.3620340" lon="152.8879565">
<ele>52.739</ele>
<time>2016-05-20T23:11:19.901Z</time>
</trkpt>
<trkpt lat="-27.3615225" lon="152.8875329">
<ele>52.295</ele>
<time>2016-05-20T23:11:22.991Z</time>
</trkpt>
<trkpt lat="-27.3610166" lon="152.8871068">
<ele>51.007</ele>
<time>2016-05-20T23:11:26.041Z</time>
</trkpt>
<trkpt lat="-27.3605019" lon="152.8867263">
<ele>49.686</ele>
<time>2016-05-20T23:11:29.053Z</time>
</trkpt>
<trkpt lat="-27.3601698" lon="152.8864678">
<ele>48.608</ele>
<time>2016-05-20T23:11:31.044Z</time>
</trkpt>
<trkpt lat="-27.3596799" lon="152.8860662">
<ele>47.982</ele>
<time>2016-05-20T23:11:34.067Z</time>
</trkpt>
<trkpt lat="-27.3591943" lon="152.8856554">
<ele>47.269</ele>
<time>2016-05-20T23:11:37.128Z</time>
</trkpt>
<trkpt lat="-27.3587137" lon="152.8852361">
<ele>45.703</ele>
<time>2016-05-20T23:11:40.264Z</time>
</trkpt>
<trkpt lat="-27.3582625" lon="152.8848634">
<ele>43.732</ele>
<time>2016-05-20T23:11:43.296Z</time>
</trkpt>
<trkpt lat="-27.3578391" lon="152.8845104">
<ele>42.323</ele>
<time>2016-05-20T23:11:46.203Z</time>
</trkpt>
<trkpt lat="-27.3575433" lon="152.8842753">
<ele>41.446</ele>
<time>2016-05-20T23:11:48.172Z</time>
</trkpt>
<trkpt lat="-27.3572434" lon="152.8840283">
<ele>40.538</ele>
<time>2016-05-20T23:11:50.187Z</time>
</trkpt>
<trkpt lat="-27.3569601" lon="152.8837776">
<ele>39.632</ele>
<time>2016-05-20T23:11:52.123Z</time>
</trkpt>
<trkpt lat="-27.3566544" lon="152.8835230">
<ele>39.062</ele>
<time>2016-05-20T23:11:54.135Z</time>
</trkpt>
<trkpt lat="-27.3562202" lon="152.8831103">
<ele>38.793</ele>
<time>2016-05-20T23:11:57.133Z</time>
</trkpt>
<trkpt lat="-27.3558263" lon="152.8826463">
<ele>38.594</ele>
<time>2016-05-20T23:12:00.170Z</time>
</trkpt>
<trkpt lat="-27.3555594" lon="152.8823421">
<ele>38.320</ele>
<time>2016-05-20T23:12:02.242Z</time>
</trkpt>
<trkpt lat="-27.3551559" lon="152.8819024">
<ele>38.042</ele>
<time>2016-05-20T23:12:05.294Z</time>
</trkpt>
<trkpt lat="-27.3547202" lon="152.8815244">
<ele>37.868</ele>
<time>2016-05-20T23:12:08.255Z</time>
</trkpt>
<trkpt lat="-27.3543945" lon="152.8813274">
<ele>37.817</ele>
<time>2016-05-20T23:12:10.233Z</time>
</trkpt>
<trkpt lat="-27.3540443" lon="152.8811652">
<ele>37.870</ele>
<time>2016-05-20T23:12:12.283Z</time>
</trkpt>
<trkpt lat="-27.3536969" lon="152.8810575">
<ele>37.917</ele>
<time>2016-05-20T23:12:14.262Z</time>
</trkpt>
<trkpt lat="-27.3533392" lon="152.8810106">
<ele>37.877</ele>
<time>2016-05-20T23:12:16.235Z</time>
</trkpt>
<trkpt lat="-27.3527823" lon="152.8810111">
<ele>37.800</ele>
<time>2016-05-20T23:12:19.295Z</time>
</trkpt>
<trkpt lat="-27.3522423" lon="152.8810995">
<ele>38.081</ele>
<time>2016-05-20T23:12:22.357Z</time>
</trkpt>
<trkpt lat="-27.3517420" lon="152.8812609">
<ele>39.297</ele>
<time>2016-05-20T23:12:25.371Z</time>
</trkpt>
<trkpt lat="-27.3514302" lon="152.8813989">
<ele>41.603</ele>
<time>2016-05-20T23:12:27.349Z</time>
</trkpt>
<trkpt lat="-27.3511204" lon="152.8815246">
<ele>44.629</ele>
<time>2016-05-20T23:12:29.287Z</time>
</trkpt>
<trkpt lat="-27.3506516" lon="152.8817224">
<ele>48.197</ele>
<time>2016-05-20T23:12:32.206Z</time>
</trkpt>
<trkpt lat="-27.3503432" lon="152.8818562">
<ele>52.408</ele>
<time>2016-05-20T23:12:34.117Z</time>
</trkpt>
<trkpt lat="-27.3500139" lon="152.8819624">
<ele>56.981</ele>
<time>2016-05-20T23:12:36.122Z</time>
</trkpt>
<trkpt lat="-27.3495025" lon="152.8819923">
<ele>61.286</ele>
<time>2016-05-20T23:12:39.056Z</time>
</trkpt>
<trkpt lat="-27.3490018" lon="152.8817497">
<ele>65.280</ele>
<time>2016-05-20T23:12:42.047Z</time>
</trkpt>
<trkpt lat="-27.3487047" lon="152.8814797">
<ele>69.565</ele>
<time>2016-05-20T23:12:44.129Z</time>
</trkpt>
<trkpt lat="-27.3483102" lon="152.8810741">
<ele>73.985</ele>
<time>2016-05-20T23:12:47.062Z</time>
</trkpt>
<trkpt lat="-27.3480619" lon="152.8807828">
<ele>77.281</ele>
<time>2016-05-20T23:12:48.994Z</time>
</trkpt>
<trkpt lat="-27.3476965" lon="152.8803022">
<ele>79.057</ele>
<time>2016-05-20T23:12:52.006Z</time>
</trkpt>
<trkpt lat="-27.3474629" lon="152.8799614">
<ele>80.371</ele>
<time>2016-05-20T23:12:54.097Z</time>
</trkpt>
<trkpt lat="-27.3471033" lon="152.8794998">
<ele>82.042</ele>
<time>2016-05-20T23:12:57.188Z</time>
</trkpt>
<trkpt lat="-27.3467646" lon="152.8790694">
<ele>83.865</ele>
<time>2016-05-20T23:13:00.244Z</time>
</trkpt>
<trkpt lat="-27.3464562" lon="152.8786271">
<ele>85.479</ele>
<time>2016-05-20T23:13:03.309Z</time>
</trkpt>
<trkpt lat="-27.3462440" lon="152.8781364">
<ele>86.865</ele>
<time>2016-05-20T23:13:06.212Z</time>
</trkpt>
<trkpt lat="-27.3461721" lon="152.8775661">
<ele>87.922</ele>
<time>2016-05-20T23:13:09.151Z</time>
</trkpt>
<trkpt lat="-27.3460000" lon="152.8769927">
<ele>88.439</ele>
<time>2016-05-20T23:13:12.178Z</time>
</trkpt>
<trkpt lat="-27.3458694" lon="152.8766136">
<ele>88.437</ele>
<time>2016-05-20T23:13:14.238Z</time>
</trkpt>
<trkpt lat="-27.3456605" lon="152.8760903">
<ele>87.908</ele>
<time>2016-05-20T23:13:17.215Z</time>
</trkpt>
<trkpt lat="-27.3454610" lon="152.8755681">
<ele>86.648</ele>
<time>2016-05-20T23:13:20.248Z</time>
</trkpt>
<trkpt lat="-27.3453364" lon="152.8752351">
<ele>84.909</ele>
<time>2016-05-20T23:13:22.202Z</time>
</trkpt>
<trkpt lat="-27.3452169" lon="152.8747093">
<ele>83.557</ele>
<time>2016-05-20T23:13:25.105Z</time>
</trkpt>
<trkpt lat="-27.3451839" lon="152.8743255">
<ele>83.080</ele>
<time>2016-05-20T23:13:27.118Z</time>
</trkpt>
<trkpt lat="-27.3450226" lon="152.8737704">
<ele>83.168</ele>
<time>2016-05-20T23:13:30.054Z</time>
</trkpt>
<trkpt lat="-27.3446494" lon="152.8733046">
<ele>83.131</ele>
<time>2016-05-20T23:13:32.996Z</time>
</trkpt>
<trkpt lat="-27.3443163" lon="152.8730423">
<ele>82.434</ele>
<time>2016-05-20T23:13:35.016Z</time>
</trkpt>
<trkpt lat="-27.3439855" lon="152.8727872">
<ele>81.279</ele>
<time>2016-05-20T23:13:37.001Z</time>
</trkpt>
<trkpt lat="-27.3436235" lon="152.8725457">
<ele>79.902</ele>
<time>2016-05-20T23:13:39.155Z</time>
</trkpt>
<trkpt lat="-27.3431469" lon="152.8722016">
<ele>78.357</ele>
<time>2016-05-20T23:13:42.162Z</time>
</trkpt>
<trkpt lat="-27.3428306" lon="152.8719923">
<ele>78.012</ele>
<time>2016-05-20T23:13:44.155Z</time>
</trkpt>
<trkpt lat="-27.3424836" lon="152.8718536">
<ele>79.763</ele>
<time>2016-05-20T23:13:46.106Z</time>
</trkpt>
<trkpt lat="-27.3419097" lon="152.8717752">
<ele>82.119</ele>
<time>2016-05-20T23:13:49.152Z</time>
</trkpt>
<trkpt lat="-27.3415353" lon="152.8717374">
<ele>83.559</ele>
<time>2016-05-20T23:13:51.182Z</time>
</trkpt>
<trkpt lat="-27.3411765" lon="152.8717014">
<ele>83.873</ele>
<time>2016-05-20T23:13:53.139Z</time>
</trkpt>
<trkpt lat="-27.3408158" lon="152.8716624">
<ele>82.854</ele>
<time>2016-05-20T23:13:55.075Z</time>
</trkpt>
<trkpt lat="-27.3402571" lon="152.8715922">
<ele>80.720</ele>
<time>2016-05-20T23:13:58.001Z</time>
</trkpt>
<trkpt lat="-27.3396646" lon="152.8715785">
<ele>78.567</ele>
<time>2016-05-20T23:14:00.964Z</time>
</trkpt>
<trkpt lat="-27.3392550" lon="152.8715656">
<ele>77.330</ele>
<time>2016-05-20T23:14:02.949Z</time>
</trkpt>
<trkpt lat="-27.3388333" lon="152.8715558">
<ele>76.978</ele>
<time>2016-05-20T23:14:05.001Z</time>
</trkpt>
<trkpt lat="-27.3382221" lon="152.8715251">
<ele>77.133</ele>
<time>2016-05-20T23:14:08.008Z</time>
</trkpt>
<trkpt lat="-27.3378148" lon="152.8715063">
<ele>77.532</ele>
<time>2016-05-20T23:14:10.042Z</time>
</trkpt>
<trkpt lat="-27.3374198" lon="152.8714896">
<ele>78.019</ele>
<time>2016-05-20T23:14:12.072Z</time>
</trkpt>
<trkpt lat="-27.3370413" lon="152.8714849">
<ele>78.526</ele>
<time>2016-05-20T23:14:14.101Z</time>
</trkpt>
<trkpt lat="-27.3364930" lon="152.8714661">
<ele>79.011</ele>
<time>2016-05-20T23:14:17.045Z</time>
</trkpt>
<trkpt lat="-27.3359374" lon="152.8715427">
<ele>79.387</ele>
<time>2016-05-20T23:14:20.002Z</time>
</trkpt>
<trkpt lat="-27.3355638" lon="152.8716362">
<ele>79.577</ele>
<time>2016-05-20T23:14:21.995Z</time>
</trkpt>
<trkpt lat="-27.3350046" lon="152.8717767">
<ele>79.499</ele>
<time>2016-05-20T23:14:24.964Z</time>
</trkpt>
<trkpt lat="-27.3346285" lon="152.8718555">
<ele>78.883</ele>
<time>2016-05-20T23:14:26.927Z</time>
</trkpt>
<trkpt lat="-27.3342379" lon="152.8718855">
<ele>77.221</ele>
<time>2016-05-20T23:14:28.893Z</time>
</trkpt>
<trkpt lat="-27.3336431" lon="152.8717514">
<ele>74.072</ele>
<time>2016-05-20T23:14:31.817Z</time>
</trkpt>
<trkpt lat="-27.3332484" lon="152.8715344">
<ele>69.464</ele>
<time>2016-05-20T23:14:33.799Z</time>
</trkpt>
<trkpt lat="-27.3327572" lon="152.8710058">
<ele>64.307</ele>
<time>2016-05-20T23:14:36.746Z</time>
</trkpt>
<trkpt lat="-27.3324311" lon="152.8702818">
<ele>60.261</ele>
<time>2016-05-20T23:14:39.764Z</time>
</trkpt>
<trkpt lat="-27.3322819" lon="152.8697727">
<ele>59.527</ele>
<time>2016-05-20T23:14:41.858Z</time>
</trkpt>
<trkpt lat="-27.3321258" lon="152.8693363">
<ele>62.766</ele>
<time>2016-05-20T23:14:43.896Z</time>
</trkpt>
<trkpt lat="-27.3318395" lon="152.8687558">
<ele>67.435</ele>
<time>2016-05-20T23:14:46.892Z</time>
</trkpt>
<trkpt lat="-27.3316132" lon="152.8684052">
<ele>70.834</ele>
<time>2016-05-20T23:14:48.864Z</time>
</trkpt>
<trkpt lat="-27.3313276" lon="152.8680778">
<ele>72.726</ele>
<time>2016-05-20T23:14:50.939Z</time>
</trkpt>
<trkpt lat="-27.3308732" lon="152.8676593">
<ele>73.532</ele>
<time>2016-05-20T23:14:53.913Z</time>
</trkpt>
<trkpt lat="-27.3303711" lon="152.8673063">
<ele>73.257</ele>
<time>2016-05-20T23:14:56.862Z</time>
</trkpt>
<trkpt lat="-27.3300093" lon="152.8671199">
<ele>71.804</ele>
<time>2016-05-20T23:14:58.790Z</time>
</trkpt>
<trkpt lat="-27.3296164" lon="152.8669422">
<ele>69.486</ele>
<time>2016-05-20T23:15:00.735Z</time>
</trkpt>
<trkpt lat="-27.3289576" lon="152.8667999">
<ele>66.721</ele>
<time>2016-05-20T23:15:03.706Z</time>
</trkpt>
<trkpt lat="-27.3285038" lon="152.8667143">
<ele>63.953</ele>
<time>2016-05-20T23:15:05.710Z</time>
</trkpt>
<trkpt lat="-27.3278787" lon="152.8663982">
<ele>61.865</ele>
<time>2016-05-20T23:15:08.693Z</time>
</trkpt>
<trkpt lat="-27.3272989" lon="152.8659443">
<ele>60.785</ele>
<time>2016-05-20T23:15:11.729Z</time>
</trkpt>
<trkpt lat="-27.3269481" lon="152.8655795">
<ele>60.505</ele>
<time>2016-05-20T23:15:13.770Z</time>
</trkpt>
<trkpt lat="-27.3264822" lon="152.8650117">
<ele>60.746</ele>
<time>2016-05-20T23:15:16.773Z</time>
</trkpt>
<trkpt lat="-27.3260665" lon="152.8644740">
<ele>60.984</ele>
<time>2016-05-20T23:15:19.677Z</time>
</trkpt>
<trkpt lat="-27.3258033" lon="152.8641090">
<ele>60.804</ele>
<time>2016-05-20T23:15:21.703Z</time>
</trkpt>
<trkpt lat="-27.3254247" lon="152.8635781">
<ele>60.308</ele>
<time>2016-05-20T23:15:24.675Z</time>
</trkpt>
<trkpt lat="-27.3251680" lon="152.8632209">
<ele>59.883</ele>
<time>2016-05-20T23:15:26.651Z</time>
</trkpt>
<trkpt lat="-27.3247321" lon="152.8626872">
<ele>59.704</ele>
<time>2016-05-20T23:15:29.672Z</time>
</trkpt>
<trkpt lat="-27.3242213" lon="152.8622045">
<ele>60.194</ele>
<time>2016-05-20T23:15:32.696Z</time>
</trkpt>
<trkpt lat="-27.3238405" lon="152.8619529">
<ele>62.170</ele>
<time>2016-05-20T23:15:34.733Z</time>
</trkpt>
<trkpt lat="-27.3232613" lon="152.8616687">
<ele>65.180</ele>
<time>2016-05-20T23:15:37.690Z</time>
</trkpt>
<trkpt lat="-27.3226376" lon="152.8614550">
<ele>67.643</ele>
<time>2016-05-20T23:15:40.729Z</time>
</trkpt>
<trkpt lat="-27.3219887" lon="152.8612925">
<ele>69.026</ele>
<time>2016-05-20T23:15:43.754Z</time>
</trkpt>
<trkpt lat="-27.3215479" lon="152.8611828">
<ele>69.829</ele>
<time>2016-05-20T23:15:45.792Z</time>
</trkpt>
<trkpt lat="-27.3209081" lon="152.8610240">
<ele>70.815</ele>
<time>2016-05-20T23:15:48.770Z</time>
</trkpt>
<trkpt lat="-27.3204821" lon="152.8609197">
<ele>72.552</ele>
<time>2016-05-20T23:15:50.725Z</time>
</trkpt>
<trkpt lat="-27.3200447" lon="152.8608119">
<ele>74.497</ele>
<time>2016-05-20T23:15:52.679Z</time>
</trkpt>
<trkpt lat="-27.3193600" lon="152.8606366">
<ele>76.031</ele>
<time>2016-05-20T23:15:55.697Z</time>
</trkpt>
<trkpt lat="-27.3186871" lon="152.8604461">
<ele>77.689</ele>
<time>2016-05-20T23:15:58.651Z</time>
</trkpt>
<trkpt lat="-27.3182318" lon="152.8603348">
<ele>79.710</ele>
<time>2016-05-20T23:16:00.645Z</time>
</trkpt>
<trkpt lat="-27.3175506" lon="152.8601251">
<ele>81.319</ele>
<time>2016-05-20T23:16:03.657Z</time>
</trkpt>
<trkpt lat="-27.3171205" lon="152.8599048">
<ele>82.151</ele>
<time>2016-05-20T23:16:05.634Z</time>
</trkpt>
<trkpt lat="-27.3165108" lon="152.8594672">
<ele>82.613</ele>
<time>2016-05-20T23:16:08.604Z</time>
</trkpt>
<trkpt lat="-27.3159837" lon="152.8588858">
<ele>83.516</ele>
<time>2016-05-20T23:16:11.546Z</time>
</trkpt>
<trkpt lat="-27.3156596" lon="152.8584284">
<ele>85.261</ele>
<time>2016-05-20T23:16:13.575Z</time>
</trkpt>
<trkpt lat="-27.3151312" lon="152.8578107">
<ele>87.054</ele>
<time>2016-05-20T23:16:16.580Z</time>
</trkpt>
<trkpt lat="-27.3147404" lon="152.8574817">
<ele>87.675</ele>
<time>2016-05-20T23:16:18.551Z</time>
</trkpt>
<trkpt lat="-27.3140774" lon="152.8571046">
<ele>86.951</ele>
<time>2016-05-20T23:16:21.543Z</time>
</trkpt>
<trkpt lat="-27.3135949" lon="152.8569206">
<ele>85.732</ele>
<time>2016-05-20T23:16:23.550Z</time>
</trkpt>
<trkpt lat="-27.3128540" lon="152.8566153">
<ele>84.903</ele>
<time>2016-05-20T23:16:26.620Z</time>
</trkpt>
<trkpt lat="-27.3123877" lon="152.8563416">
<ele>84.591</ele>
<time>2016-05-20T23:16:28.646Z</time>
</trkpt>
<trkpt lat="-27.3119505" lon="152.8560290">
<ele>84.287</ele>
<time>2016-05-20T23:16:30.637Z</time>
</trkpt>
<trkpt lat="-27.3115630" lon="152.8556420">
<ele>83.586</ele>
<time>2016-05-20T23:16:32.641Z</time>
</trkpt>
<trkpt lat="-27.3110763" lon="152.8549825">
<ele>82.177</ele>
<time>2016-05-20T23:16:35.602Z</time>
</trkpt>
<trkpt lat="-27.3108185" lon="152.8544939">
<ele>80.053</ele>
<time>2016-05-20T23:16:37.580Z</time>
</trkpt>
<trkpt lat="-27.3105268" lon="152.8537091">
<ele>77.601</ele>
<time>2016-05-20T23:16:40.564Z</time>
</trkpt>
<trkpt lat="-27.3104019" lon="152.8531581">
<ele>75.079</ele>
<time>2016-05-20T23:16:42.575Z</time>
</trkpt>
<trkpt lat="-27.3103518" lon="152.8526017">
<ele>72.388</ele>
<time>2016-05-20T23:16:44.564Z</time>
</trkpt>
<trkpt lat="-27.3103489" lon="152.8520541">
<ele>69.316</ele>
<time>2016-05-20T23:16:46.514Z</time>
</trkpt>
<trkpt lat="-27.3104503" lon="152.8512191">
<ele>65.830</ele>
<time>2016-05-20T23:16:49.515Z</time>
</trkpt>
<trkpt lat="-27.3105730" lon="152.8506773">
<ele>62.674</ele>
<time>2016-05-20T23:16:51.497Z</time>
</trkpt>
<trkpt lat="-27.3107263" lon="152.8501406">
<ele>60.592</ele>
<time>2016-05-20T23:16:53.486Z</time>
</trkpt>
<trkpt lat="-27.3109129" lon="152.8493163">
<ele>59.677</ele>
<time>2016-05-20T23:16:56.513Z</time>
</trkpt>
<trkpt lat="-27.3110513" lon="152.8485172">
<ele>59.551</ele>
<time>2016-05-20T23:16:59.481Z</time>
</trkpt>
<trkpt lat="-27.3110900" lon="152.8479902">
<ele>59.471</ele>
<time>2016-05-20T23:17:01.460Z</time>
</trkpt>
<trkpt lat="-27.3110750" lon="152.8474609">
<ele>58.994</ele>
<time>2016-05-20T23:17:03.463Z</time>
</trkpt>
<trkpt lat="-27.3109779" lon="152.8466822">
<ele>58.354</ele>
<time>2016-05-20T23:17:06.509Z</time>
</trkpt>
<trkpt lat="-27.3107901" lon="152.8459841">
<ele>57.895</ele>
<time>2016-05-20T23:17:09.463Z</time>
</trkpt>
<trkpt lat="-27.3105406" lon="152.8453266">
<ele>57.670</ele>
<time>2016-05-20T23:17:12.413Z</time>
</trkpt>
<trkpt lat="-27.3103170" lon="152.8448939">
<ele>57.686</ele>
<time>2016-05-20T23:17:14.418Z</time>
</trkpt>
<trkpt lat="-27.3099044" lon="152.8442762">
<ele>58.442</ele>
<time>2016-05-20T23:17:17.451Z</time>
</trkpt>
<trkpt lat="-27.3095848" lon="152.8439027">
<ele>60.649</ele>
<time>2016-05-20T23:17:19.469Z</time>
</trkpt>
<trkpt lat="-27.3090583" lon="152.8434196">
<ele>63.626</ele>
<time>2016-05-20T23:17:22.502Z</time>
</trkpt>
<trkpt lat="-27.3085137" lon="152.8430423">
<ele>65.599</ele>
<time>2016-05-20T23:17:25.473Z</time>
</trkpt>
<trkpt lat="-27.3079406" lon="152.8427586">
<ele>65.778</ele>
<time>2016-05-20T23:17:28.410Z</time>
</trkpt>
<trkpt lat="-27.3075105" lon="152.8426020">
<ele>64.649</ele>
<time>2016-05-20T23:17:30.404Z</time>
</trkpt>
<trkpt lat="-27.3067894" lon="152.8424622">
<ele>62.700</ele>
<time>2016-05-20T23:17:33.492Z</time>
</trkpt>
<trkpt lat="-27.3060462" lon="152.8424629">
<ele>60.165</ele>
<time>2016-05-20T23:17:36.577Z</time>
</trkpt>
<trkpt lat="-27.3053546" lon="152.8425590">
<ele>57.765</ele>
<time>2016-05-20T23:17:39.522Z</time>
</trkpt>
<trkpt lat="-27.3048972" lon="152.8426537">
<ele>56.800</ele>
<time>2016-05-20T23:17:41.521Z</time>
</trkpt>
<trkpt lat="-27.3042177" lon="152.8427803">
<ele>58.346</ele>
<time>2016-05-20T23:17:44.524Z</time>
</trkpt>
<trkpt lat="-27.3035561" lon="152.8428998">
<ele>61.664</ele>
<time>2016-05-20T23:17:47.535Z</time>
</trkpt>
<trkpt lat="-27.3029224" lon="152.8430449">
<ele>64.012</ele>
<time>2016-05-20T23:17:50.531Z</time>
</trkpt>
<trkpt lat="-27.3025045" lon="152.8431358">
<ele>63.563</ele>
<time>2016-05-20T23:17:52.529Z</time>
</trkpt>
<trkpt lat="-27.3020872" lon="152.8432357">
<ele>60.821</ele>
<time>2016-05-20T23:17:54.498Z</time>
</trkpt>
<trkpt lat="-27.3014312" lon="152.8433722">
<ele>57.263</ele>
<time>2016-05-20T23:17:57.486Z</time>
</trkpt>
<trkpt lat="-27.3009796" lon="152.8434443">
<ele>53.574</ele>
<time>2016-05-20T23:17:59.477Z</time>
</trkpt>
<trkpt lat="-27.3002993" lon="152.8434472">
<ele>50.009</ele>
<time>2016-05-20T23:18:02.405Z</time>
</trkpt>
<trkpt lat="-27.2998154" lon="152.8433810">
<ele>47.230</ele>
<time>2016-05-20T23:18:04.491Z</time>
</trkpt>
<trkpt lat="-27.2991211" lon="152.8432266">
<ele>45.549</ele>
<time>2016-05-20T23:18:07.584Z</time>
</trkpt>
<trkpt lat="-27.2986915" lon="152.8431310">
<ele>44.051</ele>
<time>2016-05-20T23:18:09.545Z</time>
</trkpt>
<trkpt lat="-27.2982486" lon="152.8430378">
<ele>42.263</ele>
<time>2016-05-20T23:18:11.555Z</time>
</trkpt>
<trkpt lat="-27.2978168" lon="152.8429519">
<ele>40.887</ele>
<time>2016-05-20T23:18:13.494Z</time>
</trkpt>
<trkpt lat="-27.2971444" lon="152.8428089">
<ele>40.691</ele>
<time>2016-05-20T23:18:16.495Z</time>
</trkpt>
<trkpt lat="-27.2964499" lon="152.8426606">
<ele>41.663</ele>
<time>2016-05-20T23:18:19.556Z</time>
</trkpt>
<trkpt lat="-27.2959861" lon="152.8425652">
<ele>42.998</ele>
<time>2016-05-20T23:18:21.558Z</time>
</trkpt>
<trkpt lat="-27.2955089" lon="152.8424568">
<ele>43.663</ele>
<time>2016-05-20T23:18:23.605Z</time>
</trkpt>
<trkpt lat="-27.2948245" lon="152.8423321">
<ele>43.582</ele>
<time>2016-05-20T23:18:26.508Z</time>
</trkpt>
<trkpt lat="-27.2943455" lon="152.8422435">
<ele>43.047</ele>
<time>2016-05-20T23:18:28.505Z</time>
</trkpt>
<trkpt lat="-27.2936064" lon="152.8421617">
<ele>42.165</ele>
<time>2016-05-20T23:18:31.534Z</time>
</trkpt>
<trkpt lat="-27.2931114" lon="152.8421320">
<ele>41.552</ele>
<time>2016-05-20T23:18:33.552Z</time>
</trkpt>
<trkpt lat="-27.2926239" lon="152.8421505">
<ele>41.626</ele>
<time>2016-05-20T23:18:35.527Z</time>
</trkpt>
<trkpt lat="-27.2918970" lon="152.8422338">
<ele>42.022</ele>
<time>2016-05-20T23:18:38.487Z</time>
</trkpt>
<trkpt lat="-27.2914018" lon="152.8423164">
<ele>42.206</ele>
<time>2016-05-20T23:18:40.536Z</time>
</trkpt>
<trkpt lat="-27.2906950" lon="152.8424937">
<ele>41.999</ele>
<time>2016-05-20T23:18:43.493Z</time>
</trkpt>
<trkpt lat="-27.2899695" lon="152.8426466">
<ele>41.652</ele>
<time>2016-05-20T23:18:46.466Z</time>
</trkpt>
<trkpt lat="-27.2894697" lon="152.8427684">
<ele>41.606</ele>
<time>2016-05-20T23:18:48.503Z</time>
</trkpt>
<trkpt lat="-27.2887346" lon="152.8429420">
<ele>42.135</ele>
<time>2016-05-20T23:18:51.509Z</time>
</trkpt>
<trkpt lat="-27.2882588" lon="152.8430625">
<ele>43.037</ele>
<time>2016-05-20T23:18:53.471Z</time>
</trkpt>
<trkpt lat="-27.2877741" lon="152.8431669">
<ele>44.090</ele>
<time>2016-05-20T23:18:55.463Z</time>
</trkpt>
<trkpt lat="-27.2870476" lon="152.8433451">
<ele>45.348</ele>
<time>2016-05-20T23:18:58.476Z</time>
</trkpt>
<trkpt lat="-27.2865641" lon="152.8434741">
<ele>46.544</ele>
<time>2016-05-20T23:19:00.455Z</time>
</trkpt>
<trkpt lat="-27.2858307" lon="152.8437359">
<ele>47.208</ele>
<time>2016-05-20T23:19:03.451Z</time>
</trkpt>
<trkpt lat="-27.2851048" lon="152.8440592">
<ele>47.309</ele>
<time>2016-05-20T23:19:06.386Z</time>
</trkpt>
<trkpt lat="-27.2846033" lon="152.8443231">
<ele>47.391</ele>
<time>2016-05-20T23:19:08.450Z</time>
</trkpt>
<trkpt lat="-27.2838937" lon="152.8447011">
<ele>47.696</ele>
<time>2016-05-20T23:19:11.500Z</time>
</trkpt>
<trkpt lat="-27.2834779" lon="152.8449284">
<ele>47.779</ele>
<time>2016-05-20T23:19:13.433Z</time>
</trkpt>
<trkpt lat="-27.2828449" lon="152.8452579">
<ele>47.074</ele>
<time>2016-05-20T23:19:16.419Z</time>
</trkpt>
<trkpt lat="-27.2822198" lon="152.8455966">
<ele>45.684</ele>
<time>2016-05-20T23:19:19.435Z</time>
</trkpt>
<trkpt lat="-27.2816060" lon="152.8459385">
<ele>44.575</ele>
<time>2016-05-20T23:19:22.418Z</time>
</trkpt>
<trkpt lat="-27.2811906" lon="152.8461536">
<ele>44.483</ele>
<time>2016-05-20T23:19:24.371Z</time>
</trkpt>
<trkpt lat="-27.2807503" lon="152.8463763">
<ele>44.917</ele>
<time>2016-05-20T23:19:26.368Z</time>
</trkpt>
<trkpt lat="-27.2803089" lon="152.8466287">
<ele>45.475</ele>
<time>2016-05-20T23:19:28.396Z</time>
</trkpt>
<trkpt lat="-27.2796588" lon="152.8469761">
<ele>46.389</ele>
<time>2016-05-20T23:19:31.353Z</time>
</trkpt>
<trkpt lat="-27.2790096" lon="152.8473182">
<ele>47.681</ele>
<time>2016-05-20T23:19:34.288Z</time>
</trkpt>
<trkpt lat="-27.2785523" lon="152.8475614">
<ele>49.417</ele>
<time>2016-05-20T23:19:36.332Z</time>
</trkpt>
<trkpt lat="-27.2778785" lon="152.8479074">
<ele>51.740</ele>
<time>2016-05-20T23:19:39.324Z</time>
</trkpt>
<trkpt lat="-27.2774225" lon="152.8481320">
<ele>54.022</ele>
<time>2016-05-20T23:19:41.322Z</time>
</trkpt>
<trkpt lat="-27.2766999" lon="152.8484534">
<ele>55.499</ele>
<time>2016-05-20T23:19:44.425Z</time>
</trkpt>
<trkpt lat="-27.2762424" lon="152.8486368">
<ele>56.097</ele>
<time>2016-05-20T23:19:46.373Z</time>
</trkpt>
<trkpt lat="-27.2757755" lon="152.8488112">
<ele>55.937</ele>
<time>2016-05-20T23:19:48.335Z</time>
</trkpt>
<trkpt lat="-27.2750500" lon="152.8490424">
<ele>55.302</ele>
<time>2016-05-20T23:19:51.310Z</time>
</trkpt>
<trkpt lat="-27.2742929" lon="152.8492504">
<ele>54.407</ele>
<time>2016-05-20T23:19:54.345Z</time>
</trkpt>
<trkpt lat="-27.2737915" lon="152.8493764">
<ele>53.133</ele>
<time>2016-05-20T23:19:56.364Z</time>
</trkpt>
<trkpt lat="-27.2732967" lon="152.8494767">
<ele>51.476</ele>
<time>2016-05-20T23:19:58.398Z</time>
</trkpt>
<trkpt lat="-27.2725915" lon="152.8496356">
<ele>49.791</ele>
<time>2016-05-20T23:20:01.353Z</time>
</trkpt>
<trkpt lat="-27.2721182" lon="152.8497222">
<ele>48.541</ele>
<time>2016-05-20T23:20:03.325Z</time>
</trkpt>
<trkpt lat="-27.2716430" lon="152.8498098">
<ele>48.340</ele>
<time>2016-05-20T23:20:05.306Z</time>
</trkpt>
<trkpt lat="-27.2709267" lon="152.8499500">
<ele>49.240</ele>
<time>2016-05-20T23:20:08.304Z</time>
</trkpt>
<trkpt lat="-27.2704494" lon="152.8500399">
<ele>50.175</ele>
<time>2016-05-20T23:20:10.297Z</time>
</trkpt>
<trkpt lat="-27.2699713" lon="152.8501233">
<ele>50.302</ele>
<time>2016-05-20T23:20:12.258Z</time>
</trkpt>
<trkpt lat="-27.2692330" lon="152.8502564">
<ele>50.135</ele>
<time>2016-05-20T23:20:15.225Z</time>
</trkpt>
<trkpt lat="-27.2687193" lon="152.8503549">
<ele>50.916</ele>
<time>2016-05-20T23:20:17.239Z</time>
</trkpt>
<trkpt lat="-27.2681996" lon="152.8504483">
<ele>53.051</ele>
<time>2016-05-20T23:20:19.283Z</time>
</trkpt>
<trkpt lat="-27.2674461" lon="152.8505852">
<ele>55.422</ele>
<time>2016-05-20T23:20:22.290Z</time>
</trkpt>
<trkpt lat="-27.2667025" lon="152.8507280">
<ele>57.023</ele>
<time>2016-05-20T23:20:25.282Z</time>
</trkpt>
<trkpt lat="-27.2661948" lon="152.8508207">
<ele>57.920</ele>
<time>2016-05-20T23:20:27.304Z</time>
</trkpt>
<trkpt lat="-27.2656877" lon="152.8509197">
<ele>58.317</ele>
<time>2016-05-20T23:20:29.342Z</time>
</trkpt>
<trkpt lat="-27.2649438" lon="152.8510554">
<ele>58.332</ele>
<time>2016-05-20T23:20:32.390Z</time>
</trkpt>
<trkpt lat="-27.2644895" lon="152.8511310">
<ele>58.167</ele>
<time>2016-05-20T23:20:34.353Z</time>
</trkpt>
<trkpt lat="-27.2638209" lon="152.8512404">
<ele>57.536</ele>
<time>2016-05-20T23:20:37.292Z</time>
</trkpt>
<trkpt lat="-27.2633591" lon="152.8513169">
<ele>55.787</ele>
<time>2016-05-20T23:20:39.295Z</time>
</trkpt>
<trkpt lat="-27.2628892" lon="152.8514112">
<ele>52.976</ele>
<time>2016-05-20T23:20:41.311Z</time>
</trkpt>
<trkpt lat="-27.2622048" lon="152.8515579">
<ele>49.936</ele>
<time>2016-05-20T23:20:44.231Z</time>
</trkpt>
<trkpt lat="-27.2617183" lon="152.8516434">
<ele>47.468</ele>
<time>2016-05-20T23:20:46.245Z</time>
</trkpt>
<trkpt lat="-27.2612200" lon="152.8517165">
<ele>45.812</ele>
<time>2016-05-20T23:20:48.277Z</time>
</trkpt>
<trkpt lat="-27.2604912" lon="152.8517440">
<ele>44.581</ele>
<time>2016-05-20T23:20:51.261Z</time>
</trkpt>
<trkpt lat="-27.2597683" lon="152.8517135">
<ele>43.552</ele>
<time>2016-05-20T23:20:54.282Z</time>
</trkpt>
<trkpt lat="-27.2592954" lon="152.8516480">
<ele>42.961</ele>
<time>2016-05-20T23:20:56.280Z</time>
</trkpt>
<trkpt lat="-27.2588209" lon="152.8515502">
<ele>43.095</ele>
<time>2016-05-20T23:20:58.340Z</time>
</trkpt>
<trkpt lat="-27.2581707" lon="152.8513333">
<ele>43.970</ele>
<time>2016-05-20T23:21:01.333Z</time>
</trkpt>
<trkpt lat="-27.2577421" lon="152.8511612">
<ele>45.128</ele>
<time>2016-05-20T23:21:03.342Z</time>
</trkpt>
<trkpt lat="-27.2571009" lon="152.8508611">
<ele>45.987</ele>
<time>2016-05-20T23:21:06.414Z</time>
</trkpt>
<trkpt lat="-27.2565092" lon="152.8505122">
<ele>46.420</ele>
<time>2016-05-20T23:21:09.473Z</time>
</trkpt>
<trkpt lat="-27.2559790" lon="152.8501434">
<ele>46.602</ele>
<time>2016-05-20T23:21:12.457Z</time>
</trkpt>
<trkpt lat="-27.2556464" lon="152.8498709">
<ele>46.496</ele>
<time>2016-05-20T23:21:14.448Z</time>
</trkpt>
<trkpt lat="-27.2553113" lon="152.8495766">
<ele>46.041</ele>
<time>2016-05-20T23:21:16.504Z</time>
</trkpt>
<trkpt lat="-27.2548546" lon="152.8491061">
<ele>45.555</ele>
<time>2016-05-20T23:21:19.512Z</time>
</trkpt>
<trkpt lat="-27.2544307" lon="152.8485994">
<ele>45.112</ele>
<time>2016-05-20T23:21:22.530Z</time>
</trkpt>
<trkpt lat="-27.2541525" lon="152.8482481">
<ele>44.301</ele>
<time>2016-05-20T23:21:24.554Z</time>
</trkpt>
<trkpt lat="-27.2538943" lon="152.8478847">
<ele>43.033</ele>
<time>2016-05-20T23:21:26.535Z</time>
</trkpt>
<trkpt lat="-27.2534900" lon="152.8473548">
<ele>41.810</ele>
<time>2016-05-20T23:21:29.486Z</time>
</trkpt>
<trkpt lat="-27.2530898" lon="152.8468005">
<ele>40.895</ele>
<time>2016-05-20T23:21:32.441Z</time>
</trkpt>
<trkpt lat="-27.2528023" lon="152.8464073">
<ele>40.384</ele>
<time>2016-05-20T23:21:34.450Z</time>
</trkpt>
<trkpt lat="-27.2523519" lon="152.8458032">
<ele>40.534</ele>
<time>2016-05-20T23:21:37.486Z</time>
</trkpt>
<trkpt lat="-27.2520565" lon="152.8453992">
<ele>41.144</ele>
<time>2016-05-20T23:21:39.475Z</time>
</trkpt>
<trkpt lat="-27.2517635" lon="152.8449807">
<ele>41.801</ele>
<time>2016-05-20T23:21:41.496Z</time>
</trkpt>
<trkpt lat="-27.2514811" lon="152.8445669">
<ele>42.442</ele>
<time>2016-05-20T23:21:43.471Z</time>
</trkpt>
<trkpt lat="-27.2512204" lon="152.8441409">
<ele>42.961</ele>
<time>2016-05-20T23:21:45.427Z</time>
</trkpt>
<trkpt lat="-27.2508783" lon="152.8434589">
<ele>43.422</ele>
<time>2016-05-20T23:21:48.395Z</time>
</trkpt>
<trkpt lat="-27.2506992" lon="152.8429712">
<ele>44.158</ele>
<time>2016-05-20T23:21:50.460Z</time>
</trkpt>
<trkpt lat="-27.2505020" lon="152.8422786">
<ele>45.429</ele>
<time>2016-05-20T23:21:53.385Z</time>
</trkpt>
<trkpt lat="-27.2503418" lon="152.8415799">
<ele>47.314</ele>
<time>2016-05-20T23:21:56.303Z</time>
</trkpt>
<trkpt lat="-27.2502531" lon="152.8410818">
<ele>49.775</ele>
<time>2016-05-20T23:21:58.301Z</time>
</trkpt>
<trkpt lat="-27.2501669" lon="152.8405761">
<ele>52.992</ele>
<time>2016-05-20T23:22:00.315Z</time>
</trkpt>
<trkpt lat="-27.2500244" lon="152.8398410">
<ele>56.782</ele>
<time>2016-05-20T23:22:03.251Z</time>
</trkpt>
<trkpt lat="-27.2499040" lon="152.8393408">
<ele>59.950</ele>
<time>2016-05-20T23:22:05.275Z</time>
</trkpt>
<trkpt lat="-27.2497382" lon="152.8388937">
<ele>61.473</ele>
<time>2016-05-20T23:22:07.225Z</time>
</trkpt>
<trkpt lat="-27.2495401" lon="152.8384719">
<ele>61.315</ele>
<time>2016-05-20T23:22:09.229Z</time>
</trkpt>
<trkpt lat="-27.2493453" lon="152.8380708">
<ele>59.829</ele>
<time>2016-05-20T23:22:11.181Z</time>
</trkpt>
<trkpt lat="-27.2489646" lon="152.8374998">
<ele>57.295</ele>
<time>2016-05-20T23:22:14.146Z</time>
</trkpt>
<trkpt lat="-27.2484895" lon="152.8369374">
<ele>54.461</ele>
<time>2016-05-20T23:22:17.197Z</time>
</trkpt>
<trkpt lat="-27.2481787" lon="152.8365706">
<ele>52.556</ele>
<time>2016-05-20T23:22:19.199Z</time>
</trkpt>
<trkpt lat="-27.2478823" lon="152.8362247">
<ele>52.033</ele>
<time>2016-05-20T23:22:21.155Z</time>
</trkpt>
<trkpt lat="-27.2475736" lon="152.8358903">
<ele>51.948</ele>
<time>2016-05-20T23:22:23.122Z</time>
</trkpt>
<trkpt lat="-27.2470907" lon="152.8353594">
<ele>51.499</ele>
<time>2016-05-20T23:22:26.176Z</time>
</trkpt>
<trkpt lat="-27.2467667" lon="152.8350142">
<ele>51.751</ele>
<time>2016-05-20T23:22:28.153Z</time>
</trkpt>
<trkpt lat="-27.2462388" lon="152.8345290">
<ele>54.013</ele>
<time>2016-05-20T23:22:31.145Z</time>
</trkpt>
<trkpt lat="-27.2458443" lon="152.8342544">
<ele>57.878</ele>
<time>2016-05-20T23:22:33.163Z</time>
</trkpt>
<trkpt lat="-27.2452214" lon="152.8339225">
<ele>62.032</ele>
<time>2016-05-20T23:22:36.166Z</time>
</trkpt>
<trkpt lat="-27.2445625" lon="152.8337368">
<ele>65.371</ele>
<time>2016-05-20T23:22:39.136Z</time>
</trkpt>
<trkpt lat="-27.2438700" lon="152.8336280">
<ele>67.302</ele>
<time>2016-05-20T23:22:42.173Z</time>
</trkpt>
<trkpt lat="-27.2431903" lon="152.8335009">
<ele>68.031</ele>
<time>2016-05-20T23:22:45.097Z</time>
</trkpt>
<trkpt lat="-27.2424838" lon="152.8332607">
<ele>68.133</ele>
<time>2016-05-20T23:22:48.109Z</time>
</trkpt>
<trkpt lat="-27.2417699" lon="152.8329547">
<ele>68.342</ele>
<time>2016-05-20T23:22:51.158Z</time>
</trkpt>
<trkpt lat="-27.2410701" lon="152.8326707">
<ele>69.301</ele>
<time>2016-05-20T23:22:54.159Z</time>
</trkpt>
<trkpt lat="-27.2405848" lon="152.8325548">
<ele>71.038</ele>
<time>2016-05-20T23:22:56.229Z</time>
</trkpt>
<trkpt lat="-27.2401239" lon="152.8324744">
<ele>72.721</ele>
<time>2016-05-20T23:22:58.205Z</time>
</trkpt>
<trkpt lat="-27.2394169" lon="152.8324708">
<ele>73.618</ele>
<time>2016-05-20T23:23:01.186Z</time>
</trkpt>
<trkpt lat="-27.2386863" lon="152.8324599">
<ele>73.826</ele>
<time>2016-05-20T23:23:04.177Z</time>
</trkpt>
<trkpt lat="-27.2379159" lon="152.8323512">
<ele>74.001</ele>
<time>2016-05-20T23:23:07.245Z</time>
</trkpt>
<trkpt lat="-27.2374191" lon="152.8322310">
<ele>75.046</ele>
<time>2016-05-20T23:23:09.233Z</time>
</trkpt>
<trkpt lat="-27.2366863" lon="152.8319828">
<ele>76.957</ele>
<time>2016-05-20T23:23:12.271Z</time>
</trkpt>
<trkpt lat="-27.2362466" lon="152.8317701">
<ele>79.108</ele>
<time>2016-05-20T23:23:14.273Z</time>
</trkpt>
<trkpt lat="-27.2358436" lon="152.8315735">
<ele>81.107</ele>
<time>2016-05-20T23:23:16.232Z</time>
</trkpt>
<trkpt lat="-27.2352691" lon="152.8312920">
<ele>82.321</ele>
<time>2016-05-20T23:23:19.142Z</time>
</trkpt>
<trkpt lat="-27.2348827" lon="152.8310903">
<ele>82.352</ele>
<time>2016-05-20T23:23:21.110Z</time>
</trkpt>
<trkpt lat="-27.2342571" lon="152.8307851">
<ele>82.075</ele>
<time>2016-05-20T23:23:24.135Z</time>
</trkpt>
<trkpt lat="-27.2338217" lon="152.8305976">
<ele>82.627</ele>
<time>2016-05-20T23:23:26.096Z</time>
</trkpt>
<trkpt lat="-27.2331162" lon="152.8303547">
<ele>84.097</ele>
<time>2016-05-20T23:23:29.170Z</time>
</trkpt>
<trkpt lat="-27.2326705" lon="152.8302293">
<ele>85.548</ele>
<time>2016-05-20T23:23:31.111Z</time>
</trkpt>
<trkpt lat="-27.2319769" lon="152.8300708">
<ele>86.250</ele>
<time>2016-05-20T23:23:34.080Z</time>
</trkpt>
<trkpt lat="-27.2314851" lon="152.8300019">
<ele>86.212</ele>
<time>2016-05-20T23:23:36.075Z</time>
</trkpt>
<trkpt lat="-27.2309769" lon="152.8299490">
<ele>85.706</ele>
<time>2016-05-20T23:23:38.090Z</time>
</trkpt>
<trkpt lat="-27.2302175" lon="152.8298906">
<ele>84.957</ele>
<time>2016-05-20T23:23:41.090Z</time>
</trkpt>
<trkpt lat="-27.2297156" lon="152.8298449">
<ele>84.069</ele>
<time>2016-05-20T23:23:43.070Z</time>
</trkpt>
<trkpt lat="-27.2292095" lon="152.8298144">
<ele>82.997</ele>
<time>2016-05-20T23:23:45.057Z</time>
</trkpt>
<trkpt lat="-27.2286882" lon="152.8297775">
<ele>81.765</ele>
<time>2016-05-20T23:23:47.116Z</time>
</trkpt>
<trkpt lat="-27.2279322" lon="152.8297464">
<ele>80.489</ele>
<time>2016-05-20T23:23:50.210Z</time>
</trkpt>
<trkpt lat="-27.2272625" lon="152.8297167">
<ele>78.925</ele>
<time>2016-05-20T23:23:53.082Z</time>
</trkpt>
<trkpt lat="-27.2265593" lon="152.8296896">
<ele>76.683</ele>
<time>2016-05-20T23:23:56.092Z</time>
</trkpt>
<trkpt lat="-27.2258286" lon="152.8297446">
<ele>74.269</ele>
<time>2016-05-20T23:23:59.139Z</time>
</trkpt>
<trkpt lat="-27.2251039" lon="152.8298632">
<ele>72.693</ele>
<time>2016-05-20T23:24:02.176Z</time>
</trkpt>
<trkpt lat="-27.2246417" lon="152.8299900">
<ele>71.870</ele>
<time>2016-05-20T23:24:04.138Z</time>
</trkpt>
<trkpt lat="-27.2239353" lon="152.8302257">
<ele>70.932</ele>
<time>2016-05-20T23:24:07.134Z</time>
</trkpt>
<trkpt lat="-27.2232445" lon="152.8305360">
<ele>69.691</ele>
<time>2016-05-20T23:24:10.120Z</time>
</trkpt>
<trkpt lat="-27.2225583" lon="152.8308777">
<ele>68.474</ele>
<time>2016-05-20T23:24:13.136Z</time>
</trkpt>
<trkpt lat="-27.2221130" lon="152.8310911">
<ele>66.628</ele>
<time>2016-05-20T23:24:15.097Z</time>
</trkpt>
<trkpt lat="-27.2214337" lon="152.8314142">
<ele>63.684</ele>
<time>2016-05-20T23:24:18.114Z</time>
</trkpt>
<trkpt lat="-27.2207989" lon="152.8317275">
<ele>60.558</ele>
<time>2016-05-20T23:24:21.005Z</time>
</trkpt>
<trkpt lat="-27.2203630" lon="152.8319389">
<ele>57.722</ele>
<time>2016-05-20T23:24:22.988Z</time>
</trkpt>
<trkpt lat="-27.2199187" lon="152.8321658">
<ele>55.062</ele>
<time>2016-05-20T23:24:25.000Z</time>
</trkpt>
<trkpt lat="-27.2192452" lon="152.8325122">
<ele>53.434</ele>
<time>2016-05-20T23:24:28.024Z</time>
</trkpt>
<trkpt lat="-27.2187935" lon="152.8327279">
<ele>53.230</ele>
<time>2016-05-20T23:24:30.023Z</time>
</trkpt>
<trkpt lat="-27.2180793" lon="152.8329993">
<ele>53.611</ele>
<time>2016-05-20T23:24:33.086Z</time>
</trkpt>
<trkpt lat="-27.2175978" lon="152.8331222">
<ele>53.824</ele>
<time>2016-05-20T23:24:35.085Z</time>
</trkpt>
<trkpt lat="-27.2168570" lon="152.8332593">
<ele>53.814</ele>
<time>2016-05-20T23:24:38.118Z</time>
</trkpt>
<trkpt lat="-27.2163600" lon="152.8332867">
<ele>53.765</ele>
<time>2016-05-20T23:24:40.141Z</time>
</trkpt>
<trkpt lat="-27.2156302" lon="152.8332534">
<ele>53.435</ele>
<time>2016-05-20T23:24:43.137Z</time>
</trkpt>
<trkpt lat="-27.2149189" lon="152.8331376">
<ele>52.137</ele>
<time>2016-05-20T23:24:46.114Z</time>
</trkpt>
<trkpt lat="-27.2144576" lon="152.8330376">
<ele>49.860</ele>
<time>2016-05-20T23:24:48.128Z</time>
</trkpt>
<trkpt lat="-27.2138333" lon="152.8328008">
<ele>47.612</ele>
<time>2016-05-20T23:24:51.054Z</time>
</trkpt>
<trkpt lat="-27.2132130" lon="152.8325531">
<ele>45.675</ele>
<time>2016-05-20T23:24:54.044Z</time>
</trkpt>
<trkpt lat="-27.2125823" lon="152.8323028">
<ele>43.745</ele>
<time>2016-05-20T23:24:57.096Z</time>
</trkpt>
<trkpt lat="-27.2121704" lon="152.8321414">
<ele>42.372</ele>
<time>2016-05-20T23:24:59.152Z</time>
</trkpt>
<trkpt lat="-27.2117835" lon="152.8319932">
<ele>42.076</ele>
<time>2016-05-20T23:25:01.217Z</time>
</trkpt>
<trkpt lat="-27.2112527" lon="152.8317969">
<ele>42.361</ele>
<time>2016-05-20T23:25:04.307Z</time>
</trkpt>
<trkpt lat="-27.2109547" lon="152.8316776">
<ele>42.365</ele>
<time>2016-05-20T23:25:06.324Z</time>
</trkpt>
<trkpt lat="-27.2105608" lon="152.8315049">
<ele>41.639</ele>
<time>2016-05-20T23:25:09.139Z</time>
</trkpt>
<trkpt lat="-27.2102819" lon="152.8313713">
<ele>40.604</ele>
<time>2016-05-20T23:25:11.120Z</time>
</trkpt>
<trkpt lat="-27.2099879" lon="152.8312307">
<ele>39.920</ele>
<time>2016-05-20T23:25:13.072Z</time>
</trkpt>
<trkpt lat="-27.2095086" lon="152.8309776">
<ele>40.089</ele>
<time>2016-05-20T23:25:16.117Z</time>
</trkpt>
<trkpt lat="-27.2090188" lon="152.8307068">
<ele>41.694</ele>
<time>2016-05-20T23:25:19.116Z</time>
</trkpt>
<trkpt lat="-27.2086807" lon="152.8305244">
<ele>44.329</ele>
<time>2016-05-20T23:25:21.174Z</time>
</trkpt>
<trkpt lat="-27.2082014" lon="152.8302489">
<ele>46.381</ele>
<time>2016-05-20T23:25:24.167Z</time>
</trkpt>
<trkpt lat="-27.2079007" lon="152.8300442">
<ele>46.964</ele>
<time>2016-05-20T23:25:26.108Z</time>
</trkpt>
<trkpt lat="-27.2075830" lon="152.8298363">
<ele>46.620</ele>
<time>2016-05-20T23:25:28.052Z</time>
</trkpt>
<trkpt lat="-27.2072468" lon="152.8295966">
<ele>46.180</ele>
<time>2016-05-20T23:25:30.097Z</time>
</trkpt>
<trkpt lat="-27.2067641" lon="152.8292135">
<ele>46.042</ele>
<time>2016-05-20T23:25:33.171Z</time>
</trkpt>
<trkpt lat="-27.2063209" lon="152.8289003">
<ele>45.782</ele>
<time>2016-05-20T23:25:36.050Z</time>
</trkpt>
<trkpt lat="-27.2058559" lon="152.8286487">
<ele>44.617</ele>
<time>2016-05-20T23:25:39.089Z</time>
</trkpt>
<trkpt lat="-27.2054543" lon="152.8283830">
<ele>42.697</ele>
<time>2016-05-20T23:25:41.935Z</time>
</trkpt>
<trkpt lat="-27.2051634" lon="152.8281692">
<ele>41.021</ele>
<time>2016-05-20T23:25:44.053Z</time>
</trkpt>
<trkpt lat="-27.2047752" lon="152.8278554">
<ele>40.041</ele>
<time>2016-05-20T23:25:47.020Z</time>
</trkpt>
<trkpt lat="-27.2043952" lon="152.8275409">
<ele>39.558</ele>
<time>2016-05-20T23:25:50.105Z</time>
</trkpt>
<trkpt lat="-27.2041676" lon="152.8273355">
<ele>39.335</ele>
<time>2016-05-20T23:25:52.140Z</time>
</trkpt>
<trkpt lat="-27.2038408" lon="152.8270339">
<ele>39.052</ele>
<time>2016-05-20T23:25:55.143Z</time>
</trkpt>
<trkpt lat="-27.2035082" lon="152.8267306">
<ele>38.512</ele>
<time>2016-05-20T23:25:58.187Z</time>
</trkpt>
<trkpt lat="-27.2031829" lon="152.8264328">
<ele>37.824</ele>
<time>2016-05-20T23:26:01.211Z</time>
</trkpt>
<trkpt lat="-27.2029662" lon="152.8262271">
<ele>37.171</ele>
<time>2016-05-20T23:26:03.270Z</time>
</trkpt>
<trkpt lat="-27.2026537" lon="152.8259297">
<ele>36.707</ele>
<time>2016-05-20T23:26:06.252Z</time>
</trkpt>
<trkpt lat="-27.2024558" lon="152.8257345">
<ele>36.525</ele>
<time>2016-05-20T23:26:08.301Z</time>
</trkpt>
<trkpt lat="-27.2022032" lon="152.8254697">
<ele>36.549</ele>
<time>2016-05-20T23:26:11.246Z</time>
</trkpt>
<trkpt lat="-27.2019490" lon="152.8252357">
<ele>36.535</ele>
<time>2016-05-20T23:26:14.490Z</time>
</trkpt>
<trkpt lat="-27.2017446" lon="152.8250446">
<ele>36.178</ele>
<time>2016-05-20T23:26:17.443Z</time>
</trkpt>
<trkpt lat="-27.2016168" lon="152.8249399">
<ele>35.416</ele>
<time>2016-05-20T23:26:19.185Z</time>
</trkpt>
<trkpt lat="-27.2014794" lon="152.8247976">
<ele>34.584</ele>
<time>2016-05-20T23:26:21.061Z</time>
</trkpt>
<trkpt lat="-27.2012131" lon="152.8245669">
<ele>34.173</ele>
<time>2016-05-20T23:26:24.195Z</time>
</trkpt>
<trkpt lat="-27.2010326" lon="152.8244157">
<ele>34.446</ele>
<time>2016-05-20T23:26:26.249Z</time>
</trkpt>
<trkpt lat="-27.2008652" lon="152.8242701">
<ele>35.195</ele>
<time>2016-05-20T23:26:28.209Z</time>
</trkpt>
<trkpt lat="-27.2006930" lon="152.8241267">
<ele>35.918</ele>
<time>2016-05-20T23:26:30.143Z</time>
</trkpt>
<trkpt lat="-27.2004398" lon="152.8238689">
<ele>36.296</ele>
<time>2016-05-20T23:26:33.150Z</time>
</trkpt>
<trkpt lat="-27.2001642" lon="152.8236375">
<ele>36.744</ele>
<time>2016-05-20T23:26:36.191Z</time>
</trkpt>
<trkpt lat="-27.1998513" lon="152.8235340">
<ele>37.692</ele>
<time>2016-05-20T23:26:39.151Z</time>
</trkpt>
<trkpt lat="-27.1996385" lon="152.8234931">
<ele>38.821</ele>
<time>2016-05-20T23:26:41.218Z</time>
</trkpt>
<trkpt lat="-27.1994597" lon="152.8234567">
<ele>39.639</ele>
<time>2016-05-20T23:26:43.197Z</time>
</trkpt>
<trkpt lat="-27.1992371" lon="152.8233783">
<ele>39.989</ele>
<time>2016-05-20T23:26:46.160Z</time>
</trkpt>
<trkpt lat="-27.1991202" lon="152.8233520">
<ele>39.882</ele>
<time>2016-05-20T23:26:48.004Z</time>
</trkpt>
<trkpt lat="-27.1989752" lon="152.8233141">
<ele>39.528</ele>
<time>2016-05-20T23:26:51.059Z</time>
</trkpt>
<trkpt lat="-27.1988700" lon="152.8232790">
<ele>39.163</ele>
<time>2016-05-20T23:26:54.000Z</time>
</trkpt>
<trkpt lat="-27.1988700" lon="152.8232790">
<ele>38.965</ele>
<time>2016-05-20T23:27:01.000Z</time>
</trkpt>
<trkpt lat="-27.1988700" lon="152.8232790">
<ele>38.966</ele>
<time>2016-05-20T23:28:08.246Z</time>
</trkpt>
<trkpt lat="-27.1986715" lon="152.8232706">
<ele>39.047</ele>
<time>2016-05-20T23:28:20.607Z</time>
</trkpt>
<trkpt lat="-27.1984964" lon="152.8232326">
<ele>40.721</ele>
<time>2016-05-20T23:28:23.566Z</time>
</trkpt>
<trkpt lat="-27.1983710" lon="152.8232135">
<ele>45.148</ele>
<time>2016-05-20T23:28:25.251Z</time>
</trkpt>
<trkpt lat="-27.1981376" lon="152.8231544">
<ele>49.990</ele>
<time>2016-05-20T23:28:28.112Z</time>
</trkpt>
<trkpt lat="-27.1979606" lon="152.8230926">
<ele>52.883</ele>
<time>2016-05-20T23:28:30.183Z</time>
</trkpt>
<trkpt lat="-27.1977878" lon="152.8230270">
<ele>54.301</ele>
<time>2016-05-20T23:28:32.201Z</time>
</trkpt>
<trkpt lat="-27.1976228" lon="152.8229447">
<ele>55.049</ele>
<time>2016-05-20T23:28:34.218Z</time>
</trkpt>
<trkpt lat="-27.1973795" lon="152.8228119">
<ele>55.445</ele>
<time>2016-05-20T23:28:37.578Z</time>
</trkpt>
<trkpt lat="-27.1971898" lon="152.8227064">
<ele>55.559</ele>
<time>2016-05-20T23:28:41.113Z</time>
</trkpt>
<trkpt lat="-27.1970630" lon="152.8227479">
<ele>55.170</ele>
<time>2016-05-20T23:28:43.371Z</time>
</trkpt>
<trkpt lat="-27.1969436" lon="152.8229398">
<ele>54.327</ele>
<time>2016-05-20T23:28:46.191Z</time>
</trkpt>
<trkpt lat="-27.1968163" lon="152.8231930">
<ele>53.418</ele>
<time>2016-05-20T23:28:49.173Z</time>
</trkpt>
<trkpt lat="-27.1966497" lon="152.8234546">
<ele>52.591</ele>
<time>2016-05-20T23:28:52.306Z</time>
</trkpt>
<trkpt lat="-27.1965531" lon="152.8236303">
<ele>51.801</ele>
<time>2016-05-20T23:28:54.323Z</time>
</trkpt>
<trkpt lat="-27.1964512" lon="152.8238049">
<ele>51.107</ele>
<time>2016-05-20T23:28:56.343Z</time>
</trkpt>
<trkpt lat="-27.1962894" lon="152.8240463">
<ele>50.558</ele>
<time>2016-05-20T23:28:59.151Z</time>
</trkpt>
<trkpt lat="-27.1961790" lon="152.8242344">
<ele>50.361</ele>
<time>2016-05-20T23:29:01.179Z</time>
</trkpt>
<trkpt lat="-27.1960709" lon="152.8244254">
<ele>50.660</ele>
<time>2016-05-20T23:29:03.374Z</time>
</trkpt>
<trkpt lat="-27.1959802" lon="152.8246118">
<ele>51.248</ele>
<time>2016-05-20T23:29:05.685Z</time>
</trkpt>
<trkpt lat="-27.1959090" lon="152.8248535">
<ele>51.814</ele>
<time>2016-05-20T23:29:08.474Z</time>
</trkpt>
<trkpt lat="-27.1958859" lon="152.8251336">
<ele>52.159</ele>
<time>2016-05-20T23:29:11.317Z</time>
</trkpt>
<trkpt lat="-27.1958738" lon="152.8253464">
<ele>52.351</ele>
<time>2016-05-20T23:29:13.501Z</time>
</trkpt>
<trkpt lat="-27.1958691" lon="152.8256218">
<ele>52.570</ele>
<time>2016-05-20T23:29:16.595Z</time>
</trkpt>
<trkpt lat="-27.1957632" lon="152.8258406">
<ele>52.769</ele>
<time>2016-05-20T23:29:19.290Z</time>
</trkpt>
<trkpt lat="-27.1956160" lon="152.8259397">
<ele>52.849</ele>
<time>2016-05-20T23:29:20.983Z</time>
</trkpt>
<trkpt lat="-27.1952882" lon="152.8260046">
<ele>52.946</ele>
<time>2016-05-20T23:29:23.924Z</time>
</trkpt>
<trkpt lat="-27.1950478" lon="152.8260527">
<ele>53.336</ele>
<time>2016-05-20T23:29:25.751Z</time>
</trkpt>
<trkpt lat="-27.1946352" lon="152.8261611">
<ele>54.067</ele>
<time>2016-05-20T23:29:28.719Z</time>
</trkpt>
<trkpt lat="-27.1943378" lon="152.8262681">
<ele>55.050</ele>
<time>2016-05-20T23:29:30.786Z</time>
</trkpt>
<trkpt lat="-27.1940357" lon="152.8263536">
<ele>56.306</ele>
<time>2016-05-20T23:29:32.866Z</time>
</trkpt>
<trkpt lat="-27.1937669" lon="152.8264418">
<ele>57.571</ele>
<time>2016-05-20T23:29:34.731Z</time>
</trkpt>
<trkpt lat="-27.1933236" lon="152.8265682">
<ele>58.314</ele>
<time>2016-05-20T23:29:37.756Z</time>
</trkpt>
<trkpt lat="-27.1930259" lon="152.8266375">
<ele>58.426</ele>
<time>2016-05-20T23:29:39.727Z</time>
</trkpt>
<trkpt lat="-27.1925583" lon="152.8266592">
<ele>58.253</ele>
<time>2016-05-20T23:29:42.720Z</time>
</trkpt>
<trkpt lat="-27.1922418" lon="152.8266365">
<ele>58.156</ele>
<time>2016-05-20T23:29:44.695Z</time>
</trkpt>
<trkpt lat="-27.1917470" lon="152.8265877">
<ele>58.254</ele>
<time>2016-05-20T23:29:47.792Z</time>
</trkpt>
<trkpt lat="-27.1914368" lon="152.8265637">
<ele>58.408</ele>
<time>2016-05-20T23:29:49.797Z</time>
</trkpt>
<trkpt lat="-27.1911306" lon="152.8265345">
<ele>58.457</ele>
<time>2016-05-20T23:29:51.800Z</time>
</trkpt>
<trkpt lat="-27.1906711" lon="152.8265001">
<ele>58.401</ele>
<time>2016-05-20T23:29:54.787Z</time>
</trkpt>
<trkpt lat="-27.1903606" lon="152.8264701">
<ele>58.452</ele>
<time>2016-05-20T23:29:56.771Z</time>
</trkpt>
<trkpt lat="-27.1898886" lon="152.8264315">
<ele>58.762</ele>
<time>2016-05-20T23:29:59.762Z</time>
</trkpt>
<trkpt lat="-27.1895772" lon="152.8264163">
<ele>59.219</ele>
<time>2016-05-20T23:30:01.765Z</time>
</trkpt>
<trkpt lat="-27.1891247" lon="152.8263880">
<ele>59.712</ele>
<time>2016-05-20T23:30:04.723Z</time>
</trkpt>
<trkpt lat="-27.1888119" lon="152.8263904">
<ele>60.278</ele>
<time>2016-05-20T23:30:06.812Z</time>
</trkpt>
<trkpt lat="-27.1885315" lon="152.8264772">
<ele>60.838</ele>
<time>2016-05-20T23:30:08.772Z</time>
</trkpt>
<trkpt lat="-27.1882598" lon="152.8266235">
<ele>61.180</ele>
<time>2016-05-20T23:30:10.709Z</time>
</trkpt>
<trkpt lat="-27.1878900" lon="152.8269627">
<ele>61.232</ele>
<time>2016-05-20T23:30:13.616Z</time>
</trkpt>
<trkpt lat="-27.1876554" lon="152.8272427">
<ele>61.275</ele>
<time>2016-05-20T23:30:15.550Z</time>
</trkpt>
<trkpt lat="-27.1874059" lon="152.8275191">
<ele>61.526</ele>
<time>2016-05-20T23:30:17.506Z</time>
</trkpt>
<trkpt lat="-27.1869581" lon="152.8278579">
<ele>61.940</ele>
<time>2016-05-20T23:30:20.552Z</time>
</trkpt>
<trkpt lat="-27.1866694" lon="152.8280588">
<ele>62.265</ele>
<time>2016-05-20T23:30:22.536Z</time>
</trkpt>
<trkpt lat="-27.1862420" lon="152.8283401">
<ele>62.210</ele>
<time>2016-05-20T23:30:25.468Z</time>
</trkpt>
<trkpt lat="-27.1859599" lon="152.8285393">
<ele>61.830</ele>
<time>2016-05-20T23:30:27.466Z</time>
</trkpt>
<trkpt lat="-27.1856779" lon="152.8287283">
<ele>61.518</ele>
<time>2016-05-20T23:30:29.474Z</time>
</trkpt>
<trkpt lat="-27.1853848" lon="152.8288788">
<ele>61.435</ele>
<time>2016-05-20T23:30:31.476Z</time>
</trkpt>
<trkpt lat="-27.1849140" lon="152.8289097">
<ele>61.493</ele>
<time>2016-05-20T23:30:34.382Z</time>
</trkpt>
<trkpt lat="-27.1846016" lon="152.8287582">
<ele>61.572</ele>
<time>2016-05-20T23:30:36.358Z</time>
</trkpt>
<trkpt lat="-27.1841612" lon="152.8283982">
<ele>61.864</ele>
<time>2016-05-20T23:30:39.379Z</time>
</trkpt>
<trkpt lat="-27.1836616" lon="152.8280888">
<ele>62.917</ele>
<time>2016-05-20T23:30:42.428Z</time>
</trkpt>
<trkpt lat="-27.1833019" lon="152.8279666">
<ele>65.014</ele>
<time>2016-05-20T23:30:44.455Z</time>
</trkpt>
<trkpt lat="-27.1827810" lon="152.8278351">
<ele>67.883</ele>
<time>2016-05-20T23:30:47.381Z</time>
</trkpt>
<trkpt lat="-27.1824192" lon="152.8277351">
<ele>70.745</ele>
<time>2016-05-20T23:30:49.431Z</time>
</trkpt>
<trkpt lat="-27.1818837" lon="152.8276082">
<ele>73.108</ele>
<time>2016-05-20T23:30:52.441Z</time>
</trkpt>
<trkpt lat="-27.1813389" lon="152.8275649">
<ele>75.065</ele>
<time>2016-05-20T23:30:55.471Z</time>
</trkpt>
<trkpt lat="-27.1809905" lon="152.8275640">
<ele>76.576</ele>
<time>2016-05-20T23:30:57.391Z</time>
</trkpt>
<trkpt lat="-27.1806210" lon="152.8275139">
<ele>77.728</ele>
<time>2016-05-20T23:30:59.414Z</time>
</trkpt>
<trkpt lat="-27.1802599" lon="152.8274253">
<ele>79.137</ele>
<time>2016-05-20T23:31:01.430Z</time>
</trkpt>
<trkpt lat="-27.1797298" lon="152.8272811">
<ele>80.808</ele>
<time>2016-05-20T23:31:04.441Z</time>
</trkpt>
<trkpt lat="-27.1792243" lon="152.8271523">
<ele>82.250</ele>
<time>2016-05-20T23:31:07.339Z</time>
</trkpt>
<trkpt lat="-27.1788690" lon="152.8270603">
<ele>83.565</ele>
<time>2016-05-20T23:31:09.361Z</time>
</trkpt>
<trkpt lat="-27.1785225" lon="152.8269609">
<ele>85.011</ele>
<time>2016-05-20T23:31:11.326Z</time>
</trkpt>
<trkpt lat="-27.1781595" lon="152.8268840">
<ele>86.291</ele>
<time>2016-05-20T23:31:13.355Z</time>
</trkpt>
<trkpt lat="-27.1776340" lon="152.8267401">
<ele>87.098</ele>
<time>2016-05-20T23:31:16.326Z</time>
</trkpt>
<trkpt lat="-27.1772847" lon="152.8266468">
<ele>87.443</ele>
<time>2016-05-20T23:31:18.259Z</time>
</trkpt>
<trkpt lat="-27.1767270" lon="152.8264947">
<ele>87.748</ele>
<time>2016-05-20T23:31:21.252Z</time>
</trkpt>
<trkpt lat="-27.1763210" lon="152.8263977">
<ele>88.434</ele>
<time>2016-05-20T23:31:23.339Z</time>
</trkpt>
<trkpt lat="-27.1757423" lon="152.8262660">
<ele>89.175</ele>
<time>2016-05-20T23:31:26.315Z</time>
</trkpt>
<trkpt lat="-27.1753700" lon="152.8261028">
<ele>89.509</ele>
<time>2016-05-20T23:31:28.325Z</time>
</trkpt>
<trkpt lat="-27.1750467" lon="152.8258336">
<ele>89.521</ele>
<time>2016-05-20T23:31:30.314Z</time>
</trkpt>
<trkpt lat="-27.1745991" lon="152.8253389">
<ele>89.589</ele>
<time>2016-05-20T23:31:33.445Z</time>
</trkpt>
<trkpt lat="-27.1741045" lon="152.8250414">
<ele>90.751</ele>
<time>2016-05-20T23:31:36.322Z</time>
</trkpt>
<trkpt lat="-27.1737185" lon="152.8250024">
<ele>93.367</ele>
<time>2016-05-20T23:31:38.323Z</time>
</trkpt>
<trkpt lat="-27.1731337" lon="152.8249481">
<ele>96.357</ele>
<time>2016-05-20T23:31:41.397Z</time>
</trkpt>
<trkpt lat="-27.1727775" lon="152.8249342">
<ele>99.132</ele>
<time>2016-05-20T23:31:43.366Z</time>
</trkpt>
<trkpt lat="-27.1724395" lon="152.8250086">
<ele>101.619</ele>
<time>2016-05-20T23:31:45.321Z</time>
</trkpt>
<trkpt lat="-27.1720966" lon="152.8251305">
<ele>103.794</ele>
<time>2016-05-20T23:31:47.274Z</time>
</trkpt>
<trkpt lat="-27.1714867" lon="152.8251250">
<ele>106.435</ele>
<time>2016-05-20T23:31:50.387Z</time>
</trkpt>
<trkpt lat="-27.1710722" lon="152.8250631">
<ele>110.029</ele>
<time>2016-05-20T23:31:52.490Z</time>
</trkpt>
<trkpt lat="-27.1705249" lon="152.8251136">
<ele>113.848</ele>
<time>2016-05-20T23:31:55.402Z</time>
</trkpt>
<trkpt lat="-27.1702186" lon="152.8252889">
<ele>116.861</ele>
<time>2016-05-20T23:31:57.339Z</time>
</trkpt>
<trkpt lat="-27.1699255" lon="152.8255186">
<ele>118.647</ele>
<time>2016-05-20T23:31:59.387Z</time>
</trkpt>
<trkpt lat="-27.1696570" lon="152.8257387">
<ele>119.779</ele>
<time>2016-05-20T23:32:01.383Z</time>
</trkpt>
<trkpt lat="-27.1694350" lon="152.8259775">
<ele>120.783</ele>
<time>2016-05-20T23:32:03.342Z</time>
</trkpt>
<trkpt lat="-27.1693200" lon="152.8262934">
<ele>121.610</ele>
<time>2016-05-20T23:32:05.377Z</time>
</trkpt>
<trkpt lat="-27.1692527" lon="152.8267701">
<ele>122.242</ele>
<time>2016-05-20T23:32:08.389Z</time>
</trkpt>
<trkpt lat="-27.1690762" lon="152.8270046">
<ele>122.925</ele>
<time>2016-05-20T23:32:10.416Z</time>
</trkpt>
<trkpt lat="-27.1688738" lon="152.8272053">
<ele>123.918</ele>
<time>2016-05-20T23:32:12.479Z</time>
</trkpt>
<trkpt lat="-27.1684661" lon="152.8271137">
<ele>125.395</ele>
<time>2016-05-20T23:32:15.517Z</time>
</trkpt>
<trkpt lat="-27.1679759" lon="152.8268215">
<ele>127.684</ele>
<time>2016-05-20T23:32:18.981Z</time>
</trkpt>
<trkpt lat="-27.1675020" lon="152.8266027">
<ele>130.949</ele>
<time>2016-05-20T23:32:21.978Z</time>
</trkpt>
<trkpt lat="-27.1671700" lon="152.8265368">
<ele>134.222</ele>
<time>2016-05-20T23:32:23.935Z</time>
</trkpt>
<trkpt lat="-27.1668237" lon="152.8266034">
<ele>136.381</ele>
<time>2016-05-20T23:32:25.932Z</time>
</trkpt>
<trkpt lat="-27.1663026" lon="152.8267564">
<ele>137.871</ele>
<time>2016-05-20T23:32:28.981Z</time>
</trkpt>
<trkpt lat="-27.1659662" lon="152.8268647">
<ele>139.706</ele>
<time>2016-05-20T23:32:31.045Z</time>
</trkpt>
<trkpt lat="-27.1654995" lon="152.8270298">
<ele>141.985</ele>
<time>2016-05-20T23:32:34.007Z</time>
</trkpt>
<trkpt lat="-27.1651806" lon="152.8270706">
<ele>144.184</ele>
<time>2016-05-20T23:32:35.962Z</time>
</trkpt>
<trkpt lat="-27.1646901" lon="152.8270223">
<ele>146.207</ele>
<time>2016-05-20T23:32:39.002Z</time>
</trkpt>
<trkpt lat="-27.1643871" lon="152.8269073">
<ele>148.493</ele>
<time>2016-05-20T23:32:41.264Z</time>
</trkpt>
<trkpt lat="-27.1640300" lon="152.8267107">
<ele>150.884</ele>
<time>2016-05-20T23:32:44.422Z</time>
</trkpt>
<trkpt lat="-27.1639121" lon="152.8264938">
<ele>152.609</ele>
<time>2016-05-20T23:32:46.251Z</time>
</trkpt>
<trkpt lat="-27.1639874" lon="152.8260672">
<ele>153.397</ele>
<time>2016-05-20T23:32:49.057Z</time>
</trkpt>
<trkpt lat="-27.1641150" lon="152.8257473">
<ele>154.214</ele>
<time>2016-05-20T23:32:51.032Z</time>
</trkpt>
<trkpt lat="-27.1642720" lon="152.8252336">
<ele>156.199</ele>
<time>2016-05-20T23:32:54.117Z</time>
</trkpt>
<trkpt lat="-27.1643207" lon="152.8247282">
<ele>159.440</ele>
<time>2016-05-20T23:32:57.050Z</time>
</trkpt>
<trkpt lat="-27.1642063" lon="152.8244023">
<ele>162.941</ele>
<time>2016-05-20T23:32:58.880Z</time>
</trkpt>
<trkpt lat="-27.1638317" lon="152.8239588">
<ele>165.518</ele>
<time>2016-05-20T23:33:01.875Z</time>
</trkpt>
<trkpt lat="-27.1635360" lon="152.8236822">
<ele>167.940</ele>
<time>2016-05-20T23:33:03.938Z</time>
</trkpt>
<trkpt lat="-27.1631031" lon="152.8233283">
<ele>171.920</ele>
<time>2016-05-20T23:33:06.902Z</time>
</trkpt>
<trkpt lat="-27.1627964" lon="152.8231488">
<ele>176.423</ele>
<time>2016-05-20T23:33:08.879Z</time>
</trkpt>
<trkpt lat="-27.1622727" lon="152.8230484">
<ele>179.460</ele>
<time>2016-05-20T23:33:12.026Z</time>
</trkpt>
<trkpt lat="-27.1618558" lon="152.8232203">
<ele>181.366</ele>
<time>2016-05-20T23:33:14.752Z</time>
</trkpt>
<trkpt lat="-27.1615697" lon="152.8234248">
<ele>183.050</ele>
<time>2016-05-20T23:33:16.842Z</time>
</trkpt>
<trkpt lat="-27.1612597" lon="152.8238021">
<ele>184.698</ele>
<time>2016-05-20T23:33:19.791Z</time>
</trkpt>
<trkpt lat="-27.1609765" lon="152.8241455">
<ele>186.409</ele>
<time>2016-05-20T23:33:22.693Z</time>
</trkpt>
<trkpt lat="-27.1607194" lon="152.8242306">
<ele>188.299</ele>
<time>2016-05-20T23:33:24.592Z</time>
</trkpt>
<trkpt lat="-27.1604278" lon="152.8242945">
<ele>190.423</ele>
<time>2016-05-20T23:33:26.555Z</time>
</trkpt>
<trkpt lat="-27.1600737" lon="152.8246938">
<ele>192.803</ele>
<time>2016-05-20T23:33:29.678Z</time>
</trkpt>
<trkpt lat="-27.1598000" lon="152.8249431">
<ele>195.602</ele>
<time>2016-05-20T23:33:31.868Z</time>
</trkpt>
<trkpt lat="-27.1593770" lon="152.8252133">
<ele>199.028</ele>
<time>2016-05-20T23:33:35.264Z</time>
</trkpt>
<trkpt lat="-27.1590125" lon="152.8251754">
<ele>202.412</ele>
<time>2016-05-20T23:33:38.183Z</time>
</trkpt>
<trkpt lat="-27.1588416" lon="152.8249754">
<ele>204.628</ele>
<time>2016-05-20T23:33:40.176Z</time>
</trkpt>
<trkpt lat="-27.1586497" lon="152.8247833">
<ele>205.911</ele>
<time>2016-05-20T23:33:42.238Z</time>
</trkpt>
<trkpt lat="-27.1584018" lon="152.8247612">
<ele>207.089</ele>
<time>2016-05-20T23:33:44.205Z</time>
</trkpt>
<trkpt lat="-27.1580346" lon="152.8249057">
<ele>208.229</ele>
<time>2016-05-20T23:33:47.215Z</time>
</trkpt>
<trkpt lat="-27.1577797" lon="152.8248529">
<ele>209.706</ele>
<time>2016-05-20T23:33:49.070Z</time>
</trkpt>
<trkpt lat="-27.1575078" lon="152.8247064">
<ele>212.066</ele>
<time>2016-05-20T23:33:51.123Z</time>
</trkpt>
<trkpt lat="-27.1572278" lon="152.8246083">
<ele>215.110</ele>
<time>2016-05-20T23:33:53.217Z</time>
</trkpt>
<trkpt lat="-27.1569545" lon="152.8246157">
<ele>218.260</ele>
<time>2016-05-20T23:33:55.296Z</time>
</trkpt>
<trkpt lat="-27.1567172" lon="152.8245280">
<ele>220.920</ele>
<time>2016-05-20T23:33:57.297Z</time>
</trkpt>
<trkpt lat="-27.1563708" lon="152.8244880">
<ele>222.675</ele>
<time>2016-05-20T23:34:00.051Z</time>
</trkpt>
<trkpt lat="-27.1560859" lon="152.8247960">
<ele>223.909</ele>
<time>2016-05-20T23:34:03.033Z</time>
</trkpt>
<trkpt lat="-27.1559686" lon="152.8250845">
<ele>225.779</ele>
<time>2016-05-20T23:34:05.158Z</time>
</trkpt>
<trkpt lat="-27.1558165" lon="152.8253179">
<ele>229.148</ele>
<time>2016-05-20T23:34:07.141Z</time>
</trkpt>
<trkpt lat="-27.1554409" lon="152.8254331">
<ele>233.028</ele>
<time>2016-05-20T23:34:09.986Z</time>
</trkpt>
<trkpt lat="-27.1551498" lon="152.8253982">
<ele>236.551</ele>
<time>2016-05-20T23:34:11.947Z</time>
</trkpt>
<trkpt lat="-27.1547154" lon="152.8255427">
<ele>240.425</ele>
<time>2016-05-20T23:34:15.100Z</time>
</trkpt>
<trkpt lat="-27.1544012" lon="152.8258631">
<ele>244.818</ele>
<time>2016-05-20T23:34:18.339Z</time>
</trkpt>
<trkpt lat="-27.1540405" lon="152.8259321">
<ele>248.578</ele>
<time>2016-05-20T23:34:21.256Z</time>
</trkpt>
<trkpt lat="-27.1538284" lon="152.8257760">
<ele>250.996</ele>
<time>2016-05-20T23:34:23.171Z</time>
</trkpt>
<trkpt lat="-27.1537170" lon="152.8255064">
<ele>252.479</ele>
<time>2016-05-20T23:34:24.853Z</time>
</trkpt>
<trkpt lat="-27.1533955" lon="152.8250123">
<ele>254.188</ele>
<time>2016-05-20T23:34:28.052Z</time>
</trkpt>
<trkpt lat="-27.1530827" lon="152.8245438">
<ele>257.356</ele>
<time>2016-05-20T23:34:30.867Z</time>
</trkpt>
<trkpt lat="-27.1525833" lon="152.8241378">
<ele>261.660</ele>
<time>2016-05-20T23:34:34.058Z</time>
</trkpt>
<trkpt lat="-27.1521307" lon="152.8237377">
<ele>266.351</ele>
<time>2016-05-20T23:34:37.236Z</time>
</trkpt>
<trkpt lat="-27.1519635" lon="152.8234307">
<ele>271.060</ele>
<time>2016-05-20T23:34:39.143Z</time>
</trkpt>
<trkpt lat="-27.1518915" lon="152.8230600">
<ele>274.521</ele>
<time>2016-05-20T23:34:40.973Z</time>
</trkpt>
<trkpt lat="-27.1518511" lon="152.8226175">
<ele>276.312</ele>
<time>2016-05-20T23:34:42.834Z</time>
</trkpt>
<trkpt lat="-27.1517403" lon="152.8218715">
<ele>278.702</ele>
<time>2016-05-20T23:34:46.000Z</time>
</trkpt>
<trkpt lat="-27.1517186" lon="152.8211875">
<ele>283.093</ele>
<time>2016-05-20T23:34:49.167Z</time>
</trkpt>
<trkpt lat="-27.1516818" lon="152.8206148">
<ele>287.944</ele>
<time>2016-05-20T23:34:52.160Z</time>
</trkpt>
<trkpt lat="-27.1513881" lon="152.8201512">
<ele>290.980</ele>
<time>2016-05-20T23:34:55.234Z</time>
</trkpt>
<trkpt lat="-27.1511277" lon="152.8199008">
<ele>292.064</ele>
<time>2016-05-20T23:34:57.456Z</time>
</trkpt>
<trkpt lat="-27.1508454" lon="152.8195274">
<ele>292.355</ele>
<time>2016-05-20T23:35:00.520Z</time>
</trkpt>
<trkpt lat="-27.1507957" lon="152.8192356">
<ele>292.779</ele>
<time>2016-05-20T23:35:02.402Z</time>
</trkpt>
<trkpt lat="-27.1508857" lon="152.8189237">
<ele>293.754</ele>
<time>2016-05-20T23:35:04.538Z</time>
</trkpt>
<trkpt lat="-27.1509151" lon="152.8184784">
<ele>295.339</ele>
<time>2016-05-20T23:35:07.590Z</time>
</trkpt>
<trkpt lat="-27.1507664" lon="152.8182597">
<ele>297.120</ele>
<time>2016-05-20T23:35:09.318Z</time>
</trkpt>
<trkpt lat="-27.1503321" lon="152.8180540">
<ele>298.401</ele>
<time>2016-05-20T23:35:12.334Z</time>
</trkpt>
<trkpt lat="-27.1500291" lon="152.8179256">
<ele>299.814</ele>
<time>2016-05-20T23:35:14.386Z</time>
</trkpt>
<trkpt lat="-27.1496022" lon="152.8177156">
<ele>302.472</ele>
<time>2016-05-20T23:35:17.312Z</time>
</trkpt>
<trkpt lat="-27.1493023" lon="152.8172993">
<ele>305.671</ele>
<time>2016-05-20T23:35:20.082Z</time>
</trkpt>
<trkpt lat="-27.1491407" lon="152.8166995">
<ele>308.682</ele>
<time>2016-05-20T23:35:23.194Z</time>
</trkpt>
<trkpt lat="-27.1490469" lon="152.8163085">
<ele>312.196</ele>
<time>2016-05-20T23:35:25.359Z</time>
</trkpt>
<trkpt lat="-27.1488943" lon="152.8159989">
<ele>316.013</ele>
<time>2016-05-20T23:35:27.370Z</time>
</trkpt>
<trkpt lat="-27.1486573" lon="152.8157848">
<ele>318.982</ele>
<time>2016-05-20T23:35:29.350Z</time>
</trkpt>
<trkpt lat="-27.1482113" lon="152.8156688">
<ele>320.635</ele>
<time>2016-05-20T23:35:32.383Z</time>
</trkpt>
<trkpt lat="-27.1479311" lon="152.8155511">
<ele>321.884</ele>
<time>2016-05-20T23:35:34.387Z</time>
</trkpt>
<trkpt lat="-27.1476399" lon="152.8151642">
<ele>323.669</ele>
<time>2016-05-20T23:35:37.273Z</time>
</trkpt>
<trkpt lat="-27.1475817" lon="152.8146208">
<ele>325.741</ele>
<time>2016-05-20T23:35:40.158Z</time>
</trkpt>
<trkpt lat="-27.1476317" lon="152.8140021">
<ele>327.699</ele>
<time>2016-05-20T23:35:43.297Z</time>
</trkpt>
<trkpt lat="-27.1474880" lon="152.8134383">
<ele>329.919</ele>
<time>2016-05-20T23:35:46.202Z</time>
</trkpt>
<trkpt lat="-27.1472408" lon="152.8131524">
<ele>332.389</ele>
<time>2016-05-20T23:35:47.982Z</time>
</trkpt>
<trkpt lat="-27.1467270" lon="152.8127480">
<ele>334.818</ele>
<time>2016-05-20T23:35:50.937Z</time>
</trkpt>
<trkpt lat="-27.1461756" lon="152.8123076">
<ele>338.045</ele>
<time>2016-05-20T23:35:54.152Z</time>
</trkpt>
<trkpt lat="-27.1457527" lon="152.8118518">
<ele>342.561</ele>
<time>2016-05-20T23:35:57.249Z</time>
</trkpt>
<trkpt lat="-27.1454758" lon="152.8116080">
<ele>346.683</ele>
<time>2016-05-20T23:35:59.208Z</time>
</trkpt>
<trkpt lat="-27.1449591" lon="152.8114364">
<ele>348.757</ele>
<time>2016-05-20T23:36:02.223Z</time>
</trkpt>
<trkpt lat="-27.1446250" lon="152.8113422">
<ele>350.033</ele>
<time>2016-05-20T23:36:04.240Z</time>
</trkpt>
<trkpt lat="-27.1442495" lon="152.8109859">
<ele>352.075</ele>
<time>2016-05-20T23:36:07.268Z</time>
</trkpt>
<trkpt lat="-27.1440510" lon="152.8107094">
<ele>354.522</ele>
<time>2016-05-20T23:36:09.487Z</time>
</trkpt>
<trkpt lat="-27.1438155" lon="152.8105745">
<ele>356.465</ele>
<time>2016-05-20T23:36:11.491Z</time>
</trkpt>
<trkpt lat="-27.1434182" lon="152.8105957">
<ele>357.700</ele>
<time>2016-05-20T23:36:14.596Z</time>
</trkpt>
<trkpt lat="-27.1431872" lon="152.8104952">
<ele>358.674</ele>
<time>2016-05-20T23:36:16.501Z</time>
</trkpt>
<trkpt lat="-27.1429920" lon="152.8100980">
<ele>359.950</ele>
<time>2016-05-20T23:36:19.491Z</time>
</trkpt>
<trkpt lat="-27.1428971" lon="152.8098210">
<ele>361.775</ele>
<time>2016-05-20T23:36:21.401Z</time>
</trkpt>
<trkpt lat="-27.1425541" lon="152.8095716">
<ele>364.128</ele>
<time>2016-05-20T23:36:24.298Z</time>
</trkpt>
<trkpt lat="-27.1422656" lon="152.8095301">
<ele>366.629</ele>
<time>2016-05-20T23:36:26.426Z</time>
</trkpt>
<trkpt lat="-27.1419881" lon="152.8092320">
<ele>368.979</ele>
<time>2016-05-20T23:36:29.261Z</time>
</trkpt>
<trkpt lat="-27.1418559" lon="152.8089479">
<ele>371.108</ele>
<time>2016-05-20T23:36:31.313Z</time>
</trkpt>
<trkpt lat="-27.1416408" lon="152.8087521">
<ele>372.747</ele>
<time>2016-05-20T23:36:33.271Z</time>
</trkpt>
<trkpt lat="-27.1412074" lon="152.8087203">
<ele>373.955</ele>
<time>2016-05-20T23:36:36.306Z</time>
</trkpt>
<trkpt lat="-27.1408094" lon="152.8088681">
<ele>375.105</ele>
<time>2016-05-20T23:36:39.175Z</time>
</trkpt>
<trkpt lat="-27.1405205" lon="152.8088650">
<ele>376.898</ele>
<time>2016-05-20T23:36:41.004Z</time>
</trkpt>
<trkpt lat="-27.1402028" lon="152.8087542">
<ele>379.716</ele>
<time>2016-05-20T23:36:42.772Z</time>
</trkpt>
<trkpt lat="-27.1396285" lon="152.8085067">
<ele>383.259</ele>
<time>2016-05-20T23:36:45.758Z</time>
</trkpt>
<trkpt lat="-27.1392096" lon="152.8083017">
<ele>387.823</ele>
<time>2016-05-20T23:36:47.869Z</time>
</trkpt>
<trkpt lat="-27.1388306" lon="152.8080915">
<ele>393.861</ele>
<time>2016-05-20T23:36:49.980Z</time>
</trkpt>
<trkpt lat="-27.1383078" lon="152.8078959">
<ele>399.737</ele>
<time>2016-05-20T23:36:52.958Z</time>
</trkpt>
<trkpt lat="-27.1379612" lon="152.8078958">
<ele>403.194</ele>
<time>2016-05-20T23:36:54.971Z</time>
</trkpt>
<trkpt lat="-27.1374370" lon="152.8079887">
<ele>404.193</ele>
<time>2016-05-20T23:36:58.303Z</time>
</trkpt>
<trkpt lat="-27.1370230" lon="152.8080797">
<ele>404.450</ele>
<time>2016-05-20T23:37:01.253Z</time>
</trkpt>
<trkpt lat="-27.1367397" lon="152.8080922">
<ele>405.126</ele>
<time>2016-05-20T23:37:03.177Z</time>
</trkpt>
<trkpt lat="-27.1362889" lon="152.8080438">
<ele>406.055</ele>
<time>2016-05-20T23:37:06.094Z</time>
</trkpt>
<trkpt lat="-27.1358269" lon="152.8079405">
<ele>406.732</ele>
<time>2016-05-20T23:37:09.075Z</time>
</trkpt>
<trkpt lat="-27.1353717" lon="152.8078352">
<ele>406.668</ele>
<time>2016-05-20T23:37:12.093Z</time>
</trkpt>
<trkpt lat="-27.1350850" lon="152.8077528">
<ele>405.281</ele>
<time>2016-05-20T23:37:14.020Z</time>
</trkpt>
<trkpt lat="-27.1346317" lon="152.8075997">
<ele>402.568</ele>
<time>2016-05-20T23:37:17.043Z</time>
</trkpt>
<trkpt lat="-27.1343526" lon="152.8074580">
<ele>399.352</ele>
<time>2016-05-20T23:37:19.015Z</time>
</trkpt>
<trkpt lat="-27.1340860" lon="152.8072897">
<ele>396.592</ele>
<time>2016-05-20T23:37:21.013Z</time>
</trkpt>
<trkpt lat="-27.1336944" lon="152.8070166">
<ele>394.777</ele>
<time>2016-05-20T23:37:24.073Z</time>
</trkpt>
<trkpt lat="-27.1334391" lon="152.8068568">
<ele>393.353</ele>
<time>2016-05-20T23:37:26.086Z</time>
</trkpt>
<trkpt lat="-27.1331627" lon="152.8067611">
<ele>391.582</ele>
<time>2016-05-20T23:37:28.076Z</time>
</trkpt>
<trkpt lat="-27.1328642" lon="152.8067503">
<ele>389.842</ele>
<time>2016-05-20T23:37:30.115Z</time>
</trkpt>
<trkpt lat="-27.1324225" lon="152.8067944">
<ele>388.902</ele>
<time>2016-05-20T23:37:33.220Z</time>
</trkpt>
<trkpt lat="-27.1320239" lon="152.8068597">
<ele>388.694</ele>
<time>2016-05-20T23:37:36.218Z</time>
</trkpt>
<trkpt lat="-27.1317803" lon="152.8069684">
<ele>388.971</ele>
<time>2016-05-20T23:37:38.479Z</time>
</trkpt>
<trkpt lat="-27.1314968" lon="152.8070929">
<ele>389.517</ele>
<time>2016-05-20T23:37:41.352Z</time>
</trkpt>
<trkpt lat="-27.1311974" lon="152.8069837">
<ele>390.057</ele>
<time>2016-05-20T23:37:43.997Z</time>
</trkpt>
<trkpt lat="-27.1309030" lon="152.8066444">
<ele>390.461</ele>
<time>2016-05-20T23:37:46.966Z</time>
</trkpt>
<trkpt lat="-27.1307580" lon="152.8063181">
<ele>390.867</ele>
<time>2016-05-20T23:37:48.881Z</time>
</trkpt>
<trkpt lat="-27.1306280" lon="152.8059473">
<ele>391.478</ele>
<time>2016-05-20T23:37:50.937Z</time>
</trkpt>
<trkpt lat="-27.1304248" lon="152.8054221">
<ele>392.289</ele>
<time>2016-05-20T23:37:53.890Z</time>
</trkpt>
<trkpt lat="-27.1300349" lon="152.8050250">
<ele>393.128</ele>
<time>2016-05-20T23:37:56.815Z</time>
</trkpt>
<trkpt lat="-27.1295638" lon="152.8046687">
<ele>394.214</ele>
<time>2016-05-20T23:37:59.742Z</time>
</trkpt>
<trkpt lat="-27.1292830" lon="152.8043152">
<ele>395.853</ele>
<time>2016-05-20T23:38:01.750Z</time>
</trkpt>
<trkpt lat="-27.1289116" lon="152.8037020">
<ele>398.647</ele>
<time>2016-05-20T23:38:04.866Z</time>
</trkpt>
<trkpt lat="-27.1286538" lon="152.8033581">
<ele>402.722</ele>
<time>2016-05-20T23:38:06.815Z</time>
</trkpt>
<trkpt lat="-27.1281619" lon="152.8029698">
<ele>406.754</ele>
<time>2016-05-20T23:38:09.712Z</time>
</trkpt>
<trkpt lat="-27.1275978" lon="152.8026554">
<ele>409.527</ele>
<time>2016-05-20T23:38:12.715Z</time>
</trkpt>
<trkpt lat="-27.1270212" lon="152.8023607">
<ele>411.144</ele>
<time>2016-05-20T23:38:15.777Z</time>
</trkpt>
<trkpt lat="-27.1265117" lon="152.8019849">
<ele>412.466</ele>
<time>2016-05-20T23:38:18.859Z</time>
</trkpt>
<trkpt lat="-27.1262878" lon="152.8016473">
<ele>414.121</ele>
<time>2016-05-20T23:38:20.898Z</time>
</trkpt>
<trkpt lat="-27.1261674" lon="152.8010656">
<ele>415.792</ele>
<time>2016-05-20T23:38:23.821Z</time>
</trkpt>
<trkpt lat="-27.1262194" lon="152.8006560">
<ele>417.423</ele>
<time>2016-05-20T23:38:25.867Z</time>
</trkpt>
<trkpt lat="-27.1262931" lon="152.8002751">
<ele>419.557</ele>
<time>2016-05-20T23:38:27.880Z</time>
</trkpt>
<trkpt lat="-27.1262543" lon="152.7997054">
<ele>421.881</ele>
<time>2016-05-20T23:38:30.963Z</time>
</trkpt>
<trkpt lat="-27.1261876" lon="152.7993786">
<ele>423.511</ele>
<time>2016-05-20T23:38:33.091Z</time>
</trkpt>
<trkpt lat="-27.1260357" lon="152.7989983">
<ele>424.112</ele>
<time>2016-05-20T23:38:36.043Z</time>
</trkpt>
<trkpt lat="-27.1258333" lon="152.7988704">
<ele>423.955</ele>
<time>2016-05-20T23:38:37.988Z</time>
</trkpt>
<trkpt lat="-27.1254681" lon="152.7987613">
<ele>423.462</ele>
<time>2016-05-20T23:38:40.989Z</time>
</trkpt>
<trkpt lat="-27.1252885" lon="152.7985216">
<ele>423.522</ele>
<time>2016-05-20T23:38:42.764Z</time>
</trkpt>
<trkpt lat="-27.1250148" lon="152.7979913">
<ele>424.874</ele>
<time>2016-05-20T23:38:45.952Z</time>
</trkpt>
<trkpt lat="-27.1248470" lon="152.7976391">
<ele>427.698</ele>
<time>2016-05-20T23:38:48.046Z</time>
</trkpt>
<trkpt lat="-27.1246879" lon="152.7973483">
<ele>431.258</ele>
<time>2016-05-20T23:38:49.949Z</time>
</trkpt>
<trkpt lat="-27.1242731" lon="152.7970466">
<ele>433.959</ele>
<time>2016-05-20T23:38:53.035Z</time>
</trkpt>
<trkpt lat="-27.1239618" lon="152.7968933">
<ele>434.828</ele>
<time>2016-05-20T23:38:55.214Z</time>
</trkpt>
<trkpt lat="-27.1237292" lon="152.7964551">
<ele>434.545</ele>
<time>2016-05-20T23:38:58.318Z</time>
</trkpt>
<trkpt lat="-27.1236771" lon="152.7961510">
<ele>434.117</ele>
<time>2016-05-20T23:39:00.382Z</time>
</trkpt>
<trkpt lat="-27.1238920" lon="152.7957640">
<ele>433.965</ele>
<time>2016-05-20T23:39:03.469Z</time>
</trkpt>
<trkpt lat="-27.1237620" lon="152.7953262">
<ele>434.175</ele>
<time>2016-05-20T23:39:06.187Z</time>
</trkpt>
<trkpt lat="-27.1234426" lon="152.7948438">
<ele>434.761</ele>
<time>2016-05-20T23:39:09.300Z</time>
</trkpt>
<trkpt lat="-27.1231454" lon="152.7943564">
<ele>436.401</ele>
<time>2016-05-20T23:39:12.300Z</time>
</trkpt>
<trkpt lat="-27.1228356" lon="152.7939104">
<ele>439.407</ele>
<time>2016-05-20T23:39:15.186Z</time>
</trkpt>
<trkpt lat="-27.1226034" lon="152.7936079">
<ele>442.243</ele>
<time>2016-05-20T23:39:17.229Z</time>
</trkpt>
<trkpt lat="-27.1222197" lon="152.7932392">
<ele>443.778</ele>
<time>2016-05-20T23:39:20.217Z</time>
</trkpt>
<trkpt lat="-27.1219503" lon="152.7930339">
<ele>444.620</ele>
<time>2016-05-20T23:39:22.172Z</time>
</trkpt>
<trkpt lat="-27.1216494" lon="152.7928545">
<ele>445.292</ele>
<time>2016-05-20T23:39:24.236Z</time>
</trkpt>
<trkpt lat="-27.1213475" lon="152.7927179">
<ele>446.179</ele>
<time>2016-05-20T23:39:26.294Z</time>
</trkpt>
<trkpt lat="-27.1209177" lon="152.7925193">
<ele>447.314</ele>
<time>2016-05-20T23:39:29.364Z</time>
</trkpt>
<trkpt lat="-27.1206748" lon="152.7923528">
<ele>448.170</ele>
<time>2016-05-20T23:39:31.309Z</time>
</trkpt>
<trkpt lat="-27.1204700" lon="152.7921411">
<ele>448.593</ele>
<time>2016-05-20T23:39:33.192Z</time>
</trkpt>
<trkpt lat="-27.1201555" lon="152.7917893">
<ele>448.987</ele>
<time>2016-05-20T23:39:36.115Z</time>
</trkpt>
<trkpt lat="-27.1199699" lon="152.7915011">
<ele>450.011</ele>
<time>2016-05-20T23:39:38.130Z</time>
</trkpt>
<trkpt lat="-27.1198300" lon="152.7911819">
<ele>451.924</ele>
<time>2016-05-20T23:39:40.181Z</time>
</trkpt>
<trkpt lat="-27.1196876" lon="152.7906925">
<ele>453.929</ele>
<time>2016-05-20T23:39:43.299Z</time>
</trkpt>
<trkpt lat="-27.1196037" lon="152.7904015">
<ele>454.919</ele>
<time>2016-05-20T23:39:45.176Z</time>
</trkpt>
<trkpt lat="-27.1193500" lon="152.7899896">
<ele>454.601</ele>
<time>2016-05-20T23:39:48.056Z</time>
</trkpt>
<trkpt lat="-27.1191132" lon="152.7897225">
<ele>453.545</ele>
<time>2016-05-20T23:39:50.128Z</time>
</trkpt>
<trkpt lat="-27.1189277" lon="152.7894368">
<ele>452.602</ele>
<time>2016-05-20T23:39:52.190Z</time>
</trkpt>
<trkpt lat="-27.1187732" lon="152.7891664">
<ele>452.080</ele>
<time>2016-05-20T23:39:54.100Z</time>
</trkpt>
<trkpt lat="-27.1185556" lon="152.7889326">
<ele>451.801</ele>
<time>2016-05-20T23:39:55.928Z</time>
</trkpt>
<trkpt lat="-27.1180857" lon="152.7886875">
<ele>451.737</ele>
<time>2016-05-20T23:39:58.867Z</time>
</trkpt>
<trkpt lat="-27.1175671" lon="152.7884378">
<ele>452.913</ele>
<time>2016-05-20T23:40:01.942Z</time>
</trkpt>
<trkpt lat="-27.1172500" lon="152.7882711">
<ele>456.326</ele>
<time>2016-05-20T23:40:03.857Z</time>
</trkpt>
<trkpt lat="-27.1168362" lon="152.7878524">
<ele>460.714</ele>
<time>2016-05-20T23:40:06.902Z</time>
</trkpt>
<trkpt lat="-27.1166000" lon="152.7875484">
<ele>464.817</ele>
<time>2016-05-20T23:40:08.839Z</time>
</trkpt>
<trkpt lat="-27.1163569" lon="152.7869972">
<ele>468.852</ele>
<time>2016-05-20T23:40:11.716Z</time>
</trkpt>
<trkpt lat="-27.1162524" lon="152.7865714">
<ele>472.227</ele>
<time>2016-05-20T23:40:13.689Z</time>
</trkpt>
<trkpt lat="-27.1161991" lon="152.7858860">
<ele>474.080</ele>
<time>2016-05-20T23:40:16.739Z</time>
</trkpt>
<trkpt lat="-27.1161802" lon="152.7854374">
<ele>474.682</ele>
<time>2016-05-20T23:40:18.711Z</time>
</trkpt>
<trkpt lat="-27.1161797" lon="152.7847440">
<ele>474.134</ele>
<time>2016-05-20T23:40:21.745Z</time>
</trkpt>
<trkpt lat="-27.1161861" lon="152.7840705">
<ele>472.646</ele>
<time>2016-05-20T23:40:24.762Z</time>
</trkpt>
<trkpt lat="-27.1161539" lon="152.7834337">
<ele>470.607</ele>
<time>2016-05-20T23:40:27.730Z</time>
</trkpt>
<trkpt lat="-27.1161204" lon="152.7830153">
<ele>467.756</ele>
<time>2016-05-20T23:40:29.688Z</time>
</trkpt>
<trkpt lat="-27.1160709" lon="152.7823762">
<ele>464.390</ele>
<time>2016-05-20T23:40:32.673Z</time>
</trkpt>
<trkpt lat="-27.1160824" lon="152.7819570">
<ele>461.931</ele>
<time>2016-05-20T23:40:34.646Z</time>
</trkpt>
<trkpt lat="-27.1162553" lon="152.7813506">
<ele>460.681</ele>
<time>2016-05-20T23:40:37.620Z</time>
</trkpt>
<trkpt lat="-27.1164509" lon="152.7809657">
<ele>459.920</ele>
<time>2016-05-20T23:40:39.624Z</time>
</trkpt>
<trkpt lat="-27.1167138" lon="152.7806226">
<ele>459.786</ele>
<time>2016-05-20T23:40:41.620Z</time>
</trkpt>
<trkpt lat="-27.1171770" lon="152.7801743">
<ele>461.034</ele>
<time>2016-05-20T23:40:44.631Z</time>
</trkpt>
<trkpt lat="-27.1176446" lon="152.7797425">
<ele>463.714</ele>
<time>2016-05-20T23:40:47.593Z</time>
</trkpt>
<trkpt lat="-27.1179525" lon="152.7794208">
<ele>466.972</ele>
<time>2016-05-20T23:40:49.633Z</time>
</trkpt>
<trkpt lat="-27.1184032" lon="152.7789514">
<ele>469.835</ele>
<time>2016-05-20T23:40:52.633Z</time>
</trkpt>
<trkpt lat="-27.1186874" lon="152.7786349">
<ele>471.820</ele>
<time>2016-05-20T23:40:54.627Z</time>
</trkpt>
<trkpt lat="-27.1189661" lon="152.7783152">
<ele>472.886</ele>
<time>2016-05-20T23:40:56.658Z</time>
</trkpt>
<trkpt lat="-27.1192187" lon="152.7779975">
<ele>473.043</ele>
<time>2016-05-20T23:40:58.577Z</time>
</trkpt>
<trkpt lat="-27.1195149" lon="152.7774130">
<ele>472.496</ele>
<time>2016-05-20T23:41:01.566Z</time>
</trkpt>
<trkpt lat="-27.1196708" lon="152.7770080">
<ele>472.009</ele>
<time>2016-05-20T23:41:03.503Z</time>
</trkpt>
<trkpt lat="-27.1198429" lon="152.7765880">
<ele>472.146</ele>
<time>2016-05-20T23:41:05.530Z</time>
</trkpt>
<trkpt lat="-27.1201254" lon="152.7759800">
<ele>472.812</ele>
<time>2016-05-20T23:41:08.577Z</time>
</trkpt>
<trkpt lat="-27.1205043" lon="152.7755036">
<ele>473.724</ele>
<time>2016-05-20T23:41:11.476Z</time>
</trkpt>
<trkpt lat="-27.1208043" lon="152.7752167">
<ele>474.757</ele>
<time>2016-05-20T23:41:13.528Z</time>
</trkpt>
<trkpt lat="-27.1210883" lon="152.7749452">
<ele>475.768</ele>
<time>2016-05-20T23:41:15.561Z</time>
</trkpt>
<trkpt lat="-27.1213493" lon="152.7746939">
<ele>476.477</ele>
<time>2016-05-20T23:41:17.537Z</time>
</trkpt>
<trkpt lat="-27.1217179" lon="152.7743207">
<ele>476.579</ele>
<time>2016-05-20T23:41:20.413Z</time>
</trkpt>
<trkpt lat="-27.1219762" lon="152.7740509">
<ele>476.010</ele>
<time>2016-05-20T23:41:22.363Z</time>
</trkpt>
<trkpt lat="-27.1223673" lon="152.7735979">
<ele>474.984</ele>
<time>2016-05-20T23:41:25.368Z</time>
</trkpt>
<trkpt lat="-27.1226099" lon="152.7732710">
<ele>473.994</ele>
<time>2016-05-20T23:41:27.375Z</time>
</trkpt>
<trkpt lat="-27.1228405" lon="152.7729399">
<ele>473.198</ele>
<time>2016-05-20T23:41:29.409Z</time>
</trkpt>
<trkpt lat="-27.1232055" lon="152.7724969">
<ele>472.460</ele>
<time>2016-05-20T23:41:32.349Z</time>
</trkpt>
<trkpt lat="-27.1236478" lon="152.7721292">
<ele>471.956</ele>
<time>2016-05-20T23:41:35.329Z</time>
</trkpt>
<trkpt lat="-27.1239746" lon="152.7719543">
<ele>472.225</ele>
<time>2016-05-20T23:41:37.321Z</time>
</trkpt>
<trkpt lat="-27.1242902" lon="152.7717592">
<ele>473.302</ele>
<time>2016-05-20T23:41:39.399Z</time>
</trkpt>
<trkpt lat="-27.1246757" lon="152.7714432">
<ele>474.465</ele>
<time>2016-05-20T23:41:42.318Z</time>
</trkpt>
<trkpt lat="-27.1248445" lon="152.7711369">
<ele>474.813</ele>
<time>2016-05-20T23:41:44.338Z</time>
</trkpt>
<trkpt lat="-27.1249341" lon="152.7708038">
<ele>474.250</ele>
<time>2016-05-20T23:41:46.319Z</time>
</trkpt>
<trkpt lat="-27.1250261" lon="152.7704587">
<ele>473.462</ele>
<time>2016-05-20T23:41:48.339Z</time>
</trkpt>
<trkpt lat="-27.1251942" lon="152.7699387">
<ele>472.767</ele>
<time>2016-05-20T23:41:51.374Z</time>
</trkpt>
<trkpt lat="-27.1253738" lon="152.7696357">
<ele>471.773</ele>
<time>2016-05-20T23:41:53.375Z</time>
</trkpt>
<trkpt lat="-27.1256370" lon="152.7694199">
<ele>470.282</ele>
<time>2016-05-20T23:41:55.418Z</time>
</trkpt>
<trkpt lat="-27.1260980" lon="152.7692456">
<ele>468.586</ele>
<time>2016-05-20T23:41:58.433Z</time>
</trkpt>
<trkpt lat="-27.1266120" lon="152.7691728">
<ele>467.231</ele>
<time>2016-05-20T23:42:01.571Z</time>
</trkpt>
<trkpt lat="-27.1270785" lon="152.7689917">
<ele>466.671</ele>
<time>2016-05-20T23:42:04.576Z</time>
</trkpt>
<trkpt lat="-27.1273163" lon="152.7687456">
<ele>466.941</ele>
<time>2016-05-20T23:42:06.561Z</time>
</trkpt>
<trkpt lat="-27.1274775" lon="152.7684100">
<ele>467.905</ele>
<time>2016-05-20T23:42:08.658Z</time>
</trkpt>
<trkpt lat="-27.1275186" lon="152.7680536">
<ele>469.357</ele>
<time>2016-05-20T23:42:10.624Z</time>
</trkpt>
<trkpt lat="-27.1274355" lon="152.7675190">
<ele>470.919</ele>
<time>2016-05-20T23:42:13.517Z</time>
</trkpt>
<trkpt lat="-27.1272655" lon="152.7671705">
<ele>472.785</ele>
<time>2016-05-20T23:42:15.517Z</time>
</trkpt>
<trkpt lat="-27.1268761" lon="152.7667581">
<ele>475.627</ele>
<time>2016-05-20T23:42:18.422Z</time>
</trkpt>
<trkpt lat="-27.1264025" lon="152.7663713">
<ele>479.497</ele>
<time>2016-05-20T23:42:21.486Z</time>
</trkpt>
<trkpt lat="-27.1260971" lon="152.7661442">
<ele>484.050</ele>
<time>2016-05-20T23:42:23.482Z</time>
</trkpt>
<trkpt lat="-27.1256052" lon="152.7659351">
<ele>488.396</ele>
<time>2016-05-20T23:42:26.514Z</time>
</trkpt>
<trkpt lat="-27.1253090" lon="152.7658148">
<ele>491.181</ele>
<time>2016-05-20T23:42:28.444Z</time>
</trkpt>
<trkpt lat="-27.1250348" lon="152.7656162">
<ele>492.256</ele>
<time>2016-05-20T23:42:30.445Z</time>
</trkpt>
<trkpt lat="-27.1246782" lon="152.7652160">
<ele>492.728</ele>
<time>2016-05-20T23:42:33.462Z</time>
</trkpt>
<trkpt lat="-27.1245089" lon="152.7648869">
<ele>493.632</ele>
<time>2016-05-20T23:42:35.442Z</time>
</trkpt>
<trkpt lat="-27.1242924" lon="152.7643691">
<ele>495.062</ele>
<time>2016-05-20T23:42:38.463Z</time>
</trkpt>
<trkpt lat="-27.1241889" lon="152.7640231">
<ele>496.191</ele>
<time>2016-05-20T23:42:40.468Z</time>
</trkpt>
<trkpt lat="-27.1241153" lon="152.7636855">
<ele>496.410</ele>
<time>2016-05-20T23:42:42.355Z</time>
</trkpt>
<trkpt lat="-27.1240077" lon="152.7631425">
<ele>495.958</ele>
<time>2016-05-20T23:42:45.293Z</time>
</trkpt>
<trkpt lat="-27.1239626" lon="152.7627530">
<ele>495.516</ele>
<time>2016-05-20T23:42:47.329Z</time>
</trkpt>
<trkpt lat="-27.1239024" lon="152.7623850">
<ele>495.643</ele>
<time>2016-05-20T23:42:49.366Z</time>
</trkpt>
<trkpt lat="-27.1238634" lon="152.7620411">
<ele>496.320</ele>
<time>2016-05-20T23:42:51.430Z</time>
</trkpt>
<trkpt lat="-27.1237903" lon="152.7615891">
<ele>497.080</ele>
<time>2016-05-20T23:42:54.339Z</time>
</trkpt>
<trkpt lat="-27.1237505" lon="152.7612936">
<ele>497.529</ele>
<time>2016-05-20T23:42:56.370Z</time>
</trkpt>
<trkpt lat="-27.1237207" lon="152.7610140">
<ele>497.580</ele>
<time>2016-05-20T23:42:58.442Z</time>
</trkpt>
<trkpt lat="-27.1236441" lon="152.7606593">
<ele>497.364</ele>
<time>2016-05-20T23:43:01.357Z</time>
</trkpt>
<trkpt lat="-27.1235764" lon="152.7604545">
<ele>496.927</ele>
<time>2016-05-20T23:43:03.630Z</time>
</trkpt>
<trkpt lat="-27.1235058" lon="152.7602540">
<ele>496.283</ele>
<time>2016-05-20T23:43:06.875Z</time>
</trkpt>
<trkpt lat="-27.1234608" lon="152.7601535">
<ele>495.366</ele>
<time>2016-05-20T23:43:09.584Z</time>
</trkpt>
<trkpt lat="-27.1235335" lon="152.7600602">
<ele>494.238</ele>
<time>2016-05-20T23:43:13.141Z</time>
</trkpt>
<trkpt lat="-27.1236315" lon="152.7600163">
<ele>493.336</ele>
<time>2016-05-20T23:43:16.431Z</time>
</trkpt>
<trkpt lat="-27.1237308" lon="152.7599913">
<ele>493.223</ele>
<time>2016-05-20T23:43:19.553Z</time>
</trkpt>
<trkpt lat="-27.1238252" lon="152.7600106">
<ele>494.159</ele>
<time>2016-05-20T23:43:23.167Z</time>
</trkpt>
<trkpt lat="-27.1239043" lon="152.7600860">
<ele>496.018</ele>
<time>2016-05-20T23:43:27.630Z</time>
</trkpt>
<trkpt lat="-27.1239821" lon="152.7601778">
<ele>498.166</ele>
<time>2016-05-20T23:43:32.000Z</time>
</trkpt>
<trkpt lat="-27.1239821" lon="152.7601778">
<ele>499.846</ele>
<time>2016-05-20T23:43:36.000Z</time>
</trkpt>
<trkpt lat="-27.1239821" lon="152.7601778">
<ele>500.500</ele>
<time>2016-05-20T23:43:39.504Z</time>
</trkpt>
<trkpt lat="-27.1241289" lon="152.7603076">
<ele>500.200</ele>
<time>2016-05-20T23:43:48.000Z</time>
</trkpt>
<trkpt lat="-27.1241289" lon="152.7603076">
<ele>499.668</ele>
<time>2016-05-20T23:44:00.000Z</time>
</trkpt>
<trkpt lat="-27.1241289" lon="152.7603076">
<ele>499.444</ele>
<time>2016-05-21T00:56:17.658Z</time>
</trkpt>
<trkpt lat="-27.1240045" lon="152.7602434">
<ele>499.477</ele>
<time>2016-05-21T00:56:25.182Z</time>
</trkpt>
<trkpt lat="-27.1239846" lon="152.7601219">
<ele>502.196</ele>
<time>2016-05-21T00:56:28.286Z</time>
</trkpt>
<trkpt lat="-27.1239599" lon="152.7600186">
<ele>509.106</ele>
<time>2016-05-21T00:56:30.999Z</time>
</trkpt>
<trkpt lat="-27.1239599" lon="152.7600186">
<ele>515.975</ele>
<time>2016-05-21T00:56:46.999Z</time>
</trkpt>
<trkpt lat="-27.1239599" lon="152.7600186">
<ele>518.562</ele>
<time>2016-05-21T00:56:50.844Z</time>
</trkpt>
<trkpt lat="-27.1237658" lon="152.7599572">
<ele>517.745</ele>
<time>2016-05-21T00:57:02.708Z</time>
</trkpt>
<trkpt lat="-27.1236688" lon="152.7600103">
<ele>515.893</ele>
<time>2016-05-21T00:57:06.548Z</time>
</trkpt>
<trkpt lat="-27.1235712" lon="152.7600442">
<ele>514.317</ele>
<time>2016-05-21T00:57:10.643Z</time>
</trkpt>
<trkpt lat="-27.1234827" lon="152.7600752">
<ele>512.844</ele>
<time>2016-05-21T00:57:13.793Z</time>
</trkpt>
<trkpt lat="-27.1233807" lon="152.7599869">
<ele>511.254</ele>
<time>2016-05-21T00:57:16.324Z</time>
</trkpt>
<trkpt lat="-27.1232040" lon="152.7596020">
<ele>509.962</ele>
<time>2016-05-21T00:57:20.454Z</time>
</trkpt>
<trkpt lat="-27.1230516" lon="152.7592089">
<ele>510.528</ele>
<time>2016-05-21T00:57:23.359Z</time>
</trkpt>
<trkpt lat="-27.1228455" lon="152.7586636">
<ele>513.567</ele>
<time>2016-05-21T00:57:26.843Z</time>
</trkpt>
<trkpt lat="-27.1226719" lon="152.7581611">
<ele>516.773</ele>
<time>2016-05-21T00:57:29.997Z</time>
</trkpt>
<trkpt lat="-27.1225393" lon="152.7578561">
<ele>517.715</ele>
<time>2016-05-21T00:57:31.926Z</time>
</trkpt>
<trkpt lat="-27.1223314" lon="152.7575872">
<ele>516.489</ele>
<time>2016-05-21T00:57:33.915Z</time>
</trkpt>
<trkpt lat="-27.1219913" lon="152.7571750">
<ele>514.425</ele>
<time>2016-05-21T00:57:37.002Z</time>
</trkpt>
<trkpt lat="-27.1215810" lon="152.7568457">
<ele>512.798</ele>
<time>2016-05-21T00:57:40.150Z</time>
</trkpt>
<trkpt lat="-27.1211728" lon="152.7565423">
<ele>511.704</ele>
<time>2016-05-21T00:57:43.291Z</time>
</trkpt>
<trkpt lat="-27.1209022" lon="152.7563530">
<ele>510.407</ele>
<time>2016-05-21T00:57:45.423Z</time>
</trkpt>
<trkpt lat="-27.1206302" lon="152.7561688">
<ele>508.839</ele>
<time>2016-05-21T00:57:47.603Z</time>
</trkpt>
<trkpt lat="-27.1203598" lon="152.7560021">
<ele>507.815</ele>
<time>2016-05-21T00:57:49.741Z</time>
</trkpt>
<trkpt lat="-27.1200886" lon="152.7558514">
<ele>507.819</ele>
<time>2016-05-21T00:57:51.780Z</time>
</trkpt>
<trkpt lat="-27.1197054" lon="152.7556043">
<ele>508.544</ele>
<time>2016-05-21T00:57:54.444Z</time>
</trkpt>
<trkpt lat="-27.1194307" lon="152.7554241">
<ele>509.874</ele>
<time>2016-05-21T00:57:56.201Z</time>
</trkpt>
<trkpt lat="-27.1191161" lon="152.7552375">
<ele>512.092</ele>
<time>2016-05-21T00:57:58.102Z</time>
</trkpt>
<trkpt lat="-27.1187720" lon="152.7550390">
<ele>514.907</ele>
<time>2016-05-21T00:58:00.148Z</time>
</trkpt>
<trkpt lat="-27.1182337" lon="152.7548054">
<ele>517.643</ele>
<time>2016-05-21T00:58:03.155Z</time>
</trkpt>
<trkpt lat="-27.1178533" lon="152.7546510">
<ele>519.853</ele>
<time>2016-05-21T00:58:05.273Z</time>
</trkpt>
<trkpt lat="-27.1172855" lon="152.7544499">
<ele>521.566</ele>
<time>2016-05-21T00:58:08.514Z</time>
</trkpt>
<trkpt lat="-27.1169346" lon="152.7543051">
<ele>523.217</ele>
<time>2016-05-21T00:58:10.617Z</time>
</trkpt>
<trkpt lat="-27.1166167" lon="152.7540886">
<ele>524.701</ele>
<time>2016-05-21T00:58:12.708Z</time>
</trkpt>
<trkpt lat="-27.1161947" lon="152.7536959">
<ele>525.516</ele>
<time>2016-05-21T00:58:15.822Z</time>
</trkpt>
<trkpt lat="-27.1158339" lon="152.7532213">
<ele>525.917</ele>
<time>2016-05-21T00:58:19.066Z</time>
</trkpt>
<trkpt lat="-27.1154682" lon="152.7527876">
<ele>526.377</ele>
<time>2016-05-21T00:58:22.083Z</time>
</trkpt>
<trkpt lat="-27.1151923" lon="152.7525574">
<ele>526.758</ele>
<time>2016-05-21T00:58:23.900Z</time>
</trkpt>
<trkpt lat="-27.1147067" lon="152.7522618">
<ele>526.799</ele>
<time>2016-05-21T00:58:26.749Z</time>
</trkpt>
<trkpt lat="-27.1143258" lon="152.7520849">
<ele>526.892</ele>
<time>2016-05-21T00:58:28.935Z</time>
</trkpt>
<trkpt lat="-27.1137623" lon="152.7518291">
<ele>527.381</ele>
<time>2016-05-21T00:58:32.055Z</time>
</trkpt>
<trkpt lat="-27.1134204" lon="152.7516617">
<ele>527.931</ele>
<time>2016-05-21T00:58:33.870Z</time>
</trkpt>
<trkpt lat="-27.1130484" lon="152.7514986">
<ele>527.910</ele>
<time>2016-05-21T00:58:35.761Z</time>
</trkpt>
<trkpt lat="-27.1124174" lon="152.7512122">
<ele>527.247</ele>
<time>2016-05-21T00:58:39.087Z</time>
</trkpt>
<trkpt lat="-27.1120147" lon="152.7510470">
<ele>526.503</ele>
<time>2016-05-21T00:58:41.208Z</time>
</trkpt>
<trkpt lat="-27.1114506" lon="152.7507883">
<ele>525.897</ele>
<time>2016-05-21T00:58:44.179Z</time>
</trkpt>
<trkpt lat="-27.1110538" lon="152.7506728">
<ele>524.979</ele>
<time>2016-05-21T00:58:46.163Z</time>
</trkpt>
<trkpt lat="-27.1104292" lon="152.7505414">
<ele>523.680</ele>
<time>2016-05-21T00:58:49.251Z</time>
</trkpt>
<trkpt lat="-27.1097936" lon="152.7504643">
<ele>522.572</ele>
<time>2016-05-21T00:58:52.370Z</time>
</trkpt>
<trkpt lat="-27.1093707" lon="152.7504737">
<ele>521.967</ele>
<time>2016-05-21T00:58:54.300Z</time>
</trkpt>
<trkpt lat="-27.1089596" lon="152.7505212">
<ele>521.748</ele>
<time>2016-05-21T00:58:56.134Z</time>
</trkpt>
<trkpt lat="-27.1085394" lon="152.7505991">
<ele>521.802</ele>
<time>2016-05-21T00:58:57.982Z</time>
</trkpt>
<trkpt lat="-27.1078221" lon="152.7507498">
<ele>522.073</ele>
<time>2016-05-21T00:59:01.359Z</time>
</trkpt>
<trkpt lat="-27.1073783" lon="152.7508371">
<ele>522.421</ele>
<time>2016-05-21T00:59:03.595Z</time>
</trkpt>
<trkpt lat="-27.1067385" lon="152.7509781">
<ele>522.655</ele>
<time>2016-05-21T00:59:07.146Z</time>
</trkpt>
<trkpt lat="-27.1063321" lon="152.7510506">
<ele>522.096</ele>
<time>2016-05-21T00:59:09.620Z</time>
</trkpt>
<trkpt lat="-27.1059577" lon="152.7511275">
<ele>520.180</ele>
<time>2016-05-21T00:59:12.047Z</time>
</trkpt>
<trkpt lat="-27.1056029" lon="152.7512053">
<ele>517.529</ele>
<time>2016-05-21T00:59:14.515Z</time>
</trkpt>
<trkpt lat="-27.1051137" lon="152.7513100">
<ele>515.166</ele>
<time>2016-05-21T00:59:17.611Z</time>
</trkpt>
<trkpt lat="-27.1048063" lon="152.7513677">
<ele>513.330</ele>
<time>2016-05-21T00:59:19.334Z</time>
</trkpt>
<trkpt lat="-27.1045233" lon="152.7514115">
<ele>511.670</ele>
<time>2016-05-21T00:59:20.664Z</time>
</trkpt>
<trkpt lat="-27.1042098" lon="152.7514200">
<ele>509.950</ele>
<time>2016-05-21T00:59:22.107Z</time>
</trkpt>
<trkpt lat="-27.1036322" lon="152.7513398">
<ele>508.530</ele>
<time>2016-05-21T00:59:24.474Z</time>
</trkpt>
<trkpt lat="-27.1029257" lon="152.7511670">
<ele>508.502</ele>
<time>2016-05-21T00:59:27.402Z</time>
</trkpt>
<trkpt lat="-27.1023956" lon="152.7509950">
<ele>510.857</ele>
<time>2016-05-21T00:59:29.766Z</time>
</trkpt>
<trkpt lat="-27.1016886" lon="152.7506050">
<ele>514.662</ele>
<time>2016-05-21T00:59:33.417Z</time>
</trkpt>
<trkpt lat="-27.1012046" lon="152.7500717">
<ele>517.204</ele>
<time>2016-05-21T00:59:36.492Z</time>
</trkpt>
<trkpt lat="-27.1009271" lon="152.7497070">
<ele>515.943</ele>
<time>2016-05-21T00:59:38.381Z</time>
</trkpt>
<trkpt lat="-27.1006221" lon="152.7493562">
<ele>511.265</ele>
<time>2016-05-21T00:59:40.311Z</time>
</trkpt>
<trkpt lat="-27.1000631" lon="152.7488889">
<ele>506.669</ele>
<time>2016-05-21T00:59:43.500Z</time>
</trkpt>
<trkpt lat="-27.0994407" lon="152.7485310">
<ele>505.212</ele>
<time>2016-05-21T00:59:46.673Z</time>
</trkpt>
<trkpt lat="-27.0987963" lon="152.7483086">
<ele>506.622</ele>
<time>2016-05-21T00:59:49.547Z</time>
</trkpt>
<trkpt lat="-27.0983525" lon="152.7482289">
<ele>508.167</ele>
<time>2016-05-21T00:59:51.434Z</time>
</trkpt>
<trkpt lat="-27.0978753" lon="152.7482099">
<ele>507.925</ele>
<time>2016-05-21T00:59:53.455Z</time>
</trkpt>
<trkpt lat="-27.0971324" lon="152.7483129">
<ele>506.856</ele>
<time>2016-05-21T00:59:56.791Z</time>
</trkpt>
<trkpt lat="-27.0964052" lon="152.7484662">
<ele>506.527</ele>
<time>2016-05-21T01:00:00.360Z</time>
</trkpt>
<trkpt lat="-27.0957321" lon="152.7486086">
<ele>507.103</ele>
<time>2016-05-21T01:00:03.899Z</time>
</trkpt>
<trkpt lat="-27.0951065" lon="152.7487284">
<ele>507.882</ele>
<time>2016-05-21T01:00:07.256Z</time>
</trkpt>
<trkpt lat="-27.0947129" lon="152.7487588">
<ele>508.560</ele>
<time>2016-05-21T01:00:09.298Z</time>
</trkpt>
<trkpt lat="-27.0941363" lon="152.7486638">
<ele>509.461</ele>
<time>2016-05-21T01:00:12.221Z</time>
</trkpt>
<trkpt lat="-27.0936012" lon="152.7484070">
<ele>510.905</ele>
<time>2016-05-21T01:00:15.125Z</time>
</trkpt>
<trkpt lat="-27.0930968" lon="152.7480455">
<ele>513.273</ele>
<time>2016-05-21T01:00:18.146Z</time>
</trkpt>
<trkpt lat="-27.0925833" lon="152.7476044">
<ele>516.505</ele>
<time>2016-05-21T01:00:21.388Z</time>
</trkpt>
<trkpt lat="-27.0921012" lon="152.7472060">
<ele>519.786</ele>
<time>2016-05-21T01:00:24.342Z</time>
</trkpt>
<trkpt lat="-27.0915536" lon="152.7468955">
<ele>522.264</ele>
<time>2016-05-21T01:00:27.326Z</time>
</trkpt>
<trkpt lat="-27.0911481" lon="152.7467758">
<ele>523.848</ele>
<time>2016-05-21T01:00:29.333Z</time>
</trkpt>
<trkpt lat="-27.0907337" lon="152.7467375">
<ele>525.292</ele>
<time>2016-05-21T01:00:31.317Z</time>
</trkpt>
<trkpt lat="-27.0901032" lon="152.7468127">
<ele>527.360</ele>
<time>2016-05-21T01:00:34.327Z</time>
</trkpt>
<trkpt lat="-27.0896921" lon="152.7469478">
<ele>530.091</ele>
<time>2016-05-21T01:00:36.338Z</time>
</trkpt>
<trkpt lat="-27.0893035" lon="152.7471498">
<ele>533.138</ele>
<time>2016-05-21T01:00:38.340Z</time>
</trkpt>
<trkpt lat="-27.0887961" lon="152.7475916">
<ele>536.025</ele>
<time>2016-05-21T01:00:41.295Z</time>
</trkpt>
<trkpt lat="-27.0885190" lon="152.7479724">
<ele>538.479</ele>
<time>2016-05-21T01:00:43.149Z</time>
</trkpt>
<trkpt lat="-27.0882121" lon="152.7486258">
<ele>540.342</ele>
<time>2016-05-21T01:00:45.711Z</time>
</trkpt>
<trkpt lat="-27.0880613" lon="152.7490982">
<ele>541.530</ele>
<time>2016-05-21T01:00:47.263Z</time>
</trkpt>
<trkpt lat="-27.0879365" lon="152.7495845">
<ele>542.226</ele>
<time>2016-05-21T01:00:48.742Z</time>
</trkpt>
<trkpt lat="-27.0877051" lon="152.7504396">
<ele>542.628</ele>
<time>2016-05-21T01:00:51.381Z</time>
</trkpt>
<trkpt lat="-27.0875401" lon="152.7511200">
<ele>543.042</ele>
<time>2016-05-21T01:00:53.538Z</time>
</trkpt>
<trkpt lat="-27.0873423" lon="152.7518244">
<ele>543.755</ele>
<time>2016-05-21T01:00:55.846Z</time>
</trkpt>
<trkpt lat="-27.0870872" lon="152.7527979">
<ele>544.161</ele>
<time>2016-05-21T01:00:59.108Z</time>
</trkpt>
<trkpt lat="-27.0868065" lon="152.7537270">
<ele>542.206</ele>
<time>2016-05-21T01:01:02.433Z</time>
</trkpt>
<trkpt lat="-27.0864148" lon="152.7545886">
<ele>536.542</ele>
<time>2016-05-21T01:01:05.748Z</time>
</trkpt>
<trkpt lat="-27.0861738" lon="152.7551169">
<ele>528.674</ele>
<time>2016-05-21T01:01:07.825Z</time>
</trkpt>
<trkpt lat="-27.0859668" lon="152.7556654">
<ele>520.740</ele>
<time>2016-05-21T01:01:09.933Z</time>
</trkpt>
<trkpt lat="-27.0857477" lon="152.7565535">
<ele>514.150</ele>
<time>2016-05-21T01:01:13.142Z</time>
</trkpt>
<trkpt lat="-27.0855904" lon="152.7571016">
<ele>510.238</ele>
<time>2016-05-21T01:01:15.173Z</time>
</trkpt>
<trkpt lat="-27.0852110" lon="152.7578606">
<ele>508.322</ele>
<time>2016-05-21T01:01:18.494Z</time>
</trkpt>
<trkpt lat="-27.0847039" lon="152.7585578">
<ele>506.736</ele>
<time>2016-05-21T01:01:22.374Z</time>
</trkpt>
<trkpt lat="-27.0843634" lon="152.7589834">
<ele>505.259</ele>
<time>2016-05-21T01:01:25.313Z</time>
</trkpt>
<trkpt lat="-27.0840434" lon="152.7593899">
<ele>503.982</ele>
<time>2016-05-21T01:01:28.314Z</time>
</trkpt>
<trkpt lat="-27.0835969" lon="152.7599263">
<ele>502.152</ele>
<time>2016-05-21T01:01:32.302Z</time>
</trkpt>
<trkpt lat="-27.0832761" lon="152.7601613">
<ele>498.689</ele>
<time>2016-05-21T01:01:34.413Z</time>
</trkpt>
<trkpt lat="-27.0829499" lon="152.7603038">
<ele>493.398</ele>
<time>2016-05-21T01:01:36.328Z</time>
</trkpt>
<trkpt lat="-27.0825414" lon="152.7605827">
<ele>487.507</ele>
<time>2016-05-21T01:01:39.116Z</time>
</trkpt>
<trkpt lat="-27.0823517" lon="152.7608759">
<ele>482.431</ele>
<time>2016-05-21T01:01:41.015Z</time>
</trkpt>
<trkpt lat="-27.0822984" lon="152.7612570">
<ele>479.075</ele>
<time>2016-05-21T01:01:43.007Z</time>
</trkpt>
<trkpt lat="-27.0823237" lon="152.7616984">
<ele>477.662</ele>
<time>2016-05-21T01:01:45.197Z</time>
</trkpt>
<trkpt lat="-27.0823987" lon="152.7623298">
<ele>478.408</ele>
<time>2016-05-21T01:01:48.434Z</time>
</trkpt>
<trkpt lat="-27.0823718" lon="152.7627054">
<ele>481.024</ele>
<time>2016-05-21T01:01:50.438Z</time>
</trkpt>
<trkpt lat="-27.0822470" lon="152.7630638">
<ele>483.766</ele>
<time>2016-05-21T01:01:52.393Z</time>
</trkpt>
<trkpt lat="-27.0819357" lon="152.7635696">
<ele>485.471</ele>
<time>2016-05-21T01:01:55.345Z</time>
</trkpt>
<trkpt lat="-27.0815674" lon="152.7640590">
<ele>486.554</ele>
<time>2016-05-21T01:01:58.308Z</time>
</trkpt>
<trkpt lat="-27.0813560" lon="152.7643722">
<ele>487.749</ele>
<time>2016-05-21T01:02:00.207Z</time>
</trkpt>
<trkpt lat="-27.0811394" lon="152.7648723">
<ele>489.347</ele>
<time>2016-05-21T01:02:03.013Z</time>
</trkpt>
<trkpt lat="-27.0810265" lon="152.7655010">
<ele>490.788</ele>
<time>2016-05-21T01:02:06.505Z</time>
</trkpt>
<trkpt lat="-27.0809945" lon="152.7659675">
<ele>491.762</ele>
<time>2016-05-21T01:02:09.334Z</time>
</trkpt>
<trkpt lat="-27.0809784" lon="152.7664043">
<ele>492.626</ele>
<time>2016-05-21T01:02:12.067Z</time>
</trkpt>
<trkpt lat="-27.0809481" lon="152.7670368">
<ele>493.220</ele>
<time>2016-05-21T01:02:16.203Z</time>
</trkpt>
<trkpt lat="-27.0809219" lon="152.7676156">
<ele>493.327</ele>
<time>2016-05-21T01:02:20.530Z</time>
</trkpt>
<trkpt lat="-27.0809136" lon="152.7679840">
<ele>493.240</ele>
<time>2016-05-21T01:02:23.486Z</time>
</trkpt>
<trkpt lat="-27.0808912" lon="152.7683049">
<ele>493.254</ele>
<time>2016-05-21T01:02:25.946Z</time>
</trkpt>
<trkpt lat="-27.0808708" lon="152.7687993">
<ele>493.350</ele>
<time>2016-05-21T01:02:29.490Z</time>
</trkpt>
<trkpt lat="-27.0808368" lon="152.7692797">
<ele>492.794</ele>
<time>2016-05-21T01:02:32.942Z</time>
</trkpt>
<trkpt lat="-27.0807833" lon="152.7697261">
<ele>490.826</ele>
<time>2016-05-21T01:02:36.160Z</time>
</trkpt>
<trkpt lat="-27.0806285" lon="152.7700628">
<ele>487.912</ele>
<time>2016-05-21T01:02:38.909Z</time>
</trkpt>
<trkpt lat="-27.0805674" lon="152.7704414">
<ele>484.877</ele>
<time>2016-05-21T01:02:41.667Z</time>
</trkpt>
<trkpt lat="-27.0806657" lon="152.7708280">
<ele>482.132</ele>
<time>2016-05-21T01:02:44.290Z</time>
</trkpt>
<trkpt lat="-27.0807810" lon="152.7712291">
<ele>480.198</ele>
<time>2016-05-21T01:02:46.791Z</time>
</trkpt>
<trkpt lat="-27.0807851" lon="152.7716502">
<ele>479.219</ele>
<time>2016-05-21T01:02:49.237Z</time>
</trkpt>
<trkpt lat="-27.0807422" lon="152.7719294">
<ele>478.326</ele>
<time>2016-05-21T01:02:50.877Z</time>
</trkpt>
<trkpt lat="-27.0806841" lon="152.7722178">
<ele>476.949</ele>
<time>2016-05-21T01:02:52.590Z</time>
</trkpt>
<trkpt lat="-27.0805195" lon="152.7725987">
<ele>475.424</ele>
<time>2016-05-21T01:02:55.054Z</time>
</trkpt>
<trkpt lat="-27.0803443" lon="152.7728016">
<ele>474.321</ele>
<time>2016-05-21T01:02:56.708Z</time>
</trkpt>
<trkpt lat="-27.0799963" lon="152.7731151">
<ele>473.895</ele>
<time>2016-05-21T01:02:59.612Z</time>
</trkpt>
<trkpt lat="-27.0796456" lon="152.7734811">
<ele>474.099</ele>
<time>2016-05-21T01:03:02.608Z</time>
</trkpt>
<trkpt lat="-27.0794545" lon="152.7737462">
<ele>474.815</ele>
<time>2016-05-21T01:03:04.436Z</time>
</trkpt>
<trkpt lat="-27.0792943" lon="152.7740571">
<ele>476.336</ele>
<time>2016-05-21T01:03:06.341Z</time>
</trkpt>
<trkpt lat="-27.0790923" lon="152.7745308">
<ele>478.533</ele>
<time>2016-05-21T01:03:09.099Z</time>
</trkpt>
<trkpt lat="-27.0789481" lon="152.7750363">
<ele>480.615</ele>
<time>2016-05-21T01:03:11.892Z</time>
</trkpt>
<trkpt lat="-27.0788790" lon="152.7755653">
<ele>482.034</ele>
<time>2016-05-21T01:03:14.811Z</time>
</trkpt>
<trkpt lat="-27.0789456" lon="152.7761247">
<ele>482.963</ele>
<time>2016-05-21T01:03:18.045Z</time>
</trkpt>
<trkpt lat="-27.0790331" lon="152.7765019">
<ele>483.684</ele>
<time>2016-05-21T01:03:20.348Z</time>
</trkpt>
<trkpt lat="-27.0791193" lon="152.7768865">
<ele>484.149</ele>
<time>2016-05-21T01:03:22.731Z</time>
</trkpt>
<trkpt lat="-27.0791893" lon="152.7774716">
<ele>484.314</ele>
<time>2016-05-21T01:03:26.139Z</time>
</trkpt>
<trkpt lat="-27.0791778" lon="152.7780475">
<ele>484.367</ele>
<time>2016-05-21T01:03:29.219Z</time>
</trkpt>
<trkpt lat="-27.0791236" lon="152.7785920">
<ele>484.599</ele>
<time>2016-05-21T01:03:32.046Z</time>
</trkpt>
<trkpt lat="-27.0790738" lon="152.7789339">
<ele>485.097</ele>
<time>2016-05-21T01:03:33.819Z</time>
</trkpt>
<trkpt lat="-27.0789950" lon="152.7792662">
<ele>485.040</ele>
<time>2016-05-21T01:03:35.575Z</time>
</trkpt>
<trkpt lat="-27.0788859" lon="152.7795852">
<ele>483.711</ele>
<time>2016-05-21T01:03:37.315Z</time>
</trkpt>
<trkpt lat="-27.0787334" lon="152.7798850">
<ele>481.218</ele>
<time>2016-05-21T01:03:39.000Z</time>
</trkpt>
<trkpt lat="-27.0785359" lon="152.7802035">
<ele>478.033</ele>
<time>2016-05-21T01:03:40.760Z</time>
</trkpt>
<trkpt lat="-27.0782067" lon="152.7806556">
<ele>475.148</ele>
<time>2016-05-21T01:03:43.167Z</time>
</trkpt>
<trkpt lat="-27.0779765" lon="152.7809598">
<ele>473.312</ele>
<time>2016-05-21T01:03:44.746Z</time>
</trkpt>
<trkpt lat="-27.0777110" lon="152.7812423">
<ele>471.899</ele>
<time>2016-05-21T01:03:46.372Z</time>
</trkpt>
<trkpt lat="-27.0774294" lon="152.7814773">
<ele>470.052</ele>
<time>2016-05-21T01:03:47.961Z</time>
</trkpt>
<trkpt lat="-27.0769468" lon="152.7817482">
<ele>467.758</ele>
<time>2016-05-21T01:03:50.426Z</time>
</trkpt>
<trkpt lat="-27.0765537" lon="152.7818901">
<ele>465.699</ele>
<time>2016-05-21T01:03:52.289Z</time>
</trkpt>
<trkpt lat="-27.0761111" lon="152.7819660">
<ele>464.439</ele>
<time>2016-05-21T01:03:54.303Z</time>
</trkpt>
<trkpt lat="-27.0756284" lon="152.7819583">
<ele>464.252</ele>
<time>2016-05-21T01:03:56.494Z</time>
</trkpt>
<trkpt lat="-27.0749556" lon="152.7818600">
<ele>464.963</ele>
<time>2016-05-21T01:03:59.573Z</time>
</trkpt>
<trkpt lat="-27.0745169" lon="152.7818191">
<ele>465.679</ele>
<time>2016-05-21T01:04:01.633Z</time>
</trkpt>
<trkpt lat="-27.0740629" lon="152.7818555">
<ele>465.760</ele>
<time>2016-05-21T01:04:03.929Z</time>
</trkpt>
<trkpt lat="-27.0733698" lon="152.7819535">
<ele>465.530</ele>
<time>2016-05-21T01:04:07.741Z</time>
</trkpt>
<trkpt lat="-27.0729212" lon="152.7819344">
<ele>465.665</ele>
<time>2016-05-21T01:04:10.112Z</time>
</trkpt>
<trkpt lat="-27.0724710" lon="152.7818296">
<ele>466.555</ele>
<time>2016-05-21T01:04:12.427Z</time>
</trkpt>
<trkpt lat="-27.0718044" lon="152.7816481">
<ele>468.197</ele>
<time>2016-05-21T01:04:15.865Z</time>
</trkpt>
<trkpt lat="-27.0712335" lon="152.7815980">
<ele>470.804</ele>
<time>2016-05-21T01:04:18.735Z</time>
</trkpt>
<trkpt lat="-27.0706933" lon="152.7816427">
<ele>474.116</ele>
<time>2016-05-21T01:04:21.460Z</time>
</trkpt>
<trkpt lat="-27.0700904" lon="152.7816162">
<ele>476.790</ele>
<time>2016-05-21T01:04:24.562Z</time>
</trkpt>
<trkpt lat="-27.0694838" lon="152.7814742">
<ele>478.783</ele>
<time>2016-05-21T01:04:27.808Z</time>
</trkpt>
<trkpt lat="-27.0690803" lon="152.7813658">
<ele>481.046</ele>
<time>2016-05-21T01:04:30.043Z</time>
</trkpt>
<trkpt lat="-27.0684737" lon="152.7812273">
<ele>483.583</ele>
<time>2016-05-21T01:04:33.437Z</time>
</trkpt>
<trkpt lat="-27.0678612" lon="152.7811176">
<ele>485.929</ele>
<time>2016-05-21T01:04:36.918Z</time>
</trkpt>
<trkpt lat="-27.0674627" lon="152.7810657">
<ele>487.541</ele>
<time>2016-05-21T01:04:39.177Z</time>
</trkpt>
<trkpt lat="-27.0670652" lon="152.7809979">
<ele>488.182</ele>
<time>2016-05-21T01:04:41.410Z</time>
</trkpt>
<trkpt lat="-27.0664873" lon="152.7809171">
<ele>488.033</ele>
<time>2016-05-21T01:04:44.594Z</time>
</trkpt>
<trkpt lat="-27.0659248" lon="152.7808757">
<ele>487.110</ele>
<time>2016-05-21T01:04:47.413Z</time>
</trkpt>
<trkpt lat="-27.0655600" lon="152.7808626">
<ele>485.682</ele>
<time>2016-05-21T01:04:49.009Z</time>
</trkpt>
<trkpt lat="-27.0650167" lon="152.7808506">
<ele>484.032</ele>
<time>2016-05-21T01:04:51.287Z</time>
</trkpt>
<trkpt lat="-27.0646493" lon="152.7808129">
<ele>481.405</ele>
<time>2016-05-21T01:04:52.781Z</time>
</trkpt>
<trkpt lat="-27.0642784" lon="152.7807214">
<ele>477.413</ele>
<time>2016-05-21T01:04:54.333Z</time>
</trkpt>
<trkpt lat="-27.0639318" lon="152.7805827">
<ele>473.317</ele>
<time>2016-05-21T01:04:55.884Z</time>
</trkpt>
<trkpt lat="-27.0634339" lon="152.7802714">
<ele>470.012</ele>
<time>2016-05-21T01:04:58.369Z</time>
</trkpt>
<trkpt lat="-27.0630826" lon="152.7799637">
<ele>466.963</ele>
<time>2016-05-21T01:05:00.463Z</time>
</trkpt>
<trkpt lat="-27.0624980" lon="152.7794237">
<ele>464.311</ele>
<time>2016-05-21T01:05:04.455Z</time>
</trkpt>
<trkpt lat="-27.0619002" lon="152.7788778">
<ele>462.499</ele>
<time>2016-05-21T01:05:08.787Z</time>
</trkpt>
<trkpt lat="-27.0615308" lon="152.7785277">
<ele>461.020</ele>
<time>2016-05-21T01:05:11.319Z</time>
</trkpt>
<trkpt lat="-27.0610475" lon="152.7779808">
<ele>458.797</ele>
<time>2016-05-21T01:05:14.714Z</time>
</trkpt>
<trkpt lat="-27.0607630" lon="152.7776100">
<ele>454.980</ele>
<time>2016-05-21T01:05:16.837Z</time>
</trkpt>
<trkpt lat="-27.0605161" lon="152.7772684">
<ele>449.615</ele>
<time>2016-05-21T01:05:18.683Z</time>
</trkpt>
<trkpt lat="-27.0601794" lon="152.7768034">
<ele>443.792</ele>
<time>2016-05-21T01:05:21.078Z</time>
</trkpt>
<trkpt lat="-27.0599622" lon="152.7764980">
<ele>438.498</ele>
<time>2016-05-21T01:05:22.611Z</time>
</trkpt>
<trkpt lat="-27.0595818" lon="152.7759842">
<ele>434.451</ele>
<time>2016-05-21T01:05:25.287Z</time>
</trkpt>
<trkpt lat="-27.0593128" lon="152.7756219">
<ele>432.560</ele>
<time>2016-05-21T01:05:27.243Z</time>
</trkpt>
<trkpt lat="-27.0588383" lon="152.7751516">
<ele>432.803</ele>
<time>2016-05-21T01:05:30.215Z</time>
</trkpt>
<trkpt lat="-27.0584780" lon="152.7749005">
<ele>433.516</ele>
<time>2016-05-21T01:05:32.184Z</time>
</trkpt>
<trkpt lat="-27.0580579" lon="152.7747112">
<ele>433.458</ele>
<time>2016-05-21T01:05:34.266Z</time>
</trkpt>
<trkpt lat="-27.0575925" lon="152.7745649">
<ele>433.417</ele>
<time>2016-05-21T01:05:36.486Z</time>
</trkpt>
<trkpt lat="-27.0569232" lon="152.7743772">
<ele>434.307</ele>
<time>2016-05-21T01:05:39.593Z</time>
</trkpt>
<trkpt lat="-27.0564981" lon="152.7742658">
<ele>434.994</ele>
<time>2016-05-21T01:05:41.477Z</time>
</trkpt>
<trkpt lat="-27.0558766" lon="152.7740887">
<ele>434.285</ele>
<time>2016-05-21T01:05:44.189Z</time>
</trkpt>
<trkpt lat="-27.0552183" lon="152.7739182">
<ele>432.606</ele>
<time>2016-05-21T01:05:47.038Z</time>
</trkpt>
<trkpt lat="-27.0547789" lon="152.7737999">
<ele>430.731</ele>
<time>2016-05-21T01:05:49.003Z</time>
</trkpt>
<trkpt lat="-27.0541317" lon="152.7736083">
<ele>429.227</ele>
<time>2016-05-21T01:05:51.981Z</time>
</trkpt>
<trkpt lat="-27.0535007" lon="152.7732796">
<ele>428.574</ele>
<time>2016-05-21T01:05:55.236Z</time>
</trkpt>
<trkpt lat="-27.0529095" lon="152.7727873">
<ele>428.723</ele>
<time>2016-05-21T01:05:58.965Z</time>
</trkpt>
<trkpt lat="-27.0523517" lon="152.7722473">
<ele>429.534</ele>
<time>2016-05-21T01:06:03.038Z</time>
</trkpt>
<trkpt lat="-27.0519902" lon="152.7719034">
<ele>430.785</ele>
<time>2016-05-21T01:06:05.714Z</time>
</trkpt>
<trkpt lat="-27.0514516" lon="152.7714089">
<ele>431.948</ele>
<time>2016-05-21T01:06:09.548Z</time>
</trkpt>
<trkpt lat="-27.0510689" lon="152.7711406">
<ele>432.765</ele>
<time>2016-05-21T01:06:12.099Z</time>
</trkpt>
<trkpt lat="-27.0504682" lon="152.7708995">
<ele>433.447</ele>
<time>2016-05-21T01:06:15.781Z</time>
</trkpt>
<trkpt lat="-27.0500494" lon="152.7708519">
<ele>434.192</ele>
<time>2016-05-21T01:06:18.262Z</time>
</trkpt>
<trkpt lat="-27.0494974" lon="152.7709218">
<ele>434.912</ele>
<time>2016-05-21T01:06:21.726Z</time>
</trkpt>
<trkpt lat="-27.0491601" lon="152.7710375">
<ele>435.399</ele>
<time>2016-05-21T01:06:24.026Z</time>
</trkpt>
<trkpt lat="-27.0486516" lon="152.7712739">
<ele>435.655</ele>
<time>2016-05-21T01:06:27.801Z</time>
</trkpt>
<trkpt lat="-27.0483038" lon="152.7714554">
<ele>435.837</ele>
<time>2016-05-21T01:06:30.593Z</time>
</trkpt>
<trkpt lat="-27.0479656" lon="152.7716377">
<ele>435.989</ele>
<time>2016-05-21T01:06:33.309Z</time>
</trkpt>
<trkpt lat="-27.0474832" lon="152.7718856">
<ele>435.807</ele>
<time>2016-05-21T01:06:37.181Z</time>
</trkpt>
<trkpt lat="-27.0470027" lon="152.7721296">
<ele>434.489</ele>
<time>2016-05-21T01:06:41.357Z</time>
</trkpt>
<trkpt lat="-27.0466843" lon="152.7722984">
<ele>431.630</ele>
<time>2016-05-21T01:06:44.350Z</time>
</trkpt>
<trkpt lat="-27.0464374" lon="152.7725390">
<ele>427.800</ele>
<time>2016-05-21T01:06:47.232Z</time>
</trkpt>
<trkpt lat="-27.0461896" lon="152.7729849">
<ele>423.929</ele>
<time>2016-05-21T01:06:51.319Z</time>
</trkpt>
<trkpt lat="-27.0461058" lon="152.7733073">
<ele>420.691</ele>
<time>2016-05-21T01:06:53.650Z</time>
</trkpt>
<trkpt lat="-27.0460708" lon="152.7737972">
<ele>417.975</ele>
<time>2016-05-21T01:06:56.440Z</time>
</trkpt>
<trkpt lat="-27.0461486" lon="152.7740907">
<ele>415.554</ele>
<time>2016-05-21T01:06:58.002Z</time>
</trkpt>
<trkpt lat="-27.0462015" lon="152.7744072">
<ele>415.466</ele>
<time>2016-05-21T01:06:59.601Z</time>
</trkpt>
<trkpt lat="-27.0462016" lon="152.7747321">
<ele>418.939</ele>
<time>2016-05-21T01:07:01.275Z</time>
</trkpt>
<trkpt lat="-27.0462263" lon="152.7751980">
<ele>422.763</ele>
<time>2016-05-21T01:07:03.815Z</time>
</trkpt>
<trkpt lat="-27.0461468" lon="152.7754689">
<ele>423.675</ele>
<time>2016-05-21T01:07:05.406Z</time>
</trkpt>
<trkpt lat="-27.0460292" lon="152.7757176">
<ele>422.120</ele>
<time>2016-05-21T01:07:06.970Z</time>
</trkpt>
<trkpt lat="-27.0457572" lon="152.7759455">
<ele>419.728</ele>
<time>2016-05-21T01:07:09.063Z</time>
</trkpt>
<trkpt lat="-27.0454877" lon="152.7762049">
<ele>416.703</ele>
<time>2016-05-21T01:07:11.223Z</time>
</trkpt>
<trkpt lat="-27.0454291" lon="152.7764630">
<ele>412.814</ele>
<time>2016-05-21T01:07:12.657Z</time>
</trkpt>
<trkpt lat="-27.0453622" lon="152.7767298">
<ele>409.033</ele>
<time>2016-05-21T01:07:14.150Z</time>
</trkpt>
<trkpt lat="-27.0450230" lon="152.7769518">
<ele>406.046</ele>
<time>2016-05-21T01:07:16.514Z</time>
</trkpt>
<trkpt lat="-27.0444916" lon="152.7772031">
<ele>403.593</ele>
<time>2016-05-21T01:07:19.959Z</time>
</trkpt>
<trkpt lat="-27.0441403" lon="152.7773632">
<ele>401.175</ele>
<time>2016-05-21T01:07:22.209Z</time>
</trkpt>
<trkpt lat="-27.0436541" lon="152.7775288">
<ele>398.216</ele>
<time>2016-05-21T01:07:25.341Z</time>
</trkpt>
<trkpt lat="-27.0431618" lon="152.7775856">
<ele>394.874</ele>
<time>2016-05-21T01:07:28.856Z</time>
</trkpt>
<trkpt lat="-27.0426627" lon="152.7775389">
<ele>391.969</ele>
<time>2016-05-21T01:07:32.735Z</time>
</trkpt>
<trkpt lat="-27.0421753" lon="152.7774688">
<ele>389.763</ele>
<time>2016-05-21T01:07:36.508Z</time>
</trkpt>
<trkpt lat="-27.0416710" lon="152.7774427">
<ele>387.474</ele>
<time>2016-05-21T01:07:40.432Z</time>
</trkpt>
<trkpt lat="-27.0411732" lon="152.7774379">
<ele>384.533</ele>
<time>2016-05-21T01:07:44.193Z</time>
</trkpt>
<trkpt lat="-27.0406375" lon="152.7773802">
<ele>380.904</ele>
<time>2016-05-21T01:07:48.496Z</time>
</trkpt>
<trkpt lat="-27.0402949" lon="152.7773067">
<ele>376.847</ele>
<time>2016-05-21T01:07:51.507Z</time>
</trkpt>
<trkpt lat="-27.0398043" lon="152.7772640">
<ele>373.278</ele>
<time>2016-05-21T01:07:55.877Z</time>
</trkpt>
<trkpt lat="-27.0393988" lon="152.7772110">
<ele>369.810</ele>
<time>2016-05-21T01:07:59.182Z</time>
</trkpt>
<trkpt lat="-27.0390601" lon="152.7769967">
<ele>365.129</ele>
<time>2016-05-21T01:08:02.009Z</time>
</trkpt>
<trkpt lat="-27.0387815" lon="152.7769623">
<ele>360.100</ele>
<time>2016-05-21T01:08:04.181Z</time>
</trkpt>
<trkpt lat="-27.0384643" lon="152.7772184">
<ele>356.369</ele>
<time>2016-05-21T01:08:07.520Z</time>
</trkpt>
<trkpt lat="-27.0380949" lon="152.7773022">
<ele>353.028</ele>
<time>2016-05-21T01:08:11.011Z</time>
</trkpt>
<trkpt lat="-27.0378029" lon="152.7772596">
<ele>347.858</ele>
<time>2016-05-21T01:08:13.787Z</time>
</trkpt>
<trkpt lat="-27.0373893" lon="152.7772586">
<ele>341.334</ele>
<time>2016-05-21T01:08:17.179Z</time>
</trkpt>
<trkpt lat="-27.0371522" lon="152.7773513">
<ele>335.568</ele>
<time>2016-05-21T01:08:19.009Z</time>
</trkpt>
<trkpt lat="-27.0369299" lon="152.7773641">
<ele>330.782</ele>
<time>2016-05-21T01:08:20.610Z</time>
</trkpt>
<trkpt lat="-27.0367070" lon="152.7772644">
<ele>326.555</ele>
<time>2016-05-21T01:08:22.390Z</time>
</trkpt>
<trkpt lat="-27.0365085" lon="152.7773567">
<ele>322.983</ele>
<time>2016-05-21T01:08:24.045Z</time>
</trkpt>
<trkpt lat="-27.0363248" lon="152.7774514">
<ele>318.837</ele>
<time>2016-05-21T01:08:25.628Z</time>
</trkpt>
<trkpt lat="-27.0360935" lon="152.7774887">
<ele>312.324</ele>
<time>2016-05-21T01:08:27.498Z</time>
</trkpt>
<trkpt lat="-27.0356859" lon="152.7771582">
<ele>304.559</ele>
<time>2016-05-21T01:08:31.568Z</time>
</trkpt>
<trkpt lat="-27.0354331" lon="152.7769769">
<ele>298.598</ele>
<time>2016-05-21T01:08:33.870Z</time>
</trkpt>
<trkpt lat="-27.0351666" lon="152.7769411">
<ele>295.253</ele>
<time>2016-05-21T01:08:35.737Z</time>
</trkpt>
<trkpt lat="-27.0348623" lon="152.7767534">
<ele>292.544</ele>
<time>2016-05-21T01:08:38.025Z</time>
</trkpt>
<trkpt lat="-27.0347347" lon="152.7765523">
<ele>289.023</ele>
<time>2016-05-21T01:08:39.418Z</time>
</trkpt>
<trkpt lat="-27.0345265" lon="152.7764697">
<ele>285.198</ele>
<time>2016-05-21T01:08:40.787Z</time>
</trkpt>
<trkpt lat="-27.0342453" lon="152.7765776">
<ele>281.992</ele>
<time>2016-05-21T01:08:42.591Z</time>
</trkpt>
<trkpt lat="-27.0339780" lon="152.7770024">
<ele>278.941</ele>
<time>2016-05-21T01:08:45.429Z</time>
</trkpt>
<trkpt lat="-27.0337194" lon="152.7771545">
<ele>275.044</ele>
<time>2016-05-21T01:08:47.260Z</time>
</trkpt>
<trkpt lat="-27.0333842" lon="152.7774436">
<ele>269.846</ele>
<time>2016-05-21T01:08:49.989Z</time>
</trkpt>
<trkpt lat="-27.0332124" lon="152.7776164">
<ele>263.783</ele>
<time>2016-05-21T01:08:51.393Z</time>
</trkpt>
<trkpt lat="-27.0328415" lon="152.7777756">
<ele>257.856</ele>
<time>2016-05-21T01:08:53.663Z</time>
</trkpt>
<trkpt lat="-27.0326646" lon="152.7779596">
<ele>251.873</ele>
<time>2016-05-21T01:08:55.009Z</time>
</trkpt>
<trkpt lat="-27.0324423" lon="152.7780921">
<ele>244.650</ele>
<time>2016-05-21T01:08:56.458Z</time>
</trkpt>
<trkpt lat="-27.0320555" lon="152.7781945">
<ele>236.968</ele>
<time>2016-05-21T01:08:58.925Z</time>
</trkpt>
<trkpt lat="-27.0316814" lon="152.7781503">
<ele>230.868</ele>
<time>2016-05-21T01:09:01.469Z</time>
</trkpt>
<trkpt lat="-27.0312111" lon="152.7781937">
<ele>226.655</ele>
<time>2016-05-21T01:09:04.781Z</time>
</trkpt>
<trkpt lat="-27.0309009" lon="152.7783195">
<ele>222.356</ele>
<time>2016-05-21T01:09:07.238Z</time>
</trkpt>
<trkpt lat="-27.0306101" lon="152.7785191">
<ele>216.258</ele>
<time>2016-05-21T01:09:09.642Z</time>
</trkpt>
<trkpt lat="-27.0303505" lon="152.7787625">
<ele>209.465</ele>
<time>2016-05-21T01:09:11.975Z</time>
</trkpt>
<trkpt lat="-27.0299600" lon="152.7790770">
<ele>203.047</ele>
<time>2016-05-21T01:09:15.548Z</time>
</trkpt>
<trkpt lat="-27.0295296" lon="152.7792691">
<ele>197.054</ele>
<time>2016-05-21T01:09:19.290Z</time>
</trkpt>
<trkpt lat="-27.0291651" lon="152.7793367">
<ele>192.759</ele>
<time>2016-05-21T01:09:21.795Z</time>
</trkpt>
<trkpt lat="-27.0287909" lon="152.7793211">
<ele>191.397</ele>
<time>2016-05-21T01:09:24.333Z</time>
</trkpt>
<trkpt lat="-27.0284764" lon="152.7792319">
<ele>192.780</ele>
<time>2016-05-21T01:09:26.532Z</time>
</trkpt>
<trkpt lat="-27.0280113" lon="152.7791841">
<ele>196.087</ele>
<time>2016-05-21T01:09:29.699Z</time>
</trkpt>
<trkpt lat="-27.0277193" lon="152.7792716">
<ele>199.683</ele>
<time>2016-05-21T01:09:31.747Z</time>
</trkpt>
<trkpt lat="-27.0272946" lon="152.7793894">
<ele>202.588</ele>
<time>2016-05-21T01:09:34.713Z</time>
</trkpt>
<trkpt lat="-27.0270428" lon="152.7793058">
<ele>205.330</ele>
<time>2016-05-21T01:09:36.493Z</time>
</trkpt>
<trkpt lat="-27.0268416" lon="152.7790612">
<ele>208.259</ele>
<time>2016-05-21T01:09:38.504Z</time>
</trkpt>
<trkpt lat="-27.0264995" lon="152.7786742">
<ele>211.460</ele>
<time>2016-05-21T01:09:41.796Z</time>
</trkpt>
<trkpt lat="-27.0261837" lon="152.7783621">
<ele>215.669</ele>
<time>2016-05-21T01:09:44.648Z</time>
</trkpt>
<trkpt lat="-27.0260050" lon="152.7782110">
<ele>220.488</ele>
<time>2016-05-21T01:09:46.165Z</time>
</trkpt>
<trkpt lat="-27.0258156" lon="152.7781006">
<ele>224.224</ele>
<time>2016-05-21T01:09:47.612Z</time>
</trkpt>
<trkpt lat="-27.0258156" lon="152.7781006">
<ele>224.224</ele>
<time>2016-05-21T01:09:47.612Z</time>
</trkpt>
<trkpt lat="-27.0203826" lon="152.7798093">
<ele>190.027</ele>
<time>2016-05-21T01:10:25.866Z</time>
</trkpt>
<trkpt lat="-27.0200275" lon="152.7796763">
<ele>189.939</ele>
<time>2016-05-21T01:10:28.404Z</time>
</trkpt>
<trkpt lat="-27.0196889" lon="152.7795520">
<ele>189.746</ele>
<time>2016-05-21T01:10:30.818Z</time>
</trkpt>
<trkpt lat="-27.0193539" lon="152.7794192">
<ele>189.010</ele>
<time>2016-05-21T01:10:33.178Z</time>
</trkpt>
<trkpt lat="-27.0188120" lon="152.7792426">
<ele>187.555</ele>
<time>2016-05-21T01:10:36.232Z</time>
</trkpt>
<trkpt lat="-27.0184056" lon="152.7791646">
<ele>185.882</ele>
<time>2016-05-21T01:10:38.573Z</time>
</trkpt>
<trkpt lat="-27.0180041" lon="152.7790936">
<ele>184.475</ele>
<time>2016-05-21T01:10:40.867Z</time>
</trkpt>
<trkpt lat="-27.0173888" lon="152.7790137">
<ele>183.271</ele>
<time>2016-05-21T01:10:44.221Z</time>
</trkpt>
<trkpt lat="-27.0169743" lon="152.7789696">
<ele>181.849</ele>
<time>2016-05-21T01:10:46.344Z</time>
</trkpt>
<trkpt lat="-27.0165633" lon="152.7789184">
<ele>180.025</ele>
<time>2016-05-21T01:10:48.415Z</time>
</trkpt>
<trkpt lat="-27.0159655" lon="152.7788366">
<ele>177.936</ele>
<time>2016-05-21T01:10:51.416Z</time>
</trkpt>
<trkpt lat="-27.0155488" lon="152.7788028">
<ele>175.454</ele>
<time>2016-05-21T01:10:53.499Z</time>
</trkpt>
<trkpt lat="-27.0149077" lon="152.7788174">
<ele>172.777</ele>
<time>2016-05-21T01:10:56.725Z</time>
</trkpt>
<trkpt lat="-27.0144711" lon="152.7788350">
<ele>170.663</ele>
<time>2016-05-21T01:10:58.905Z</time>
</trkpt>
<trkpt lat="-27.0137930" lon="152.7787909">
<ele>169.347</ele>
<time>2016-05-21T01:11:02.232Z</time>
</trkpt>
<trkpt lat="-27.0131043" lon="152.7786770">
<ele>168.608</ele>
<time>2016-05-21T01:11:05.518Z</time>
</trkpt>
<trkpt lat="-27.0126496" lon="152.7786065">
<ele>168.318</ele>
<time>2016-05-21T01:11:07.600Z</time>
</trkpt>
<trkpt lat="-27.0120100" lon="152.7785044">
<ele>167.764</ele>
<time>2016-05-21T01:11:10.512Z</time>
</trkpt>
<trkpt lat="-27.0115866" lon="152.7784482">
<ele>166.382</ele>
<time>2016-05-21T01:11:12.478Z</time>
</trkpt>
<trkpt lat="-27.0109808" lon="152.7783578">
<ele>164.532</ele>
<time>2016-05-21T01:11:15.360Z</time>
</trkpt>
<trkpt lat="-27.0103243" lon="152.7783272">
<ele>162.550</ele>
<time>2016-05-21T01:11:18.569Z</time>
</trkpt>
<trkpt lat="-27.0096354" lon="152.7783657">
<ele>160.588</ele>
<time>2016-05-21T01:11:21.917Z</time>
</trkpt>
<trkpt lat="-27.0089320" lon="152.7784300">
<ele>158.764</ele>
<time>2016-05-21T01:11:25.213Z</time>
</trkpt>
<trkpt lat="-27.0085032" lon="152.7784961">
<ele>156.326</ele>
<time>2016-05-21T01:11:27.164Z</time>
</trkpt>
<trkpt lat="-27.0078460" lon="152.7786664">
<ele>152.897</ele>
<time>2016-05-21T01:11:30.195Z</time>
</trkpt>
<trkpt lat="-27.0074405" lon="152.7788178">
<ele>149.622</ele>
<time>2016-05-21T01:11:32.165Z</time>
</trkpt>
<trkpt lat="-27.0068317" lon="152.7790952">
<ele>147.380</ele>
<time>2016-05-21T01:11:35.239Z</time>
</trkpt>
<trkpt lat="-27.0064369" lon="152.7793413">
<ele>145.920</ele>
<time>2016-05-21T01:11:37.373Z</time>
</trkpt>
<trkpt lat="-27.0060372" lon="152.7796151">
<ele>145.001</ele>
<time>2016-05-21T01:11:39.558Z</time>
</trkpt>
<trkpt lat="-27.0054702" lon="152.7800844">
<ele>144.706</ele>
<time>2016-05-21T01:11:42.741Z</time>
</trkpt>
<trkpt lat="-27.0049667" lon="152.7805928">
<ele>144.863</ele>
<time>2016-05-21T01:11:45.752Z</time>
</trkpt>
<trkpt lat="-27.0045026" lon="152.7811936">
<ele>145.128</ele>
<time>2016-05-21T01:11:48.912Z</time>
</trkpt>
<trkpt lat="-27.0042250" lon="152.7816206">
<ele>145.669</ele>
<time>2016-05-21T01:11:51.005Z</time>
</trkpt>
<trkpt lat="-27.0039707" lon="152.7820501">
<ele>146.716</ele>
<time>2016-05-21T01:11:53.019Z</time>
</trkpt>
<trkpt lat="-27.0035937" lon="152.7826760">
<ele>147.077</ele>
<time>2016-05-21T01:11:56.029Z</time>
</trkpt>
<trkpt lat="-27.0032341" lon="152.7832883">
<ele>145.607</ele>
<time>2016-05-21T01:11:59.008Z</time>
</trkpt>
<trkpt lat="-27.0030012" lon="152.7836889">
<ele>143.087</ele>
<time>2016-05-21T01:12:00.981Z</time>
</trkpt>
<trkpt lat="-27.0026727" lon="152.7842486">
<ele>140.884</ele>
<time>2016-05-21T01:12:03.866Z</time>
</trkpt>
<trkpt lat="-27.0023474" lon="152.7847900">
<ele>139.529</ele>
<time>2016-05-21T01:12:06.813Z</time>
</trkpt>
<trkpt lat="-27.0021410" lon="152.7851931">
<ele>138.894</ele>
<time>2016-05-21T01:12:08.980Z</time>
</trkpt>
<trkpt lat="-27.0019616" lon="152.7856311">
<ele>138.593</ele>
<time>2016-05-21T01:12:11.180Z</time>
</trkpt>
<trkpt lat="-27.0018152" lon="152.7860736">
<ele>138.366</ele>
<time>2016-05-21T01:12:13.249Z</time>
</trkpt>
<trkpt lat="-27.0016477" lon="152.7867687">
<ele>137.996</ele>
<time>2016-05-21T01:12:16.343Z</time>
</trkpt>
<trkpt lat="-27.0015405" lon="152.7874900">
<ele>137.480</ele>
<time>2016-05-21T01:12:19.454Z</time>
</trkpt>
<trkpt lat="-27.0014790" lon="152.7882290">
<ele>137.262</ele>
<time>2016-05-21T01:12:22.572Z</time>
</trkpt>
<trkpt lat="-27.0014069" lon="152.7889769">
<ele>137.656</ele>
<time>2016-05-21T01:12:25.690Z</time>
</trkpt>
<trkpt lat="-27.0013641" lon="152.7894854">
<ele>138.518</ele>
<time>2016-05-21T01:12:27.782Z</time>
</trkpt>
<trkpt lat="-27.0013143" lon="152.7900233">
<ele>139.602</ele>
<time>2016-05-21T01:12:29.951Z</time>
</trkpt>
<trkpt lat="-27.0012384" lon="152.7907580">
<ele>140.652</ele>
<time>2016-05-21T01:12:32.901Z</time>
</trkpt>
<trkpt lat="-27.0011852" lon="152.7912114">
<ele>141.363</ele>
<time>2016-05-21T01:12:34.790Z</time>
</trkpt>
<trkpt lat="-27.0010421" lon="152.7918110">
<ele>141.108</ele>
<time>2016-05-21T01:12:37.605Z</time>
</trkpt>
<trkpt lat="-27.0008104" lon="152.7923565">
<ele>139.386</ele>
<time>2016-05-21T01:12:40.557Z</time>
</trkpt>
<trkpt lat="-27.0005966" lon="152.7926795">
<ele>137.034</ele>
<time>2016-05-21T01:12:42.597Z</time>
</trkpt>
<trkpt lat="-27.0003548" lon="152.7929697">
<ele>135.598</ele>
<time>2016-05-21T01:12:44.641Z</time>
</trkpt>
<trkpt lat="-27.0000885" lon="152.7932226">
<ele>135.709</ele>
<time>2016-05-21T01:12:46.676Z</time>
</trkpt>
<trkpt lat="-26.9997939" lon="152.7934428">
<ele>137.081</ele>
<time>2016-05-21T01:12:48.751Z</time>
</trkpt>
<trkpt lat="-26.9992905" lon="152.7936853">
<ele>139.046</ele>
<time>2016-05-21T01:12:51.931Z</time>
</trkpt>
<trkpt lat="-26.9989289" lon="152.7937839">
<ele>140.783</ele>
<time>2016-05-21T01:12:54.056Z</time>
</trkpt>
<trkpt lat="-26.9983584" lon="152.7938766">
<ele>141.819</ele>
<time>2016-05-21T01:12:57.233Z</time>
</trkpt>
<trkpt lat="-26.9977410" lon="152.7939796">
<ele>142.426</ele>
<time>2016-05-21T01:13:00.445Z</time>
</trkpt>
<trkpt lat="-26.9973205" lon="152.7940458">
<ele>143.036</ele>
<time>2016-05-21T01:13:02.530Z</time>
</trkpt>
<trkpt lat="-26.9969127" lon="152.7941007">
<ele>143.617</ele>
<time>2016-05-21T01:13:04.554Z</time>
</trkpt>
<trkpt lat="-26.9962979" lon="152.7941909">
<ele>143.933</ele>
<time>2016-05-21T01:13:07.668Z</time>
</trkpt>
<trkpt lat="-26.9958806" lon="152.7942560">
<ele>143.903</ele>
<time>2016-05-21T01:13:09.761Z</time>
</trkpt>
<trkpt lat="-26.9952025" lon="152.7943577">
<ele>143.682</ele>
<time>2016-05-21T01:13:13.012Z</time>
</trkpt>
<trkpt lat="-26.9947858" lon="152.7944192">
<ele>143.502</ele>
<time>2016-05-21T01:13:14.969Z</time>
</trkpt>
<trkpt lat="-26.9943586" lon="152.7944853">
<ele>143.734</ele>
<time>2016-05-21T01:13:17.006Z</time>
</trkpt>
<trkpt lat="-26.9937482" lon="152.7945680">
<ele>144.494</ele>
<time>2016-05-21T01:13:19.969Z</time>
</trkpt>
<trkpt lat="-26.9931189" lon="152.7946644">
<ele>145.060</ele>
<time>2016-05-21T01:13:23.068Z</time>
</trkpt>
<trkpt lat="-26.9926902" lon="152.7947394">
<ele>144.759</ele>
<time>2016-05-21T01:13:25.174Z</time>
</trkpt>
<trkpt lat="-26.9920741" lon="152.7948109">
<ele>143.613</ele>
<time>2016-05-21T01:13:28.187Z</time>
</trkpt>
<trkpt lat="-26.9916355" lon="152.7948818">
<ele>141.205</ele>
<time>2016-05-21T01:13:30.338Z</time>
</trkpt>
<trkpt lat="-26.9912127" lon="152.7949432">
<ele>137.314</ele>
<time>2016-05-21T01:13:32.396Z</time>
</trkpt>
<trkpt lat="-26.9908201" lon="152.7950177">
<ele>133.321</ele>
<time>2016-05-21T01:13:34.343Z</time>
</trkpt>
<trkpt lat="-26.9904443" lon="152.7951196">
<ele>130.568</ele>
<time>2016-05-21T01:13:36.286Z</time>
</trkpt>
<trkpt lat="-26.9900559" lon="152.7952641">
<ele>129.022</ele>
<time>2016-05-21T01:13:38.386Z</time>
</trkpt>
<trkpt lat="-26.9895288" lon="152.7955247">
<ele>128.328</ele>
<time>2016-05-21T01:13:41.510Z</time>
</trkpt>
<trkpt lat="-26.9891122" lon="152.7957741">
<ele>128.227</ele>
<time>2016-05-21T01:13:44.479Z</time>
</trkpt>
<trkpt lat="-26.9887911" lon="152.7960156">
<ele>128.346</ele>
<time>2016-05-21T01:13:47.504Z</time>
</trkpt>
<trkpt lat="-26.9885522" lon="152.7962287">
<ele>128.365</ele>
<time>2016-05-21T01:13:50.491Z</time>
</trkpt>
<trkpt lat="-26.9884116" lon="152.7963484">
<ele>128.160</ele>
<time>2016-05-21T01:13:52.498Z</time>
</trkpt>
<trkpt lat="-26.9882160" lon="152.7965380">
<ele>128.012</ele>
<time>2016-05-21T01:13:55.733Z</time>
</trkpt>
<trkpt lat="-26.9880791" lon="152.7966882">
<ele>128.580</ele>
<time>2016-05-21T01:13:58.740Z</time>
</trkpt>
<trkpt lat="-26.9880027" lon="152.7967862">
<ele>130.003</ele>
<time>2016-05-21T01:14:01.256Z</time>
</trkpt>
<trkpt lat="-26.9879259" lon="152.7968633">
<ele>131.504</ele>
<time>2016-05-21T01:14:04.327Z</time>
</trkpt>
<trkpt lat="-26.9878346" lon="152.7969617">
<ele>132.638</ele>
<time>2016-05-21T01:14:08.044Z</time>
</trkpt>
<trkpt lat="-26.9877470" lon="152.7970536">
<ele>133.795</ele>
<time>2016-05-21T01:14:11.246Z</time>
</trkpt>
<trkpt lat="-26.9876707" lon="152.7971367">
<ele>135.109</ele>
<time>2016-05-21T01:14:14.208Z</time>
</trkpt>
<trkpt lat="-26.9875943" lon="152.7972291">
<ele>136.369</ele>
<time>2016-05-21T01:14:17.438Z</time>
</trkpt>
<trkpt lat="-26.9875301" lon="152.7973065">
<ele>137.581</ele>
<time>2016-05-21T01:14:20.387Z</time>
</trkpt>
<trkpt lat="-26.9874358" lon="152.7974201">
<ele>138.741</ele>
<time>2016-05-21T01:14:24.249Z</time>
</trkpt>
<trkpt lat="-26.9873275" lon="152.7975574">
<ele>139.754</ele>
<time>2016-05-21T01:14:27.879Z</time>
</trkpt>
<trkpt lat="-26.9872346" lon="152.7976448">
<ele>140.704</ele>
<time>2016-05-21T01:14:31.000Z</time>
</trkpt>
<trkpt lat="-26.9872346" lon="152.7976448">
<ele>141.567</ele>
<time>2016-05-21T01:14:36.000Z</time>
</trkpt>
<trkpt lat="-26.9872346" lon="152.7976448">
<ele>141.994</ele>
<time>2016-05-21T01:15:10.150Z</time>
</trkpt>
<trkpt lat="-26.9870070" lon="152.7976786">
<ele>141.896</ele>
<time>2016-05-21T01:15:15.559Z</time>
</trkpt>
<trkpt lat="-26.9868120" lon="152.7974849">
<ele>142.394</ele>
<time>2016-05-21T01:15:18.869Z</time>
</trkpt>
<trkpt lat="-26.9867012" lon="152.7973552">
<ele>144.258</ele>
<time>2016-05-21T01:15:20.902Z</time>
</trkpt>
<trkpt lat="-26.9865999" lon="152.7972321">
<ele>146.300</ele>
<time>2016-05-21T01:15:22.729Z</time>
</trkpt>
<trkpt lat="-26.9864718" lon="152.7970968">
<ele>147.295</ele>
<time>2016-05-21T01:15:24.542Z</time>
</trkpt>
<trkpt lat="-26.9862229" lon="152.7968512">
<ele>147.649</ele>
<time>2016-05-21T01:15:27.559Z</time>
</trkpt>
<trkpt lat="-26.9860380" lon="152.7966734">
<ele>148.189</ele>
<time>2016-05-21T01:15:29.518Z</time>
</trkpt>
<trkpt lat="-26.9858345" lon="152.7964981">
<ele>149.054</ele>
<time>2016-05-21T01:15:31.432Z</time>
</trkpt>
<trkpt lat="-26.9854804" lon="152.7962405">
<ele>149.748</ele>
<time>2016-05-21T01:15:34.382Z</time>
</trkpt>
<trkpt lat="-26.9850824" lon="152.7959793">
<ele>150.189</ele>
<time>2016-05-21T01:15:37.457Z</time>
</trkpt>
<trkpt lat="-26.9848398" lon="152.7958189">
<ele>150.629</ele>
<time>2016-05-21T01:15:39.352Z</time>
</trkpt>
<trkpt lat="-26.9844377" lon="152.7956083">
<ele>150.951</ele>
<time>2016-05-21T01:15:42.316Z</time>
</trkpt>
<trkpt lat="-26.9841627" lon="152.7954558">
<ele>150.799</ele>
<time>2016-05-21T01:15:44.255Z</time>
</trkpt>
<trkpt lat="-26.9837107" lon="152.7952326">
<ele>150.214</ele>
<time>2016-05-21T01:15:47.238Z</time>
</trkpt>
<trkpt lat="-26.9833798" lon="152.7951113">
<ele>150.018</ele>
<time>2016-05-21T01:15:49.305Z</time>
</trkpt>
<trkpt lat="-26.9829284" lon="152.7949332">
<ele>150.737</ele>
<time>2016-05-21T01:15:52.154Z</time>
</trkpt>
<trkpt lat="-26.9824372" lon="152.7947391">
<ele>151.079</ele>
<time>2016-05-21T01:15:55.133Z</time>
</trkpt>
<trkpt lat="-26.9819164" lon="152.7944984">
<ele>149.932</ele>
<time>2016-05-21T01:15:58.149Z</time>
</trkpt>
<trkpt lat="-26.9815566" lon="152.7943150">
<ele>148.099</ele>
<time>2016-05-21T01:16:00.169Z</time>
</trkpt>
<trkpt lat="-26.9810176" lon="152.7939970">
<ele>146.588</ele>
<time>2016-05-21T01:16:03.232Z</time>
</trkpt>
<trkpt lat="-26.9806781" lon="152.7937843">
<ele>145.201</ele>
<time>2016-05-21T01:16:05.201Z</time>
</trkpt>
<trkpt lat="-26.9801757" lon="152.7934555">
<ele>143.698</ele>
<time>2016-05-21T01:16:08.216Z</time>
</trkpt>
<trkpt lat="-26.9796970" lon="152.7931351">
<ele>142.775</ele>
<time>2016-05-21T01:16:11.202Z</time>
</trkpt>
<trkpt lat="-26.9793984" lon="152.7929128">
<ele>143.020</ele>
<time>2016-05-21T01:16:13.183Z</time>
</trkpt>
<trkpt lat="-26.9789420" lon="152.7925939">
<ele>143.946</ele>
<time>2016-05-21T01:16:16.202Z</time>
</trkpt>
<trkpt lat="-26.9786382" lon="152.7923896">
<ele>145.005</ele>
<time>2016-05-21T01:16:18.221Z</time>
</trkpt>
<trkpt lat="-26.9781923" lon="152.7920797">
<ele>146.021</ele>
<time>2016-05-21T01:16:21.212Z</time>
</trkpt>
<trkpt lat="-26.9778902" lon="152.7918863">
<ele>146.816</ele>
<time>2016-05-21T01:16:23.155Z</time>
</trkpt>
<trkpt lat="-26.9775690" lon="152.7916647">
<ele>147.320</ele>
<time>2016-05-21T01:16:25.180Z</time>
</trkpt>
<trkpt lat="-26.9772394" lon="152.7914361">
<ele>147.709</ele>
<time>2016-05-21T01:16:27.172Z</time>
</trkpt>
<trkpt lat="-26.9767362" lon="152.7910806">
<ele>148.100</ele>
<time>2016-05-21T01:16:30.165Z</time>
</trkpt>
<trkpt lat="-26.9764009" lon="152.7908440">
<ele>148.327</ele>
<time>2016-05-21T01:16:32.132Z</time>
</trkpt>
<trkpt lat="-26.9760583" lon="152.7906022">
<ele>147.922</ele>
<time>2016-05-21T01:16:34.126Z</time>
</trkpt>
<trkpt lat="-26.9757150" lon="152.7903634">
<ele>146.766</ele>
<time>2016-05-21T01:16:36.112Z</time>
</trkpt>
<trkpt lat="-26.9753766" lon="152.7901136">
<ele>145.319</ele>
<time>2016-05-21T01:16:38.115Z</time>
</trkpt>
<trkpt lat="-26.9750329" lon="152.7898690">
<ele>144.014</ele>
<time>2016-05-21T01:16:40.172Z</time>
</trkpt>
<trkpt lat="-26.9745570" lon="152.7895215">
<ele>142.727</ele>
<time>2016-05-21T01:16:43.111Z</time>
</trkpt>
<trkpt lat="-26.9740787" lon="152.7891847">
<ele>141.363</ele>
<time>2016-05-21T01:16:46.072Z</time>
</trkpt>
<trkpt lat="-26.9735866" lon="152.7888334">
<ele>140.290</ele>
<time>2016-05-21T01:16:49.127Z</time>
</trkpt>
<trkpt lat="-26.9732581" lon="152.7886247">
<ele>139.938</ele>
<time>2016-05-21T01:16:51.158Z</time>
</trkpt>
<trkpt lat="-26.9729515" lon="152.7884178">
<ele>140.223</ele>
<time>2016-05-21T01:16:53.127Z</time>
</trkpt>
<trkpt lat="-26.9724940" lon="152.7881084">
<ele>140.858</ele>
<time>2016-05-21T01:16:56.088Z</time>
</trkpt>
<trkpt lat="-26.9721906" lon="152.7878898">
<ele>141.471</ele>
<time>2016-05-21T01:16:58.050Z</time>
</trkpt>
<trkpt lat="-26.9718595" lon="152.7876818">
<ele>141.812</ele>
<time>2016-05-21T01:17:00.079Z</time>
</trkpt>
<trkpt lat="-26.9713866" lon="152.7873306">
<ele>141.837</ele>
<time>2016-05-21T01:17:03.070Z</time>
</trkpt>
<trkpt lat="-26.9710694" lon="152.7870880">
<ele>141.597</ele>
<time>2016-05-21T01:17:05.064Z</time>
</trkpt>
<trkpt lat="-26.9707581" lon="152.7868378">
<ele>141.223</ele>
<time>2016-05-21T01:17:06.990Z</time>
</trkpt>
<trkpt lat="-26.9702451" lon="152.7864113">
<ele>141.095</ele>
<time>2016-05-21T01:17:10.061Z</time>
</trkpt>
<trkpt lat="-26.9697351" lon="152.7859535">
<ele>141.405</ele>
<time>2016-05-21T01:17:13.078Z</time>
</trkpt>
<trkpt lat="-26.9693848" lon="152.7856673">
<ele>141.970</ele>
<time>2016-05-21T01:17:15.095Z</time>
</trkpt>
<trkpt lat="-26.9689044" lon="152.7852255">
<ele>142.543</ele>
<time>2016-05-21T01:17:18.098Z</time>
</trkpt>
<trkpt lat="-26.9684324" lon="152.7848118">
<ele>142.613</ele>
<time>2016-05-21T01:17:21.060Z</time>
</trkpt>
<trkpt lat="-26.9679609" lon="152.7843880">
<ele>141.424</ele>
<time>2016-05-21T01:17:24.033Z</time>
</trkpt>
<trkpt lat="-26.9676399" lon="152.7840959">
<ele>139.299</ele>
<time>2016-05-21T01:17:26.025Z</time>
</trkpt>
<trkpt lat="-26.9671488" lon="152.7836486">
<ele>137.559</ele>
<time>2016-05-21T01:17:29.047Z</time>
</trkpt>
<trkpt lat="-26.9668247" lon="152.7833640">
<ele>136.360</ele>
<time>2016-05-21T01:17:31.068Z</time>
</trkpt>
<trkpt lat="-26.9663629" lon="152.7829714">
<ele>134.372</ele>
<time>2016-05-21T01:17:34.031Z</time>
</trkpt>
<trkpt lat="-26.9659172" lon="152.7826073">
<ele>130.801</ele>
<time>2016-05-21T01:17:36.994Z</time>
</trkpt>
<trkpt lat="-26.9656164" lon="152.7823947">
<ele>126.420</ele>
<time>2016-05-21T01:17:39.005Z</time>
</trkpt>
<trkpt lat="-26.9651854" lon="152.7821106">
<ele>122.793</ele>
<time>2016-05-21T01:17:41.962Z</time>
</trkpt>
<trkpt lat="-26.9649063" lon="152.7819516">
<ele>120.500</ele>
<time>2016-05-21T01:17:43.922Z</time>
</trkpt>
<trkpt lat="-26.9646398" lon="152.7817970">
<ele>118.872</ele>
<time>2016-05-21T01:17:45.882Z</time>
</trkpt>
<trkpt lat="-26.9642546" lon="152.7815732">
<ele>117.427</ele>
<time>2016-05-21T01:17:48.815Z</time>
</trkpt>
<trkpt lat="-26.9638659" lon="152.7813574">
<ele>116.321</ele>
<time>2016-05-21T01:17:51.854Z</time>
</trkpt>
<trkpt lat="-26.9636295" lon="152.7812269">
<ele>115.733</ele>
<time>2016-05-21T01:17:53.826Z</time>
</trkpt>
<trkpt lat="-26.9633122" lon="152.7810301">
<ele>115.597</ele>
<time>2016-05-21T01:17:56.708Z</time>
</trkpt>
<trkpt lat="-26.9630902" lon="152.7809088">
<ele>115.677</ele>
<time>2016-05-21T01:17:58.830Z</time>
</trkpt>
<trkpt lat="-26.9628202" lon="152.7807226">
<ele>115.910</ele>
<time>2016-05-21T01:18:01.915Z</time>
</trkpt>
<trkpt lat="-26.9626941" lon="152.7806416">
<ele>116.382</ele>
<time>2016-05-21T01:18:03.978Z</time>
</trkpt>
<trkpt lat="-26.9625950" lon="152.7805967">
<ele>116.973</ele>
<time>2016-05-21T01:18:06.000Z</time>
</trkpt>
<trkpt lat="-26.9625950" lon="152.7805967">
<ele>117.338</ele>
<time>2016-05-21T01:18:10.000Z</time>
</trkpt>
<trkpt lat="-26.9625950" lon="152.7805967">
<ele>117.361</ele>
<time>2016-05-21T01:18:17.250Z</time>
</trkpt>
<trkpt lat="-26.9624344" lon="152.7805253">
<ele>117.244</ele>
<time>2016-05-21T01:18:22.580Z</time>
</trkpt>
<trkpt lat="-26.9623097" lon="152.7804628">
<ele>117.477</ele>
<time>2016-05-21T01:18:24.531Z</time>
</trkpt>
<trkpt lat="-26.9620894" lon="152.7803453">
<ele>118.342</ele>
<time>2016-05-21T01:18:27.559Z</time>
</trkpt>
<trkpt lat="-26.9619302" lon="152.7802585">
<ele>119.741</ele>
<time>2016-05-21T01:18:29.469Z</time>
</trkpt>
<trkpt lat="-26.9616617" lon="152.7801158">
<ele>121.305</ele>
<time>2016-05-21T01:18:32.403Z</time>
</trkpt>
<trkpt lat="-26.9614613" lon="152.7799876">
<ele>122.644</ele>
<time>2016-05-21T01:18:34.357Z</time>
</trkpt>
<trkpt lat="-26.9611381" lon="152.7797836">
<ele>123.616</ele>
<time>2016-05-21T01:18:37.307Z</time>
</trkpt>
<trkpt lat="-26.9608999" lon="152.7796642">
<ele>124.660</ele>
<time>2016-05-21T01:18:39.278Z</time>
</trkpt>
<trkpt lat="-26.9606493" lon="152.7795461">
<ele>125.977</ele>
<time>2016-05-21T01:18:41.262Z</time>
</trkpt>
<trkpt lat="-26.9603750" lon="152.7794398">
<ele>127.076</ele>
<time>2016-05-21T01:18:43.328Z</time>
</trkpt>
<trkpt lat="-26.9599451" lon="152.7793270">
<ele>127.492</ele>
<time>2016-05-21T01:18:46.423Z</time>
</trkpt>
<trkpt lat="-26.9596622" lon="152.7792557">
<ele>127.489</ele>
<time>2016-05-21T01:18:48.439Z</time>
</trkpt>
<trkpt lat="-26.9593817" lon="152.7791726">
<ele>127.538</ele>
<time>2016-05-21T01:18:50.412Z</time>
</trkpt>
<trkpt lat="-26.9589369" lon="152.7790599">
<ele>127.846</ele>
<time>2016-05-21T01:18:53.486Z</time>
</trkpt>
<trkpt lat="-26.9586556" lon="152.7789768">
<ele>128.380</ele>
<time>2016-05-21T01:18:55.469Z</time>
</trkpt>
<trkpt lat="-26.9582332" lon="152.7788526">
<ele>129.012</ele>
<time>2016-05-21T01:18:58.444Z</time>
</trkpt>
<trkpt lat="-26.9578002" lon="152.7787273">
<ele>129.387</ele>
<time>2016-05-21T01:19:01.490Z</time>
</trkpt>
<trkpt lat="-26.9575195" lon="152.7786533">
<ele>129.252</ele>
<time>2016-05-21T01:19:03.500Z</time>
</trkpt>
<trkpt lat="-26.9572443" lon="152.7785803">
<ele>128.895</ele>
<time>2016-05-21T01:19:05.531Z</time>
</trkpt>
<trkpt lat="-26.9568507" lon="152.7784694">
<ele>128.762</ele>
<time>2016-05-21T01:19:08.512Z</time>
</trkpt>
<trkpt lat="-26.9564544" lon="152.7783779">
<ele>128.944</ele>
<time>2016-05-21T01:19:11.564Z</time>
</trkpt>
<trkpt lat="-26.9562072" lon="152.7783071">
<ele>129.279</ele>
<time>2016-05-21T01:19:13.547Z</time>
</trkpt>
<trkpt lat="-26.9559588" lon="152.7782371">
<ele>129.616</ele>
<time>2016-05-21T01:19:15.533Z</time>
</trkpt>
<trkpt lat="-26.9555857" lon="152.7781178">
<ele>129.832</ele>
<time>2016-05-21T01:19:18.494Z</time>
</trkpt>
<trkpt lat="-26.9553291" lon="152.7780381">
<ele>129.902</ele>
<time>2016-05-21T01:19:20.511Z</time>
</trkpt>
<trkpt lat="-26.9549520" lon="152.7779075">
<ele>129.832</ele>
<time>2016-05-21T01:19:23.537Z</time>
</trkpt>
<trkpt lat="-26.9547071" lon="152.7778294">
<ele>129.582</ele>
<time>2016-05-21T01:19:25.559Z</time>
</trkpt>
<trkpt lat="-26.9543524" lon="152.7777158">
<ele>129.238</ele>
<time>2016-05-21T01:19:28.584Z</time>
</trkpt>
<trkpt lat="-26.9541296" lon="152.7776513">
<ele>128.918</ele>
<time>2016-05-21T01:19:30.584Z</time>
</trkpt>
<trkpt lat="-26.9538170" lon="152.7775355">
<ele>128.640</ele>
<time>2016-05-21T01:19:33.526Z</time>
</trkpt>
<trkpt lat="-26.9535025" lon="152.7774389">
<ele>128.439</ele>
<time>2016-05-21T01:19:36.494Z</time>
</trkpt>
<trkpt lat="-26.9532893" lon="152.7773751">
<ele>128.400</ele>
<time>2016-05-21T01:19:38.425Z</time>
</trkpt>
<trkpt lat="-26.9530570" lon="152.7772924">
<ele>128.504</ele>
<time>2016-05-21T01:19:40.463Z</time>
</trkpt>
<trkpt lat="-26.9527019" lon="152.7771858">
<ele>128.612</ele>
<time>2016-05-21T01:19:43.522Z</time>
</trkpt>
<trkpt lat="-26.9524857" lon="152.7771057">
<ele>128.458</ele>
<time>2016-05-21T01:19:45.450Z</time>
</trkpt>
<trkpt lat="-26.9522601" lon="152.7770149">
<ele>127.787</ele>
<time>2016-05-21T01:19:47.443Z</time>
</trkpt>
<trkpt lat="-26.9519034" lon="152.7768961">
<ele>126.748</ele>
<time>2016-05-21T01:19:50.433Z</time>
</trkpt>
<trkpt lat="-26.9515220" lon="152.7767829">
<ele>125.841</ele>
<time>2016-05-21T01:19:53.541Z</time>
</trkpt>
<trkpt lat="-26.9512698" lon="152.7767269">
<ele>125.093</ele>
<time>2016-05-21T01:19:55.540Z</time>
</trkpt>
<trkpt lat="-26.9508870" lon="152.7766215">
<ele>124.291</ele>
<time>2016-05-21T01:19:58.563Z</time>
</trkpt>
<trkpt lat="-26.9506328" lon="152.7765324">
<ele>123.652</ele>
<time>2016-05-21T01:20:00.502Z</time>
</trkpt>
<trkpt lat="-26.9503608" lon="152.7764277">
<ele>123.235</ele>
<time>2016-05-21T01:20:02.523Z</time>
</trkpt>
<trkpt lat="-26.9499677" lon="152.7762097">
<ele>122.736</ele>
<time>2016-05-21T01:20:05.506Z</time>
</trkpt>
<trkpt lat="-26.9496524" lon="152.7758504">
<ele>122.195</ele>
<time>2016-05-21T01:20:08.517Z</time>
</trkpt>
<trkpt lat="-26.9493555" lon="152.7754977">
<ele>121.756</ele>
<time>2016-05-21T01:20:11.406Z</time>
</trkpt>
<trkpt lat="-26.9490462" lon="152.7751166">
<ele>121.216</ele>
<time>2016-05-21T01:20:14.438Z</time>
</trkpt>
<trkpt lat="-26.9487378" lon="152.7747266">
<ele>120.371</ele>
<time>2016-05-21T01:20:17.417Z</time>
</trkpt>
<trkpt lat="-26.9484112" lon="152.7743279">
<ele>119.329</ele>
<time>2016-05-21T01:20:20.416Z</time>
</trkpt>
<trkpt lat="-26.9481858" lon="152.7740574">
<ele>118.377</ele>
<time>2016-05-21T01:20:22.327Z</time>
</trkpt>
<trkpt lat="-26.9479128" lon="152.7737662">
<ele>117.745</ele>
<time>2016-05-21T01:20:24.289Z</time>
</trkpt>
<trkpt lat="-26.9475971" lon="152.7734368">
<ele>117.715</ele>
<time>2016-05-21T01:20:26.364Z</time>
</trkpt>
<trkpt lat="-26.9472692" lon="152.7731255">
<ele>118.594</ele>
<time>2016-05-21T01:20:28.361Z</time>
</trkpt>
<trkpt lat="-26.9467511" lon="152.7726644">
<ele>120.078</ele>
<time>2016-05-21T01:20:31.334Z</time>
</trkpt>
<trkpt lat="-26.9463771" lon="152.7723723">
<ele>121.328</ele>
<time>2016-05-21T01:20:33.312Z</time>
</trkpt>
<trkpt lat="-26.9459930" lon="152.7720875">
<ele>121.995</ele>
<time>2016-05-21T01:20:35.269Z</time>
</trkpt>
<trkpt lat="-26.9454006" lon="152.7716350">
<ele>122.410</ele>
<time>2016-05-21T01:20:38.295Z</time>
</trkpt>
<trkpt lat="-26.9448111" lon="152.7711887">
<ele>122.704</ele>
<time>2016-05-21T01:20:41.334Z</time>
</trkpt>
<trkpt lat="-26.9442655" lon="152.7707547">
<ele>122.529</ele>
<time>2016-05-21T01:20:44.280Z</time>
</trkpt>
<trkpt lat="-26.9437530" lon="152.7703179">
<ele>121.588</ele>
<time>2016-05-21T01:20:47.177Z</time>
</trkpt>
<trkpt lat="-26.9434087" lon="152.7700055">
<ele>120.239</ele>
<time>2016-05-21T01:20:49.189Z</time>
</trkpt>
<trkpt lat="-26.9430830" lon="152.7696800">
<ele>119.436</ele>
<time>2016-05-21T01:20:51.186Z</time>
</trkpt>
<trkpt lat="-26.9427664" lon="152.7693412">
<ele>119.616</ele>
<time>2016-05-21T01:20:53.186Z</time>
</trkpt>
<trkpt lat="-26.9423037" lon="152.7688053">
<ele>119.887</ele>
<time>2016-05-21T01:20:56.170Z</time>
</trkpt>
<trkpt lat="-26.9418639" lon="152.7682456">
<ele>119.472</ele>
<time>2016-05-21T01:20:59.119Z</time>
</trkpt>
<trkpt lat="-26.9414453" lon="152.7676555">
<ele>119.082</ele>
<time>2016-05-21T01:21:02.097Z</time>
</trkpt>
<trkpt lat="-26.9410476" lon="152.7670360">
<ele>119.632</ele>
<time>2016-05-21T01:21:05.096Z</time>
</trkpt>
<trkpt lat="-26.9406523" lon="152.7663928">
<ele>120.747</ele>
<time>2016-05-21T01:21:08.183Z</time>
</trkpt>
<trkpt lat="-26.9404082" lon="152.7659823">
<ele>121.506</ele>
<time>2016-05-21T01:21:10.195Z</time>
</trkpt>
<trkpt lat="-26.9401660" lon="152.7655911">
<ele>121.502</ele>
<time>2016-05-21T01:21:12.177Z</time>
</trkpt>
<trkpt lat="-26.9399324" lon="152.7651994">
<ele>120.906</ele>
<time>2016-05-21T01:21:14.157Z</time>
</trkpt>
<trkpt lat="-26.9395718" lon="152.7646078">
<ele>120.134</ele>
<time>2016-05-21T01:21:17.226Z</time>
</trkpt>
<trkpt lat="-26.9392077" lon="152.7640855">
<ele>119.200</ele>
<time>2016-05-21T01:21:20.196Z</time>
</trkpt>
<trkpt lat="-26.9389465" lon="152.7637942">
<ele>117.694</ele>
<time>2016-05-21T01:21:22.102Z</time>
</trkpt>
<trkpt lat="-26.9386420" lon="152.7635323">
<ele>115.709</ele>
<time>2016-05-21T01:21:24.034Z</time>
</trkpt>
<trkpt lat="-26.9382917" lon="152.7632864">
<ele>114.031</ele>
<time>2016-05-21T01:21:26.044Z</time>
</trkpt>
<trkpt lat="-26.9377400" lon="152.7629471">
<ele>113.188</ele>
<time>2016-05-21T01:21:29.062Z</time>
</trkpt>
<trkpt lat="-26.9373740" lon="152.7627229">
<ele>112.754</ele>
<time>2016-05-21T01:21:31.046Z</time>
</trkpt>
<trkpt lat="-26.9370039" lon="152.7625080">
<ele>112.151</ele>
<time>2016-05-21T01:21:33.003Z</time>
</trkpt>
<trkpt lat="-26.9366317" lon="152.7622750">
<ele>111.576</ele>
<time>2016-05-21T01:21:35.005Z</time>
</trkpt>
<trkpt lat="-26.9360912" lon="152.7619040">
<ele>111.376</ele>
<time>2016-05-21T01:21:38.071Z</time>
</trkpt>
<trkpt lat="-26.9356102" lon="152.7615754">
<ele>111.205</ele>
<time>2016-05-21T01:21:40.992Z</time>
</trkpt>
<trkpt lat="-26.9353096" lon="152.7613552">
<ele>110.497</ele>
<time>2016-05-21T01:21:42.926Z</time>
</trkpt>
<trkpt lat="-26.9348376" lon="152.7609972">
<ele>109.360</ele>
<time>2016-05-21T01:21:45.924Z</time>
</trkpt>
<trkpt lat="-26.9343500" lon="152.7606129">
<ele>108.934</ele>
<time>2016-05-21T01:21:48.934Z</time>
</trkpt>
<trkpt lat="-26.9340346" lon="152.7603304">
<ele>109.949</ele>
<time>2016-05-21T01:21:50.968Z</time>
</trkpt>
<trkpt lat="-26.9336025" lon="152.7599112">
<ele>111.675</ele>
<time>2016-05-21T01:21:53.944Z</time>
</trkpt>
<trkpt lat="-26.9333375" lon="152.7596515">
<ele>112.917</ele>
<time>2016-05-21T01:21:55.931Z</time>
</trkpt>
<trkpt lat="-26.9329780" lon="152.7592739">
<ele>113.261</ele>
<time>2016-05-21T01:21:58.933Z</time>
</trkpt>
<trkpt lat="-26.9326661" lon="152.7589289">
<ele>112.802</ele>
<time>2016-05-21T01:22:01.814Z</time>
</trkpt>
<trkpt lat="-26.9323447" lon="152.7585730">
<ele>111.901</ele>
<time>2016-05-21T01:22:04.831Z</time>
</trkpt>
<trkpt lat="-26.9320222" lon="152.7582116">
<ele>111.152</ele>
<time>2016-05-21T01:22:07.854Z</time>
</trkpt>
<trkpt lat="-26.9318215" lon="152.7579680">
<ele>111.033</ele>
<time>2016-05-21T01:22:09.852Z</time>
</trkpt>
<trkpt lat="-26.9316293" lon="152.7577338">
<ele>111.419</ele>
<time>2016-05-21T01:22:11.873Z</time>
</trkpt>
<trkpt lat="-26.9313739" lon="152.7574097">
<ele>111.733</ele>
<time>2016-05-21T01:22:14.909Z</time>
</trkpt>
<trkpt lat="-26.9312504" lon="152.7572453">
<ele>111.581</ele>
<time>2016-05-21T01:22:16.840Z</time>
</trkpt>
<trkpt lat="-26.9311599" lon="152.7571347">
<ele>111.023</ele>
<time>2016-05-21T01:22:18.680Z</time>
</trkpt>
<trkpt lat="-26.9310688" lon="152.7570164">
<ele>110.323</ele>
<time>2016-05-21T01:22:21.223Z</time>
</trkpt>
<trkpt lat="-26.9309789" lon="152.7568847">
<ele>109.831</ele>
<time>2016-05-21T01:22:24.458Z</time>
</trkpt>
<trkpt lat="-26.9308747" lon="152.7567572">
<ele>109.866</ele>
<time>2016-05-21T01:22:27.609Z</time>
</trkpt>
<trkpt lat="-26.9308177" lon="152.7566659">
<ele>110.374</ele>
<time>2016-05-21T01:22:29.506Z</time>
</trkpt>
<trkpt lat="-26.9306991" lon="152.7565272">
<ele>111.006</ele>
<time>2016-05-21T01:22:32.593Z</time>
</trkpt>
<trkpt lat="-26.9305353" lon="152.7565649">
<ele>111.538</ele>
<time>2016-05-21T01:22:35.326Z</time>
</trkpt>
<trkpt lat="-26.9303361" lon="152.7567950">
<ele>112.102</ele>
<time>2016-05-21T01:22:38.615Z</time>
</trkpt>
<trkpt lat="-26.9300530" lon="152.7571003">
<ele>113.080</ele>
<time>2016-05-21T01:22:41.746Z</time>
</trkpt>
<trkpt lat="-26.9297993" lon="152.7573822">
<ele>114.868</ele>
<time>2016-05-21T01:22:44.073Z</time>
</trkpt>
<trkpt lat="-26.9294143" lon="152.7578305">
<ele>117.718</ele>
<time>2016-05-21T01:22:47.340Z</time>
</trkpt>
<trkpt lat="-26.9290034" lon="152.7582812">
<ele>121.036</ele>
<time>2016-05-21T01:22:50.367Z</time>
</trkpt>
<trkpt lat="-26.9286854" lon="152.7586372">
<ele>123.502</ele>
<time>2016-05-21T01:22:52.442Z</time>
</trkpt>
<trkpt lat="-26.9281355" lon="152.7592595">
<ele>124.812</ele>
<time>2016-05-21T01:22:55.728Z</time>
</trkpt>
<trkpt lat="-26.9277095" lon="152.7597375">
<ele>125.669</ele>
<time>2016-05-21T01:22:57.915Z</time>
</trkpt>
<trkpt lat="-26.9272923" lon="152.7602049">
<ele>124.830</ele>
<time>2016-05-21T01:23:00.021Z</time>
</trkpt>
<trkpt lat="-26.9267158" lon="152.7608282">
<ele>121.145</ele>
<time>2016-05-21T01:23:02.982Z</time>
</trkpt>
<trkpt lat="-26.9263322" lon="152.7612418">
<ele>116.724</ele>
<time>2016-05-21T01:23:05.066Z</time>
</trkpt>
<trkpt lat="-26.9258023" lon="152.7618390">
<ele>114.072</ele>
<time>2016-05-21T01:23:08.151Z</time>
</trkpt>
<trkpt lat="-26.9253154" lon="152.7623891">
<ele>114.053</ele>
<time>2016-05-21T01:23:11.129Z</time>
</trkpt>
<trkpt lat="-26.9249992" lon="152.7627436">
<ele>116.284</ele>
<time>2016-05-21T01:23:13.060Z</time>
</trkpt>
<trkpt lat="-26.9245058" lon="152.7632866">
<ele>118.778</ele>
<time>2016-05-21T01:23:16.009Z</time>
</trkpt>
<trkpt lat="-26.9239938" lon="152.7638513">
<ele>120.256</ele>
<time>2016-05-21T01:23:19.081Z</time>
</trkpt>
<trkpt lat="-26.9236693" lon="152.7642074">
<ele>121.672</ele>
<time>2016-05-21T01:23:21.022Z</time>
</trkpt>
<trkpt lat="-26.9231762" lon="152.7647657">
<ele>123.735</ele>
<time>2016-05-21T01:23:23.927Z</time>
</trkpt>
<trkpt lat="-26.9228170" lon="152.7651686">
<ele>125.659</ele>
<time>2016-05-21T01:23:25.951Z</time>
</trkpt>
<trkpt lat="-26.9222875" lon="152.7657590">
<ele>126.621</ele>
<time>2016-05-21T01:23:28.917Z</time>
</trkpt>
<trkpt lat="-26.9219309" lon="152.7661599">
<ele>126.820</ele>
<time>2016-05-21T01:23:30.943Z</time>
</trkpt>
<trkpt lat="-26.9215926" lon="152.7665516">
<ele>126.402</ele>
<time>2016-05-21T01:23:32.941Z</time>
</trkpt>
<trkpt lat="-26.9212530" lon="152.7669301">
<ele>125.278</ele>
<time>2016-05-21T01:23:34.929Z</time>
</trkpt>
<trkpt lat="-26.9207379" lon="152.7674968">
<ele>123.582</ele>
<time>2016-05-21T01:23:37.938Z</time>
</trkpt>
<trkpt lat="-26.9203966" lon="152.7678657">
<ele>122.176</ele>
<time>2016-05-21T01:23:39.874Z</time>
</trkpt>
<trkpt lat="-26.9200199" lon="152.7682351">
<ele>121.922</ele>
<time>2016-05-21T01:23:41.780Z</time>
</trkpt>
<trkpt lat="-26.9193804" lon="152.7688027">
<ele>122.558</ele>
<time>2016-05-21T01:23:44.774Z</time>
</trkpt>
<trkpt lat="-26.9186764" lon="152.7693279">
<ele>123.853</ele>
<time>2016-05-21T01:23:47.851Z</time>
</trkpt>
<trkpt lat="-26.9182098" lon="152.7696294">
<ele>125.901</ele>
<time>2016-05-21T01:23:49.955Z</time>
</trkpt>
<trkpt lat="-26.9175545" lon="152.7700115">
<ele>126.917</ele>
<time>2016-05-21T01:23:53.003Z</time>
</trkpt>
<trkpt lat="-26.9171534" lon="152.7702427">
<ele>124.819</ele>
<time>2016-05-21T01:23:55.120Z</time>
</trkpt>
<trkpt lat="-26.9166172" lon="152.7705580">
<ele>120.668</ele>
<time>2016-05-21T01:23:58.284Z</time>
</trkpt>
<trkpt lat="-26.9163174" lon="152.7707416">
<ele>117.212</ele>
<time>2016-05-21T01:24:00.339Z</time>
</trkpt>
<trkpt lat="-26.9160365" lon="152.7709069">
<ele>114.826</ele>
<time>2016-05-21T01:24:02.247Z</time>
</trkpt>
<trkpt lat="-26.9155839" lon="152.7711689">
<ele>112.503</ele>
<time>2016-05-21T01:24:05.158Z</time>
</trkpt>
<trkpt lat="-26.9150939" lon="152.7714463">
<ele>110.739</ele>
<time>2016-05-21T01:24:08.150Z</time>
</trkpt>
<trkpt lat="-26.9146002" lon="152.7717326">
<ele>110.742</ele>
<time>2016-05-21T01:24:11.080Z</time>
</trkpt>
<trkpt lat="-26.9142596" lon="152.7719283">
<ele>112.483</ele>
<time>2016-05-21T01:24:12.965Z</time>
</trkpt>
<trkpt lat="-26.9136922" lon="152.7722618">
<ele>114.661</ele>
<time>2016-05-21T01:24:16.037Z</time>
</trkpt>
<trkpt lat="-26.9133265" lon="152.7724904">
<ele>116.622</ele>
<time>2016-05-21T01:24:18.046Z</time>
</trkpt>
<trkpt lat="-26.9127924" lon="152.7728395">
<ele>118.780</ele>
<time>2016-05-21T01:24:20.986Z</time>
</trkpt>
<trkpt lat="-26.9124285" lon="152.7731059">
<ele>120.874</ele>
<time>2016-05-21T01:24:22.880Z</time>
</trkpt>
<trkpt lat="-26.9118405" lon="152.7735425">
<ele>122.328</ele>
<time>2016-05-21T01:24:25.791Z</time>
</trkpt>
<trkpt lat="-26.9114168" lon="152.7738896">
<ele>123.879</ele>
<time>2016-05-21T01:24:27.831Z</time>
</trkpt>
<trkpt lat="-26.9108066" lon="152.7744303">
<ele>126.142</ele>
<time>2016-05-21T01:24:30.866Z</time>
</trkpt>
<trkpt lat="-26.9104202" lon="152.7748055">
<ele>128.197</ele>
<time>2016-05-21T01:24:32.860Z</time>
</trkpt>
<trkpt lat="-26.9098348" lon="152.7753349">
<ele>128.983</ele>
<time>2016-05-21T01:24:35.717Z</time>
</trkpt>
<trkpt lat="-26.9093814" lon="152.7756893">
<ele>128.741</ele>
<time>2016-05-21T01:24:37.754Z</time>
</trkpt>
<trkpt lat="-26.9086949" lon="152.7761609">
<ele>128.509</ele>
<time>2016-05-21T01:24:40.751Z</time>
</trkpt>
<trkpt lat="-26.9082290" lon="152.7764330">
<ele>128.977</ele>
<time>2016-05-21T01:24:42.762Z</time>
</trkpt>
<trkpt lat="-26.9075204" lon="152.7767557">
<ele>129.666</ele>
<time>2016-05-21T01:24:45.721Z</time>
</trkpt>
<trkpt lat="-26.9070251" lon="152.7769418">
<ele>129.979</ele>
<time>2016-05-21T01:24:47.798Z</time>
</trkpt>
<trkpt lat="-26.9062996" lon="152.7771528">
<ele>129.899</ele>
<time>2016-05-21T01:24:50.883Z</time>
</trkpt>
<trkpt lat="-26.9056241" lon="152.7772816">
<ele>129.562</ele>
<time>2016-05-21T01:24:53.799Z</time>
</trkpt>
<trkpt lat="-26.9051608" lon="152.7773464">
<ele>129.182</ele>
<time>2016-05-21T01:24:55.741Z</time>
</trkpt>
<trkpt lat="-26.9044346" lon="152.7773928">
<ele>128.987</ele>
<time>2016-05-21T01:24:58.676Z</time>
</trkpt>
<trkpt lat="-26.9036593" lon="152.7774244">
<ele>129.011</ele>
<time>2016-05-21T01:25:01.772Z</time>
</trkpt>
<trkpt lat="-26.9029170" lon="152.7774909">
<ele>129.007</ele>
<time>2016-05-21T01:25:04.861Z</time>
</trkpt>
<trkpt lat="-26.9022379" lon="152.7776172">
<ele>128.279</ele>
<time>2016-05-21T01:25:07.755Z</time>
</trkpt>
<trkpt lat="-26.9015362" lon="152.7778290">
<ele>126.650</ele>
<time>2016-05-21T01:25:10.703Z</time>
</trkpt>
<trkpt lat="-26.9010533" lon="152.7780163">
<ele>125.084</ele>
<time>2016-05-21T01:25:12.696Z</time>
</trkpt>
<trkpt lat="-26.9005746" lon="152.7782320">
<ele>124.515</ele>
<time>2016-05-21T01:25:14.670Z</time>
</trkpt>
<trkpt lat="-26.8998726" lon="152.7786217">
<ele>125.184</ele>
<time>2016-05-21T01:25:17.629Z</time>
</trkpt>
<trkpt lat="-26.8994138" lon="152.7789028">
<ele>126.655</ele>
<time>2016-05-21T01:25:19.573Z</time>
</trkpt>
<trkpt lat="-26.8987074" lon="152.7793353">
<ele>127.916</ele>
<time>2016-05-21T01:25:22.569Z</time>
</trkpt>
<trkpt lat="-26.8982307" lon="152.7796191">
<ele>127.781</ele>
<time>2016-05-21T01:25:24.657Z</time>
</trkpt>
<trkpt lat="-26.8975720" lon="152.7800151">
<ele>126.062</ele>
<time>2016-05-21T01:25:27.624Z</time>
</trkpt>
<trkpt lat="-26.8971387" lon="152.7802752">
<ele>123.997</ele>
<time>2016-05-21T01:25:29.544Z</time>
</trkpt>
<trkpt lat="-26.8964473" lon="152.7807075">
<ele>122.728</ele>
<time>2016-05-21T01:25:32.578Z</time>
</trkpt>
<trkpt lat="-26.8959889" lon="152.7810111">
<ele>123.195</ele>
<time>2016-05-21T01:25:34.622Z</time>
</trkpt>
<trkpt lat="-26.8953430" lon="152.7814559">
<ele>125.766</ele>
<time>2016-05-21T01:25:37.649Z</time>
</trkpt>
<trkpt lat="-26.8947389" lon="152.7818784">
<ele>128.782</ele>
<time>2016-05-21T01:25:40.675Z</time>
</trkpt>
<trkpt lat="-26.8941859" lon="152.7822849">
<ele>130.524</ele>
<time>2016-05-21T01:25:43.642Z</time>
</trkpt>
<trkpt lat="-26.8936525" lon="152.7826936">
<ele>130.506</ele>
<time>2016-05-21T01:25:46.569Z</time>
</trkpt>
<trkpt lat="-26.8930813" lon="152.7831052">
<ele>128.926</ele>
<time>2016-05-21T01:25:49.494Z</time>
</trkpt>
<trkpt lat="-26.8924602" lon="152.7835747">
<ele>127.004</ele>
<time>2016-05-21T01:25:52.482Z</time>
</trkpt>
<trkpt lat="-26.8920042" lon="152.7839147">
<ele>126.186</ele>
<time>2016-05-21T01:25:54.532Z</time>
</trkpt>
<trkpt lat="-26.8913218" lon="152.7844044">
<ele>126.807</ele>
<time>2016-05-21T01:25:57.536Z</time>
</trkpt>
<trkpt lat="-26.8908777" lon="152.7847336">
<ele>127.919</ele>
<time>2016-05-21T01:25:59.536Z</time>
</trkpt>
<trkpt lat="-26.8904292" lon="152.7850536">
<ele>128.263</ele>
<time>2016-05-21T01:26:01.572Z</time>
</trkpt>
<trkpt lat="-26.8898107" lon="152.7855464">
<ele>127.617</ele>
<time>2016-05-21T01:26:04.539Z</time>
</trkpt>
<trkpt lat="-26.8893891" lon="152.7858426">
<ele>126.647</ele>
<time>2016-05-21T01:26:06.570Z</time>
</trkpt>
<trkpt lat="-26.8887574" lon="152.7862368">
<ele>125.434</ele>
<time>2016-05-21T01:26:09.574Z</time>
</trkpt>
<trkpt lat="-26.8880955" lon="152.7865426">
<ele>123.784</ele>
<time>2016-05-21T01:26:12.608Z</time>
</trkpt>
<trkpt lat="-26.8876606" lon="152.7867120">
<ele>122.514</ele>
<time>2016-05-21T01:26:14.628Z</time>
</trkpt>
<trkpt lat="-26.8872279" lon="152.7868327">
<ele>122.320</ele>
<time>2016-05-21T01:26:16.661Z</time>
</trkpt>
<trkpt lat="-26.8865912" lon="152.7869778">
<ele>122.598</ele>
<time>2016-05-21T01:26:19.699Z</time>
</trkpt>
<trkpt lat="-26.8861803" lon="152.7870398">
<ele>122.687</ele>
<time>2016-05-21T01:26:21.697Z</time>
</trkpt>
<trkpt lat="-26.8857787" lon="152.7870615">
<ele>122.629</ele>
<time>2016-05-21T01:26:23.632Z</time>
</trkpt>
<trkpt lat="-26.8853649" lon="152.7870581">
<ele>122.786</ele>
<time>2016-05-21T01:26:25.510Z</time>
</trkpt>
<trkpt lat="-26.8846795" lon="152.7870226">
<ele>123.306</ele>
<time>2016-05-21T01:26:28.430Z</time>
</trkpt>
<trkpt lat="-26.8841646" lon="152.7870145">
<ele>124.718</ele>
<time>2016-05-21T01:26:30.430Z</time>
</trkpt>
<trkpt lat="-26.8836212" lon="152.7869770">
<ele>127.583</ele>
<time>2016-05-21T01:26:32.515Z</time>
</trkpt>
<trkpt lat="-26.8831030" lon="152.7869509">
<ele>130.909</ele>
<time>2016-05-21T01:26:34.612Z</time>
</trkpt>
<trkpt lat="-26.8826330" lon="152.7869387">
<ele>132.701</ele>
<time>2016-05-21T01:26:36.617Z</time>
</trkpt>
<trkpt lat="-26.8819712" lon="152.7869865">
<ele>132.161</ele>
<time>2016-05-21T01:26:39.558Z</time>
</trkpt>
<trkpt lat="-26.8813103" lon="152.7871097">
<ele>130.291</ele>
<time>2016-05-21T01:26:42.520Z</time>
</trkpt>
<trkpt lat="-26.8808636" lon="152.7872482">
<ele>128.751</ele>
<time>2016-05-21T01:26:44.458Z</time>
</trkpt>
<trkpt lat="-26.8801299" lon="152.7875407">
<ele>128.911</ele>
<time>2016-05-21T01:26:47.649Z</time>
</trkpt>
<trkpt lat="-26.8796967" lon="152.7877643">
<ele>130.796</ele>
<time>2016-05-21T01:26:49.606Z</time>
</trkpt>
<trkpt lat="-26.8790730" lon="152.7881690">
<ele>132.820</ele>
<time>2016-05-21T01:26:52.503Z</time>
</trkpt>
<trkpt lat="-26.8784514" lon="152.7886754">
<ele>133.740</ele>
<time>2016-05-21T01:26:55.466Z</time>
</trkpt>
<trkpt lat="-26.8780532" lon="152.7890782">
<ele>134.204</ele>
<time>2016-05-21T01:26:57.451Z</time>
</trkpt>
<trkpt lat="-26.8775063" lon="152.7897613">
<ele>135.313</ele>
<time>2016-05-21T01:27:00.447Z</time>
</trkpt>
<trkpt lat="-26.8771801" lon="152.7902574">
<ele>136.665</ele>
<time>2016-05-21T01:27:02.469Z</time>
</trkpt>
<trkpt lat="-26.8769065" lon="152.7907557">
<ele>137.027</ele>
<time>2016-05-21T01:27:04.408Z</time>
</trkpt>
<trkpt lat="-26.8765308" lon="152.7915535">
<ele>136.447</ele>
<time>2016-05-21T01:27:07.393Z</time>
</trkpt>
<trkpt lat="-26.8762898" lon="152.7920937">
<ele>135.815</ele>
<time>2016-05-21T01:27:09.370Z</time>
</trkpt>
<trkpt lat="-26.8759109" lon="152.7929114">
<ele>135.503</ele>
<time>2016-05-21T01:27:12.402Z</time>
</trkpt>
<trkpt lat="-26.8755600" lon="152.7937078">
<ele>135.309</ele>
<time>2016-05-21T01:27:15.402Z</time>
</trkpt>
<trkpt lat="-26.8753320" lon="152.7942064">
<ele>134.736</ele>
<time>2016-05-21T01:27:17.366Z</time>
</trkpt>
<trkpt lat="-26.8751006" lon="152.7947047">
<ele>133.699</ele>
<time>2016-05-21T01:27:19.376Z</time>
</trkpt>
<trkpt lat="-26.8747619" lon="152.7954467">
<ele>132.780</ele>
<time>2016-05-21T01:27:22.429Z</time>
</trkpt>
<trkpt lat="-26.8745629" lon="152.7959045">
<ele>132.692</ele>
<time>2016-05-21T01:27:24.381Z</time>
</trkpt>
<trkpt lat="-26.8742460" lon="152.7965826">
<ele>133.436</ele>
<time>2016-05-21T01:27:27.349Z</time>
</trkpt>
<trkpt lat="-26.8740333" lon="152.7970406">
<ele>134.288</ele>
<time>2016-05-21T01:27:29.342Z</time>
</trkpt>
<trkpt lat="-26.8737176" lon="152.7977293">
<ele>134.697</ele>
<time>2016-05-21T01:27:32.325Z</time>
</trkpt>
<trkpt lat="-26.8735056" lon="152.7981944">
<ele>134.960</ele>
<time>2016-05-21T01:27:34.310Z</time>
</trkpt>
<trkpt lat="-26.8732844" lon="152.7986645">
<ele>135.468</ele>
<time>2016-05-21T01:27:36.298Z</time>
</trkpt>
<trkpt lat="-26.8729614" lon="152.7993812">
<ele>136.297</ele>
<time>2016-05-21T01:27:39.309Z</time>
</trkpt>
<trkpt lat="-26.8727465" lon="152.7998527">
<ele>137.436</ele>
<time>2016-05-21T01:27:41.335Z</time>
</trkpt>
<trkpt lat="-26.8725459" lon="152.8003100">
<ele>138.682</ele>
<time>2016-05-21T01:27:43.302Z</time>
</trkpt>
<trkpt lat="-26.8722257" lon="152.8010027">
<ele>139.580</ele>
<time>2016-05-21T01:27:46.314Z</time>
</trkpt>
<trkpt lat="-26.8720297" lon="152.8014712">
<ele>139.950</ele>
<time>2016-05-21T01:27:48.299Z</time>
</trkpt>
<trkpt lat="-26.8718468" lon="152.8019429">
<ele>139.956</ele>
<time>2016-05-21T01:27:50.228Z</time>
</trkpt>
<trkpt lat="-26.8716632" lon="152.8024466">
<ele>140.249</ele>
<time>2016-05-21T01:27:52.188Z</time>
</trkpt>
<trkpt lat="-26.8714783" lon="152.8029923">
<ele>141.222</ele>
<time>2016-05-21T01:27:54.238Z</time>
</trkpt>
<trkpt lat="-26.8713266" lon="152.8035311">
<ele>142.295</ele>
<time>2016-05-21T01:27:56.201Z</time>
</trkpt>
<trkpt lat="-26.8711237" lon="152.8043687">
<ele>143.101</ele>
<time>2016-05-21T01:27:59.180Z</time>
</trkpt>
<trkpt lat="-26.8709134" lon="152.8052440">
<ele>144.163</ele>
<time>2016-05-21T01:28:02.297Z</time>
</trkpt>
<trkpt lat="-26.8707868" lon="152.8057679">
<ele>145.511</ele>
<time>2016-05-21T01:28:04.289Z</time>
</trkpt>
<trkpt lat="-26.8706630" lon="152.8062620">
<ele>145.818</ele>
<time>2016-05-21T01:28:06.275Z</time>
</trkpt>
<trkpt lat="-26.8704622" lon="152.8069847">
<ele>144.243</ele>
<time>2016-05-21T01:28:09.348Z</time>
</trkpt>
<trkpt lat="-26.8702383" lon="152.8076218">
<ele>141.891</ele>
<time>2016-05-21T01:28:12.313Z</time>
</trkpt>
<trkpt lat="-26.8700574" lon="152.8080054">
<ele>139.644</ele>
<time>2016-05-21T01:28:14.235Z</time>
</trkpt>
<trkpt lat="-26.8698589" lon="152.8084001">
<ele>137.473</ele>
<time>2016-05-21T01:28:16.190Z</time>
</trkpt>
<trkpt lat="-26.8694873" lon="152.8089869">
<ele>135.952</ele>
<time>2016-05-21T01:28:19.196Z</time>
</trkpt>
<trkpt lat="-26.8690585" lon="152.8095645">
<ele>135.506</ele>
<time>2016-05-21T01:28:22.193Z</time>
</trkpt>
<trkpt lat="-26.8687230" lon="152.8099301">
<ele>135.658</ele>
<time>2016-05-21T01:28:24.202Z</time>
</trkpt>
<trkpt lat="-26.8683637" lon="152.8102738">
<ele>135.741</ele>
<time>2016-05-21T01:28:26.198Z</time>
</trkpt>
<trkpt lat="-26.8679980" lon="152.8106098">
<ele>135.341</ele>
<time>2016-05-21T01:28:28.166Z</time>
</trkpt>
<trkpt lat="-26.8674220" lon="152.8111223">
<ele>134.596</ele>
<time>2016-05-21T01:28:31.182Z</time>
</trkpt>
<trkpt lat="-26.8670354" lon="152.8114640">
<ele>133.775</ele>
<time>2016-05-21T01:28:33.191Z</time>
</trkpt>
<trkpt lat="-26.8664715" lon="152.8119787">
<ele>133.043</ele>
<time>2016-05-21T01:28:36.164Z</time>
</trkpt>
<trkpt lat="-26.8659072" lon="152.8125026">
<ele>132.613</ele>
<time>2016-05-21T01:28:39.124Z</time>
</trkpt>
<trkpt lat="-26.8654981" lon="152.8128817">
<ele>132.738</ele>
<time>2016-05-21T01:28:41.228Z</time>
</trkpt>
<trkpt lat="-26.8649222" lon="152.8134113">
<ele>133.330</ele>
<time>2016-05-21T01:28:44.218Z</time>
</trkpt>
<trkpt lat="-26.8645555" lon="152.8137512">
<ele>133.537</ele>
<time>2016-05-21T01:28:46.240Z</time>
</trkpt>
<trkpt lat="-26.8640147" lon="152.8142015">
<ele>132.661</ele>
<time>2016-05-21T01:28:49.248Z</time>
</trkpt>
<trkpt lat="-26.8636615" lon="152.8144591">
<ele>131.124</ele>
<time>2016-05-21T01:28:51.195Z</time>
</trkpt>
<trkpt lat="-26.8630870" lon="152.8148092">
<ele>129.660</ele>
<time>2016-05-21T01:28:54.209Z</time>
</trkpt>
<trkpt lat="-26.8626916" lon="152.8150029">
<ele>128.672</ele>
<time>2016-05-21T01:28:56.156Z</time>
</trkpt>
<trkpt lat="-26.8620476" lon="152.8152539">
<ele>128.691</ele>
<time>2016-05-21T01:28:59.151Z</time>
</trkpt>
<trkpt lat="-26.8613532" lon="152.8154342">
<ele>129.891</ele>
<time>2016-05-21T01:29:02.187Z</time>
</trkpt>
<trkpt lat="-26.8608845" lon="152.8155101">
<ele>131.709</ele>
<time>2016-05-21T01:29:04.164Z</time>
</trkpt>
<trkpt lat="-26.8601515" lon="152.8155615">
<ele>133.455</ele>
<time>2016-05-21T01:29:07.229Z</time>
</trkpt>
<trkpt lat="-26.8596896" lon="152.8155716">
<ele>135.091</ele>
<time>2016-05-21T01:29:09.228Z</time>
</trkpt>
<trkpt lat="-26.8592376" lon="152.8155720">
<ele>136.701</ele>
<time>2016-05-21T01:29:11.234Z</time>
</trkpt>
<trkpt lat="-26.8587943" lon="152.8155751">
<ele>138.011</ele>
<time>2016-05-21T01:29:13.193Z</time>
</trkpt>
<trkpt lat="-26.8581115" lon="152.8155876">
<ele>138.720</ele>
<time>2016-05-21T01:29:16.190Z</time>
</trkpt>
<trkpt lat="-26.8576632" lon="152.8155981">
<ele>139.010</ele>
<time>2016-05-21T01:29:18.171Z</time>
</trkpt>
<trkpt lat="-26.8569987" lon="152.8155958">
<ele>139.558</ele>
<time>2016-05-21T01:29:21.072Z</time>
</trkpt>
<trkpt lat="-26.8562784" lon="152.8156125">
<ele>140.706</ele>
<time>2016-05-21T01:29:24.077Z</time>
</trkpt>
<trkpt lat="-26.8557717" lon="152.8156245">
<ele>142.918</ele>
<time>2016-05-21T01:29:26.148Z</time>
</trkpt>
<trkpt lat="-26.8552975" lon="152.8156346">
<ele>146.980</ele>
<time>2016-05-21T01:29:28.158Z</time>
</trkpt>
<trkpt lat="-26.8548462" lon="152.8156481">
<ele>151.960</ele>
<time>2016-05-21T01:29:30.198Z</time>
</trkpt>
<trkpt lat="-26.8542258" lon="152.8156712">
<ele>155.793</ele>
<time>2016-05-21T01:29:33.165Z</time>
</trkpt>
<trkpt lat="-26.8538301" lon="152.8156722">
<ele>158.020</ele>
<time>2016-05-21T01:29:35.182Z</time>
</trkpt>
<trkpt lat="-26.8532642" lon="152.8156748">
<ele>159.518</ele>
<time>2016-05-21T01:29:38.122Z</time>
</trkpt>
<trkpt lat="-26.8526802" lon="152.8156853">
<ele>161.054</ele>
<time>2016-05-21T01:29:41.113Z</time>
</trkpt>
<trkpt lat="-26.8522760" lon="152.8156911">
<ele>162.772</ele>
<time>2016-05-21T01:29:43.101Z</time>
</trkpt>
<trkpt lat="-26.8518633" lon="152.8156919">
<ele>164.705</ele>
<time>2016-05-21T01:29:45.132Z</time>
</trkpt>
<trkpt lat="-26.8512687" lon="152.8156948">
<ele>166.661</ele>
<time>2016-05-21T01:29:48.149Z</time>
</trkpt>
<trkpt lat="-26.8507168" lon="152.8157005">
<ele>167.617</ele>
<time>2016-05-21T01:29:51.072Z</time>
</trkpt>
<trkpt lat="-26.8501648" lon="152.8157146">
<ele>166.836</ele>
<time>2016-05-21T01:29:54.033Z</time>
</trkpt>
<trkpt lat="-26.8497957" lon="152.8157519">
<ele>165.006</ele>
<time>2016-05-21T01:29:56.012Z</time>
</trkpt>
<trkpt lat="-26.8492642" lon="152.8159608">
<ele>163.283</ele>
<time>2016-05-21T01:29:59.023Z</time>
</trkpt>
<trkpt lat="-26.8489458" lon="152.8162016">
<ele>162.212</ele>
<time>2016-05-21T01:30:01.081Z</time>
</trkpt>
<trkpt lat="-26.8486944" lon="152.8165015">
<ele>162.052</ele>
<time>2016-05-21T01:30:03.048Z</time>
</trkpt>
<trkpt lat="-26.8484404" lon="152.8170556">
<ele>163.130</ele>
<time>2016-05-21T01:30:06.030Z</time>
</trkpt>
<trkpt lat="-26.8483539" lon="152.8174464">
<ele>165.786</ele>
<time>2016-05-21T01:30:07.985Z</time>
</trkpt>
<trkpt lat="-26.8482864" lon="152.8180447">
<ele>169.703</ele>
<time>2016-05-21T01:30:10.971Z</time>
</trkpt>
<trkpt lat="-26.8482396" lon="152.8184328">
<ele>173.523</ele>
<time>2016-05-21T01:30:13.008Z</time>
</trkpt>
<trkpt lat="-26.8481166" lon="152.8189569">
<ele>176.049</ele>
<time>2016-05-21T01:30:15.964Z</time>
</trkpt>
<trkpt lat="-26.8479758" lon="152.8192525">
<ele>177.255</ele>
<time>2016-05-21T01:30:17.851Z</time>
</trkpt>
<trkpt lat="-26.8476620" lon="152.8196596">
<ele>177.765</ele>
<time>2016-05-21T01:30:20.918Z</time>
</trkpt>
<trkpt lat="-26.8472649" lon="152.8198666">
<ele>178.511</ele>
<time>2016-05-21T01:30:23.827Z</time>
</trkpt>
<trkpt lat="-26.8468112" lon="152.8199049">
<ele>180.243</ele>
<time>2016-05-21T01:30:26.870Z</time>
</trkpt>
<trkpt lat="-26.8465003" lon="152.8198491">
<ele>183.128</ele>
<time>2016-05-21T01:30:28.910Z</time>
</trkpt>
<trkpt lat="-26.8460898" lon="152.8196324">
<ele>186.776</ele>
<time>2016-05-21T01:30:31.847Z</time>
</trkpt>
<trkpt lat="-26.8458484" lon="152.8194264">
<ele>190.375</ele>
<time>2016-05-21T01:30:33.847Z</time>
</trkpt>
<trkpt lat="-26.8455196" lon="152.8190926">
<ele>193.192</ele>
<time>2016-05-21T01:30:36.847Z</time>
</trkpt>
<trkpt lat="-26.8452967" lon="152.8188914">
<ele>195.329</ele>
<time>2016-05-21T01:30:38.830Z</time>
</trkpt>
<trkpt lat="-26.8448953" lon="152.8186643">
<ele>197.390</ele>
<time>2016-05-21T01:30:41.943Z</time>
</trkpt>
<trkpt lat="-26.8446305" lon="152.8185851">
<ele>200.259</ele>
<time>2016-05-21T01:30:43.881Z</time>
</trkpt>
<trkpt lat="-26.8442102" lon="152.8185622">
<ele>204.095</ele>
<time>2016-05-21T01:30:47.009Z</time>
</trkpt>
<trkpt lat="-26.8439737" lon="152.8185688">
<ele>207.940</ele>
<time>2016-05-21T01:30:48.905Z</time>
</trkpt>
<trkpt lat="-26.8436216" lon="152.8185159">
<ele>210.999</ele>
<time>2016-05-21T01:30:51.842Z</time>
</trkpt>
<trkpt lat="-26.8433976" lon="152.8184050">
<ele>213.637</ele>
<time>2016-05-21T01:30:53.874Z</time>
</trkpt>
<trkpt lat="-26.8432066" lon="152.8182384">
<ele>216.265</ele>
<time>2016-05-21T01:30:55.869Z</time>
</trkpt>
<trkpt lat="-26.8429457" lon="152.8179338">
<ele>218.691</ele>
<time>2016-05-21T01:30:58.926Z</time>
</trkpt>
<trkpt lat="-26.8427480" lon="152.8177697">
<ele>220.765</ele>
<time>2016-05-21T01:31:00.906Z</time>
</trkpt>
<trkpt lat="-26.8425241" lon="152.8176588">
<ele>222.797</ele>
<time>2016-05-21T01:31:02.896Z</time>
</trkpt>
<trkpt lat="-26.8421606" lon="152.8176047">
<ele>224.675</ele>
<time>2016-05-21T01:31:05.900Z</time>
</trkpt>
<trkpt lat="-26.8418284" lon="152.8175116">
<ele>226.619</ele>
<time>2016-05-21T01:31:08.797Z</time>
</trkpt>
<trkpt lat="-26.8416365" lon="152.8173729">
<ele>229.002</ele>
<time>2016-05-21T01:31:10.860Z</time>
</trkpt>
<trkpt lat="-26.8414493" lon="152.8171048">
<ele>231.218</ele>
<time>2016-05-21T01:31:13.746Z</time>
</trkpt>
<trkpt lat="-26.8413213" lon="152.8169294">
<ele>232.557</ele>
<time>2016-05-21T01:31:15.787Z</time>
</trkpt>
<trkpt lat="-26.8411431" lon="152.8166789">
<ele>233.193</ele>
<time>2016-05-21T01:31:18.894Z</time>
</trkpt>
<trkpt lat="-26.8410338" lon="152.8165598">
<ele>233.753</ele>
<time>2016-05-21T01:31:20.911Z</time>
</trkpt>
<trkpt lat="-26.8409296" lon="152.8164888">
<ele>234.695</ele>
<time>2016-05-21T01:31:22.887Z</time>
</trkpt>
<trkpt lat="-26.8408522" lon="152.8164131">
<ele>235.852</ele>
<time>2016-05-21T01:31:24.809Z</time>
</trkpt>
<trkpt lat="-26.8407349" lon="152.8163323">
<ele>237.021</ele>
<time>2016-05-21T01:31:27.599Z</time>
</trkpt>
<trkpt lat="-26.8406149" lon="152.8162838">
<ele>238.275</ele>
<time>2016-05-21T01:31:30.331Z</time>
</trkpt>
<trkpt lat="-26.8404865" lon="152.8162510">
<ele>239.660</ele>
<time>2016-05-21T01:31:33.249Z</time>
</trkpt>
<trkpt lat="-26.8403876" lon="152.8162413">
<ele>241.205</ele>
<time>2016-05-21T01:31:35.408Z</time>
</trkpt>
<trkpt lat="-26.8402404" lon="152.8162440">
<ele>242.816</ele>
<time>2016-05-21T01:31:38.539Z</time>
</trkpt>
<trkpt lat="-26.8401481" lon="152.8162601">
<ele>244.410</ele>
<time>2016-05-21T01:31:40.591Z</time>
</trkpt>
<trkpt lat="-26.8400331" lon="152.8163017">
<ele>245.965</ele>
<time>2016-05-21T01:31:43.409Z</time>
</trkpt>
<trkpt lat="-26.8399278" lon="152.8163569">
<ele>247.389</ele>
<time>2016-05-21T01:31:46.296Z</time>
</trkpt>
<trkpt lat="-26.8398121" lon="152.8164354">
<ele>248.661</ele>
<time>2016-05-21T01:31:49.463Z</time>
</trkpt>
<trkpt lat="-26.8397230" lon="152.8165119">
<ele>249.922</ele>
<time>2016-05-21T01:31:52.164Z</time>
</trkpt>
<trkpt lat="-26.8396478" lon="152.8165941">
<ele>251.157</ele>
<time>2016-05-21T01:31:55.065Z</time>
</trkpt>
<trkpt lat="-26.8395530" lon="152.8167085">
<ele>252.229</ele>
<time>2016-05-21T01:31:58.327Z</time>
</trkpt>
<trkpt lat="-26.8394419" lon="152.8168894">
<ele>253.127</ele>
<time>2016-05-21T01:32:01.497Z</time>
</trkpt>
<trkpt lat="-26.8392983" lon="152.8171239">
<ele>253.922</ele>
<time>2016-05-21T01:32:04.621Z</time>
</trkpt>
<trkpt lat="-26.8391784" lon="152.8172687">
<ele>254.824</ele>
<time>2016-05-21T01:32:06.613Z</time>
</trkpt>
<trkpt lat="-26.8389966" lon="152.8174350">
<ele>255.937</ele>
<time>2016-05-21T01:32:09.413Z</time>
</trkpt>
<trkpt lat="-26.8388885" lon="152.8174908">
<ele>257.079</ele>
<time>2016-05-21T01:32:11.068Z</time>
</trkpt>
<trkpt lat="-26.8388885" lon="152.8174908">
<ele>258.024</ele>
<time>2016-05-21T01:32:15.076Z</time>
</trkpt>
<trkpt lat="-26.8388885" lon="152.8174908">
<ele>258.479</ele>
<time>2016-05-21T01:32:17.482Z</time>
</trkpt>
<trkpt lat="-26.8386481" lon="152.8175775">
<ele>258.329</ele>
<time>2016-05-21T01:32:23.749Z</time>
</trkpt>
<trkpt lat="-26.8383555" lon="152.8175429">
<ele>258.532</ele>
<time>2016-05-21T01:32:26.961Z</time>
</trkpt>
<trkpt lat="-26.8381413" lon="152.8174756">
<ele>260.194</ele>
<time>2016-05-21T01:32:28.842Z</time>
</trkpt>
<trkpt lat="-26.8379013" lon="152.8174018">
<ele>263.047</ele>
<time>2016-05-21T01:32:30.864Z</time>
</trkpt>
<trkpt lat="-26.8376646" lon="152.8173595">
<ele>265.945</ele>
<time>2016-05-21T01:32:32.910Z</time>
</trkpt>
<trkpt lat="-26.8373399" lon="152.8174231">
<ele>268.203</ele>
<time>2016-05-21T01:32:35.714Z</time>
</trkpt>
<trkpt lat="-26.8369892" lon="152.8175841">
<ele>269.628</ele>
<time>2016-05-21T01:32:38.851Z</time>
</trkpt>
<trkpt lat="-26.8366276" lon="152.8175966">
<ele>270.680</ele>
<time>2016-05-21T01:32:41.875Z</time>
</trkpt>
<trkpt lat="-26.8363996" lon="152.8175334">
<ele>271.938</ele>
<time>2016-05-21T01:32:43.958Z</time>
</trkpt>
<trkpt lat="-26.8361787" lon="152.8175055">
<ele>273.232</ele>
<time>2016-05-21T01:32:46.029Z</time>
</trkpt>
<trkpt lat="-26.8358665" lon="152.8174997">
<ele>274.136</ele>
<time>2016-05-21T01:32:49.124Z</time>
</trkpt>
<trkpt lat="-26.8357692" lon="152.8174894">
<ele>274.670</ele>
<time>2016-05-21T01:32:50.195Z</time>
</trkpt>
<trkpt lat="-26.8355304" lon="152.8171971">
<ele>274.932</ele>
<time>2016-05-21T01:32:53.647Z</time>
</trkpt>
<trkpt lat="-26.8352931" lon="152.8168039">
<ele>275.196</ele>
<time>2016-05-21T01:32:56.677Z</time>
</trkpt>
<trkpt lat="-26.8349323" lon="152.8163314">
<ele>276.612</ele>
<time>2016-05-21T01:32:59.855Z</time>
</trkpt>
<trkpt lat="-26.8345519" lon="152.8158489">
<ele>280.289</ele>
<time>2016-05-21T01:33:02.877Z</time>
</trkpt>
<trkpt lat="-26.8342910" lon="152.8155149">
<ele>284.982</ele>
<time>2016-05-21T01:33:04.882Z</time>
</trkpt>
<trkpt lat="-26.8338196" lon="152.8150826">
<ele>288.136</ele>
<time>2016-05-21T01:33:07.918Z</time>
</trkpt>
<trkpt lat="-26.8334552" lon="152.8149021">
<ele>289.042</ele>
<time>2016-05-21T01:33:09.900Z</time>
</trkpt>
<trkpt lat="-26.8328839" lon="152.8147056">
<ele>288.977</ele>
<time>2016-05-21T01:33:12.883Z</time>
</trkpt>
<trkpt lat="-26.8325084" lon="152.8145569">
<ele>289.406</ele>
<time>2016-05-21T01:33:14.811Z</time>
</trkpt>
<trkpt lat="-26.8320538" lon="152.8140849">
<ele>290.566</ele>
<time>2016-05-21T01:33:17.674Z</time>
</trkpt>
<trkpt lat="-26.8315708" lon="152.8134817">
<ele>291.255</ele>
<time>2016-05-21T01:33:20.826Z</time>
</trkpt>
<trkpt lat="-26.8312203" lon="152.8131201">
<ele>290.733</ele>
<time>2016-05-21T01:33:22.925Z</time>
</trkpt>
<trkpt lat="-26.8308767" lon="152.8128335">
<ele>290.181</ele>
<time>2016-05-21T01:33:24.957Z</time>
</trkpt>
<trkpt lat="-26.8303417" lon="152.8125354">
<ele>292.309</ele>
<time>2016-05-21T01:33:27.882Z</time>
</trkpt>
<trkpt lat="-26.8297404" lon="152.8124315">
<ele>297.928</ele>
<time>2016-05-21T01:33:30.997Z</time>
</trkpt>
<trkpt lat="-26.8291927" lon="152.8125310">
<ele>304.399</ele>
<time>2016-05-21T01:33:34.056Z</time>
</trkpt>
<trkpt lat="-26.8288763" lon="152.8126710">
<ele>309.442</ele>
<time>2016-05-21T01:33:36.225Z</time>
</trkpt>
<trkpt lat="-26.8284780" lon="152.8127983">
<ele>312.869</ele>
<time>2016-05-21T01:33:39.011Z</time>
</trkpt>
<trkpt lat="-26.8281737" lon="152.8127070">
<ele>314.266</ele>
<time>2016-05-21T01:33:41.231Z</time>
</trkpt>
<trkpt lat="-26.8280587" lon="152.8121736">
<ele>313.740</ele>
<time>2016-05-21T01:33:44.616Z</time>
</trkpt>
<trkpt lat="-26.8280934" lon="152.8116525">
<ele>312.784</ele>
<time>2016-05-21T01:33:47.400Z</time>
</trkpt>
<trkpt lat="-26.8281963" lon="152.8112374">
<ele>312.929</ele>
<time>2016-05-21T01:33:49.452Z</time>
</trkpt>
<trkpt lat="-26.8281362" lon="152.8106492">
<ele>314.581</ele>
<time>2016-05-21T01:33:52.154Z</time>
</trkpt>
<trkpt lat="-26.8279507" lon="152.8102110">
<ele>316.909</ele>
<time>2016-05-21T01:33:54.120Z</time>
</trkpt>
<trkpt lat="-26.8276663" lon="152.8094847">
<ele>318.933</ele>
<time>2016-05-21T01:33:57.195Z</time>
</trkpt>
<trkpt lat="-26.8274290" lon="152.8087576">
<ele>321.608</ele>
<time>2016-05-21T01:34:00.172Z</time>
</trkpt>
<trkpt lat="-26.8271855" lon="152.8080342">
<ele>325.704</ele>
<time>2016-05-21T01:34:03.098Z</time>
</trkpt>
<trkpt lat="-26.8269157" lon="152.8075728">
<ele>329.494</ele>
<time>2016-05-21T01:34:05.085Z</time>
</trkpt>
<trkpt lat="-26.8264654" lon="152.8069235">
<ele>332.092</ele>
<time>2016-05-21T01:34:07.999Z</time>
</trkpt>
<trkpt lat="-26.8258868" lon="152.8063309">
<ele>334.444</ele>
<time>2016-05-21T01:34:11.123Z</time>
</trkpt>
<trkpt lat="-26.8255569" lon="152.8059688">
<ele>336.543</ele>
<time>2016-05-21T01:34:13.213Z</time>
</trkpt>
<trkpt lat="-26.8250989" lon="152.8055188">
<ele>337.872</ele>
<time>2016-05-21T01:34:16.292Z</time>
</trkpt>
<trkpt lat="-26.8248415" lon="152.8052281">
<ele>339.513</ele>
<time>2016-05-21T01:34:18.372Z</time>
</trkpt>
<trkpt lat="-26.8247174" lon="152.8048652">
<ele>343.227</ele>
<time>2016-05-21T01:34:20.391Z</time>
</trkpt>
<trkpt lat="-26.8247126" lon="152.8042944">
<ele>348.428</ele>
<time>2016-05-21T01:34:23.319Z</time>
</trkpt>
<trkpt lat="-26.8247866" lon="152.8039114">
<ele>352.763</ele>
<time>2016-05-21T01:34:25.158Z</time>
</trkpt>
<trkpt lat="-26.8252119" lon="152.8033652">
<ele>355.973</ele>
<time>2016-05-21T01:34:28.211Z</time>
</trkpt>
<trkpt lat="-26.8255370" lon="152.8029926">
<ele>359.328</ele>
<time>2016-05-21T01:34:30.191Z</time>
</trkpt>
<trkpt lat="-26.8260783" lon="152.8023973">
<ele>363.701</ele>
<time>2016-05-21T01:34:33.572Z</time>
</trkpt>
<trkpt lat="-26.8263686" lon="152.8020610">
<ele>369.098</ele>
<time>2016-05-21T01:34:35.600Z</time>
</trkpt>
<trkpt lat="-26.8267196" lon="152.8015000">
<ele>374.121</ele>
<time>2016-05-21T01:34:38.646Z</time>
</trkpt>
<trkpt lat="-26.8269536" lon="152.8008772">
<ele>377.356</ele>
<time>2016-05-21T01:34:41.645Z</time>
</trkpt>
<trkpt lat="-26.8270563" lon="152.8002165">
<ele>379.313</ele>
<time>2016-05-21T01:34:44.474Z</time>
</trkpt>
<trkpt lat="-26.8270526" lon="152.7997263">
<ele>380.955</ele>
<time>2016-05-21T01:34:46.438Z</time>
</trkpt>
<trkpt lat="-26.8270018" lon="152.7989696">
<ele>382.675</ele>
<time>2016-05-21T01:34:49.530Z</time>
</trkpt>
<trkpt lat="-26.8269522" lon="152.7982556">
<ele>384.395</ele>
<time>2016-05-21T01:34:52.648Z</time>
</trkpt>
<trkpt lat="-26.8269434" lon="152.7975909">
<ele>385.512</ele>
<time>2016-05-21T01:34:55.591Z</time>
</trkpt>
<trkpt lat="-26.8271289" lon="152.7969205">
<ele>385.722</ele>
<time>2016-05-21T01:34:58.521Z</time>
</trkpt>
<trkpt lat="-26.8272588" lon="152.7964292">
<ele>385.423</ele>
<time>2016-05-21T01:35:00.609Z</time>
</trkpt>
<trkpt lat="-26.8272459" lon="152.7959365">
<ele>385.329</ele>
<time>2016-05-21T01:35:02.679Z</time>
</trkpt>
<trkpt lat="-26.8272440" lon="152.7952380">
<ele>385.789</ele>
<time>2016-05-21T01:35:05.725Z</time>
</trkpt>
<trkpt lat="-26.8272913" lon="152.7945586">
<ele>386.577</ele>
<time>2016-05-21T01:35:08.658Z</time>
</trkpt>
<trkpt lat="-26.8273985" lon="152.7940928">
<ele>387.410</ele>
<time>2016-05-21T01:35:10.722Z</time>
</trkpt>
<trkpt lat="-26.8275276" lon="152.7934365">
<ele>388.286</ele>
<time>2016-05-21T01:35:13.780Z</time>
</trkpt>
<trkpt lat="-26.8275675" lon="152.7930229">
<ele>389.234</ele>
<time>2016-05-21T01:35:15.858Z</time>
</trkpt>
<trkpt lat="-26.8275271" lon="152.7926357">
<ele>390.132</ele>
<time>2016-05-21T01:35:17.936Z</time>
</trkpt>
<trkpt lat="-26.8274508" lon="152.7921001">
<ele>390.819</ele>
<time>2016-05-21T01:35:21.137Z</time>
</trkpt>
<trkpt lat="-26.8271037" lon="152.7917520">
<ele>391.590</ele>
<time>2016-05-21T01:35:24.264Z</time>
</trkpt>
<trkpt lat="-26.8266808" lon="152.7915853">
<ele>392.558</ele>
<time>2016-05-21T01:35:27.179Z</time>
</trkpt>
<trkpt lat="-26.8262878" lon="152.7913095">
<ele>393.983</ele>
<time>2016-05-21T01:35:30.298Z</time>
</trkpt>
<trkpt lat="-26.8260293" lon="152.7911341">
<ele>396.173</ele>
<time>2016-05-21T01:35:32.339Z</time>
</trkpt>
<trkpt lat="-26.8257568" lon="152.7910029">
<ele>398.574</ele>
<time>2016-05-21T01:35:34.310Z</time>
</trkpt>
<trkpt lat="-26.8252845" lon="152.7909098">
<ele>400.626</ele>
<time>2016-05-21T01:35:37.321Z</time>
</trkpt>
<trkpt lat="-26.8249114" lon="152.7905111">
<ele>402.326</ele>
<time>2016-05-21T01:35:40.208Z</time>
</trkpt>
<trkpt lat="-26.8245707" lon="152.7899932">
<ele>403.446</ele>
<time>2016-05-21T01:35:43.100Z</time>
</trkpt>
<trkpt lat="-26.8242913" lon="152.7896592">
<ele>404.550</ele>
<time>2016-05-21T01:35:45.213Z</time>
</trkpt>
<trkpt lat="-26.8240238" lon="152.7893321">
<ele>406.275</ele>
<time>2016-05-21T01:35:47.408Z</time>
</trkpt>
<trkpt lat="-26.8238406" lon="152.7890035">
<ele>407.475</ele>
<time>2016-05-21T01:35:49.394Z</time>
</trkpt>
<trkpt lat="-26.8236968" lon="152.7886647">
<ele>407.129</ele>
<time>2016-05-21T01:35:51.392Z</time>
</trkpt>
<trkpt lat="-26.8236535" lon="152.7882944">
<ele>406.131</ele>
<time>2016-05-21T01:35:53.390Z</time>
</trkpt>
<trkpt lat="-26.8238217" lon="152.7877398">
<ele>406.067</ele>
<time>2016-05-21T01:35:56.343Z</time>
</trkpt>
<trkpt lat="-26.8243107" lon="152.7872328">
<ele>407.367</ele>
<time>2016-05-21T01:35:59.750Z</time>
</trkpt>
<trkpt lat="-26.8245362" lon="152.7868822">
<ele>408.492</ele>
<time>2016-05-21T01:36:01.574Z</time>
</trkpt>
<trkpt lat="-26.8247333" lon="152.7864652">
<ele>408.153</ele>
<time>2016-05-21T01:36:03.510Z</time>
</trkpt>
<trkpt lat="-26.8248533" lon="152.7857312">
<ele>407.136</ele>
<time>2016-05-21T01:36:06.432Z</time>
</trkpt>
<trkpt lat="-26.8248844" lon="152.7852148">
<ele>406.552</ele>
<time>2016-05-21T01:36:08.481Z</time>
</trkpt>
<trkpt lat="-26.8249179" lon="152.7844514">
<ele>406.634</ele>
<time>2016-05-21T01:36:11.865Z</time>
</trkpt>
<trkpt lat="-26.8249438" lon="152.7840493">
<ele>407.076</ele>
<time>2016-05-21T01:36:13.794Z</time>
</trkpt>
<trkpt lat="-26.8249788" lon="152.7834318">
<ele>407.455</ele>
<time>2016-05-21T01:36:16.932Z</time>
</trkpt>
<trkpt lat="-26.8249888" lon="152.7828529">
<ele>407.736</ele>
<time>2016-05-21T01:36:20.021Z</time>
</trkpt>
<trkpt lat="-26.8250187" lon="152.7823028">
<ele>408.092</ele>
<time>2016-05-21T01:36:22.977Z</time>
</trkpt>
<trkpt lat="-26.8250036" lon="152.7819286">
<ele>408.522</ele>
<time>2016-05-21T01:36:24.904Z</time>
</trkpt>
<trkpt lat="-26.8249112" lon="152.7815557">
<ele>409.062</ele>
<time>2016-05-21T01:36:26.819Z</time>
</trkpt>
<trkpt lat="-26.8247410" lon="152.7812028">
<ele>409.805</ele>
<time>2016-05-21T01:36:28.862Z</time>
</trkpt>
<trkpt lat="-26.8245148" lon="152.7808860">
<ele>410.674</ele>
<time>2016-05-21T01:36:30.934Z</time>
</trkpt>
<trkpt lat="-26.8243084" lon="152.7803931">
<ele>412.111</ele>
<time>2016-05-21T01:36:33.650Z</time>
</trkpt>
<trkpt lat="-26.8242216" lon="152.7797990">
<ele>414.477</ele>
<time>2016-05-21T01:36:36.314Z</time>
</trkpt>
<trkpt lat="-26.8242003" lon="152.7793452">
<ele>417.612</ele>
<time>2016-05-21T01:36:38.197Z</time>
</trkpt>
<trkpt lat="-26.8240243" lon="152.7786231">
<ele>421.163</ele>
<time>2016-05-21T01:36:40.986Z</time>
</trkpt>
<trkpt lat="-26.8237069" lon="152.7778515">
<ele>424.516</ele>
<time>2016-05-21T01:36:44.108Z</time>
</trkpt>
<trkpt lat="-26.8234893" lon="152.7773825">
<ele>427.212</ele>
<time>2016-05-21T01:36:46.126Z</time>
</trkpt>
<trkpt lat="-26.8232477" lon="152.7769362">
<ele>429.663</ele>
<time>2016-05-21T01:36:48.179Z</time>
</trkpt>
<trkpt lat="-26.8229241" lon="152.7762939">
<ele>432.020</ele>
<time>2016-05-21T01:36:51.548Z</time>
</trkpt>
<trkpt lat="-26.8227260" lon="152.7759215">
<ele>433.961</ele>
<time>2016-05-21T01:36:53.826Z</time>
</trkpt>
<trkpt lat="-26.8225275" lon="152.7756076">
<ele>435.216</ele>
<time>2016-05-21T01:36:55.976Z</time>
</trkpt>
<trkpt lat="-26.8221544" lon="152.7752766">
<ele>436.041</ele>
<time>2016-05-21T01:36:59.226Z</time>
</trkpt>
<trkpt lat="-26.8218182" lon="152.7750317">
<ele>437.692</ele>
<time>2016-05-21T01:37:02.395Z</time>
</trkpt>
<trkpt lat="-26.8217398" lon="152.7747544">
<ele>441.228</ele>
<time>2016-05-21T01:37:04.445Z</time>
</trkpt>
<trkpt lat="-26.8218680" lon="152.7744904">
<ele>445.965</ele>
<time>2016-05-21T01:37:06.316Z</time>
</trkpt>
<trkpt lat="-26.8219858" lon="152.7739850">
<ele>450.819</ele>
<time>2016-05-21T01:37:09.387Z</time>
</trkpt>
<trkpt lat="-26.8219635" lon="152.7736212">
<ele>455.795</ele>
<time>2016-05-21T01:37:11.671Z</time>
</trkpt>
<trkpt lat="-26.8218801" lon="152.7731607">
<ele>461.112</ele>
<time>2016-05-21T01:37:14.736Z</time>
</trkpt>
<trkpt lat="-26.8217543" lon="152.7728944">
<ele>466.539</ele>
<time>2016-05-21T01:37:16.687Z</time>
</trkpt>
<trkpt lat="-26.8216891" lon="152.7725887">
<ele>471.368</ele>
<time>2016-05-21T01:37:18.731Z</time>
</trkpt>
<trkpt lat="-26.8218045" lon="152.7721438">
<ele>475.264</ele>
<time>2016-05-21T01:37:21.737Z</time>
</trkpt>
<trkpt lat="-26.8223310" lon="152.7720807">
<ele>479.225</ele>
<time>2016-05-21T01:37:25.415Z</time>
</trkpt>
<trkpt lat="-26.8225352" lon="152.7718763">
<ele>484.506</ele>
<time>2016-05-21T01:37:27.097Z</time>
</trkpt>
<trkpt lat="-26.8227202" lon="152.7714066">
<ele>490.446</ele>
<time>2016-05-21T01:37:29.748Z</time>
</trkpt>
<trkpt lat="-26.8228030" lon="152.7708384">
<ele>496.071</ele>
<time>2016-05-21T01:37:32.612Z</time>
</trkpt>
<trkpt lat="-26.8228416" lon="152.7704391">
<ele>502.246</ele>
<time>2016-05-21T01:37:34.608Z</time>
</trkpt>
<trkpt lat="-26.8228343" lon="152.7700532">
<ele>509.194</ele>
<time>2016-05-21T01:37:36.560Z</time>
</trkpt>
<trkpt lat="-26.8228081" lon="152.7696560">
<ele>515.127</ele>
<time>2016-05-21T01:37:38.693Z</time>
</trkpt>
<trkpt lat="-26.8226172" lon="152.7691163">
<ele>519.668</ele>
<time>2016-05-21T01:37:41.839Z</time>
</trkpt>
<trkpt lat="-26.8223523" lon="152.7686942">
<ele>524.245</ele>
<time>2016-05-21T01:37:44.482Z</time>
</trkpt>
<trkpt lat="-26.8221060" lon="152.7684260">
<ele>528.852</ele>
<time>2016-05-21T01:37:46.454Z</time>
</trkpt>
<trkpt lat="-26.8216509" lon="152.7680818">
<ele>532.109</ele>
<time>2016-05-21T01:37:49.587Z</time>
</trkpt>
<trkpt lat="-26.8211891" lon="152.7678629">
<ele>533.532</ele>
<time>2016-05-21T01:37:52.139Z</time>
</trkpt>
<trkpt lat="-26.8208436" lon="152.7677491">
<ele>533.960</ele>
<time>2016-05-21T01:37:53.851Z</time>
</trkpt>
<trkpt lat="-26.8202152" lon="152.7675519">
<ele>534.281</ele>
<time>2016-05-21T01:37:56.806Z</time>
</trkpt>
<trkpt lat="-26.8197886" lon="152.7674045">
<ele>534.941</ele>
<time>2016-05-21T01:37:58.840Z</time>
</trkpt>
<trkpt lat="-26.8191522" lon="152.7672178">
<ele>535.940</ele>
<time>2016-05-21T01:38:01.855Z</time>
</trkpt>
<trkpt lat="-26.8187199" lon="152.7671025">
<ele>536.751</ele>
<time>2016-05-21T01:38:03.773Z</time>
</trkpt>
<trkpt lat="-26.8182988" lon="152.7669607">
<ele>536.943</ele>
<time>2016-05-21T01:38:05.545Z</time>
</trkpt>
<trkpt lat="-26.8178664" lon="152.7667344">
<ele>536.838</ele>
<time>2016-05-21T01:38:07.450Z</time>
</trkpt>
<trkpt lat="-26.8171969" lon="152.7663094">
<ele>536.801</ele>
<time>2016-05-21T01:38:10.582Z</time>
</trkpt>
<trkpt lat="-26.8167730" lon="152.7660189">
<ele>536.604</ele>
<time>2016-05-21T01:38:12.824Z</time>
</trkpt>
<trkpt lat="-26.8163723" lon="152.7657520">
<ele>535.482</ele>
<time>2016-05-21T01:38:15.128Z</time>
</trkpt>
<trkpt lat="-26.8158719" lon="152.7653469">
<ele>533.084</ele>
<time>2016-05-21T01:38:18.664Z</time>
</trkpt>
<trkpt lat="-26.8155150" lon="152.7649181">
<ele>530.106</ele>
<time>2016-05-21T01:38:22.008Z</time>
</trkpt>
<trkpt lat="-26.8151890" lon="152.7645484">
<ele>527.711</ele>
<time>2016-05-21T01:38:24.965Z</time>
</trkpt>
<trkpt lat="-26.8147882" lon="152.7643149">
<ele>526.599</ele>
<time>2016-05-21T01:38:27.757Z</time>
</trkpt>
<trkpt lat="-26.8142933" lon="152.7642383">
<ele>526.701</ele>
<time>2016-05-21T01:38:30.750Z</time>
</trkpt>
<trkpt lat="-26.8139711" lon="152.7642830">
<ele>527.384</ele>
<time>2016-05-21T01:38:32.640Z</time>
</trkpt>
<trkpt lat="-26.8136594" lon="152.7644187">
<ele>528.057</ele>
<time>2016-05-21T01:38:34.466Z</time>
</trkpt>
<trkpt lat="-26.8132589" lon="152.7648026">
<ele>528.475</ele>
<time>2016-05-21T01:38:36.982Z</time>
</trkpt>
<trkpt lat="-26.8130557" lon="152.7651685">
<ele>528.645</ele>
<time>2016-05-21T01:38:38.705Z</time>
</trkpt>
<trkpt lat="-26.8127680" lon="152.7658671">
<ele>528.833</ele>
<time>2016-05-21T01:38:41.678Z</time>
</trkpt>
<trkpt lat="-26.8124660" lon="152.7665949">
<ele>529.710</ele>
<time>2016-05-21T01:38:45.035Z</time>
</trkpt>
<trkpt lat="-26.8122855" lon="152.7670182">
<ele>531.403</ele>
<time>2016-05-21T01:38:47.047Z</time>
</trkpt>
<trkpt lat="-26.8120672" lon="152.7673860">
<ele>533.345</ele>
<time>2016-05-21T01:38:48.919Z</time>
</trkpt>
<trkpt lat="-26.8116216" lon="152.7678895">
<ele>535.217</ele>
<time>2016-05-21T01:38:51.930Z</time>
</trkpt>
<trkpt lat="-26.8113125" lon="152.7682184">
<ele>537.692</ele>
<time>2016-05-21T01:38:54.023Z</time>
</trkpt>
<trkpt lat="-26.8110083" lon="152.7685380">
<ele>541.087</ele>
<time>2016-05-21T01:38:56.175Z</time>
</trkpt>
<trkpt lat="-26.8105707" lon="152.7689846">
<ele>544.237</ele>
<time>2016-05-21T01:38:59.411Z</time>
</trkpt>
<trkpt lat="-26.8100839" lon="152.7692532">
<ele>545.924</ele>
<time>2016-05-21T01:39:02.532Z</time>
</trkpt>
<trkpt lat="-26.8096084" lon="152.7694680">
<ele>546.532</ele>
<time>2016-05-21T01:39:05.509Z</time>
</trkpt>
<trkpt lat="-26.8092053" lon="152.7698133">
<ele>547.315</ele>
<time>2016-05-21T01:39:08.400Z</time>
</trkpt>
<trkpt lat="-26.8090160" lon="152.7701352">
<ele>549.429</ele>
<time>2016-05-21T01:39:10.295Z</time>
</trkpt>
<trkpt lat="-26.8089038" lon="152.7705055">
<ele>552.901</ele>
<time>2016-05-21T01:39:12.162Z</time>
</trkpt>
<trkpt lat="-26.8089072" lon="152.7711314">
<ele>556.568</ele>
<time>2016-05-21T01:39:15.089Z</time>
</trkpt>
<trkpt lat="-26.8090151" lon="152.7717718">
<ele>559.294</ele>
<time>2016-05-21T01:39:18.123Z</time>
</trkpt>
<trkpt lat="-26.8092920" lon="152.7723217">
<ele>560.761</ele>
<time>2016-05-21T01:39:21.027Z</time>
</trkpt>
<trkpt lat="-26.8095437" lon="152.7726457">
<ele>560.638</ele>
<time>2016-05-21T01:39:22.969Z</time>
</trkpt>
<trkpt lat="-26.8097222" lon="152.7730345">
<ele>558.844</ele>
<time>2016-05-21T01:39:24.965Z</time>
</trkpt>
<trkpt lat="-26.8098480" lon="152.7734565">
<ele>556.044</ele>
<time>2016-05-21T01:39:26.985Z</time>
</trkpt>
<trkpt lat="-26.8098561" lon="152.7740963">
<ele>553.062</ele>
<time>2016-05-21T01:39:29.852Z</time>
</trkpt>
<trkpt lat="-26.8097724" lon="152.7745469">
<ele>550.704</ele>
<time>2016-05-21T01:39:31.962Z</time>
</trkpt>
<trkpt lat="-26.8096194" lon="152.7749898">
<ele>549.288</ele>
<time>2016-05-21T01:39:34.197Z</time>
</trkpt>
<trkpt lat="-26.8094033" lon="152.7755986">
<ele>548.344</ele>
<time>2016-05-21T01:39:37.430Z</time>
</trkpt>
<trkpt lat="-26.8093026" lon="152.7759863">
<ele>547.394</ele>
<time>2016-05-21T01:39:39.372Z</time>
</trkpt>
<trkpt lat="-26.8092563" lon="152.7765575">
<ele>545.884</ele>
<time>2016-05-21T01:39:41.996Z</time>
</trkpt>
<trkpt lat="-26.8094507" lon="152.7771759">
<ele>543.396</ele>
<time>2016-05-21T01:39:44.841Z</time>
</trkpt>
<trkpt lat="-26.8096687" lon="152.7776073">
<ele>540.646</ele>
<time>2016-05-21T01:39:47.056Z</time>
</trkpt>
<trkpt lat="-26.8099263" lon="152.7781962">
<ele>538.569</ele>
<time>2016-05-21T01:39:50.048Z</time>
</trkpt>
<trkpt lat="-26.8099951" lon="152.7788361">
<ele>537.763</ele>
<time>2016-05-21T01:39:52.981Z</time>
</trkpt>
<trkpt lat="-26.8098345" lon="152.7794750">
<ele>538.516</ele>
<time>2016-05-21T01:39:56.052Z</time>
</trkpt>
<trkpt lat="-26.8097731" lon="152.7800932">
<ele>540.815</ele>
<time>2016-05-21T01:39:58.787Z</time>
</trkpt>
<trkpt lat="-26.8098633" lon="152.7805180">
<ele>544.466</ele>
<time>2016-05-21T01:40:00.624Z</time>
</trkpt>
<trkpt lat="-26.8101004" lon="152.7812132">
<ele>549.532</ele>
<time>2016-05-21T01:40:03.693Z</time>
</trkpt>
<trkpt lat="-26.8103319" lon="152.7818887">
<ele>555.016</ele>
<time>2016-05-21T01:40:06.839Z</time>
</trkpt>
<trkpt lat="-26.8104818" lon="152.7823046">
<ele>558.836</ele>
<time>2016-05-21T01:40:08.875Z</time>
</trkpt>
<trkpt lat="-26.8107973" lon="152.7828593">
<ele>559.824</ele>
<time>2016-05-21T01:40:11.877Z</time>
</trkpt>
<trkpt lat="-26.8112394" lon="152.7833020">
<ele>558.085</ele>
<time>2016-05-21T01:40:14.853Z</time>
</trkpt>
<trkpt lat="-26.8115771" lon="152.7838399">
<ele>554.431</ele>
<time>2016-05-21T01:40:17.704Z</time>
</trkpt>
<trkpt lat="-26.8116696" lon="152.7845362">
<ele>550.023</ele>
<time>2016-05-21T01:40:20.494Z</time>
</trkpt>
<trkpt lat="-26.8115639" lon="152.7850107">
<ele>545.749</ele>
<time>2016-05-21T01:40:22.256Z</time>
</trkpt>
<trkpt lat="-26.8113694" lon="152.7855462">
<ele>542.632</ele>
<time>2016-05-21T01:40:24.298Z</time>
</trkpt>
<trkpt lat="-26.8111607" lon="152.7860792">
<ele>541.549</ele>
<time>2016-05-21T01:40:26.387Z</time>
</trkpt>
<trkpt lat="-26.8109440" lon="152.7865799">
<ele>542.007</ele>
<time>2016-05-21T01:40:28.424Z</time>
</trkpt>
<trkpt lat="-26.8105714" lon="152.7872721">
<ele>541.947</ele>
<time>2016-05-21T01:40:31.614Z</time>
</trkpt>
<trkpt lat="-26.8102868" lon="152.7876427">
<ele>539.008</ele>
<time>2016-05-21T01:40:33.647Z</time>
</trkpt>
<trkpt lat="-26.8098793" lon="152.7881996">
<ele>533.936</ele>
<time>2016-05-21T01:40:36.879Z</time>
</trkpt>
<trkpt lat="-26.8096691" lon="152.7885640">
<ele>529.688</ele>
<time>2016-05-21T01:40:38.894Z</time>
</trkpt>
<trkpt lat="-26.8094093" lon="152.7891330">
<ele>527.491</ele>
<time>2016-05-21T01:40:41.900Z</time>
</trkpt>
<trkpt lat="-26.8091456" lon="152.7896814">
<ele>526.719</ele>
<time>2016-05-21T01:40:44.787Z</time>
</trkpt>
<trkpt lat="-26.8089179" lon="152.7900249">
<ele>526.686</ele>
<time>2016-05-21T01:40:46.765Z</time>
</trkpt>
<trkpt lat="-26.8085660" lon="152.7905423">
<ele>526.672</ele>
<time>2016-05-21T01:40:49.790Z</time>
</trkpt>
<trkpt lat="-26.8082176" lon="152.7910421">
<ele>525.900</ele>
<time>2016-05-21T01:40:52.728Z</time>
</trkpt>
<trkpt lat="-26.8078334" lon="152.7915289">
<ele>523.640</ele>
<time>2016-05-21T01:40:55.663Z</time>
</trkpt>
<trkpt lat="-26.8075421" lon="152.7918188">
<ele>519.693</ele>
<time>2016-05-21T01:40:57.538Z</time>
</trkpt>
<trkpt lat="-26.8070064" lon="152.7921867">
<ele>514.625</ele>
<time>2016-05-21T01:41:00.470Z</time>
</trkpt>
<trkpt lat="-26.8064051" lon="152.7924255">
<ele>509.777</ele>
<time>2016-05-21T01:41:03.522Z</time>
</trkpt>
<trkpt lat="-26.8060009" lon="152.7925078">
<ele>506.429</ele>
<time>2016-05-21T01:41:05.537Z</time>
</trkpt>
<trkpt lat="-26.8053864" lon="152.7925851">
<ele>504.841</ele>
<time>2016-05-21T01:41:08.629Z</time>
</trkpt>
<trkpt lat="-26.8048154" lon="152.7927380">
<ele>504.697</ele>
<time>2016-05-21T01:41:11.528Z</time>
</trkpt>
<trkpt lat="-26.8044643" lon="152.7929552">
<ele>505.528</ele>
<time>2016-05-21T01:41:13.481Z</time>
</trkpt>
<trkpt lat="-26.8041524" lon="152.7932434">
<ele>506.858</ele>
<time>2016-05-21T01:41:15.444Z</time>
</trkpt>
<trkpt lat="-26.8037893" lon="152.7938006">
<ele>508.885</ele>
<time>2016-05-21T01:41:18.421Z</time>
</trkpt>
<trkpt lat="-26.8035799" lon="152.7941815">
<ele>512.115</ele>
<time>2016-05-21T01:41:20.333Z</time>
</trkpt>
<trkpt lat="-26.8032020" lon="152.7947275">
<ele>515.802</ele>
<time>2016-05-21T01:41:23.186Z</time>
</trkpt>
<trkpt lat="-26.8028334" lon="152.7950345">
<ele>517.016</ele>
<time>2016-05-21T01:41:25.283Z</time>
</trkpt>
<trkpt lat="-26.8022497" lon="152.7953028">
<ele>513.856</ele>
<time>2016-05-21T01:41:28.101Z</time>
</trkpt>
<trkpt lat="-26.8017917" lon="152.7953968">
<ele>508.792</ele>
<time>2016-05-21T01:41:30.144Z</time>
</trkpt>
<trkpt lat="-26.8013508" lon="152.7955631">
<ele>505.279</ele>
<time>2016-05-21T01:41:32.192Z</time>
</trkpt>
<trkpt lat="-26.8007193" lon="152.7958695">
<ele>504.104</ele>
<time>2016-05-21T01:41:35.354Z</time>
</trkpt>
<trkpt lat="-26.8003255" lon="152.7960391">
<ele>504.278</ele>
<time>2016-05-21T01:41:37.329Z</time>
</trkpt>
<trkpt lat="-26.7997111" lon="152.7961727">
<ele>504.764</ele>
<time>2016-05-21T01:41:40.363Z</time>
</trkpt>
<trkpt lat="-26.7992822" lon="152.7961673">
<ele>505.394</ele>
<time>2016-05-21T01:41:42.503Z</time>
</trkpt>
<trkpt lat="-26.7987193" lon="152.7960243">
<ele>506.716</ele>
<time>2016-05-21T01:41:45.469Z</time>
</trkpt>
<trkpt lat="-26.7983634" lon="152.7958588">
<ele>508.628</ele>
<time>2016-05-21T01:41:47.481Z</time>
</trkpt>
<trkpt lat="-26.7978771" lon="152.7955220">
<ele>510.031</ele>
<time>2016-05-21T01:41:50.572Z</time>
</trkpt>
<trkpt lat="-26.7974686" lon="152.7951230">
<ele>509.469</ele>
<time>2016-05-21T01:41:53.500Z</time>
</trkpt>
<trkpt lat="-26.7972114" lon="152.7948410">
<ele>506.649</ele>
<time>2016-05-21T01:41:55.328Z</time>
</trkpt>
<trkpt lat="-26.7969290" lon="152.7945395">
<ele>503.222</ele>
<time>2016-05-21T01:41:57.294Z</time>
</trkpt>
<trkpt lat="-26.7964892" lon="152.7940686">
<ele>501.403</ele>
<time>2016-05-21T01:42:00.503Z</time>
</trkpt>
<trkpt lat="-26.7960734" lon="152.7936471">
<ele>501.589</ele>
<time>2016-05-21T01:42:03.800Z</time>
</trkpt>
<trkpt lat="-26.7957732" lon="152.7934750">
<ele>502.557</ele>
<time>2016-05-21T01:42:05.877Z</time>
</trkpt>
<trkpt lat="-26.7953198" lon="152.7933920">
<ele>503.348</ele>
<time>2016-05-21T01:42:08.597Z</time>
</trkpt>
<trkpt lat="-26.7949860" lon="152.7934495">
<ele>503.935</ele>
<time>2016-05-21T01:42:10.457Z</time>
</trkpt>
<trkpt lat="-26.7945089" lon="152.7937559">
<ele>504.584</ele>
<time>2016-05-21T01:42:13.119Z</time>
</trkpt>
<trkpt lat="-26.7942283" lon="152.7941004">
<ele>505.457</ele>
<time>2016-05-21T01:42:15.053Z</time>
</trkpt>
<trkpt lat="-26.7938335" lon="152.7946816">
<ele>506.635</ele>
<time>2016-05-21T01:42:18.053Z</time>
</trkpt>
<trkpt lat="-26.7934465" lon="152.7952600">
<ele>507.945</ele>
<time>2016-05-21T01:42:21.058Z</time>
</trkpt>
<trkpt lat="-26.7931826" lon="152.7956235">
<ele>508.088</ele>
<time>2016-05-21T01:42:22.992Z</time>
</trkpt>
<trkpt lat="-26.7928896" lon="152.7959693">
<ele>505.754</ele>
<time>2016-05-21T01:42:24.902Z</time>
</trkpt>
<trkpt lat="-26.7925285" lon="152.7962743">
<ele>501.705</ele>
<time>2016-05-21T01:42:26.889Z</time>
</trkpt>
<trkpt lat="-26.7919103" lon="152.7966268">
<ele>497.767</ele>
<time>2016-05-21T01:42:29.878Z</time>
</trkpt>
<trkpt lat="-26.7914789" lon="152.7968465">
<ele>494.876</ele>
<time>2016-05-21T01:42:31.946Z</time>
</trkpt>
<trkpt lat="-26.7909425" lon="152.7972821">
<ele>492.602</ele>
<time>2016-05-21T01:42:34.830Z</time>
</trkpt>
<trkpt lat="-26.7906490" lon="152.7976932">
<ele>490.440</ele>
<time>2016-05-21T01:42:36.858Z</time>
</trkpt>
<trkpt lat="-26.7902262" lon="152.7983014">
<ele>489.598</ele>
<time>2016-05-21T01:42:40.107Z</time>
</trkpt>
<trkpt lat="-26.7899649" lon="152.7986413">
<ele>491.958</ele>
<time>2016-05-21T01:42:42.151Z</time>
</trkpt>
<trkpt lat="-26.7895127" lon="152.7990100">
<ele>496.716</ele>
<time>2016-05-21T01:42:45.190Z</time>
</trkpt>
<trkpt lat="-26.7890226" lon="152.7993005">
<ele>501.431</ele>
<time>2016-05-21T01:42:48.437Z</time>
</trkpt>
<trkpt lat="-26.7886582" lon="152.7995277">
<ele>505.532</ele>
<time>2016-05-21T01:42:51.003Z</time>
</trkpt>
<trkpt lat="-26.7883966" lon="152.7997825">
<ele>509.871</ele>
<time>2016-05-21T01:42:52.995Z</time>
</trkpt>
<trkpt lat="-26.7880960" lon="152.8000358">
<ele>514.401</ele>
<time>2016-05-21T01:42:55.079Z</time>
</trkpt>
<trkpt lat="-26.7876254" lon="152.8003663">
<ele>518.584</ele>
<time>2016-05-21T01:42:58.164Z</time>
</trkpt>
<trkpt lat="-26.7873182" lon="152.8005916">
<ele>521.773</ele>
<time>2016-05-21T01:43:00.253Z</time>
</trkpt>
<trkpt lat="-26.7868644" lon="152.8008981">
<ele>523.407</ele>
<time>2016-05-21T01:43:03.287Z</time>
</trkpt>
<trkpt lat="-26.7865619" lon="152.8011216">
<ele>523.323</ele>
<time>2016-05-21T01:43:05.332Z</time>
</trkpt>
<trkpt lat="-26.7862564" lon="152.8013342">
<ele>521.691</ele>
<time>2016-05-21T01:43:07.353Z</time>
</trkpt>
<trkpt lat="-26.7857989" lon="152.8016378">
<ele>518.857</ele>
<time>2016-05-21T01:43:10.337Z</time>
</trkpt>
<trkpt lat="-26.7854935" lon="152.8018553">
<ele>514.941</ele>
<time>2016-05-21T01:43:12.373Z</time>
</trkpt>
<trkpt lat="-26.7851028" lon="152.8022576">
<ele>510.142</ele>
<time>2016-05-21T01:43:15.295Z</time>
</trkpt>
<trkpt lat="-26.7848624" lon="152.8025525">
<ele>504.719</ele>
<time>2016-05-21T01:43:17.175Z</time>
</trkpt>
<trkpt lat="-26.7844717" lon="152.8030281">
<ele>499.029</ele>
<time>2016-05-21T01:43:19.877Z</time>
</trkpt>
<trkpt lat="-26.7838881" lon="152.8034492">
<ele>494.138</ele>
<time>2016-05-21T01:43:22.693Z</time>
</trkpt>
<trkpt lat="-26.7833912" lon="152.8036789">
<ele>491.200</ele>
<time>2016-05-21T01:43:24.763Z</time>
</trkpt>
<trkpt lat="-26.7828934" lon="152.8039190">
<ele>490.259</ele>
<time>2016-05-21T01:43:26.859Z</time>
</trkpt>
<trkpt lat="-26.7821943" lon="152.8042317">
<ele>491.298</ele>
<time>2016-05-21T01:43:29.959Z</time>
</trkpt>
<trkpt lat="-26.7817605" lon="152.8044326">
<ele>494.035</ele>
<time>2016-05-21T01:43:32.025Z</time>
</trkpt>
<trkpt lat="-26.7813434" lon="152.8046272">
<ele>497.058</ele>
<time>2016-05-21T01:43:34.145Z</time>
</trkpt>
<trkpt lat="-26.7809576" lon="152.8048040">
<ele>498.857</ele>
<time>2016-05-21T01:43:36.230Z</time>
</trkpt>
<trkpt lat="-26.7805966" lon="152.8049746">
<ele>499.010</ele>
<time>2016-05-21T01:43:38.239Z</time>
</trkpt>
<trkpt lat="-26.7800864" lon="152.8052677">
<ele>497.782</ele>
<time>2016-05-21T01:43:41.194Z</time>
</trkpt>
<trkpt lat="-26.7796678" lon="152.8057225">
<ele>495.593</ele>
<time>2016-05-21T01:43:43.898Z</time>
</trkpt>
<trkpt lat="-26.7794384" lon="152.8061500">
<ele>492.951</ele>
<time>2016-05-21T01:43:45.829Z</time>
</trkpt>
<trkpt lat="-26.7791097" lon="152.8068642">
<ele>490.444</ele>
<time>2016-05-21T01:43:48.864Z</time>
</trkpt>
<trkpt lat="-26.7789075" lon="152.8073250">
<ele>487.995</ele>
<time>2016-05-21T01:43:50.879Z</time>
</trkpt>
<trkpt lat="-26.7787065" lon="152.8077700">
<ele>484.686</ele>
<time>2016-05-21T01:43:52.891Z</time>
</trkpt>
<trkpt lat="-26.7784206" lon="152.8084182">
<ele>480.858</ele>
<time>2016-05-21T01:43:56.055Z</time>
</trkpt>
<trkpt lat="-26.7782377" lon="152.8088162">
<ele>478.306</ele>
<time>2016-05-21T01:43:58.131Z</time>
</trkpt>
<trkpt lat="-26.7780753" lon="152.8091920">
<ele>478.296</ele>
<time>2016-05-21T01:44:00.146Z</time>
</trkpt>
<trkpt lat="-26.7779185" lon="152.8099965">
<ele>480.272</ele>
<time>2016-05-21T01:44:03.962Z</time>
</trkpt>
<trkpt lat="-26.7779787" lon="152.8106664">
<ele>482.618</ele>
<time>2016-05-21T01:44:06.960Z</time>
</trkpt>
<trkpt lat="-26.7780145" lon="152.8111144">
<ele>484.200</ele>
<time>2016-05-21T01:44:09.030Z</time>
</trkpt>
<trkpt lat="-26.7780550" lon="152.8115383">
<ele>484.784</ele>
<time>2016-05-21T01:44:11.035Z</time>
</trkpt>
<trkpt lat="-26.7781105" lon="152.8121571">
<ele>484.217</ele>
<time>2016-05-21T01:44:14.128Z</time>
</trkpt>
<trkpt lat="-26.7782360" lon="152.8127216">
<ele>482.468</ele>
<time>2016-05-21T01:44:16.833Z</time>
</trkpt>
<trkpt lat="-26.7783794" lon="152.8131158">
<ele>479.480</ele>
<time>2016-05-21T01:44:18.623Z</time>
</trkpt>
<trkpt lat="-26.7785590" lon="152.8135713">
<ele>475.950</ele>
<time>2016-05-21T01:44:20.460Z</time>
</trkpt>
<trkpt lat="-26.7788473" lon="152.8143684">
<ele>473.289</ele>
<time>2016-05-21T01:44:23.564Z</time>
</trkpt>
<trkpt lat="-26.7790487" lon="152.8148653">
<ele>471.534</ele>
<time>2016-05-21T01:44:25.570Z</time>
</trkpt>
<trkpt lat="-26.7793225" lon="152.8156156">
<ele>469.609</ele>
<time>2016-05-21T01:44:28.658Z</time>
</trkpt>
<trkpt lat="-26.7795229" lon="152.8163301">
<ele>467.696</ele>
<time>2016-05-21T01:44:31.599Z</time>
</trkpt>
<trkpt lat="-26.7795535" lon="152.8168446">
<ele>466.733</ele>
<time>2016-05-21T01:44:33.650Z</time>
</trkpt>
<trkpt lat="-26.7794685" lon="152.8175739">
<ele>466.976</ele>
<time>2016-05-21T01:44:36.709Z</time>
</trkpt>
<trkpt lat="-26.7793801" lon="152.8180302">
<ele>468.008</ele>
<time>2016-05-21T01:44:38.714Z</time>
</trkpt>
<trkpt lat="-26.7792583" lon="152.8186972">
<ele>469.255</ele>
<time>2016-05-21T01:44:41.672Z</time>
</trkpt>
<trkpt lat="-26.7792308" lon="152.8191480">
<ele>470.146</ele>
<time>2016-05-21T01:44:43.633Z</time>
</trkpt>
<trkpt lat="-26.7793381" lon="152.8198137">
<ele>470.368</ele>
<time>2016-05-21T01:44:46.544Z</time>
</trkpt>
<trkpt lat="-26.7796340" lon="152.8204187">
<ele>470.147</ele>
<time>2016-05-21T01:44:49.470Z</time>
</trkpt>
<trkpt lat="-26.7799253" lon="152.8207792">
<ele>469.875</ele>
<time>2016-05-21T01:44:51.508Z</time>
</trkpt>
<trkpt lat="-26.7804442" lon="152.8211940">
<ele>470.223</ele>
<time>2016-05-21T01:44:54.560Z</time>
</trkpt>
<trkpt lat="-26.7807833" lon="152.8214522">
<ele>471.514</ele>
<time>2016-05-21T01:44:56.604Z</time>
</trkpt>
<trkpt lat="-26.7812350" lon="152.8218661">
<ele>472.726</ele>
<time>2016-05-21T01:44:59.591Z</time>
</trkpt>
<trkpt lat="-26.7815350" lon="152.8224105">
<ele>472.384</ele>
<time>2016-05-21T01:45:02.495Z</time>
</trkpt>
<trkpt lat="-26.7816532" lon="152.8230770">
<ele>470.479</ele>
<time>2016-05-21T01:45:05.437Z</time>
</trkpt>
<trkpt lat="-26.7815240" lon="152.8237936">
<ele>468.434</ele>
<time>2016-05-21T01:45:08.501Z</time>
</trkpt>
<trkpt lat="-26.7813201" lon="152.8242214">
<ele>468.056</ele>
<time>2016-05-21T01:45:10.554Z</time>
</trkpt>
<trkpt lat="-26.7811055" lon="152.8246150">
<ele>469.638</ele>
<time>2016-05-21T01:45:12.493Z</time>
</trkpt>
<trkpt lat="-26.7807610" lon="152.8252227">
<ele>471.348</ele>
<time>2016-05-21T01:45:15.526Z</time>
</trkpt>
<trkpt lat="-26.7805443" lon="152.8256253">
<ele>471.498</ele>
<time>2016-05-21T01:45:17.597Z</time>
</trkpt>
<trkpt lat="-26.7803429" lon="152.8260061">
<ele>470.344</ele>
<time>2016-05-21T01:45:19.597Z</time>
</trkpt>
<trkpt lat="-26.7800279" lon="152.8265654">
<ele>468.613</ele>
<time>2016-05-21T01:45:22.884Z</time>
</trkpt>
<trkpt lat="-26.7798484" lon="152.8269016">
<ele>466.741</ele>
<time>2016-05-21T01:45:25.148Z</time>
</trkpt>
<trkpt lat="-26.7796827" lon="152.8271751">
<ele>464.732</ele>
<time>2016-05-21T01:45:27.155Z</time>
</trkpt>
<trkpt lat="-26.7794546" lon="152.8275792">
<ele>462.247</ele>
<time>2016-05-21T01:45:30.074Z</time>
</trkpt>
<trkpt lat="-26.7793098" lon="152.8278592">
<ele>459.630</ele>
<time>2016-05-21T01:45:32.014Z</time>
</trkpt>
<trkpt lat="-26.7791202" lon="152.8283152">
<ele>457.864</ele>
<time>2016-05-21T01:45:34.958Z</time>
</trkpt>
<trkpt lat="-26.7789818" lon="152.8287992">
<ele>457.361</ele>
<time>2016-05-21T01:45:37.942Z</time>
</trkpt>
<trkpt lat="-26.7789026" lon="152.8291139">
<ele>458.126</ele>
<time>2016-05-21T01:45:39.839Z</time>
</trkpt>
<trkpt lat="-26.7787841" lon="152.8296090">
<ele>459.902</ele>
<time>2016-05-21T01:45:42.689Z</time>
</trkpt>
<trkpt lat="-26.7786825" lon="152.8301399">
<ele>462.069</ele>
<time>2016-05-21T01:45:45.739Z</time>
</trkpt>
<trkpt lat="-26.7786650" lon="152.8306655">
<ele>464.219</ele>
<time>2016-05-21T01:45:48.659Z</time>
</trkpt>
<trkpt lat="-26.7787117" lon="152.8310193">
<ele>466.338</ele>
<time>2016-05-21T01:45:50.509Z</time>
</trkpt>
<trkpt lat="-26.7788463" lon="152.8315985">
<ele>468.408</ele>
<time>2016-05-21T01:45:53.342Z</time>
</trkpt>
<trkpt lat="-26.7789586" lon="152.8320152">
<ele>471.157</ele>
<time>2016-05-21T01:45:55.328Z</time>
</trkpt>
<trkpt lat="-26.7791264" lon="152.8326320">
<ele>474.783</ele>
<time>2016-05-21T01:45:58.286Z</time>
</trkpt>
<trkpt lat="-26.7792374" lon="152.8332892">
<ele>477.620</ele>
<time>2016-05-21T01:46:01.372Z</time>
</trkpt>
<trkpt lat="-26.7792889" lon="152.8337060">
<ele>477.909</ele>
<time>2016-05-21T01:46:03.354Z</time>
</trkpt>
<trkpt lat="-26.7792908" lon="152.8343149">
<ele>475.729</ele>
<time>2016-05-21T01:46:06.406Z</time>
</trkpt>
<trkpt lat="-26.7791999" lon="152.8346954">
<ele>471.712</ele>
<time>2016-05-21T01:46:08.698Z</time>
</trkpt>
<trkpt lat="-26.7790182" lon="152.8350965">
<ele>466.736</ele>
<time>2016-05-21T01:46:11.739Z</time>
</trkpt>
<trkpt lat="-26.7787905" lon="152.8354115">
<ele>461.920</ele>
<time>2016-05-21T01:46:14.491Z</time>
</trkpt>
<trkpt lat="-26.7785708" lon="152.8356071">
<ele>458.302</ele>
<time>2016-05-21T01:46:16.587Z</time>
</trkpt>
<trkpt lat="-26.7782285" lon="152.8358190">
<ele>456.381</ele>
<time>2016-05-21T01:46:19.495Z</time>
</trkpt>
<trkpt lat="-26.7779888" lon="152.8359152">
<ele>456.040</ele>
<time>2016-05-21T01:46:21.270Z</time>
</trkpt>
<trkpt lat="-26.7775546" lon="152.8360393">
<ele>456.534</ele>
<time>2016-05-21T01:46:24.121Z</time>
</trkpt>
<trkpt lat="-26.7772299" lon="152.8361249">
<ele>457.458</ele>
<time>2016-05-21T01:46:25.974Z</time>
</trkpt>
<trkpt lat="-26.7766791" lon="152.8362752">
<ele>458.554</ele>
<time>2016-05-21T01:46:28.932Z</time>
</trkpt>
<trkpt lat="-26.7762844" lon="152.8363637">
<ele>459.128</ele>
<time>2016-05-21T01:46:30.879Z</time>
</trkpt>
<trkpt lat="-26.7756629" lon="152.8365029">
<ele>458.744</ele>
<time>2016-05-21T01:46:33.892Z</time>
</trkpt>
<trkpt lat="-26.7752412" lon="152.8365898">
<ele>457.946</ele>
<time>2016-05-21T01:46:35.892Z</time>
</trkpt>
<trkpt lat="-26.7746166" lon="152.8367267">
<ele>457.400</ele>
<time>2016-05-21T01:46:38.848Z</time>
</trkpt>
<trkpt lat="-26.7741877" lon="152.8367952">
<ele>457.282</ele>
<time>2016-05-21T01:46:40.827Z</time>
</trkpt>
<trkpt lat="-26.7735435" lon="152.8368874">
<ele>457.337</ele>
<time>2016-05-21T01:46:43.797Z</time>
</trkpt>
<trkpt lat="-26.7731101" lon="152.8369650">
<ele>457.229</ele>
<time>2016-05-21T01:46:45.924Z</time>
</trkpt>
<trkpt lat="-26.7725281" lon="152.8370593">
<ele>456.854</ele>
<time>2016-05-21T01:46:48.967Z</time>
</trkpt>
<trkpt lat="-26.7721821" lon="152.8371200">
<ele>455.914</ele>
<time>2016-05-21T01:46:51.015Z</time>
</trkpt>
<trkpt lat="-26.7718634" lon="152.8371760">
<ele>453.981</ele>
<time>2016-05-21T01:46:53.053Z</time>
</trkpt>
<trkpt lat="-26.7715603" lon="152.8372258">
<ele>451.173</ele>
<time>2016-05-21T01:46:55.040Z</time>
</trkpt>
<trkpt lat="-26.7712632" lon="152.8373107">
<ele>448.069</ele>
<time>2016-05-21T01:46:57.012Z</time>
</trkpt>
<trkpt lat="-26.7708131" lon="152.8374774">
<ele>445.153</ele>
<time>2016-05-21T01:46:59.980Z</time>
</trkpt>
<trkpt lat="-26.7704146" lon="152.8377883">
<ele>442.103</ele>
<time>2016-05-21T01:47:02.754Z</time>
</trkpt>
<trkpt lat="-26.7700205" lon="152.8382581">
<ele>438.623</ele>
<time>2016-05-21T01:47:05.703Z</time>
</trkpt>
<trkpt lat="-26.7697498" lon="152.8386175">
<ele>435.592</ele>
<time>2016-05-21T01:47:07.729Z</time>
</trkpt>
<trkpt lat="-26.7693735" lon="152.8391572">
<ele>433.817</ele>
<time>2016-05-21T01:47:10.685Z</time>
</trkpt>
<trkpt lat="-26.7691280" lon="152.8395101">
<ele>432.379</ele>
<time>2016-05-21T01:47:12.745Z</time>
</trkpt>
<trkpt lat="-26.7687641" lon="152.8399827">
<ele>430.004</ele>
<time>2016-05-21T01:47:15.729Z</time>
</trkpt>
<trkpt lat="-26.7683162" lon="152.8403673">
<ele>426.890</ele>
<time>2016-05-21T01:47:18.846Z</time>
</trkpt>
<trkpt lat="-26.7680113" lon="152.8405589">
<ele>424.140</ele>
<time>2016-05-21T01:47:20.862Z</time>
</trkpt>
<trkpt lat="-26.7677245" lon="152.8407384">
<ele>422.137</ele>
<time>2016-05-21T01:47:22.873Z</time>
</trkpt>
<trkpt lat="-26.7673075" lon="152.8409969">
<ele>420.760</ele>
<time>2016-05-21T01:47:25.882Z</time>
</trkpt>
<trkpt lat="-26.7669630" lon="152.8413310">
<ele>420.008</ele>
<time>2016-05-21T01:47:28.792Z</time>
</trkpt>
<trkpt lat="-26.7667525" lon="152.8416095">
<ele>419.828</ele>
<time>2016-05-21T01:47:30.871Z</time>
</trkpt>
<trkpt lat="-26.7665048" lon="152.8420224">
<ele>419.867</ele>
<time>2016-05-21T01:47:33.706Z</time>
</trkpt>
<trkpt lat="-26.7663326" lon="152.8423414">
<ele>419.874</ele>
<time>2016-05-21T01:47:35.800Z</time>
</trkpt>
<trkpt lat="-26.7661164" lon="152.8428209">
<ele>420.023</ele>
<time>2016-05-21T01:47:38.949Z</time>
</trkpt>
<trkpt lat="-26.7659082" lon="152.8431954">
<ele>420.558</ele>
<time>2016-05-21T01:47:41.706Z</time>
</trkpt>
<trkpt lat="-26.7656824" lon="152.8435810">
<ele>421.343</ele>
<time>2016-05-21T01:47:44.589Z</time>
</trkpt>
<trkpt lat="-26.7654427" lon="152.8439989">
<ele>422.114</ele>
<time>2016-05-21T01:47:47.638Z</time>
</trkpt>
<trkpt lat="-26.7652774" lon="152.8442615">
<ele>422.694</ele>
<time>2016-05-21T01:47:49.629Z</time>
</trkpt>
<trkpt lat="-26.7651109" lon="152.8445181">
<ele>422.632</ele>
<time>2016-05-21T01:47:51.557Z</time>
</trkpt>
<trkpt lat="-26.7647946" lon="152.8448823">
<ele>421.789</ele>
<time>2016-05-21T01:47:54.576Z</time>
</trkpt>
<trkpt lat="-26.7645325" lon="152.8450853">
<ele>420.832</ele>
<time>2016-05-21T01:47:56.717Z</time>
</trkpt>
<trkpt lat="-26.7641420" lon="152.8452837">
<ele>420.110</ele>
<time>2016-05-21T01:47:59.742Z</time>
</trkpt>
<trkpt lat="-26.7637524" lon="152.8453599">
<ele>419.037</ele>
<time>2016-05-21T01:48:02.659Z</time>
</trkpt>
<trkpt lat="-26.7634799" lon="152.8453706">
<ele>417.536</ele>
<time>2016-05-21T01:48:04.666Z</time>
</trkpt>
<trkpt lat="-26.7632109" lon="152.8453574">
<ele>416.385</ele>
<time>2016-05-21T01:48:06.654Z</time>
</trkpt>
<trkpt lat="-26.7629439" lon="152.8453156">
<ele>415.998</ele>
<time>2016-05-21T01:48:08.621Z</time>
</trkpt>
<trkpt lat="-26.7626684" lon="152.8452800">
<ele>415.953</ele>
<time>2016-05-21T01:48:10.594Z</time>
</trkpt>
<trkpt lat="-26.7623846" lon="152.8452604">
<ele>415.694</ele>
<time>2016-05-21T01:48:12.624Z</time>
</trkpt>
<trkpt lat="-26.7621128" lon="152.8453107">
<ele>415.151</ele>
<time>2016-05-21T01:48:14.666Z</time>
</trkpt>
<trkpt lat="-26.7617652" lon="152.8455155">
<ele>414.473</ele>
<time>2016-05-21T01:48:17.598Z</time>
</trkpt>
<trkpt lat="-26.7614300" lon="152.8457920">
<ele>413.731</ele>
<time>2016-05-21T01:48:20.791Z</time>
</trkpt>
<trkpt lat="-26.7611440" lon="152.8460327">
<ele>413.362</ele>
<time>2016-05-21T01:48:23.814Z</time>
</trkpt>
<trkpt lat="-26.7610020" lon="152.8462102">
<ele>413.776</ele>
<time>2016-05-21T01:48:25.912Z</time>
</trkpt>
<trkpt lat="-26.7609965" lon="152.8464262">
<ele>414.800</ele>
<time>2016-05-21T01:48:27.805Z</time>
</trkpt>
<trkpt lat="-26.7610755" lon="152.8466886">
<ele>416.009</ele>
<time>2016-05-21T01:48:30.056Z</time>
</trkpt>
<trkpt lat="-26.7612114" lon="152.8470040">
<ele>417.353</ele>
<time>2016-05-21T01:48:32.894Z</time>
</trkpt>
<trkpt lat="-26.7612186" lon="152.8472760">
<ele>419.177</ele>
<time>2016-05-21T01:48:35.138Z</time>
</trkpt>
<trkpt lat="-26.7611305" lon="152.8475055">
<ele>421.369</ele>
<time>2016-05-21T01:48:37.335Z</time>
</trkpt>
<trkpt lat="-26.7609865" lon="152.8477763">
<ele>423.136</ele>
<time>2016-05-21T01:48:40.332Z</time>
</trkpt>
<trkpt lat="-26.7608273" lon="152.8479996">
<ele>423.756</ele>
<time>2016-05-21T01:48:43.288Z</time>
</trkpt>
<trkpt lat="-26.7606686" lon="152.8480737">
<ele>423.023</ele>
<time>2016-05-21T01:48:45.276Z</time>
</trkpt>
<trkpt lat="-26.7604889" lon="152.8480921">
<ele>421.595</ele>
<time>2016-05-21T01:48:47.205Z</time>
</trkpt>
<trkpt lat="-26.7602050" lon="152.8481442">
<ele>420.485</ele>
<time>2016-05-21T01:48:50.137Z</time>
</trkpt>
<trkpt lat="-26.7600045" lon="152.8481663">
<ele>420.053</ele>
<time>2016-05-21T01:48:52.114Z</time>
</trkpt>
<trkpt lat="-26.7596974" lon="152.8482150">
<ele>419.855</ele>
<time>2016-05-21T01:48:55.209Z</time>
</trkpt>
<trkpt lat="-26.7595048" lon="152.8482466">
<ele>419.169</ele>
<time>2016-05-21T01:48:57.199Z</time>
</trkpt>
<trkpt lat="-26.7593094" lon="152.8482830">
<ele>417.934</ele>
<time>2016-05-21T01:48:59.239Z</time>
</trkpt>
<trkpt lat="-26.7590252" lon="152.8483075">
<ele>416.895</ele>
<time>2016-05-21T01:49:02.217Z</time>
</trkpt>
<trkpt lat="-26.7588296" lon="152.8483473">
<ele>416.629</ele>
<time>2016-05-21T01:49:04.427Z</time>
</trkpt>
<trkpt lat="-26.7585772" lon="152.8483696">
<ele>417.100</ele>
<time>2016-05-21T01:49:07.899Z</time>
</trkpt>
<trkpt lat="-26.7583978" lon="152.8484086">
<ele>417.866</ele>
<time>2016-05-21T01:49:12.289Z</time>
</trkpt>
<trkpt lat="-26.7582885" lon="152.8484206">
<ele>418.477</ele>
<time>2016-05-21T01:49:16.430Z</time>
</trkpt>
<trkpt lat="-26.7581832" lon="152.8483917">
<ele>418.834</ele>
<time>2016-05-21T01:49:20.061Z</time>
</trkpt>
<trkpt lat="-26.7580943" lon="152.8482789">
<ele>419.219</ele>
<time>2016-05-21T01:49:23.300Z</time>
</trkpt>
<trkpt lat="-26.7580048" lon="152.8480678">
<ele>419.940</ele>
<time>2016-05-21T01:49:25.701Z</time>
</trkpt>
<trkpt lat="-26.7578548" lon="152.8478344">
<ele>421.341</ele>
<time>2016-05-21T01:49:27.783Z</time>
</trkpt>
<trkpt lat="-26.7576443" lon="152.8475925">
<ele>423.634</ele>
<time>2016-05-21T01:49:29.872Z</time>
</trkpt>
<trkpt lat="-26.7573543" lon="152.8472073">
<ele>426.679</ele>
<time>2016-05-21T01:49:32.774Z</time>
</trkpt>
<trkpt lat="-26.7571292" lon="152.8467061">
<ele>430.048</ele>
<time>2016-05-21T01:49:35.867Z</time>
</trkpt>
<trkpt lat="-26.7569777" lon="152.8461659">
<ele>433.545</ele>
<time>2016-05-21T01:49:39.032Z</time>
</trkpt>
<trkpt lat="-26.7568748" lon="152.8456789">
<ele>437.100</ele>
<time>2016-05-21T01:49:42.097Z</time>
</trkpt>
<trkpt lat="-26.7567518" lon="152.8452863">
<ele>440.215</ele>
<time>2016-05-21T01:49:44.997Z</time>
</trkpt>
<trkpt lat="-26.7565968" lon="152.8450957">
<ele>442.149</ele>
<time>2016-05-21T01:49:46.941Z</time>
</trkpt>
<trkpt lat="-26.7563946" lon="152.8449472">
<ele>442.993</ele>
<time>2016-05-21T01:49:48.963Z</time>
</trkpt>
<trkpt lat="-26.7561838" lon="152.8447982">
<ele>443.345</ele>
<time>2016-05-21T01:49:50.995Z</time>
</trkpt>
<trkpt lat="-26.7559313" lon="152.8445046">
<ele>443.610</ele>
<time>2016-05-21T01:49:53.969Z</time>
</trkpt>
<trkpt lat="-26.7557954" lon="152.8441518">
<ele>444.049</ele>
<time>2016-05-21T01:49:56.965Z</time>
</trkpt>
<trkpt lat="-26.7557448" lon="152.8439394">
<ele>444.645</ele>
<time>2016-05-21T01:49:59.211Z</time>
</trkpt>
<trkpt lat="-26.7557024" lon="152.8437683">
<ele>444.800</ele>
<time>2016-05-21T01:50:01.685Z</time>
</trkpt>
<trkpt lat="-26.7556693" lon="152.8436686">
<ele>444.064</ele>
<time>2016-05-21T01:50:03.997Z</time>
</trkpt>
<trkpt lat="-26.7556693" lon="152.8436686">
<ele>442.905</ele>
<time>2016-05-21T01:50:08.997Z</time>
</trkpt>
<trkpt lat="-26.7556693" lon="152.8436686">
<ele>442.149</ele>
<time>2016-05-21T01:50:18.960Z</time>
</trkpt>
<trkpt lat="-26.7555672" lon="152.8434298">
<ele>442.171</ele>
<time>2016-05-21T01:50:25.785Z</time>
</trkpt>
<trkpt lat="-26.7554792" lon="152.8432326">
<ele>442.966</ele>
<time>2016-05-21T01:50:27.942Z</time>
</trkpt>
<trkpt lat="-26.7553717" lon="152.8429331">
<ele>444.326</ele>
<time>2016-05-21T01:50:30.708Z</time>
</trkpt>
<trkpt lat="-26.7553016" lon="152.8426895">
<ele>446.111</ele>
<time>2016-05-21T01:50:32.623Z</time>
</trkpt>
<trkpt lat="-26.7552321" lon="152.8422625">
<ele>448.118</ele>
<time>2016-05-21T01:50:35.538Z</time>
</trkpt>
<trkpt lat="-26.7552067" lon="152.8417790">
<ele>450.010</ele>
<time>2016-05-21T01:50:38.517Z</time>
</trkpt>
<trkpt lat="-26.7552007" lon="152.8412821">
<ele>451.857</ele>
<time>2016-05-21T01:50:41.500Z</time>
</trkpt>
<trkpt lat="-26.7551871" lon="152.8409639">
<ele>453.776</ele>
<time>2016-05-21T01:50:43.482Z</time>
</trkpt>
<trkpt lat="-26.7551885" lon="152.8404983">
<ele>455.281</ele>
<time>2016-05-21T01:50:46.404Z</time>
</trkpt>
<trkpt lat="-26.7551716" lon="152.8401759">
<ele>455.865</ele>
<time>2016-05-21T01:50:48.422Z</time>
</trkpt>
<trkpt lat="-26.7551579" lon="152.8398616">
<ele>455.654</ele>
<time>2016-05-21T01:50:50.433Z</time>
</trkpt>
<trkpt lat="-26.7551526" lon="152.8395499">
<ele>455.184</ele>
<time>2016-05-21T01:50:52.570Z</time>
</trkpt>
<trkpt lat="-26.7551359" lon="152.8391431">
<ele>454.842</ele>
<time>2016-05-21T01:50:55.567Z</time>
</trkpt>
<trkpt lat="-26.7551257" lon="152.8389060">
<ele>454.663</ele>
<time>2016-05-21T01:50:57.454Z</time>
</trkpt>
<trkpt lat="-26.7551187" lon="152.8385408">
<ele>454.347</ele>
<time>2016-05-21T01:51:00.354Z</time>
</trkpt>
<trkpt lat="-26.7551103" lon="152.8382810">
<ele>453.580</ele>
<time>2016-05-21T01:51:02.344Z</time>
</trkpt>
<trkpt lat="-26.7551471" lon="152.8378783">
<ele>452.538</ele>
<time>2016-05-21T01:51:05.370Z</time>
</trkpt>
<trkpt lat="-26.7552255" lon="152.8374796">
<ele>451.560</ele>
<time>2016-05-21T01:51:08.311Z</time>
</trkpt>
<trkpt lat="-26.7552945" lon="152.8371904">
<ele>450.797</ele>
<time>2016-05-21T01:51:10.391Z</time>
</trkpt>
<trkpt lat="-26.7554015" lon="152.8367724">
<ele>450.431</ele>
<time>2016-05-21T01:51:13.405Z</time>
</trkpt>
<trkpt lat="-26.7554620" lon="152.8363483">
<ele>450.483</ele>
<time>2016-05-21T01:51:16.336Z</time>
</trkpt>
<trkpt lat="-26.7554535" lon="152.8360374">
<ele>450.238</ele>
<time>2016-05-21T01:51:18.271Z</time>
</trkpt>
<trkpt lat="-26.7552862" lon="152.8355475">
<ele>449.210</ele>
<time>2016-05-21T01:51:21.285Z</time>
</trkpt>
<trkpt lat="-26.7550973" lon="152.8350265">
<ele>449.124</ele>
<time>2016-05-21T01:51:24.282Z</time>
</trkpt>
<trkpt lat="-26.7549774" lon="152.8346661">
<ele>451.661</ele>
<time>2016-05-21T01:51:26.235Z</time>
</trkpt>
<trkpt lat="-26.7548390" lon="152.8340810">
<ele>455.307</ele>
<time>2016-05-21T01:51:29.213Z</time>
</trkpt>
<trkpt lat="-26.7547417" lon="152.8336706">
<ele>458.118</ele>
<time>2016-05-21T01:51:31.201Z</time>
</trkpt>
<trkpt lat="-26.7545191" lon="152.8330732">
<ele>460.086</ele>
<time>2016-05-21T01:51:34.159Z</time>
</trkpt>
<trkpt lat="-26.7542837" lon="152.8324625">
<ele>461.319</ele>
<time>2016-05-21T01:51:37.178Z</time>
</trkpt>
<trkpt lat="-26.7540237" lon="152.8318932">
<ele>461.685</ele>
<time>2016-05-21T01:51:40.158Z</time>
</trkpt>
<trkpt lat="-26.7538731" lon="152.8315178">
<ele>461.146</ele>
<time>2016-05-21T01:51:42.142Z</time>
</trkpt>
<trkpt lat="-26.7537370" lon="152.8311347">
<ele>459.891</ele>
<time>2016-05-21T01:51:44.157Z</time>
</trkpt>
<trkpt lat="-26.7536631" lon="152.8305427">
<ele>458.111</ele>
<time>2016-05-21T01:51:47.061Z</time>
</trkpt>
<trkpt lat="-26.7536699" lon="152.8301124">
<ele>456.054</ele>
<time>2016-05-21T01:51:49.078Z</time>
</trkpt>
<trkpt lat="-26.7535410" lon="152.8294881">
<ele>454.413</ele>
<time>2016-05-21T01:51:52.020Z</time>
</trkpt>
<trkpt lat="-26.7534258" lon="152.8290675">
<ele>453.993</ele>
<time>2016-05-21T01:51:54.052Z</time>
</trkpt>
<trkpt lat="-26.7532709" lon="152.8284689">
<ele>454.783</ele>
<time>2016-05-21T01:51:57.010Z</time>
</trkpt>
<trkpt lat="-26.7531819" lon="152.8280821">
<ele>456.416</ele>
<time>2016-05-21T01:51:58.948Z</time>
</trkpt>
<trkpt lat="-26.7531698" lon="152.8276640">
<ele>458.459</ele>
<time>2016-05-21T01:52:00.944Z</time>
</trkpt>
<trkpt lat="-26.7532479" lon="152.8270221">
<ele>460.831</ele>
<time>2016-05-21T01:52:04.061Z</time>
</trkpt>
<trkpt lat="-26.7533431" lon="152.8264681">
<ele>464.001</ele>
<time>2016-05-21T01:52:06.973Z</time>
</trkpt>
<trkpt lat="-26.7535720" lon="152.8259956">
<ele>467.660</ele>
<time>2016-05-21T01:52:09.851Z</time>
</trkpt>
<trkpt lat="-26.7540278" lon="152.8256338">
<ele>470.734</ele>
<time>2016-05-21T01:52:12.942Z</time>
</trkpt>
<trkpt lat="-26.7545183" lon="152.8252575">
<ele>473.597</ele>
<time>2016-05-21T01:52:16.023Z</time>
</trkpt>
<trkpt lat="-26.7548070" lon="152.8249912">
<ele>476.827</ele>
<time>2016-05-21T01:52:17.932Z</time>
</trkpt>
<trkpt lat="-26.7551748" lon="152.8244464">
<ele>479.510</ele>
<time>2016-05-21T01:52:20.956Z</time>
</trkpt>
<trkpt lat="-26.7553767" lon="152.8237851">
<ele>480.933</ele>
<time>2016-05-21T01:52:23.914Z</time>
</trkpt>
<trkpt lat="-26.7553791" lon="152.8230611">
<ele>481.221</ele>
<time>2016-05-21T01:52:26.923Z</time>
</trkpt>
<trkpt lat="-26.7551682" lon="152.8223866">
<ele>480.744</ele>
<time>2016-05-21T01:52:29.888Z</time>
</trkpt>
<trkpt lat="-26.7549192" lon="152.8219841">
<ele>479.725</ele>
<time>2016-05-21T01:52:31.900Z</time>
</trkpt>
<trkpt lat="-26.7544269" lon="152.8215091">
<ele>477.887</ele>
<time>2016-05-21T01:52:34.873Z</time>
</trkpt>
<trkpt lat="-26.7538131" lon="152.8212413">
<ele>475.365</ele>
<time>2016-05-21T01:52:37.904Z</time>
</trkpt>
<trkpt lat="-26.7533766" lon="152.8211861">
<ele>473.175</ele>
<time>2016-05-21T01:52:39.951Z</time>
</trkpt>
<trkpt lat="-26.7527384" lon="152.8212765">
<ele>472.020</ele>
<time>2016-05-21T01:52:42.990Z</time>
</trkpt>
<trkpt lat="-26.7521339" lon="152.8213707">
<ele>471.739</ele>
<time>2016-05-21T01:52:45.953Z</time>
</trkpt>
<trkpt lat="-26.7517361" lon="152.8214314">
<ele>471.909</ele>
<time>2016-05-21T01:52:47.938Z</time>
</trkpt>
<trkpt lat="-26.7513374" lon="152.8214900">
<ele>472.215</ele>
<time>2016-05-21T01:52:49.978Z</time>
</trkpt>
<trkpt lat="-26.7507853" lon="152.8215829">
<ele>472.449</ele>
<time>2016-05-21T01:52:52.934Z</time>
</trkpt>
<trkpt lat="-26.7504221" lon="152.8216317">
<ele>472.442</ele>
<time>2016-05-21T01:52:54.975Z</time>
</trkpt>
<trkpt lat="-26.7500828" lon="152.8216822">
<ele>471.786</ele>
<time>2016-05-21T01:52:56.987Z</time>
</trkpt>
<trkpt lat="-26.7496218" lon="152.8217466">
<ele>470.312</ele>
<time>2016-05-21T01:52:59.914Z</time>
</trkpt>
<trkpt lat="-26.7493533" lon="152.8217917">
<ele>468.250</ele>
<time>2016-05-21T01:53:01.787Z</time>
</trkpt>
<trkpt lat="-26.7489512" lon="152.8218407">
<ele>466.093</ele>
<time>2016-05-21T01:53:04.623Z</time>
</trkpt>
<trkpt lat="-26.7486300" lon="152.8219099">
<ele>464.644</ele>
<time>2016-05-21T01:53:06.751Z</time>
</trkpt>
<trkpt lat="-26.7482929" lon="152.8219519">
<ele>464.434</ele>
<time>2016-05-21T01:53:08.779Z</time>
</trkpt>
<trkpt lat="-26.7479515" lon="152.8219997">
<ele>465.017</ele>
<time>2016-05-21T01:53:10.752Z</time>
</trkpt>
<trkpt lat="-26.7476029" lon="152.8220505">
<ele>465.580</ele>
<time>2016-05-21T01:53:12.722Z</time>
</trkpt>
<trkpt lat="-26.7472317" lon="152.8221090">
<ele>465.593</ele>
<time>2016-05-21T01:53:14.759Z</time>
</trkpt>
<trkpt lat="-26.7466712" lon="152.8221935">
<ele>465.107</ele>
<time>2016-05-21T01:53:17.742Z</time>
</trkpt>
<trkpt lat="-26.7460858" lon="152.8222982">
<ele>464.511</ele>
<time>2016-05-21T01:53:20.778Z</time>
</trkpt>
<trkpt lat="-26.7456984" lon="152.8223672">
<ele>464.120</ele>
<time>2016-05-21T01:53:22.766Z</time>
</trkpt>
<trkpt lat="-26.7453118" lon="152.8224234">
<ele>463.657</ele>
<time>2016-05-21T01:53:24.750Z</time>
</trkpt>
<trkpt lat="-26.7447355" lon="152.8224876">
<ele>462.317</ele>
<time>2016-05-21T01:53:27.769Z</time>
</trkpt>
<trkpt lat="-26.7443865" lon="152.8224820">
<ele>459.950</ele>
<time>2016-05-21T01:53:29.683Z</time>
</trkpt>
<trkpt lat="-26.7438823" lon="152.8222966">
<ele>457.612</ele>
<time>2016-05-21T01:53:32.604Z</time>
</trkpt>
<trkpt lat="-26.7434566" lon="152.8218705">
<ele>456.172</ele>
<time>2016-05-21T01:53:35.665Z</time>
</trkpt>
<trkpt lat="-26.7431330" lon="152.8213793">
<ele>455.496</ele>
<time>2016-05-21T01:53:38.620Z</time>
</trkpt>
<trkpt lat="-26.7429172" lon="152.8210788">
<ele>454.692</ele>
<time>2016-05-21T01:53:40.574Z</time>
</trkpt>
<trkpt lat="-26.7426760" lon="152.8208155">
<ele>452.920</ele>
<time>2016-05-21T01:53:42.552Z</time>
</trkpt>
<trkpt lat="-26.7422237" lon="152.8205884">
<ele>450.236</ele>
<time>2016-05-21T01:53:45.461Z</time>
</trkpt>
<trkpt lat="-26.7418833" lon="152.8205155">
<ele>447.625</ele>
<time>2016-05-21T01:53:47.437Z</time>
</trkpt>
<trkpt lat="-26.7415192" lon="152.8204913">
<ele>446.021</ele>
<time>2016-05-21T01:53:49.504Z</time>
</trkpt>
<trkpt lat="-26.7411877" lon="152.8204617">
<ele>445.893</ele>
<time>2016-05-21T01:53:51.466Z</time>
</trkpt>
<trkpt lat="-26.7407235" lon="152.8204395">
<ele>446.870</ele>
<time>2016-05-21T01:53:54.366Z</time>
</trkpt>
<trkpt lat="-26.7404152" lon="152.8204215">
<ele>447.972</ele>
<time>2016-05-21T01:53:56.396Z</time>
</trkpt>
<trkpt lat="-26.7400116" lon="152.8204074">
<ele>448.662</ele>
<time>2016-05-21T01:53:59.235Z</time>
</trkpt>
<trkpt lat="-26.7397458" lon="152.8204047">
<ele>449.125</ele>
<time>2016-05-21T01:54:01.259Z</time>
</trkpt>
<trkpt lat="-26.7393701" lon="152.8203763">
<ele>449.451</ele>
<time>2016-05-21T01:54:04.157Z</time>
</trkpt>
<trkpt lat="-26.7389788" lon="152.8202203">
<ele>449.652</ele>
<time>2016-05-21T01:54:07.244Z</time>
</trkpt>
<trkpt lat="-26.7386214" lon="152.8199292">
<ele>449.810</ele>
<time>2016-05-21T01:54:10.300Z</time>
</trkpt>
<trkpt lat="-26.7382425" lon="152.8195960">
<ele>450.201</ele>
<time>2016-05-21T01:54:13.350Z</time>
</trkpt>
<trkpt lat="-26.7379433" lon="152.8193884">
<ele>451.040</ele>
<time>2016-05-21T01:54:15.413Z</time>
</trkpt>
<trkpt lat="-26.7376326" lon="152.8192079">
<ele>452.117</ele>
<time>2016-05-21T01:54:17.385Z</time>
</trkpt>
<trkpt lat="-26.7371160" lon="152.8189678">
<ele>453.047</ele>
<time>2016-05-21T01:54:20.411Z</time>
</trkpt>
<trkpt lat="-26.7365473" lon="152.8188127">
<ele>453.336</ele>
<time>2016-05-21T01:54:23.435Z</time>
</trkpt>
<trkpt lat="-26.7359910" lon="152.8187105">
<ele>452.808</ele>
<time>2016-05-21T01:54:26.375Z</time>
</trkpt>
<trkpt lat="-26.7354692" lon="152.8185622">
<ele>452.179</ele>
<time>2016-05-21T01:54:29.335Z</time>
</trkpt>
<trkpt lat="-26.7349844" lon="152.8184015">
<ele>452.061</ele>
<time>2016-05-21T01:54:32.215Z</time>
</trkpt>
<trkpt lat="-26.7346353" lon="152.8182742">
<ele>452.220</ele>
<time>2016-05-21T01:54:34.297Z</time>
</trkpt>
<trkpt lat="-26.7342875" lon="152.8181782">
<ele>452.102</ele>
<time>2016-05-21T01:54:36.305Z</time>
</trkpt>
<trkpt lat="-26.7339529" lon="152.8180993">
<ele>451.097</ele>
<time>2016-05-21T01:54:38.236Z</time>
</trkpt>
<trkpt lat="-26.7336227" lon="152.8180407">
<ele>449.064</ele>
<time>2016-05-21T01:54:40.154Z</time>
</trkpt>
<trkpt lat="-26.7332836" lon="152.8179802">
<ele>446.638</ele>
<time>2016-05-21T01:54:42.161Z</time>
</trkpt>
<trkpt lat="-26.7327795" lon="152.8178787">
<ele>444.482</ele>
<time>2016-05-21T01:54:45.174Z</time>
</trkpt>
<trkpt lat="-26.7322641" lon="152.8177739">
<ele>442.947</ele>
<time>2016-05-21T01:54:48.203Z</time>
</trkpt>
<trkpt lat="-26.7317559" lon="152.8176819">
<ele>442.236</ele>
<time>2016-05-21T01:54:51.193Z</time>
</trkpt>
<trkpt lat="-26.7314397" lon="152.8176315">
<ele>442.169</ele>
<time>2016-05-21T01:54:53.150Z</time>
</trkpt>
<trkpt lat="-26.7310411" lon="152.8175637">
<ele>442.189</ele>
<time>2016-05-21T01:54:55.910Z</time>
</trkpt>
<trkpt lat="-26.7308401" lon="152.8175244">
<ele>441.845</ele>
<time>2016-05-21T01:54:57.590Z</time>
</trkpt>
<trkpt lat="-26.7306538" lon="152.8174896">
<ele>441.234</ele>
<time>2016-05-21T01:54:59.364Z</time>
</trkpt>
<trkpt lat="-26.7303222" lon="152.8174313">
<ele>440.839</ele>
<time>2016-05-21T01:55:02.582Z</time>
</trkpt>
<trkpt lat="-26.7300605" lon="152.8173800">
<ele>441.581</ele>
<time>2016-05-21T01:55:04.793Z</time>
</trkpt>
<trkpt lat="-26.7297595" lon="152.8173272">
<ele>443.951</ele>
<time>2016-05-21T01:55:06.936Z</time>
</trkpt>
<trkpt lat="-26.7292831" lon="152.8172646">
<ele>447.612</ele>
<time>2016-05-21T01:55:10.049Z</time>
</trkpt>
<trkpt lat="-26.7289829" lon="152.8172049">
<ele>452.352</ele>
<time>2016-05-21T01:55:12.027Z</time>
</trkpt>
<trkpt lat="-26.7286529" lon="152.8171485">
<ele>457.606</ele>
<time>2016-05-21T01:55:14.093Z</time>
</trkpt>
<trkpt lat="-26.7282718" lon="152.8170795">
<ele>462.441</ele>
<time>2016-05-21T01:55:16.213Z</time>
</trkpt>
<trkpt lat="-26.7278794" lon="152.8170301">
<ele>467.016</ele>
<time>2016-05-21T01:55:18.243Z</time>
</trkpt>
<trkpt lat="-26.7274993" lon="152.8169735">
<ele>471.515</ele>
<time>2016-05-21T01:55:20.205Z</time>
</trkpt>
<trkpt lat="-26.7268850" lon="152.8169883">
<ele>475.085</ele>
<time>2016-05-21T01:55:23.231Z</time>
</trkpt>
<trkpt lat="-26.7261998" lon="152.8171445">
<ele>477.091</ele>
<time>2016-05-21T01:55:26.384Z</time>
</trkpt>
<trkpt lat="-26.7257447" lon="152.8172618">
<ele>477.849</ele>
<time>2016-05-21T01:55:28.382Z</time>
</trkpt>
<trkpt lat="-26.7250417" lon="152.8174477">
<ele>477.872</ele>
<time>2016-05-21T01:55:31.411Z</time>
</trkpt>
<trkpt lat="-26.7243384" lon="152.8176240">
<ele>476.896</ele>
<time>2016-05-21T01:55:34.400Z</time>
</trkpt>
<trkpt lat="-26.7236494" lon="152.8178131">
<ele>474.479</ele>
<time>2016-05-21T01:55:37.362Z</time>
</trkpt>
<trkpt lat="-26.7229599" lon="152.8179959">
<ele>471.110</ele>
<time>2016-05-21T01:55:40.345Z</time>
</trkpt>
<trkpt lat="-26.7224980" lon="152.8181178">
<ele>467.446</ele>
<time>2016-05-21T01:55:42.359Z</time>
</trkpt>
<trkpt lat="-26.7220578" lon="152.8182379">
<ele>463.913</ele>
<time>2016-05-21T01:55:44.332Z</time>
</trkpt>
<trkpt lat="-26.7214022" lon="152.8184265">
<ele>461.430</ele>
<time>2016-05-21T01:55:47.364Z</time>
</trkpt>
<trkpt lat="-26.7209877" lon="152.8185396">
<ele>460.389</ele>
<time>2016-05-21T01:55:49.318Z</time>
</trkpt>
<trkpt lat="-26.7205884" lon="152.8186445">
<ele>460.147</ele>
<time>2016-05-21T01:55:51.268Z</time>
</trkpt>
<trkpt lat="-26.7200329" lon="152.8187152">
<ele>459.940</ele>
<time>2016-05-21T01:55:54.053Z</time>
</trkpt>
<trkpt lat="-26.7196931" lon="152.8186166">
<ele>458.777</ele>
<time>2016-05-21T01:55:55.903Z</time>
</trkpt>
<trkpt lat="-26.7191735" lon="152.8184006">
<ele>456.492</ele>
<time>2016-05-21T01:55:58.901Z</time>
</trkpt>
<trkpt lat="-26.7188522" lon="152.8181773">
<ele>454.959</ele>
<time>2016-05-21T01:56:00.919Z</time>
</trkpt>
<trkpt lat="-26.7183806" lon="152.8178085">
<ele>455.440</ele>
<time>2016-05-21T01:56:03.933Z</time>
</trkpt>
<trkpt lat="-26.7178570" lon="152.8175017">
<ele>456.721</ele>
<time>2016-05-21T01:56:06.959Z</time>
</trkpt>
<trkpt lat="-26.7174663" lon="152.8173077">
<ele>457.456</ele>
<time>2016-05-21T01:56:09.037Z</time>
</trkpt>
<trkpt lat="-26.7169121" lon="152.8170074">
<ele>457.595</ele>
<time>2016-05-21T01:56:11.986Z</time>
</trkpt>
<trkpt lat="-26.7165490" lon="152.8168026">
<ele>457.273</ele>
<time>2016-05-21T01:56:13.979Z</time>
</trkpt>
<trkpt lat="-26.7160353" lon="152.8164625">
<ele>456.414</ele>
<time>2016-05-21T01:56:16.953Z</time>
</trkpt>
<trkpt lat="-26.7155709" lon="152.8160757">
<ele>455.041</ele>
<time>2016-05-21T01:56:19.896Z</time>
</trkpt>
<trkpt lat="-26.7151378" lon="152.8155980">
<ele>453.458</ele>
<time>2016-05-21T01:56:22.992Z</time>
</trkpt>
<trkpt lat="-26.7148644" lon="152.8152680">
<ele>451.984</ele>
<time>2016-05-21T01:56:25.005Z</time>
</trkpt>
<trkpt lat="-26.7144807" lon="152.8147411">
<ele>450.636</ele>
<time>2016-05-21T01:56:27.978Z</time>
</trkpt>
<trkpt lat="-26.7142482" lon="152.8143316">
<ele>449.363</ele>
<time>2016-05-21T01:56:30.018Z</time>
</trkpt>
<trkpt lat="-26.7140149" lon="152.8139261">
<ele>448.391</ele>
<time>2016-05-21T01:56:31.986Z</time>
</trkpt>
<trkpt lat="-26.7136697" lon="152.8132807">
<ele>447.499</ele>
<time>2016-05-21T01:56:35.039Z</time>
</trkpt>
<trkpt lat="-26.7134391" lon="152.8128708">
<ele>446.112</ele>
<time>2016-05-21T01:56:37.027Z</time>
</trkpt>
<trkpt lat="-26.7131699" lon="152.8125201">
<ele>444.116</ele>
<time>2016-05-21T01:56:38.968Z</time>
</trkpt>
<trkpt lat="-26.7126929" lon="152.8120869">
<ele>441.873</ele>
<time>2016-05-21T01:56:41.946Z</time>
</trkpt>
<trkpt lat="-26.7123821" lon="152.8116027">
<ele>439.988</ele>
<time>2016-05-21T01:56:44.689Z</time>
</trkpt>
<trkpt lat="-26.7122409" lon="152.8111847">
<ele>438.996</ele>
<time>2016-05-21T01:56:46.759Z</time>
</trkpt>
<trkpt lat="-26.7121205" lon="152.8107645">
<ele>438.810</ele>
<time>2016-05-21T01:56:48.760Z</time>
</trkpt>
<trkpt lat="-26.7119405" lon="152.8101456">
<ele>438.913</ele>
<time>2016-05-21T01:56:51.699Z</time>
</trkpt>
<trkpt lat="-26.7118219" lon="152.8094893">
<ele>438.684</ele>
<time>2016-05-21T01:56:54.700Z</time>
</trkpt>
<trkpt lat="-26.7117404" lon="152.8090179">
<ele>437.947</ele>
<time>2016-05-21T01:56:56.770Z</time>
</trkpt>
<trkpt lat="-26.7116873" lon="152.8085597">
<ele>437.711</ele>
<time>2016-05-21T01:56:58.714Z</time>
</trkpt>
<trkpt lat="-26.7115927" lon="152.8078882">
<ele>438.727</ele>
<time>2016-05-21T01:57:01.640Z</time>
</trkpt>
<trkpt lat="-26.7115361" lon="152.8074770">
<ele>440.138</ele>
<time>2016-05-21T01:57:03.535Z</time>
</trkpt>
<trkpt lat="-26.7114474" lon="152.8069770">
<ele>440.875</ele>
<time>2016-05-21T01:57:06.224Z</time>
</trkpt>
<trkpt lat="-26.7112924" lon="152.8067232">
<ele>440.896</ele>
<time>2016-05-21T01:57:08.045Z</time>
</trkpt>
<trkpt lat="-26.7108855" lon="152.8065011">
<ele>440.949</ele>
<time>2016-05-21T01:57:11.196Z</time>
</trkpt>
<trkpt lat="-26.7103804" lon="152.8063380">
<ele>441.571</ele>
<time>2016-05-21T01:57:14.575Z</time>
</trkpt>
<trkpt lat="-26.7099259" lon="152.8061319">
<ele>442.162</ele>
<time>2016-05-21T01:57:17.552Z</time>
</trkpt>
<trkpt lat="-26.7096351" lon="152.8059017">
<ele>441.729</ele>
<time>2016-05-21T01:57:19.649Z</time>
</trkpt>
<trkpt lat="-26.7093976" lon="152.8055897">
<ele>440.152</ele>
<time>2016-05-21T01:57:21.729Z</time>
</trkpt>
<trkpt lat="-26.7092118" lon="152.8052481">
<ele>437.893</ele>
<time>2016-05-21T01:57:23.727Z</time>
</trkpt>
<trkpt lat="-26.7088463" lon="152.8048365">
<ele>434.963</ele>
<time>2016-05-21T01:57:26.679Z</time>
</trkpt>
<trkpt lat="-26.7085837" lon="152.8046194">
<ele>431.049</ele>
<time>2016-05-21T01:57:28.609Z</time>
</trkpt>
<trkpt lat="-26.7083675" lon="152.8043946">
<ele>426.561</ele>
<time>2016-05-21T01:57:30.460Z</time>
</trkpt>
<trkpt lat="-26.7082200" lon="152.8041025">
<ele>422.001</ele>
<time>2016-05-21T01:57:32.444Z</time>
</trkpt>
<trkpt lat="-26.7082367" lon="152.8037631">
<ele>417.935</ele>
<time>2016-05-21T01:57:34.504Z</time>
</trkpt>
<trkpt lat="-26.7084700" lon="152.8032561">
<ele>415.271</ele>
<time>2016-05-21T01:57:37.778Z</time>
</trkpt>
<trkpt lat="-26.7086550" lon="152.8029395">
<ele>413.978</ele>
<time>2016-05-21T01:57:39.807Z</time>
</trkpt>
<trkpt lat="-26.7088472" lon="152.8025251">
<ele>412.652</ele>
<time>2016-05-21T01:57:42.508Z</time>
</trkpt>
<trkpt lat="-26.7087650" lon="152.8020698">
<ele>409.487</ele>
<time>2016-05-21T01:57:45.476Z</time>
</trkpt>
<trkpt lat="-26.7083579" lon="152.8016148">
<ele>404.313</ele>
<time>2016-05-21T01:57:49.303Z</time>
</trkpt>
<trkpt lat="-26.7081388" lon="152.8013601">
<ele>399.349</ele>
<time>2016-05-21T01:57:51.207Z</time>
</trkpt>
<trkpt lat="-26.7081504" lon="152.8009306">
<ele>395.817</ele>
<time>2016-05-21T01:57:53.803Z</time>
</trkpt>
<trkpt lat="-26.7083519" lon="152.8004821">
<ele>392.671</ele>
<time>2016-05-21T01:57:56.763Z</time>
</trkpt>
<trkpt lat="-26.7086624" lon="152.8001386">
<ele>389.659</ele>
<time>2016-05-21T01:57:59.098Z</time>
</trkpt>
<trkpt lat="-26.7091585" lon="152.7996900">
<ele>387.736</ele>
<time>2016-05-21T01:58:02.231Z</time>
</trkpt>
<trkpt lat="-26.7094453" lon="152.7995283">
<ele>386.091</ele>
<time>2016-05-21T01:58:03.991Z</time>
</trkpt>
<trkpt lat="-26.7098098" lon="152.7992040">
<ele>382.221</ele>
<time>2016-05-21T01:58:06.848Z</time>
</trkpt>
<trkpt lat="-26.7098565" lon="152.7986082">
<ele>375.714</ele>
<time>2016-05-21T01:58:09.972Z</time>
</trkpt>
<trkpt lat="-26.7097792" lon="152.7978206">
<ele>369.253</ele>
<time>2016-05-21T01:58:13.388Z</time>
</trkpt>
<trkpt lat="-26.7096990" lon="152.7970331">
<ele>365.112</ele>
<time>2016-05-21T01:58:16.394Z</time>
</trkpt>
<trkpt lat="-26.7095160" lon="152.7962337">
<ele>362.903</ele>
<time>2016-05-21T01:58:19.466Z</time>
</trkpt>
<trkpt lat="-26.7094196" lon="152.7957460">
<ele>360.600</ele>
<time>2016-05-21T01:58:21.423Z</time>
</trkpt>
<trkpt lat="-26.7093740" lon="152.7950601">
<ele>356.738</ele>
<time>2016-05-21T01:58:24.339Z</time>
</trkpt>
<trkpt lat="-26.7094914" lon="152.7946670">
<ele>351.302</ele>
<time>2016-05-21T01:58:26.246Z</time>
</trkpt>
<trkpt lat="-26.7096672" lon="152.7942970">
<ele>345.437</ele>
<time>2016-05-21T01:58:28.222Z</time>
</trkpt>
<trkpt lat="-26.7098040" lon="152.7938951">
<ele>340.173</ele>
<time>2016-05-21T01:58:30.229Z</time>
</trkpt>
<trkpt lat="-26.7098609" lon="152.7934656">
<ele>335.997</ele>
<time>2016-05-21T01:58:32.228Z</time>
</trkpt>
<trkpt lat="-26.7097915" lon="152.7930073">
<ele>333.327</ele>
<time>2016-05-21T01:58:34.306Z</time>
</trkpt>
<trkpt lat="-26.7096025" lon="152.7923177">
<ele>332.406</ele>
<time>2016-05-21T01:58:37.365Z</time>
</trkpt>
<trkpt lat="-26.7094373" lon="152.7916179">
<ele>332.660</ele>
<time>2016-05-21T01:58:40.331Z</time>
</trkpt>
<trkpt lat="-26.7093314" lon="152.7908853">
<ele>332.883</ele>
<time>2016-05-21T01:58:43.351Z</time>
</trkpt>
<trkpt lat="-26.7093028" lon="152.7904104">
<ele>331.560</ele>
<time>2016-05-21T01:58:45.325Z</time>
</trkpt>
<trkpt lat="-26.7094631" lon="152.7897833">
<ele>327.441</ele>
<time>2016-05-21T01:58:48.165Z</time>
</trkpt>
<trkpt lat="-26.7097109" lon="152.7894186">
<ele>321.556</ele>
<time>2016-05-21T01:58:50.185Z</time>
</trkpt>
<trkpt lat="-26.7100642" lon="152.7891147">
<ele>316.409</ele>
<time>2016-05-21T01:58:52.278Z</time>
</trkpt>
<trkpt lat="-26.7105850" lon="152.7886982">
<ele>313.149</ele>
<time>2016-05-21T01:58:55.246Z</time>
</trkpt>
<trkpt lat="-26.7109101" lon="152.7884319">
<ele>310.836</ele>
<time>2016-05-21T01:58:57.175Z</time>
</trkpt>
<trkpt lat="-26.7112150" lon="152.7881358">
<ele>308.079</ele>
<time>2016-05-21T01:58:59.151Z</time>
</trkpt>
<trkpt lat="-26.7115615" lon="152.7875371">
<ele>304.968</ele>
<time>2016-05-21T01:59:02.218Z</time>
</trkpt>
<trkpt lat="-26.7117134" lon="152.7871270">
<ele>302.920</ele>
<time>2016-05-21T01:59:04.146Z</time>
</trkpt>
<trkpt lat="-26.7119557" lon="152.7865759">
<ele>302.096</ele>
<time>2016-05-21T01:59:06.998Z</time>
</trkpt>
<trkpt lat="-26.7123716" lon="152.7861404">
<ele>301.742</ele>
<time>2016-05-21T01:59:10.039Z</time>
</trkpt>
<trkpt lat="-26.7127375" lon="152.7859336">
<ele>301.689</ele>
<time>2016-05-21T01:59:12.127Z</time>
</trkpt>
<trkpt lat="-26.7132606" lon="152.7856051">
<ele>302.025</ele>
<time>2016-05-21T01:59:15.105Z</time>
</trkpt>
<trkpt lat="-26.7136753" lon="152.7850556">
<ele>302.026</ele>
<time>2016-05-21T01:59:18.198Z</time>
</trkpt>
<trkpt lat="-26.7140938" lon="152.7845186">
<ele>300.927</ele>
<time>2016-05-21T01:59:21.255Z</time>
</trkpt>
<trkpt lat="-26.7143136" lon="152.7841680">
<ele>298.254</ele>
<time>2016-05-21T01:59:23.180Z</time>
</trkpt>
<trkpt lat="-26.7144340" lon="152.7837640">
<ele>293.948</ele>
<time>2016-05-21T01:59:25.158Z</time>
</trkpt>
<trkpt lat="-26.7144245" lon="152.7831184">
<ele>288.715</ele>
<time>2016-05-21T01:59:28.146Z</time>
</trkpt>
<trkpt lat="-26.7142618" lon="152.7825624">
<ele>284.039</ele>
<time>2016-05-21T01:59:30.504Z</time>
</trkpt>
<trkpt lat="-26.7141408" lon="152.7820258">
<ele>280.970</ele>
<time>2016-05-21T01:59:32.526Z</time>
</trkpt>
<trkpt lat="-26.7139986" lon="152.7815055">
<ele>279.501</ele>
<time>2016-05-21T01:59:34.530Z</time>
</trkpt>
<trkpt lat="-26.7138152" lon="152.7808205">
<ele>278.258</ele>
<time>2016-05-21T01:59:37.426Z</time>
</trkpt>
<trkpt lat="-26.7137664" lon="152.7803018">
<ele>274.371</ele>
<time>2016-05-21T01:59:40.000Z</time>
</trkpt>
<trkpt lat="-26.7138699" lon="152.7800155">
<ele>265.589</ele>
<time>2016-05-21T01:59:41.827Z</time>
</trkpt>
<trkpt lat="-26.7141467" lon="152.7797741">
<ele>254.512</ele>
<time>2016-05-21T01:59:44.094Z</time>
</trkpt>
<trkpt lat="-26.7146347" lon="152.7794517">
<ele>246.352</ele>
<time>2016-05-21T01:59:47.314Z</time>
</trkpt>
<trkpt lat="-26.7148769" lon="152.7791901">
<ele>242.203</ele>
<time>2016-05-21T01:59:49.205Z</time>
</trkpt>
<trkpt lat="-26.7150219" lon="152.7786476">
<ele>238.969</ele>
<time>2016-05-21T01:59:52.086Z</time>
</trkpt>
<trkpt lat="-26.7149974" lon="152.7781547">
<ele>235.317</ele>
<time>2016-05-21T01:59:54.272Z</time>
</trkpt>
<trkpt lat="-26.7149664" lon="152.7776301">
<ele>232.339</ele>
<time>2016-05-21T01:59:56.357Z</time>
</trkpt>
<trkpt lat="-26.7150241" lon="152.7768808">
<ele>230.543</ele>
<time>2016-05-21T01:59:59.336Z</time>
</trkpt>
<trkpt lat="-26.7151545" lon="152.7764230">
<ele>228.219</ele>
<time>2016-05-21T02:00:01.320Z</time>
</trkpt>
<trkpt lat="-26.7152351" lon="152.7757937">
<ele>223.814</ele>
<time>2016-05-21T02:00:04.162Z</time>
</trkpt>
<trkpt lat="-26.7152700" lon="152.7754296">
<ele>217.548</ele>
<time>2016-05-21T02:00:06.009Z</time>
</trkpt>
<trkpt lat="-26.7154406" lon="152.7749917">
<ele>209.918</ele>
<time>2016-05-21T02:00:08.806Z</time>
</trkpt>
<trkpt lat="-26.7156769" lon="152.7748075">
<ele>201.834</ele>
<time>2016-05-21T02:00:10.875Z</time>
</trkpt>
<trkpt lat="-26.7160646" lon="152.7747394">
<ele>195.570</ele>
<time>2016-05-21T02:00:13.454Z</time>
</trkpt>
<trkpt lat="-26.7165660" lon="152.7744303">
<ele>192.149</ele>
<time>2016-05-21T02:00:16.614Z</time>
</trkpt>
<trkpt lat="-26.7168725" lon="152.7740590">
<ele>190.199</ele>
<time>2016-05-21T02:00:18.819Z</time>
</trkpt>
<trkpt lat="-26.7172863" lon="152.7735487">
<ele>188.027</ele>
<time>2016-05-21T02:00:21.793Z</time>
</trkpt>
<trkpt lat="-26.7175085" lon="152.7731985">
<ele>184.980</ele>
<time>2016-05-21T02:00:23.714Z</time>
</trkpt>
<trkpt lat="-26.7177151" lon="152.7725961">
<ele>180.644</ele>
<time>2016-05-21T02:00:26.620Z</time>
</trkpt>
<trkpt lat="-26.7178256" lon="152.7719198">
<ele>175.786</ele>
<time>2016-05-21T02:00:29.717Z</time>
</trkpt>
<trkpt lat="-26.7180558" lon="152.7713548">
<ele>172.183</ele>
<time>2016-05-21T02:00:32.620Z</time>
</trkpt>
<trkpt lat="-26.7185181" lon="152.7709871">
<ele>170.181</ele>
<time>2016-05-21T02:00:35.537Z</time>
</trkpt>
<trkpt lat="-26.7189703" lon="152.7707799">
<ele>169.225</ele>
<time>2016-05-21T02:00:37.697Z</time>
</trkpt>
<trkpt lat="-26.7194511" lon="152.7705613">
<ele>169.697</ele>
<time>2016-05-21T02:00:39.815Z</time>
</trkpt>
<trkpt lat="-26.7201156" lon="152.7702898">
<ele>171.644</ele>
<time>2016-05-21T02:00:42.764Z</time>
</trkpt>
<trkpt lat="-26.7207676" lon="152.7701285">
<ele>173.562</ele>
<time>2016-05-21T02:00:45.695Z</time>
</trkpt>
<trkpt lat="-26.7214380" lon="152.7701198">
<ele>174.221</ele>
<time>2016-05-21T02:00:48.662Z</time>
</trkpt>
<trkpt lat="-26.7221033" lon="152.7701121">
<ele>174.295</ele>
<time>2016-05-21T02:00:51.631Z</time>
</trkpt>
<trkpt lat="-26.7225168" lon="152.7700813">
<ele>174.623</ele>
<time>2016-05-21T02:00:53.594Z</time>
</trkpt>
<trkpt lat="-26.7230369" lon="152.7698691">
<ele>174.706</ele>
<time>2016-05-21T02:00:56.426Z</time>
</trkpt>
<trkpt lat="-26.7233093" lon="152.7696196">
<ele>172.959</ele>
<time>2016-05-21T02:00:58.341Z</time>
</trkpt>
<trkpt lat="-26.7234871" lon="152.7689886">
<ele>169.259</ele>
<time>2016-05-21T02:01:01.522Z</time>
</trkpt>
<trkpt lat="-26.7236127" lon="152.7685841">
<ele>165.606</ele>
<time>2016-05-21T02:01:03.563Z</time>
</trkpt>
<trkpt lat="-26.7239544" lon="152.7681208">
<ele>163.534</ele>
<time>2016-05-21T02:01:06.441Z</time>
</trkpt>
<trkpt lat="-26.7245216" lon="152.7678803">
<ele>162.869</ele>
<time>2016-05-21T02:01:09.582Z</time>
</trkpt>
<trkpt lat="-26.7250908" lon="152.7677176">
<ele>162.939</ele>
<time>2016-05-21T02:01:12.527Z</time>
</trkpt>
<trkpt lat="-26.7255807" lon="152.7673383">
<ele>163.178</ele>
<time>2016-05-21T02:01:15.477Z</time>
</trkpt>
<trkpt lat="-26.7259097" lon="152.7669467">
<ele>163.347</ele>
<time>2016-05-21T02:01:17.641Z</time>
</trkpt>
<trkpt lat="-26.7264105" lon="152.7662981">
<ele>164.593</ele>
<time>2016-05-21T02:01:20.769Z</time>
</trkpt>
<trkpt lat="-26.7269140" lon="152.7656465">
<ele>167.854</ele>
<time>2016-05-21T02:01:23.827Z</time>
</trkpt>
<trkpt lat="-26.7273617" lon="152.7650524">
<ele>171.482</ele>
<time>2016-05-21T02:01:26.712Z</time>
</trkpt>
<trkpt lat="-26.7275727" lon="152.7645853">
<ele>172.828</ele>
<time>2016-05-21T02:01:28.671Z</time>
</trkpt>
<trkpt lat="-26.7277463" lon="152.7640385">
<ele>171.487</ele>
<time>2016-05-21T02:01:30.760Z</time>
</trkpt>
<trkpt lat="-26.7278868" lon="152.7635153">
<ele>169.121</ele>
<time>2016-05-21T02:01:32.714Z</time>
</trkpt>
<trkpt lat="-26.7281082" lon="152.7627394">
<ele>166.844</ele>
<time>2016-05-21T02:01:35.655Z</time>
</trkpt>
<trkpt lat="-26.7283133" lon="152.7619491">
<ele>164.371</ele>
<time>2016-05-21T02:01:38.629Z</time>
</trkpt>
<trkpt lat="-26.7284949" lon="152.7614419">
<ele>162.077</ele>
<time>2016-05-21T02:01:40.608Z</time>
</trkpt>
<trkpt lat="-26.7288305" lon="152.7606842">
<ele>160.782</ele>
<time>2016-05-21T02:01:43.637Z</time>
</trkpt>
<trkpt lat="-26.7291735" lon="152.7599513">
<ele>160.472</ele>
<time>2016-05-21T02:01:46.603Z</time>
</trkpt>
<trkpt lat="-26.7294988" lon="152.7592329">
<ele>161.077</ele>
<time>2016-05-21T02:01:49.566Z</time>
</trkpt>
<trkpt lat="-26.7297069" lon="152.7587655">
<ele>162.982</ele>
<time>2016-05-21T02:01:51.547Z</time>
</trkpt>
<trkpt lat="-26.7299010" lon="152.7583280">
<ele>165.665</ele>
<time>2016-05-21T02:01:53.458Z</time>
</trkpt>
<trkpt lat="-26.7301097" lon="152.7578616">
<ele>167.965</ele>
<time>2016-05-21T02:01:55.489Z</time>
</trkpt>
<trkpt lat="-26.7303289" lon="152.7573705">
<ele>169.183</ele>
<time>2016-05-21T02:01:57.548Z</time>
</trkpt>
<trkpt lat="-26.7305318" lon="152.7568911">
<ele>168.859</ele>
<time>2016-05-21T02:01:59.525Z</time>
</trkpt>
<trkpt lat="-26.7307411" lon="152.7564290">
<ele>166.588</ele>
<time>2016-05-21T02:02:01.497Z</time>
</trkpt>
<trkpt lat="-26.7310822" lon="152.7558141">
<ele>163.046</ele>
<time>2016-05-21T02:02:04.380Z</time>
</trkpt>
<trkpt lat="-26.7315332" lon="152.7552388">
<ele>159.794</ele>
<time>2016-05-21T02:02:07.423Z</time>
</trkpt>
<trkpt lat="-26.7318465" lon="152.7548464">
<ele>157.722</ele>
<time>2016-05-21T02:02:09.446Z</time>
</trkpt>
<trkpt lat="-26.7321431" lon="152.7544716">
<ele>156.612</ele>
<time>2016-05-21T02:02:11.385Z</time>
</trkpt>
<trkpt lat="-26.7324477" lon="152.7541132">
<ele>155.909</ele>
<time>2016-05-21T02:02:13.363Z</time>
</trkpt>
<trkpt lat="-26.7328272" lon="152.7535722">
<ele>155.102</ele>
<time>2016-05-21T02:02:16.256Z</time>
</trkpt>
<trkpt lat="-26.7329731" lon="152.7529594">
<ele>154.339</ele>
<time>2016-05-21T02:02:19.100Z</time>
</trkpt>
<trkpt lat="-26.7329749" lon="152.7524563">
<ele>154.036</ele>
<time>2016-05-21T02:02:21.240Z</time>
</trkpt>
<trkpt lat="-26.7329809" lon="152.7516368">
<ele>154.433</ele>
<time>2016-05-21T02:02:24.358Z</time>
</trkpt>
<trkpt lat="-26.7329778" lon="152.7510875">
<ele>155.459</ele>
<time>2016-05-21T02:02:26.355Z</time>
</trkpt>
<trkpt lat="-26.7329771" lon="152.7505802">
<ele>156.468</ele>
<time>2016-05-21T02:02:28.255Z</time>
</trkpt>
<trkpt lat="-26.7329743" lon="152.7498471">
<ele>156.362</ele>
<time>2016-05-21T02:02:31.146Z</time>
</trkpt>
<trkpt lat="-26.7329841" lon="152.7493801">
<ele>154.718</ele>
<time>2016-05-21T02:02:33.068Z</time>
</trkpt>
<trkpt lat="-26.7332354" lon="152.7486484">
<ele>152.053</ele>
<time>2016-05-21T02:02:36.146Z</time>
</trkpt>
<trkpt lat="-26.7334977" lon="152.7481490">
<ele>149.304</ele>
<time>2016-05-21T02:02:38.214Z</time>
</trkpt>
<trkpt lat="-26.7339005" lon="152.7474441">
<ele>147.331</ele>
<time>2016-05-21T02:02:41.154Z</time>
</trkpt>
<trkpt lat="-26.7342658" lon="152.7467254">
<ele>145.784</ele>
<time>2016-05-21T02:02:44.123Z</time>
</trkpt>
<trkpt lat="-26.7346212" lon="152.7459952">
<ele>143.518</ele>
<time>2016-05-21T02:02:47.114Z</time>
</trkpt>
<trkpt lat="-26.7349960" lon="152.7452464">
<ele>141.268</ele>
<time>2016-05-21T02:02:50.178Z</time>
</trkpt>
<trkpt lat="-26.7352367" lon="152.7447590">
<ele>140.278</ele>
<time>2016-05-21T02:02:52.161Z</time>
</trkpt>
<trkpt lat="-26.7355808" lon="152.7440208">
<ele>140.334</ele>
<time>2016-05-21T02:02:55.166Z</time>
</trkpt>
<trkpt lat="-26.7358462" lon="152.7432683">
<ele>140.665</ele>
<time>2016-05-21T02:02:58.107Z</time>
</trkpt>
<trkpt lat="-26.7360755" lon="152.7424838">
<ele>140.492</ele>
<time>2016-05-21T02:03:01.096Z</time>
</trkpt>
<trkpt lat="-26.7362119" lon="152.7419812">
<ele>139.643</ele>
<time>2016-05-21T02:03:03.037Z</time>
</trkpt>
<trkpt lat="-26.7363541" lon="152.7414988">
<ele>138.737</ele>
<time>2016-05-21T02:03:04.974Z</time>
</trkpt>
<trkpt lat="-26.7364846" lon="152.7410270">
<ele>138.042</ele>
<time>2016-05-21T02:03:06.928Z</time>
</trkpt>
<trkpt lat="-26.7366683" lon="152.7403230">
<ele>137.458</ele>
<time>2016-05-21T02:03:09.883Z</time>
</trkpt>
<trkpt lat="-26.7367307" lon="152.7398439">
<ele>136.867</ele>
<time>2016-05-21T02:03:11.833Z</time>
</trkpt>
<trkpt lat="-26.7366928" lon="152.7390803">
<ele>136.111</ele>
<time>2016-05-21T02:03:14.839Z</time>
</trkpt>
<trkpt lat="-26.7365622" lon="152.7385342">
<ele>135.282</ele>
<time>2016-05-21T02:03:16.976Z</time>
</trkpt>
<trkpt lat="-26.7363336" lon="152.7377897">
<ele>134.583</ele>
<time>2016-05-21T02:03:19.933Z</time>
</trkpt>
<trkpt lat="-26.7362143" lon="152.7373104">
<ele>133.658</ele>
<time>2016-05-21T02:03:21.842Z</time>
</trkpt>
<trkpt lat="-26.7361401" lon="152.7368233">
<ele>132.136</ele>
<time>2016-05-21T02:03:23.794Z</time>
</trkpt>
<trkpt lat="-26.7361181" lon="152.7363407">
<ele>130.327</ele>
<time>2016-05-21T02:03:25.747Z</time>
</trkpt>
<trkpt lat="-26.7361565" lon="152.7355889">
<ele>128.814</ele>
<time>2016-05-21T02:03:28.741Z</time>
</trkpt>
<trkpt lat="-26.7362795" lon="152.7348489">
<ele>128.108</ele>
<time>2016-05-21T02:03:31.690Z</time>
</trkpt>
<trkpt lat="-26.7363108" lon="152.7341187">
<ele>128.271</ele>
<time>2016-05-21T02:03:34.623Z</time>
</trkpt>
<trkpt lat="-26.7360707" lon="152.7334122">
<ele>128.232</ele>
<time>2016-05-21T02:03:37.690Z</time>
</trkpt>
<trkpt lat="-26.7358053" lon="152.7330346">
<ele>127.219</ele>
<time>2016-05-21T02:03:39.620Z</time>
</trkpt>
<trkpt lat="-26.7352556" lon="152.7326433">
<ele>126.673</ele>
<time>2016-05-21T02:03:42.572Z</time>
</trkpt>
<trkpt lat="-26.7349202" lon="152.7323860">
<ele>127.979</ele>
<time>2016-05-21T02:03:44.463Z</time>
</trkpt>
<trkpt lat="-26.7344767" lon="152.7318127">
<ele>130.405</ele>
<time>2016-05-21T02:03:47.575Z</time>
</trkpt>
<trkpt lat="-26.7342103" lon="152.7313257">
<ele>132.697</ele>
<time>2016-05-21T02:03:49.741Z</time>
</trkpt>
<trkpt lat="-26.7339424" lon="152.7308430">
<ele>134.187</ele>
<time>2016-05-21T02:03:51.765Z</time>
</trkpt>
<trkpt lat="-26.7334809" lon="152.7301279">
<ele>134.703</ele>
<time>2016-05-21T02:03:54.798Z</time>
</trkpt>
<trkpt lat="-26.7331725" lon="152.7296570">
<ele>134.980</ele>
<time>2016-05-21T02:03:56.764Z</time>
</trkpt>
<trkpt lat="-26.7327282" lon="152.7289836">
<ele>135.621</ele>
<time>2016-05-21T02:03:59.667Z</time>
</trkpt>
<trkpt lat="-26.7324372" lon="152.7285471">
<ele>136.086</ele>
<time>2016-05-21T02:04:01.617Z</time>
</trkpt>
<trkpt lat="-26.7321394" lon="152.7281085">
<ele>135.542</ele>
<time>2016-05-21T02:04:03.616Z</time>
</trkpt>
<trkpt lat="-26.7318411" lon="152.7276696">
<ele>134.219</ele>
<time>2016-05-21T02:04:05.614Z</time>
</trkpt>
<trkpt lat="-26.7314194" lon="152.7270209">
<ele>132.998</ele>
<time>2016-05-21T02:04:08.572Z</time>
</trkpt>
<trkpt lat="-26.7311124" lon="152.7263454">
<ele>132.191</ele>
<time>2016-05-21T02:04:11.508Z</time>
</trkpt>
<trkpt lat="-26.7309890" lon="152.7258654">
<ele>131.537</ele>
<time>2016-05-21T02:04:13.494Z</time>
</trkpt>
<trkpt lat="-26.7308707" lon="152.7250759">
<ele>130.859</ele>
<time>2016-05-21T02:04:16.570Z</time>
</trkpt>
<trkpt lat="-26.7308059" lon="152.7245576">
<ele>130.217</ele>
<time>2016-05-21T02:04:18.527Z</time>
</trkpt>
<trkpt lat="-26.7307384" lon="152.7240601">
<ele>129.374</ele>
<time>2016-05-21T02:04:20.438Z</time>
</trkpt>
<trkpt lat="-26.7306334" lon="152.7232898">
<ele>127.878</ele>
<time>2016-05-21T02:04:23.422Z</time>
</trkpt>
<trkpt lat="-26.7305227" lon="152.7225032">
<ele>126.014</ele>
<time>2016-05-21T02:04:26.428Z</time>
</trkpt>
<trkpt lat="-26.7304506" lon="152.7220063">
<ele>124.474</ele>
<time>2016-05-21T02:04:28.351Z</time>
</trkpt>
<trkpt lat="-26.7303463" lon="152.7213263">
<ele>123.284</ele>
<time>2016-05-21T02:04:31.160Z</time>
</trkpt>
<trkpt lat="-26.7302459" lon="152.7208970">
<ele>122.069</ele>
<time>2016-05-21T02:04:33.075Z</time>
</trkpt>
<trkpt lat="-26.7300828" lon="152.7203380">
<ele>120.724</ele>
<time>2016-05-21T02:04:35.817Z</time>
</trkpt>
<trkpt lat="-26.7299752" lon="152.7200270">
<ele>119.601</ele>
<time>2016-05-21T02:04:37.500Z</time>
</trkpt>
<trkpt lat="-26.7298370" lon="152.7196287">
<ele>119.034</ele>
<time>2016-05-21T02:04:39.993Z</time>
</trkpt>
<trkpt lat="-26.7297708" lon="152.7193840">
<ele>118.965</ele>
<time>2016-05-21T02:04:41.633Z</time>
</trkpt>
<trkpt lat="-26.7296656" lon="152.7190022">
<ele>119.239</ele>
<time>2016-05-21T02:04:44.527Z</time>
</trkpt>
<trkpt lat="-26.7296365" lon="152.7187392">
<ele>119.958</ele>
<time>2016-05-21T02:04:46.516Z</time>
</trkpt>
<trkpt lat="-26.7296086" lon="152.7184930">
<ele>121.091</ele>
<time>2016-05-21T02:04:48.391Z</time>
</trkpt>
<trkpt lat="-26.7295588" lon="152.7180957">
<ele>121.999</ele>
<time>2016-05-21T02:04:51.478Z</time>
</trkpt>
<trkpt lat="-26.7295081" lon="152.7176839">
<ele>122.191</ele>
<time>2016-05-21T02:04:54.640Z</time>
</trkpt>
<trkpt lat="-26.7294521" lon="152.7174171">
<ele>121.669</ele>
<time>2016-05-21T02:04:56.680Z</time>
</trkpt>
<trkpt lat="-26.7293939" lon="152.7170113">
<ele>120.660</ele>
<time>2016-05-21T02:04:59.679Z</time>
</trkpt>
<trkpt lat="-26.7293277" lon="152.7167247">
<ele>119.535</ele>
<time>2016-05-21T02:05:01.823Z</time>
</trkpt>
<trkpt lat="-26.7291818" lon="152.7162396">
<ele>118.575</ele>
<time>2016-05-21T02:05:05.272Z</time>
</trkpt>
<trkpt lat="-26.7289968" lon="152.7157165">
<ele>118.023</ele>
<time>2016-05-21T02:05:08.531Z</time>
</trkpt>
<trkpt lat="-26.7288339" lon="152.7151886">
<ele>118.067</ele>
<time>2016-05-21T02:05:11.529Z</time>
</trkpt>
<trkpt lat="-26.7287218" lon="152.7148353">
<ele>118.453</ele>
<time>2016-05-21T02:05:13.506Z</time>
</trkpt>
<trkpt lat="-26.7286380" lon="152.7144629">
<ele>118.669</ele>
<time>2016-05-21T02:05:15.517Z</time>
</trkpt>
<trkpt lat="-26.7285708" lon="152.7139066">
<ele>118.391</ele>
<time>2016-05-21T02:05:18.467Z</time>
</trkpt>
<trkpt lat="-26.7284923" lon="152.7133634">
<ele>117.917</ele>
<time>2016-05-21T02:05:21.414Z</time>
</trkpt>
<trkpt lat="-26.7284460" lon="152.7130376">
<ele>117.491</ele>
<time>2016-05-21T02:05:23.218Z</time>
</trkpt>
<trkpt lat="-26.7283390" lon="152.7127437">
<ele>116.984</ele>
<time>2016-05-21T02:05:25.046Z</time>
</trkpt>
<trkpt lat="-26.7279776" lon="152.7124505">
<ele>116.507</ele>
<time>2016-05-21T02:05:28.090Z</time>
</trkpt>
<trkpt lat="-26.7276526" lon="152.7122862">
<ele>116.443</ele>
<time>2016-05-21T02:05:30.432Z</time>
</trkpt>
<trkpt lat="-26.7270919" lon="152.7120104">
<ele>116.976</ele>
<time>2016-05-21T02:05:33.810Z</time>
</trkpt>
<trkpt lat="-26.7266634" lon="152.7117826">
<ele>118.335</ele>
<time>2016-05-21T02:05:36.106Z</time>
</trkpt>
<trkpt lat="-26.7262759" lon="152.7115398">
<ele>120.822</ele>
<time>2016-05-21T02:05:38.095Z</time>
</trkpt>
<trkpt lat="-26.7258122" lon="152.7110029">
<ele>123.883</ele>
<time>2016-05-21T02:05:41.073Z</time>
</trkpt>
<trkpt lat="-26.7255373" lon="152.7105555">
<ele>126.661</ele>
<time>2016-05-21T02:05:43.188Z</time>
</trkpt>
<trkpt lat="-26.7252715" lon="152.7100928">
<ele>129.528</ele>
<time>2016-05-21T02:05:45.232Z</time>
</trkpt>
<trkpt lat="-26.7250578" lon="152.7097104">
<ele>132.953</ele>
<time>2016-05-21T02:05:46.927Z</time>
</trkpt>
<trkpt lat="-26.7247057" lon="152.7092369">
<ele>136.026</ele>
<time>2016-05-21T02:05:49.504Z</time>
</trkpt>
<trkpt lat="-26.7242557" lon="152.7089618">
<ele>137.436</ele>
<time>2016-05-21T02:05:52.191Z</time>
</trkpt>
<trkpt lat="-26.7236860" lon="152.7089410">
<ele>136.893</ele>
<time>2016-05-21T02:05:55.348Z</time>
</trkpt>
<trkpt lat="-26.7232956" lon="152.7089273">
<ele>135.054</ele>
<time>2016-05-21T02:05:57.453Z</time>
</trkpt>
<trkpt lat="-26.7228807" lon="152.7087974">
<ele>132.415</ele>
<time>2016-05-21T02:05:59.617Z</time>
</trkpt>
<trkpt lat="-26.7224691" lon="152.7085020">
<ele>129.577</ele>
<time>2016-05-21T02:06:01.903Z</time>
</trkpt>
<trkpt lat="-26.7220572" lon="152.7082245">
<ele>127.642</ele>
<time>2016-05-21T02:06:03.985Z</time>
</trkpt>
<trkpt lat="-26.7216086" lon="152.7078903">
<ele>128.141</ele>
<time>2016-05-21T02:06:06.148Z</time>
</trkpt>
<trkpt lat="-26.7209086" lon="152.7073849">
<ele>131.170</ele>
<time>2016-05-21T02:06:09.241Z</time>
</trkpt>
<trkpt lat="-26.7204751" lon="152.7070505">
<ele>133.930</ele>
<time>2016-05-21T02:06:11.177Z</time>
</trkpt>
<trkpt lat="-26.7200305" lon="152.7067381">
<ele>134.236</ele>
<time>2016-05-21T02:06:13.138Z</time>
</trkpt>
<trkpt lat="-26.7195696" lon="152.7064030">
<ele>133.000</ele>
<time>2016-05-21T02:06:15.183Z</time>
</trkpt>
<trkpt lat="-26.7189158" lon="152.7058748">
<ele>131.607</ele>
<time>2016-05-21T02:06:18.165Z</time>
</trkpt>
<trkpt lat="-26.7183036" lon="152.7052744">
<ele>130.208</ele>
<time>2016-05-21T02:06:21.168Z</time>
</trkpt>
<trkpt lat="-26.7179323" lon="152.7048379">
<ele>128.463</ele>
<time>2016-05-21T02:06:23.135Z</time>
</trkpt>
<trkpt lat="-26.7175049" lon="152.7044108">
<ele>126.644</ele>
<time>2016-05-21T02:06:25.184Z</time>
</trkpt>
<trkpt lat="-26.7167235" lon="152.7037997">
<ele>125.446</ele>
<time>2016-05-21T02:06:28.374Z</time>
</trkpt>
<trkpt lat="-26.7161915" lon="152.7034028">
<ele>125.561</ele>
<time>2016-05-21T02:06:30.425Z</time>
</trkpt>
<trkpt lat="-26.7154464" lon="152.7028577">
<ele>127.039</ele>
<time>2016-05-21T02:06:33.344Z</time>
</trkpt>
<trkpt lat="-26.7149556" lon="152.7025313">
<ele>127.934</ele>
<time>2016-05-21T02:06:35.276Z</time>
</trkpt>
<trkpt lat="-26.7142645" lon="152.7020068">
<ele>126.359</ele>
<time>2016-05-21T02:06:38.189Z</time>
</trkpt>
<trkpt lat="-26.7137919" lon="152.7016261">
<ele>123.360</ele>
<time>2016-05-21T02:06:40.229Z</time>
</trkpt>
<trkpt lat="-26.7133121" lon="152.7012461">
<ele>121.244</ele>
<time>2016-05-21T02:06:42.252Z</time>
</trkpt>
<trkpt lat="-26.7126279" lon="152.7006676">
<ele>120.743</ele>
<time>2016-05-21T02:06:45.203Z</time>
</trkpt>
<trkpt lat="-26.7121742" lon="152.7003041">
<ele>121.073</ele>
<time>2016-05-21T02:06:47.167Z</time>
</trkpt>
<trkpt lat="-26.7117397" lon="152.6999370">
<ele>121.367</ele>
<time>2016-05-21T02:06:49.131Z</time>
</trkpt>
<trkpt lat="-26.7113002" lon="152.6995587">
<ele>121.304</ele>
<time>2016-05-21T02:06:51.151Z</time>
</trkpt>
<trkpt lat="-26.7106413" lon="152.6990180">
<ele>120.986</ele>
<time>2016-05-21T02:06:54.112Z</time>
</trkpt>
<trkpt lat="-26.7102015" lon="152.6986490">
<ele>120.693</ele>
<time>2016-05-21T02:06:56.096Z</time>
</trkpt>
<trkpt lat="-26.7097755" lon="152.6982917">
<ele>120.528</ele>
<time>2016-05-21T02:06:58.040Z</time>
</trkpt>
<trkpt lat="-26.7091425" lon="152.6977737">
<ele>120.425</ele>
<time>2016-05-21T02:07:00.988Z</time>
</trkpt>
<trkpt lat="-26.7087452" lon="152.6974458">
<ele>120.169</ele>
<time>2016-05-21T02:07:02.895Z</time>
</trkpt>
<trkpt lat="-26.7082311" lon="152.6970064">
<ele>119.650</ele>
<time>2016-05-21T02:07:05.607Z</time>
</trkpt>
<trkpt lat="-26.7078458" lon="152.6965534">
<ele>118.963</ele>
<time>2016-05-21T02:07:08.204Z</time>
</trkpt>
<trkpt lat="-26.7077239" lon="152.6961239">
<ele>118.265</ele>
<time>2016-05-21T02:07:10.224Z</time>
</trkpt>
<trkpt lat="-26.7077071" lon="152.6954522">
<ele>118.317</ele>
<time>2016-05-21T02:07:13.275Z</time>
</trkpt>
<trkpt lat="-26.7078218" lon="152.6949824">
<ele>119.922</ele>
<time>2016-05-21T02:07:15.421Z</time>
</trkpt>
<trkpt lat="-26.7079468" lon="152.6944437">
<ele>123.009</ele>
<time>2016-05-21T02:07:17.700Z</time>
</trkpt>
<trkpt lat="-26.7081045" lon="152.6936779">
<ele>126.870</ele>
<time>2016-05-21T02:07:20.679Z</time>
</trkpt>
<trkpt lat="-26.7082579" lon="152.6929743">
<ele>130.221</ele>
<time>2016-05-21T02:07:23.473Z</time>
</trkpt>
<trkpt lat="-26.7082631" lon="152.6923633">
<ele>131.629</ele>
<time>2016-05-21T02:07:26.045Z</time>
</trkpt>
<trkpt lat="-26.7080795" lon="152.6918054">
<ele>130.919</ele>
<time>2016-05-21T02:07:28.812Z</time>
</trkpt>
<trkpt lat="-26.7077401" lon="152.6915900">
<ele>129.460</ele>
<time>2016-05-21T02:07:30.959Z</time>
</trkpt>
<trkpt lat="-26.7070722" lon="152.6912652">
<ele>128.676</ele>
<time>2016-05-21T02:07:34.628Z</time>
</trkpt>
<trkpt lat="-26.7066200" lon="152.6910427">
<ele>128.662</ele>
<time>2016-05-21T02:07:36.806Z</time>
</trkpt>
<trkpt lat="-26.7060463" lon="152.6906243">
<ele>128.666</ele>
<time>2016-05-21T02:07:39.663Z</time>
</trkpt>
<trkpt lat="-26.7057210" lon="152.6902711">
<ele>128.223</ele>
<time>2016-05-21T02:07:41.595Z</time>
</trkpt>
<trkpt lat="-26.7054562" lon="152.6898733">
<ele>127.260</ele>
<time>2016-05-21T02:07:43.535Z</time>
</trkpt>
<trkpt lat="-26.7052702" lon="152.6893891">
<ele>126.033</ele>
<time>2016-05-21T02:07:45.604Z</time>
</trkpt>
<trkpt lat="-26.7050732" lon="152.6888506">
<ele>125.614</ele>
<time>2016-05-21T02:07:47.788Z</time>
</trkpt>
<trkpt lat="-26.7048783" lon="152.6883400">
<ele>126.638</ele>
<time>2016-05-21T02:07:49.771Z</time>
</trkpt>
<trkpt lat="-26.7047284" lon="152.6878383">
<ele>127.973</ele>
<time>2016-05-21T02:07:51.655Z</time>
</trkpt>
<trkpt lat="-26.7045109" lon="152.6871361">
<ele>127.778</ele>
<time>2016-05-21T02:07:54.438Z</time>
</trkpt>
<trkpt lat="-26.7042894" lon="152.6864789">
<ele>125.208</ele>
<time>2016-05-21T02:07:57.242Z</time>
</trkpt>
<trkpt lat="-26.7040903" lon="152.6858770">
<ele>120.655</ele>
<time>2016-05-21T02:08:00.008Z</time>
</trkpt>
<trkpt lat="-26.7039631" lon="152.6854905">
<ele>115.515</ele>
<time>2016-05-21T02:08:01.877Z</time>
</trkpt>
<trkpt lat="-26.7038389" lon="152.6851183">
<ele>111.194</ele>
<time>2016-05-21T02:08:03.752Z</time>
</trkpt>
<trkpt lat="-26.7036144" lon="152.6846183">
<ele>108.420</ele>
<time>2016-05-21T02:08:06.515Z</time>
</trkpt>
<trkpt lat="-26.7033545" lon="152.6843342">
<ele>107.435</ele>
<time>2016-05-21T02:08:08.597Z</time>
</trkpt>
<trkpt lat="-26.7030083" lon="152.6840782">
<ele>108.448</ele>
<time>2016-05-21T02:08:10.941Z</time>
</trkpt>
<trkpt lat="-26.7026179" lon="152.6838211">
<ele>110.875</ele>
<time>2016-05-21T02:08:13.238Z</time>
</trkpt>
<trkpt lat="-26.7020667" lon="152.6834715">
<ele>113.588</ele>
<time>2016-05-21T02:08:16.175Z</time>
</trkpt>
<trkpt lat="-26.7016915" lon="152.6832253">
<ele>115.790</ele>
<time>2016-05-21T02:08:18.176Z</time>
</trkpt>
<trkpt lat="-26.7013177" lon="152.6829646">
<ele>117.255</ele>
<time>2016-05-21T02:08:20.222Z</time>
</trkpt>
<trkpt lat="-26.7009624" lon="152.6827438">
<ele>118.001</ele>
<time>2016-05-21T02:08:22.103Z</time>
</trkpt>
<trkpt lat="-26.7006006" lon="152.6825046">
<ele>118.027</ele>
<time>2016-05-21T02:08:24.074Z</time>
</trkpt>
<trkpt lat="-26.7000204" lon="152.6821365">
<ele>117.344</ele>
<time>2016-05-21T02:08:27.217Z</time>
</trkpt>
<trkpt lat="-26.6993848" lon="152.6818295">
<ele>116.396</ele>
<time>2016-05-21T02:08:30.330Z</time>
</trkpt>
<trkpt lat="-26.6986398" lon="152.6816139">
<ele>115.772</ele>
<time>2016-05-21T02:08:33.562Z</time>
</trkpt>
<trkpt lat="-26.6981642" lon="152.6814970">
<ele>115.603</ele>
<time>2016-05-21T02:08:35.527Z</time>
</trkpt>
<trkpt lat="-26.6976791" lon="152.6813729">
<ele>115.568</ele>
<time>2016-05-21T02:08:37.515Z</time>
</trkpt>
<trkpt lat="-26.6969858" lon="152.6812057">
<ele>115.315</ele>
<time>2016-05-21T02:08:40.410Z</time>
</trkpt>
<trkpt lat="-26.6964977" lon="152.6810925">
<ele>114.873</ele>
<time>2016-05-21T02:08:42.448Z</time>
</trkpt>
<trkpt lat="-26.6959892" lon="152.6809922">
<ele>115.217</ele>
<time>2016-05-21T02:08:44.522Z</time>
</trkpt>
<trkpt lat="-26.6952668" lon="152.6808229">
<ele>116.882</ele>
<time>2016-05-21T02:08:47.454Z</time>
</trkpt>
<trkpt lat="-26.6945402" lon="152.6806574">
<ele>118.528</ele>
<time>2016-05-21T02:08:50.434Z</time>
</trkpt>
<trkpt lat="-26.6938227" lon="152.6804871">
<ele>118.696</ele>
<time>2016-05-21T02:08:53.414Z</time>
</trkpt>
<trkpt lat="-26.6933521" lon="152.6804057">
<ele>117.412</ele>
<time>2016-05-21T02:08:55.364Z</time>
</trkpt>
<trkpt lat="-26.6928850" lon="152.6804198">
<ele>115.229</ele>
<time>2016-05-21T02:08:57.307Z</time>
</trkpt>
<trkpt lat="-26.6921489" lon="152.6804991">
<ele>112.996</ele>
<time>2016-05-21T02:09:00.398Z</time>
</trkpt>
<trkpt lat="-26.6916739" lon="152.6805524">
<ele>111.804</ele>
<time>2016-05-21T02:09:02.374Z</time>
</trkpt>
<trkpt lat="-26.6909660" lon="152.6806202">
<ele>112.275</ele>
<time>2016-05-21T02:09:05.337Z</time>
</trkpt>
<trkpt lat="-26.6903029" lon="152.6806005">
<ele>113.780</ele>
<time>2016-05-21T02:09:08.198Z</time>
</trkpt>
<trkpt lat="-26.6898471" lon="152.6804574">
<ele>115.125</ele>
<time>2016-05-21T02:09:10.283Z</time>
</trkpt>
<trkpt lat="-26.6893721" lon="152.6802287">
<ele>115.861</ele>
<time>2016-05-21T02:09:12.500Z</time>
</trkpt>
<trkpt lat="-26.6887049" lon="152.6799589">
<ele>116.241</ele>
<time>2016-05-21T02:09:15.408Z</time>
</trkpt>
<trkpt lat="-26.6883678" lon="152.6797902">
<ele>116.422</ele>
<time>2016-05-21T02:09:16.932Z</time>
</trkpt>
<trkpt lat="-26.6879557" lon="152.6794149">
<ele>115.174</ele>
<time>2016-05-21T02:09:19.499Z</time>
</trkpt>
<trkpt lat="-26.6875782" lon="152.6790043">
<ele>111.544</ele>
<time>2016-05-21T02:09:22.355Z</time>
</trkpt>
<trkpt lat="-26.6872619" lon="152.6786312">
<ele>107.062</ele>
<time>2016-05-21T02:09:24.958Z</time>
</trkpt>
<trkpt lat="-26.6870066" lon="152.6784128">
<ele>103.735</ele>
<time>2016-05-21T02:09:26.962Z</time>
</trkpt>
<trkpt lat="-26.6867981" lon="152.6783799">
<ele>101.718</ele>
<time>2016-05-21T02:09:28.351Z</time>
</trkpt>
<trkpt lat="-26.6864233" lon="152.6784597">
<ele>100.524</ele>
<time>2016-05-21T02:09:31.436Z</time>
</trkpt>
<trkpt lat="-26.6861614" lon="152.6785650">
<ele>100.014</ele>
<time>2016-05-21T02:09:33.964Z</time>
</trkpt>
<trkpt lat="-26.6859189" lon="152.6787539">
<ele>100.258</ele>
<time>2016-05-21T02:09:36.424Z</time>
</trkpt>
<trkpt lat="-26.6857237" lon="152.6790416">
<ele>101.352</ele>
<time>2016-05-21T02:09:38.760Z</time>
</trkpt>
<trkpt lat="-26.6854146" lon="152.6795024">
<ele>103.465</ele>
<time>2016-05-21T02:09:42.145Z</time>
</trkpt>
<trkpt lat="-26.6851557" lon="152.6797455">
<ele>106.363</ele>
<time>2016-05-21T02:09:44.205Z</time>
</trkpt>
<trkpt lat="-26.6846939" lon="152.6800658">
<ele>109.263</ele>
<time>2016-05-21T02:09:47.408Z</time>
</trkpt>
<trkpt lat="-26.6843288" lon="152.6802795">
<ele>111.306</ele>
<time>2016-05-21T02:09:49.728Z</time>
</trkpt>
<trkpt lat="-26.6839196" lon="152.6805053">
<ele>112.286</ele>
<time>2016-05-21T02:09:52.090Z</time>
</trkpt>
<trkpt lat="-26.6833001" lon="152.6808432">
<ele>113.284</ele>
<time>2016-05-21T02:09:55.212Z</time>
</trkpt>
<trkpt lat="-26.6829035" lon="152.6810699">
<ele>114.985</ele>
<time>2016-05-21T02:09:57.168Z</time>
</trkpt>
<trkpt lat="-26.6823429" lon="152.6814113">
<ele>115.635</ele>
<time>2016-05-21T02:10:00.057Z</time>
</trkpt>
<trkpt lat="-26.6819762" lon="152.6816014">
<ele>113.636</ele>
<time>2016-05-21T02:10:01.934Z</time>
</trkpt>
<trkpt lat="-26.6815855" lon="152.6817666">
<ele>110.565</ele>
<time>2016-05-21T02:10:03.944Z</time>
</trkpt>
<trkpt lat="-26.6809678" lon="152.6818231">
<ele>108.597</ele>
<time>2016-05-21T02:10:06.936Z</time>
</trkpt>
<trkpt lat="-26.6803750" lon="152.6817490">
<ele>107.813</ele>
<time>2016-05-21T02:10:09.852Z</time>
</trkpt>
<trkpt lat="-26.6797349" lon="152.6816075">
<ele>107.450</ele>
<time>2016-05-21T02:10:13.048Z</time>
</trkpt>
<trkpt lat="-26.6792870" lon="152.6815091">
<ele>107.312</ele>
<time>2016-05-21T02:10:15.207Z</time>
</trkpt>
<trkpt lat="-26.6786713" lon="152.6814095">
<ele>107.478</ele>
<time>2016-05-21T02:10:18.053Z</time>
</trkpt>
<trkpt lat="-26.6782646" lon="152.6813874">
<ele>107.855</ele>
<time>2016-05-21T02:10:19.952Z</time>
</trkpt>
<trkpt lat="-26.6778512" lon="152.6813999">
<ele>108.347</ele>
<time>2016-05-21T02:10:21.959Z</time>
</trkpt>
<trkpt lat="-26.6774285" lon="152.6814625">
<ele>108.957</ele>
<time>2016-05-21T02:10:24.021Z</time>
</trkpt>
<trkpt lat="-26.6767555" lon="152.6815895">
<ele>109.716</ele>
<time>2016-05-21T02:10:27.188Z</time>
</trkpt>
<trkpt lat="-26.6762911" lon="152.6816854">
<ele>110.757</ele>
<time>2016-05-21T02:10:29.309Z</time>
</trkpt>
<trkpt lat="-26.6758247" lon="152.6817986">
<ele>112.118</ele>
<time>2016-05-21T02:10:31.377Z</time>
</trkpt>
<trkpt lat="-26.6751504" lon="152.6819668">
<ele>113.430</ele>
<time>2016-05-21T02:10:34.337Z</time>
</trkpt>
<trkpt lat="-26.6744733" lon="152.6821117">
<ele>114.206</ele>
<time>2016-05-21T02:10:37.317Z</time>
</trkpt>
<trkpt lat="-26.6739958" lon="152.6822258">
<ele>114.397</ele>
<time>2016-05-21T02:10:39.417Z</time>
</trkpt>
<trkpt lat="-26.6735060" lon="152.6823367">
<ele>114.255</ele>
<time>2016-05-21T02:10:41.471Z</time>
</trkpt>
<trkpt lat="-26.6728016" lon="152.6824257">
<ele>113.905</ele>
<time>2016-05-21T02:10:44.339Z</time>
</trkpt>
<trkpt lat="-26.6723194" lon="152.6824456">
<ele>113.209</ele>
<time>2016-05-21T02:10:46.317Z</time>
</trkpt>
<trkpt lat="-26.6715448" lon="152.6823833">
<ele>112.286</ele>
<time>2016-05-21T02:10:49.479Z</time>
</trkpt>
<trkpt lat="-26.6708313" lon="152.6823372">
<ele>111.605</ele>
<time>2016-05-21T02:10:52.366Z</time>
</trkpt>
<trkpt lat="-26.6703932" lon="152.6823072">
<ele>111.243</ele>
<time>2016-05-21T02:10:54.170Z</time>
</trkpt>
<trkpt lat="-26.6699572" lon="152.6822701">
<ele>110.694</ele>
<time>2016-05-21T02:10:56.084Z</time>
</trkpt>
<trkpt lat="-26.6692919" lon="152.6822175">
<ele>109.784</ele>
<time>2016-05-21T02:10:59.111Z</time>
</trkpt>
<trkpt lat="-26.6688364" lon="152.6821898">
<ele>109.046</ele>
<time>2016-05-21T02:11:01.175Z</time>
</trkpt>
<trkpt lat="-26.6683985" lon="152.6821528">
<ele>108.846</ele>
<time>2016-05-21T02:11:03.124Z</time>
</trkpt>
<trkpt lat="-26.6679733" lon="152.6821191">
<ele>108.474</ele>
<time>2016-05-21T02:11:05.034Z</time>
</trkpt>
<trkpt lat="-26.6675584" lon="152.6820935">
<ele>107.356</ele>
<time>2016-05-21T02:11:06.937Z</time>
</trkpt>
<trkpt lat="-26.6669324" lon="152.6820557">
<ele>106.062</ele>
<time>2016-05-21T02:11:09.886Z</time>
</trkpt>
<trkpt lat="-26.6665026" lon="152.6820193">
<ele>105.465</ele>
<time>2016-05-21T02:11:11.935Z</time>
</trkpt>
<trkpt lat="-26.6658217" lon="152.6819737">
<ele>105.815</ele>
<time>2016-05-21T02:11:15.107Z</time>
</trkpt>
<trkpt lat="-26.6650909" lon="152.6819245">
<ele>107.072</ele>
<time>2016-05-21T02:11:18.313Z</time>
</trkpt>
<trkpt lat="-26.6646082" lon="152.6818833">
<ele>108.746</ele>
<time>2016-05-21T02:11:20.337Z</time>
</trkpt>
<trkpt lat="-26.6639067" lon="152.6818370">
<ele>109.930</ele>
<time>2016-05-21T02:11:23.245Z</time>
</trkpt>
<trkpt lat="-26.6632274" lon="152.6817991">
<ele>109.841</ele>
<time>2016-05-21T02:11:26.142Z</time>
</trkpt>
<trkpt lat="-26.6625547" lon="152.6816190">
<ele>108.696</ele>
<time>2016-05-21T02:11:29.142Z</time>
</trkpt>
<trkpt lat="-26.6619287" lon="152.6812652">
<ele>107.353</ele>
<time>2016-05-21T02:11:32.175Z</time>
</trkpt>
<trkpt lat="-26.6615500" lon="152.6810774">
<ele>106.409</ele>
<time>2016-05-21T02:11:33.969Z</time>
</trkpt>
<trkpt lat="-26.6609203" lon="152.6808779">
<ele>105.576</ele>
<time>2016-05-21T02:11:36.951Z</time>
</trkpt>
<trkpt lat="-26.6601980" lon="152.6807825">
<ele>104.528</ele>
<time>2016-05-21T02:11:40.212Z</time>
</trkpt>
<trkpt lat="-26.6594928" lon="152.6807032">
<ele>104.180</ele>
<time>2016-05-21T02:11:43.237Z</time>
</trkpt>
<trkpt lat="-26.6587972" lon="152.6806348">
<ele>105.276</ele>
<time>2016-05-21T02:11:46.186Z</time>
</trkpt>
<trkpt lat="-26.6583079" lon="152.6805811">
<ele>106.770</ele>
<time>2016-05-21T02:11:48.271Z</time>
</trkpt>
<trkpt lat="-26.6575718" lon="152.6805167">
<ele>107.611</ele>
<time>2016-05-21T02:11:51.292Z</time>
</trkpt>
<trkpt lat="-26.6570921" lon="152.6804592">
<ele>107.873</ele>
<time>2016-05-21T02:11:53.243Z</time>
</trkpt>
<trkpt lat="-26.6564408" lon="152.6803868">
<ele>107.660</ele>
<time>2016-05-21T02:11:55.995Z</time>
</trkpt>
<trkpt lat="-26.6558574" lon="152.6803257">
<ele>106.553</ele>
<time>2016-05-21T02:11:58.672Z</time>
</trkpt>
<trkpt lat="-26.6555023" lon="152.6802981">
<ele>104.643</ele>
<time>2016-05-21T02:12:00.431Z</time>
</trkpt>
<trkpt lat="-26.6549248" lon="152.6802848">
<ele>103.016</ele>
<time>2016-05-21T02:12:03.478Z</time>
</trkpt>
<trkpt lat="-26.6543579" lon="152.6803526">
<ele>102.452</ele>
<time>2016-05-21T02:12:06.500Z</time>
</trkpt>
<trkpt lat="-26.6537913" lon="152.6805761">
<ele>102.800</ele>
<time>2016-05-21T02:12:09.604Z</time>
</trkpt>
<trkpt lat="-26.6534333" lon="152.6807622">
<ele>103.512</ele>
<time>2016-05-21T02:12:11.616Z</time>
</trkpt>
<trkpt lat="-26.6530539" lon="152.6810228">
<ele>104.258</ele>
<time>2016-05-21T02:12:13.830Z</time>
</trkpt>
<trkpt lat="-26.6524982" lon="152.6815615">
<ele>105.435</ele>
<time>2016-05-21T02:12:17.164Z</time>
</trkpt>
<trkpt lat="-26.6519053" lon="152.6821006">
<ele>108.221</ele>
<time>2016-05-21T02:12:20.294Z</time>
</trkpt>
<trkpt lat="-26.6514844" lon="152.6824395">
<ele>112.557</ele>
<time>2016-05-21T02:12:22.326Z</time>
</trkpt>
<trkpt lat="-26.6510345" lon="152.6827414">
<ele>116.214</ele>
<time>2016-05-21T02:12:24.352Z</time>
</trkpt>
<trkpt lat="-26.6503797" lon="152.6831156">
<ele>117.185</ele>
<time>2016-05-21T02:12:27.232Z</time>
</trkpt>
<trkpt lat="-26.6499551" lon="152.6833242">
<ele>115.729</ele>
<time>2016-05-21T02:12:29.094Z</time>
</trkpt>
<trkpt lat="-26.6495226" lon="152.6834725">
<ele>113.537</ele>
<time>2016-05-21T02:12:31.008Z</time>
</trkpt>
<trkpt lat="-26.6490551" lon="152.6835740">
<ele>112.132</ele>
<time>2016-05-21T02:12:33.070Z</time>
</trkpt>
<trkpt lat="-26.6483628" lon="152.6836705">
<ele>111.733</ele>
<time>2016-05-21T02:12:36.052Z</time>
</trkpt>
<trkpt lat="-26.6477168" lon="152.6836673">
<ele>111.764</ele>
<time>2016-05-21T02:12:38.863Z</time>
</trkpt>
<trkpt lat="-26.6472942" lon="152.6836259">
<ele>111.160</ele>
<time>2016-05-21T02:12:40.787Z</time>
</trkpt>
<trkpt lat="-26.6468383" lon="152.6835229">
<ele>109.538</ele>
<time>2016-05-21T02:12:42.979Z</time>
</trkpt>
<trkpt lat="-26.6461398" lon="152.6833243">
<ele>108.045</ele>
<time>2016-05-21T02:12:46.163Z</time>
</trkpt>
<trkpt lat="-26.6454721" lon="152.6831620">
<ele>107.632</ele>
<time>2016-05-21T02:12:49.070Z</time>
</trkpt>
<trkpt lat="-26.6450332" lon="152.6830542">
<ele>107.724</ele>
<time>2016-05-21T02:12:50.999Z</time>
</trkpt>
<trkpt lat="-26.6443942" lon="152.6828907">
<ele>107.569</ele>
<time>2016-05-21T02:12:53.897Z</time>
</trkpt>
<trkpt lat="-26.6439756" lon="152.6828069">
<ele>107.225</ele>
<time>2016-05-21T02:12:55.806Z</time>
</trkpt>
<trkpt lat="-26.6433539" lon="152.6828342">
<ele>107.003</ele>
<time>2016-05-21T02:12:58.687Z</time>
</trkpt>
<trkpt lat="-26.6429558" lon="152.6829870">
<ele>106.695</ele>
<time>2016-05-21T02:13:00.676Z</time>
</trkpt>
<trkpt lat="-26.6423553" lon="152.6833186">
<ele>106.115</ele>
<time>2016-05-21T02:13:03.817Z</time>
</trkpt>
<trkpt lat="-26.6417621" lon="152.6838147">
<ele>106.437</ele>
<time>2016-05-21T02:13:07.134Z</time>
</trkpt>
<trkpt lat="-26.6413897" lon="152.6840843">
<ele>108.668</ele>
<time>2016-05-21T02:13:09.053Z</time>
</trkpt>
<trkpt lat="-26.6410024" lon="152.6843714">
<ele>111.529</ele>
<time>2016-05-21T02:13:11.035Z</time>
</trkpt>
<trkpt lat="-26.6404248" lon="152.6848252">
<ele>113.216</ele>
<time>2016-05-21T02:13:14.084Z</time>
</trkpt>
<trkpt lat="-26.6398861" lon="152.6852794">
<ele>112.993</ele>
<time>2016-05-21T02:13:17.017Z</time>
</trkpt>
<trkpt lat="-26.6394554" lon="152.6858499">
<ele>110.977</ele>
<time>2016-05-21T02:13:19.957Z</time>
</trkpt>
<trkpt lat="-26.6390769" lon="152.6865265">
<ele>108.508</ele>
<time>2016-05-21T02:13:23.087Z</time>
</trkpt>
<trkpt lat="-26.6387329" lon="152.6871651">
<ele>107.436</ele>
<time>2016-05-21T02:13:25.956Z</time>
</trkpt>
<trkpt lat="-26.6384139" lon="152.6875316">
<ele>108.267</ele>
<time>2016-05-21T02:13:27.922Z</time>
</trkpt>
<trkpt lat="-26.6379169" lon="152.6878714">
<ele>109.845</ele>
<time>2016-05-21T02:13:30.557Z</time>
</trkpt>
<trkpt lat="-26.6373230" lon="152.6880212">
<ele>110.904</ele>
<time>2016-05-21T02:13:33.495Z</time>
</trkpt>
<trkpt lat="-26.6365969" lon="152.6876034">
<ele>111.503</ele>
<time>2016-05-21T02:13:37.476Z</time>
</trkpt>
<trkpt lat="-26.6361156" lon="152.6873382">
<ele>112.834</ele>
<time>2016-05-21T02:13:39.855Z</time>
</trkpt>
<trkpt lat="-26.6354793" lon="152.6869272">
<ele>115.239</ele>
<time>2016-05-21T02:13:42.752Z</time>
</trkpt>
<trkpt lat="-26.6350794" lon="152.6866700">
<ele>116.995</ele>
<time>2016-05-21T02:13:44.558Z</time>
</trkpt>
<trkpt lat="-26.6344972" lon="152.6862853">
<ele>116.486</ele>
<time>2016-05-21T02:13:47.371Z</time>
</trkpt>
<trkpt lat="-26.6339228" lon="152.6859548">
<ele>114.143</ele>
<time>2016-05-21T02:13:50.247Z</time>
</trkpt>
<trkpt lat="-26.6335012" lon="152.6858378">
<ele>111.577</ele>
<time>2016-05-21T02:13:52.235Z</time>
</trkpt>
<trkpt lat="-26.6327905" lon="152.6857644">
<ele>110.206</ele>
<time>2016-05-21T02:13:55.448Z</time>
</trkpt>
<trkpt lat="-26.6323136" lon="152.6857701">
<ele>110.771</ele>
<time>2016-05-21T02:13:57.518Z</time>
</trkpt>
<trkpt lat="-26.6316124" lon="152.6858158">
<ele>112.777</ele>
<time>2016-05-21T02:14:00.498Z</time>
</trkpt>
<trkpt lat="-26.6309586" lon="152.6858630">
<ele>114.234</ele>
<time>2016-05-21T02:14:03.348Z</time>
</trkpt>
<trkpt lat="-26.6305426" lon="152.6858882">
<ele>113.302</ele>
<time>2016-05-21T02:14:05.216Z</time>
</trkpt>
<trkpt lat="-26.6299416" lon="152.6860099">
<ele>110.242</ele>
<time>2016-05-21T02:14:08.145Z</time>
</trkpt>
<trkpt lat="-26.6295624" lon="152.6862373">
<ele>106.738</ele>
<time>2016-05-21T02:14:10.241Z</time>
</trkpt>
<trkpt lat="-26.6290691" lon="152.6867440">
<ele>104.212</ele>
<time>2016-05-21T02:14:13.410Z</time>
</trkpt>
<trkpt lat="-26.6286637" lon="152.6873005">
<ele>103.246</ele>
<time>2016-05-21T02:14:16.356Z</time>
</trkpt>
<trkpt lat="-26.6282273" lon="152.6878019">
<ele>103.684</ele>
<time>2016-05-21T02:14:19.255Z</time>
</trkpt>
<trkpt lat="-26.6276522" lon="152.6881850">
<ele>104.854</ele>
<time>2016-05-21T02:14:22.388Z</time>
</trkpt>
<trkpt lat="-26.6272644" lon="152.6884232">
<ele>106.045</ele>
<time>2016-05-21T02:14:24.428Z</time>
</trkpt>
<trkpt lat="-26.6268874" lon="152.6886701">
<ele>106.449</ele>
<time>2016-05-21T02:14:26.402Z</time>
</trkpt>
<trkpt lat="-26.6265141" lon="152.6889107">
<ele>105.786</ele>
<time>2016-05-21T02:14:28.343Z</time>
</trkpt>
<trkpt lat="-26.6259806" lon="152.6892332">
<ele>104.255</ele>
<time>2016-05-21T02:14:31.154Z</time>
</trkpt>
<trkpt lat="-26.6254838" lon="152.6895448">
<ele>101.843</ele>
<time>2016-05-21T02:14:33.949Z</time>
</trkpt>
<trkpt lat="-26.6251479" lon="152.6897509">
<ele>99.073</ele>
<time>2016-05-21T02:14:35.898Z</time>
</trkpt>
<trkpt lat="-26.6247962" lon="152.6899348">
<ele>97.112</ele>
<time>2016-05-21T02:14:37.926Z</time>
</trkpt>
<trkpt lat="-26.6242293" lon="152.6899968">
<ele>96.356</ele>
<time>2016-05-21T02:14:40.898Z</time>
</trkpt>
<trkpt lat="-26.6236659" lon="152.6899322">
<ele>96.411</ele>
<time>2016-05-21T02:14:43.892Z</time>
</trkpt>
<trkpt lat="-26.6233046" lon="152.6898856">
<ele>96.779</ele>
<time>2016-05-21T02:14:45.840Z</time>
</trkpt>
<trkpt lat="-26.6227818" lon="152.6899295">
<ele>97.130</ele>
<time>2016-05-21T02:14:48.708Z</time>
</trkpt>
<trkpt lat="-26.6223344" lon="152.6901202">
<ele>97.384</ele>
<time>2016-05-21T02:14:51.418Z</time>
</trkpt>
<trkpt lat="-26.6219474" lon="152.6906074">
<ele>98.012</ele>
<time>2016-05-21T02:14:54.890Z</time>
</trkpt>
<trkpt lat="-26.6215320" lon="152.6907877">
<ele>99.991</ele>
<time>2016-05-21T02:14:57.481Z</time>
</trkpt>
<trkpt lat="-26.6208995" lon="152.6908903">
<ele>103.226</ele>
<time>2016-05-21T02:15:00.688Z</time>
</trkpt>
<trkpt lat="-26.6203120" lon="152.6910494">
<ele>106.083</ele>
<time>2016-05-21T02:15:03.574Z</time>
</trkpt>
<trkpt lat="-26.6198350" lon="152.6914042">
<ele>107.112</ele>
<time>2016-05-21T02:15:06.401Z</time>
</trkpt>
<trkpt lat="-26.6195494" lon="152.6917883">
<ele>106.442</ele>
<time>2016-05-21T02:15:08.699Z</time>
</trkpt>
<trkpt lat="-26.6189667" lon="152.6920925">
<ele>105.299</ele>
<time>2016-05-21T02:15:11.884Z</time>
</trkpt>
<trkpt lat="-26.6185762" lon="152.6922297">
<ele>104.932</ele>
<time>2016-05-21T02:15:13.838Z</time>
</trkpt>
<trkpt lat="-26.6182313" lon="152.6923710">
<ele>105.584</ele>
<time>2016-05-21T02:15:15.606Z</time>
</trkpt>
<trkpt lat="-26.6177571" lon="152.6926304">
<ele>106.508</ele>
<time>2016-05-21T02:15:18.360Z</time>
</trkpt>
<trkpt lat="-26.6174968" lon="152.6929463">
<ele>107.123</ele>
<time>2016-05-21T02:15:20.477Z</time>
</trkpt>
<trkpt lat="-26.6170270" lon="152.6933462">
<ele>107.547</ele>
<time>2016-05-21T02:15:23.711Z</time>
</trkpt>
<trkpt lat="-26.6166955" lon="152.6935489">
<ele>107.842</ele>
<time>2016-05-21T02:15:25.718Z</time>
</trkpt>
<trkpt lat="-26.6163898" lon="152.6937501">
<ele>108.050</ele>
<time>2016-05-21T02:15:27.592Z</time>
</trkpt>
<trkpt lat="-26.6161146" lon="152.6940029">
<ele>108.319</ele>
<time>2016-05-21T02:15:29.523Z</time>
</trkpt>
<trkpt lat="-26.6159099" lon="152.6943044">
<ele>108.682</ele>
<time>2016-05-21T02:15:31.410Z</time>
</trkpt>
<trkpt lat="-26.6157425" lon="152.6947044">
<ele>109.200</ele>
<time>2016-05-21T02:15:33.608Z</time>
</trkpt>
<trkpt lat="-26.6155523" lon="152.6953952">
<ele>109.974</ele>
<time>2016-05-21T02:15:36.959Z</time>
</trkpt>
<trkpt lat="-26.6155168" lon="152.6958637">
<ele>111.932</ele>
<time>2016-05-21T02:15:39.016Z</time>
</trkpt>
<trkpt lat="-26.6154266" lon="152.6965123">
<ele>116.001</ele>
<time>2016-05-21T02:15:41.858Z</time>
</trkpt>
<trkpt lat="-26.6153368" lon="152.6969193">
<ele>120.767</ele>
<time>2016-05-21T02:15:43.718Z</time>
</trkpt>
<trkpt lat="-26.6151506" lon="152.6975330">
<ele>124.093</ele>
<time>2016-05-21T02:15:46.688Z</time>
</trkpt>
<trkpt lat="-26.6148579" lon="152.6980652">
<ele>126.021</ele>
<time>2016-05-21T02:15:49.642Z</time>
</trkpt>
<trkpt lat="-26.6144091" lon="152.6983493">
<ele>127.726</ele>
<time>2016-05-21T02:15:52.522Z</time>
</trkpt>
<trkpt lat="-26.6139454" lon="152.6984093">
<ele>129.572</ele>
<time>2016-05-21T02:15:55.302Z</time>
</trkpt>
<trkpt lat="-26.6135895" lon="152.6984476">
<ele>131.109</ele>
<time>2016-05-21T02:15:57.627Z</time>
</trkpt>
<trkpt lat="-26.6134554" lon="152.6986061">
<ele>131.979</ele>
<time>2016-05-21T02:15:59.085Z</time>
</trkpt>
<trkpt lat="-26.6134900" lon="152.6988519">
<ele>132.270</ele>
<time>2016-05-21T02:16:00.918Z</time>
</trkpt>
<trkpt lat="-26.6137289" lon="152.6992585">
<ele>132.548</ele>
<time>2016-05-21T02:16:04.921Z</time>
</trkpt>
<trkpt lat="-26.6139040" lon="152.6998031">
<ele>134.109</ele>
<time>2016-05-21T02:16:08.583Z</time>
</trkpt>
<trkpt lat="-26.6140782" lon="152.7003502">
<ele>138.087</ele>
<time>2016-05-21T02:16:11.664Z</time>
</trkpt>
<trkpt lat="-26.6143014" lon="152.7006517">
<ele>143.688</ele>
<time>2016-05-21T02:16:13.671Z</time>
</trkpt>
<trkpt lat="-26.6146112" lon="152.7010397">
<ele>148.460</ele>
<time>2016-05-21T02:16:16.404Z</time>
</trkpt>
<trkpt lat="-26.6146916" lon="152.7011505">
<ele>150.481</ele>
<time>2016-05-21T02:16:17.188Z</time>
</trkpt>
<trkpt lat="-26.6146468" lon="152.7016740">
<ele>149.539</ele>
<time>2016-05-21T02:16:20.423Z</time>
</trkpt>
<trkpt lat="-26.6144700" lon="152.7020011">
<ele>147.089</ele>
<time>2016-05-21T02:16:23.073Z</time>
</trkpt>
<trkpt lat="-26.6143236" lon="152.7022900">
<ele>145.080</ele>
<time>2016-05-21T02:16:25.112Z</time>
</trkpt>
<trkpt lat="-26.6143127" lon="152.7025269">
<ele>143.422</ele>
<time>2016-05-21T02:16:26.502Z</time>
</trkpt>
<trkpt lat="-26.6145645" lon="152.7027528">
<ele>140.510</ele>
<time>2016-05-21T02:16:28.936Z</time>
</trkpt>
<trkpt lat="-26.6149027" lon="152.7027092">
<ele>136.629</ele>
<time>2016-05-21T02:16:32.042Z</time>
</trkpt>
<trkpt lat="-26.6150995" lon="152.7027593">
<ele>133.357</ele>
<time>2016-05-21T02:16:33.883Z</time>
</trkpt>
<trkpt lat="-26.6152428" lon="152.7030026">
<ele>131.143</ele>
<time>2016-05-21T02:16:36.302Z</time>
</trkpt>
<trkpt lat="-26.6149340" lon="152.7035881">
<ele>129.762</ele>
<time>2016-05-21T02:16:42.602Z</time>
</trkpt>
<trkpt lat="-26.6149102" lon="152.7039512">
<ele>129.076</ele>
<time>2016-05-21T02:16:45.445Z</time>
</trkpt>
<trkpt lat="-26.6150419" lon="152.7041091">
<ele>128.004</ele>
<time>2016-05-21T02:16:47.235Z</time>
</trkpt>
<trkpt lat="-26.6153986" lon="152.7040330">
<ele>125.636</ele>
<time>2016-05-21T02:16:50.855Z</time>
</trkpt>
<trkpt lat="-26.6156339" lon="152.7039447">
<ele>122.904</ele>
<time>2016-05-21T02:16:53.095Z</time>
</trkpt>
<trkpt lat="-26.6159244" lon="152.7039763">
<ele>120.991</ele>
<time>2016-05-21T02:16:55.764Z</time>
</trkpt>
<trkpt lat="-26.6158373" lon="152.7044689">
<ele>119.544</ele>
<time>2016-05-21T02:16:59.949Z</time>
</trkpt>
<trkpt lat="-26.6158462" lon="152.7047699">
<ele>118.085</ele>
<time>2016-05-21T02:17:02.000Z</time>
</trkpt>
<trkpt lat="-26.6159712" lon="152.7050672">
<ele>116.821</ele>
<time>2016-05-21T02:17:03.955Z</time>
</trkpt>
<trkpt lat="-26.6162322" lon="152.7053193">
<ele>116.064</ele>
<time>2016-05-21T02:17:06.087Z</time>
</trkpt>
<trkpt lat="-26.6165919" lon="152.7057118">
<ele>115.730</ele>
<time>2016-05-21T02:17:09.346Z</time>
</trkpt>
<trkpt lat="-26.6168593" lon="152.7059712">
<ele>114.800</ele>
<time>2016-05-21T02:17:12.102Z</time>
</trkpt>
<trkpt lat="-26.6170167" lon="152.7061411">
<ele>111.741</ele>
<time>2016-05-21T02:17:14.333Z</time>
</trkpt>
<trkpt lat="-26.6171826" lon="152.7063182">
<ele>106.967</ele>
<time>2016-05-21T02:17:17.272Z</time>
</trkpt>
<trkpt lat="-26.6172571" lon="152.7063959">
<ele>102.584</ele>
<time>2016-05-21T02:17:19.107Z</time>
</trkpt>
<trkpt lat="-26.6173381" lon="152.7065137">
<ele>99.539</ele>
<time>2016-05-21T02:17:22.032Z</time>
</trkpt>
<trkpt lat="-26.6173817" lon="152.7066135">
<ele>97.258</ele>
<time>2016-05-21T02:17:24.855Z</time>
</trkpt>
<trkpt lat="-26.6174216" lon="152.7067179">
<ele>95.337</ele>
<time>2016-05-21T02:17:28.307Z</time>
</trkpt>
<trkpt lat="-26.6173962" lon="152.7068241">
<ele>94.037</ele>
<time>2016-05-21T02:17:32.234Z</time>
</trkpt>
<trkpt lat="-26.6173306" lon="152.7069258">
<ele>93.634</ele>
<time>2016-05-21T02:17:36.771Z</time>
</trkpt>
<trkpt lat="-26.6173136" lon="152.7070338">
<ele>93.851</ele>
<time>2016-05-21T02:17:40.998Z</time>
</trkpt>
<trkpt lat="-26.6173136" lon="152.7070338">
<ele>94.117</ele>
<time>2016-05-21T02:17:43.998Z</time>
</trkpt>
<trkpt lat="-26.6173136" lon="152.7070338">
<ele>94.085</ele>
<time>2016-05-21T02:17:57.692Z</time>
</trkpt>
<trkpt lat="-26.6172436" lon="152.7071786">
<ele>93.894</ele>
<time>2016-05-21T02:18:08.130Z</time>
</trkpt>
<trkpt lat="-26.6171414" lon="152.7072454">
<ele>93.575</ele>
<time>2016-05-21T02:18:11.822Z</time>
</trkpt>
<trkpt lat="-26.6170249" lon="152.7072713">
<ele>92.975</ele>
<time>2016-05-21T02:18:15.768Z</time>
</trkpt>
<trkpt lat="-26.6169142" lon="152.7072714">
<ele>92.189</ele>
<time>2016-05-21T02:18:19.922Z</time>
</trkpt>
<trkpt lat="-26.6168134" lon="152.7072363">
<ele>91.499</ele>
<time>2016-05-21T02:18:23.932Z</time>
</trkpt>
<trkpt lat="-26.6167102" lon="152.7071824">
<ele>91.181</ele>
<time>2016-05-21T02:18:28.006Z</time>
</trkpt>
<trkpt lat="-26.6165921" lon="152.7071527">
<ele>91.384</ele>
<time>2016-05-21T02:18:32.571Z</time>
</trkpt>
<trkpt lat="-26.6164966" lon="152.7071419">
<ele>91.931</ele>
<time>2016-05-21T02:18:35.759Z</time>
</trkpt>
<trkpt lat="-26.6163918" lon="152.7071311">
<ele>92.625</ele>
<time>2016-05-21T02:18:39.180Z</time>
</trkpt>
<trkpt lat="-26.6165088" lon="152.7071814">
<ele>93.333</ele>
<time>2016-05-21T02:18:43.197Z</time>
</trkpt>
<trkpt lat="-26.6166685" lon="152.7071895">
<ele>93.762</ele>
<time>2016-05-21T02:18:47.763Z</time>
</trkpt>
<trkpt lat="-26.6167573" lon="152.7072136">
<ele>93.758</ele>
<time>2016-05-21T02:18:50.997Z</time>
</trkpt>
<trkpt lat="-26.6167573" lon="152.7072136">
<ele>93.561</ele>
<time>2016-05-21T02:18:53.997Z</time>
</trkpt>
<trkpt lat="-26.6167573" lon="152.7072136">
<ele>93.418</ele>
<time>2016-05-21T02:25:47.859Z</time>
</trkpt>
<trkpt lat="-26.6165792" lon="152.7072270">
<ele>93.413</ele>
<time>2016-05-21T02:28:32.000Z</time>
</trkpt>
<trkpt lat="-26.6165792" lon="152.7072270">
<ele>93.484</ele>
<time>2016-05-21T02:28:36.000Z</time>
</trkpt>
<trkpt lat="-26.6165792" lon="152.7072270">
<ele>93.504</ele>
<time>2016-05-21T03:33:01.366Z</time>
</trkpt>
<trkpt lat="-26.6167352" lon="152.7072289">
<ele>93.452</ele>
<time>2016-05-21T03:33:12.372Z</time>
</trkpt>
<trkpt lat="-26.6168388" lon="152.7072832">
<ele>96.331</ele>
<time>2016-05-21T03:33:16.231Z</time>
</trkpt>
<trkpt lat="-26.6169489" lon="152.7073174">
<ele>103.947</ele>
<time>2016-05-21T03:33:19.044Z</time>
</trkpt>
<trkpt lat="-26.6171026" lon="152.7072876">
<ele>111.705</ele>
<time>2016-05-21T03:33:22.687Z</time>
</trkpt>
<trkpt lat="-26.6172150" lon="152.7072477">
<ele>115.218</ele>
<time>2016-05-21T03:33:25.570Z</time>
</trkpt>
<trkpt lat="-26.6172975" lon="152.7071592">
<ele>115.632</ele>
<time>2016-05-21T03:33:28.323Z</time>
</trkpt>
<trkpt lat="-26.6173334" lon="152.7070299">
<ele>115.079</ele>
<time>2016-05-21T03:33:31.966Z</time>
</trkpt>
<trkpt lat="-26.6173905" lon="152.7069472">
<ele>114.769</ele>
<time>2016-05-21T03:33:36.160Z</time>
</trkpt>
<trkpt lat="-26.6174686" lon="152.7068627">
<ele>114.947</ele>
<time>2016-05-21T03:33:39.698Z</time>
</trkpt>
<trkpt lat="-26.6175958" lon="152.7068926">
<ele>115.236</ele>
<time>2016-05-21T03:33:41.809Z</time>
</trkpt>
<trkpt lat="-26.6176952" lon="152.7071728">
<ele>115.291</ele>
<time>2016-05-21T03:33:44.797Z</time>
</trkpt>
<trkpt lat="-26.6176776" lon="152.7076829">
<ele>115.617</ele>
<time>2016-05-21T03:33:48.446Z</time>
</trkpt>
<trkpt lat="-26.6175463" lon="152.7080079">
<ele>116.638</ele>
<time>2016-05-21T03:33:50.556Z</time>
</trkpt>
<trkpt lat="-26.6172919" lon="152.7083007">
<ele>115.885</ele>
<time>2016-05-21T03:33:52.794Z</time>
</trkpt>
<trkpt lat="-26.6168134" lon="152.7087704">
<ele>111.590</ele>
<time>2016-05-21T03:33:56.482Z</time>
</trkpt>
<trkpt lat="-26.6165524" lon="152.7092107">
<ele>106.782</ele>
<time>2016-05-21T03:33:59.172Z</time>
</trkpt>
<trkpt lat="-26.6161031" lon="152.7095379">
<ele>104.624</ele>
<time>2016-05-21T03:34:02.216Z</time>
</trkpt>
<trkpt lat="-26.6157816" lon="152.7097288">
<ele>104.712</ele>
<time>2016-05-21T03:34:04.538Z</time>
</trkpt>
<trkpt lat="-26.6155563" lon="152.7098906">
<ele>105.735</ele>
<time>2016-05-21T03:34:06.361Z</time>
</trkpt>
<trkpt lat="-26.6153660" lon="152.7101642">
<ele>107.465</ele>
<time>2016-05-21T03:34:08.522Z</time>
</trkpt>
<trkpt lat="-26.6153068" lon="152.7106479">
<ele>110.271</ele>
<time>2016-05-21T03:34:11.611Z</time>
</trkpt>
<trkpt lat="-26.6152188" lon="152.7109353">
<ele>113.744</ele>
<time>2016-05-21T03:34:13.484Z</time>
</trkpt>
<trkpt lat="-26.6148795" lon="152.7112595">
<ele>117.620</ele>
<time>2016-05-21T03:34:16.236Z</time>
</trkpt>
<trkpt lat="-26.6145675" lon="152.7114672">
<ele>121.720</ele>
<time>2016-05-21T03:34:18.371Z</time>
</trkpt>
<trkpt lat="-26.6141539" lon="152.7117950">
<ele>124.962</ele>
<time>2016-05-21T03:34:21.282Z</time>
</trkpt>
<trkpt lat="-26.6139092" lon="152.7120399">
<ele>126.741</ele>
<time>2016-05-21T03:34:23.162Z</time>
</trkpt>
<trkpt lat="-26.6136712" lon="152.7123277">
<ele>127.732</ele>
<time>2016-05-21T03:34:25.218Z</time>
</trkpt>
<trkpt lat="-26.6134994" lon="152.7126530">
<ele>128.710</ele>
<time>2016-05-21T03:34:27.231Z</time>
</trkpt>
<trkpt lat="-26.6133439" lon="152.7129474">
<ele>129.801</ele>
<time>2016-05-21T03:34:29.052Z</time>
</trkpt>
<trkpt lat="-26.6130995" lon="152.7134436">
<ele>130.662</ele>
<time>2016-05-21T03:34:31.950Z</time>
</trkpt>
<trkpt lat="-26.6129055" lon="152.7138118">
<ele>130.685</ele>
<time>2016-05-21T03:34:34.161Z</time>
</trkpt>
<trkpt lat="-26.6126931" lon="152.7141283">
<ele>129.720</ele>
<time>2016-05-21T03:34:36.266Z</time>
</trkpt>
<trkpt lat="-26.6123314" lon="152.7144844">
<ele>128.566</ele>
<time>2016-05-21T03:34:39.258Z</time>
</trkpt>
<trkpt lat="-26.6118720" lon="152.7146765">
<ele>127.758</ele>
<time>2016-05-21T03:34:42.327Z</time>
</trkpt>
<trkpt lat="-26.6116308" lon="152.7149173">
<ele>126.691</ele>
<time>2016-05-21T03:34:44.318Z</time>
</trkpt>
<trkpt lat="-26.6114243" lon="152.7154201">
<ele>124.807</ele>
<time>2016-05-21T03:34:47.195Z</time>
</trkpt>
<trkpt lat="-26.6114372" lon="152.7160117">
<ele>122.460</ele>
<time>2016-05-21T03:34:49.997Z</time>
</trkpt>
<trkpt lat="-26.6115148" lon="152.7164369">
<ele>120.405</ele>
<time>2016-05-21T03:34:51.976Z</time>
</trkpt>
<trkpt lat="-26.6116328" lon="152.7171057">
<ele>118.942</ele>
<time>2016-05-21T03:34:55.242Z</time>
</trkpt>
<trkpt lat="-26.6116935" lon="152.7175080">
<ele>118.044</ele>
<time>2016-05-21T03:34:57.363Z</time>
</trkpt>
<trkpt lat="-26.6116703" lon="152.7180357">
<ele>117.873</ele>
<time>2016-05-21T03:35:00.284Z</time>
</trkpt>
<trkpt lat="-26.6115200" lon="152.7183581">
<ele>118.416</ele>
<time>2016-05-21T03:35:02.111Z</time>
</trkpt>
<trkpt lat="-26.6113220" lon="152.7186558">
<ele>118.884</ele>
<time>2016-05-21T03:35:03.884Z</time>
</trkpt>
<trkpt lat="-26.6108356" lon="152.7191365">
<ele>118.547</ele>
<time>2016-05-21T03:35:07.015Z</time>
</trkpt>
<trkpt lat="-26.6103386" lon="152.7195656">
<ele>117.582</ele>
<time>2016-05-21T03:35:09.962Z</time>
</trkpt>
<trkpt lat="-26.6097986" lon="152.7199204">
<ele>116.318</ele>
<time>2016-05-21T03:35:12.832Z</time>
</trkpt>
<trkpt lat="-26.6092129" lon="152.7203066">
<ele>114.991</ele>
<time>2016-05-21T03:35:15.911Z</time>
</trkpt>
<trkpt lat="-26.6088213" lon="152.7205672">
<ele>114.339</ele>
<time>2016-05-21T03:35:17.957Z</time>
</trkpt>
<trkpt lat="-26.6084372" lon="152.7208321">
<ele>114.750</ele>
<time>2016-05-21T03:35:19.972Z</time>
</trkpt>
<trkpt lat="-26.6080704" lon="152.7210798">
<ele>115.528</ele>
<time>2016-05-21T03:35:21.886Z</time>
</trkpt>
<trkpt lat="-26.6076789" lon="152.7213320">
<ele>115.517</ele>
<time>2016-05-21T03:35:23.910Z</time>
</trkpt>
<trkpt lat="-26.6071204" lon="152.7217010">
<ele>114.359</ele>
<time>2016-05-21T03:35:26.945Z</time>
</trkpt>
<trkpt lat="-26.6067401" lon="152.7219328">
<ele>112.940</ele>
<time>2016-05-21T03:35:29.218Z</time>
</trkpt>
<trkpt lat="-26.6064530" lon="152.7220904">
<ele>112.162</ele>
<time>2016-05-21T03:35:31.092Z</time>
</trkpt>
<trkpt lat="-26.6061587" lon="152.7222611">
<ele>111.981</ele>
<time>2016-05-21T03:35:33.172Z</time>
</trkpt>
<trkpt lat="-26.6058583" lon="152.7224221">
<ele>112.003</ele>
<time>2016-05-21T03:35:35.321Z</time>
</trkpt>
<trkpt lat="-26.6054429" lon="152.7226354">
<ele>111.795</ele>
<time>2016-05-21T03:35:38.373Z</time>
</trkpt>
<trkpt lat="-26.6050479" lon="152.7228770">
<ele>111.217</ele>
<time>2016-05-21T03:35:41.422Z</time>
</trkpt>
<trkpt lat="-26.6047989" lon="152.7230691">
<ele>110.367</ele>
<time>2016-05-21T03:35:43.437Z</time>
</trkpt>
<trkpt lat="-26.6045826" lon="152.7232934">
<ele>109.167</ele>
<time>2016-05-21T03:35:45.382Z</time>
</trkpt>
<trkpt lat="-26.6043090" lon="152.7236723">
<ele>107.622</ele>
<time>2016-05-21T03:35:48.172Z</time>
</trkpt>
<trkpt lat="-26.6039816" lon="152.7240673">
<ele>105.731</ele>
<time>2016-05-21T03:35:51.220Z</time>
</trkpt>
<trkpt lat="-26.6037785" lon="152.7243280">
<ele>102.993</ele>
<time>2016-05-21T03:35:53.202Z</time>
</trkpt>
<trkpt lat="-26.6033826" lon="152.7246126">
<ele>99.677</ele>
<time>2016-05-21T03:35:56.168Z</time>
</trkpt>
<trkpt lat="-26.6029036" lon="152.7247312">
<ele>97.197</ele>
<time>2016-05-21T03:35:59.062Z</time>
</trkpt>
<trkpt lat="-26.6023508" lon="152.7248298">
<ele>96.231</ele>
<time>2016-05-21T03:36:02.295Z</time>
</trkpt>
<trkpt lat="-26.6018164" lon="152.7249166">
<ele>96.221</ele>
<time>2016-05-21T03:36:05.585Z</time>
</trkpt>
<trkpt lat="-26.6014897" lon="152.7249832">
<ele>96.345</ele>
<time>2016-05-21T03:36:07.882Z</time>
</trkpt>
<trkpt lat="-26.6012116" lon="152.7250293">
<ele>95.900</ele>
<time>2016-05-21T03:36:09.930Z</time>
</trkpt>
<trkpt lat="-26.6008172" lon="152.7250825">
<ele>94.734</ele>
<time>2016-05-21T03:36:12.937Z</time>
</trkpt>
<trkpt lat="-26.6004435" lon="152.7251211">
<ele>93.226</ele>
<time>2016-05-21T03:36:15.788Z</time>
</trkpt>
<trkpt lat="-26.6001737" lon="152.7252029">
<ele>91.892</ele>
<time>2016-05-21T03:36:17.930Z</time>
</trkpt>
<trkpt lat="-26.5998085" lon="152.7253673">
<ele>91.161</ele>
<time>2016-05-21T03:36:21.049Z</time>
</trkpt>
<trkpt lat="-26.5995951" lon="152.7255322">
<ele>91.133</ele>
<time>2016-05-21T03:36:23.162Z</time>
</trkpt>
<trkpt lat="-26.5992996" lon="152.7257659">
<ele>91.473</ele>
<time>2016-05-21T03:36:26.166Z</time>
</trkpt>
<trkpt lat="-26.5990939" lon="152.7259132">
<ele>91.857</ele>
<time>2016-05-21T03:36:28.242Z</time>
</trkpt>
<trkpt lat="-26.5988893" lon="152.7260446">
<ele>92.166</ele>
<time>2016-05-21T03:36:30.241Z</time>
</trkpt>
<trkpt lat="-26.5985799" lon="152.7262217">
<ele>92.352</ele>
<time>2016-05-21T03:36:33.123Z</time>
</trkpt>
<trkpt lat="-26.5983598" lon="152.7263518">
<ele>92.328</ele>
<time>2016-05-21T03:36:35.088Z</time>
</trkpt>
<trkpt lat="-26.5981371" lon="152.7264766">
<ele>92.104</ele>
<time>2016-05-21T03:36:37.008Z</time>
</trkpt>
<trkpt lat="-26.5977851" lon="152.7266969">
<ele>91.855</ele>
<time>2016-05-21T03:36:40.106Z</time>
</trkpt>
<trkpt lat="-26.5975477" lon="152.7268454">
<ele>91.730</ele>
<time>2016-05-21T03:36:42.291Z</time>
</trkpt>
<trkpt lat="-26.5972135" lon="152.7270411">
<ele>91.686</ele>
<time>2016-05-21T03:36:45.509Z</time>
</trkpt>
<trkpt lat="-26.5969199" lon="152.7271930">
<ele>91.583</ele>
<time>2016-05-21T03:36:48.615Z</time>
</trkpt>
<trkpt lat="-26.5967112" lon="152.7272384">
<ele>91.365</ele>
<time>2016-05-21T03:36:50.807Z</time>
</trkpt>
<trkpt lat="-26.5964159" lon="152.7272954">
<ele>91.162</ele>
<time>2016-05-21T03:36:53.847Z</time>
</trkpt>
<trkpt lat="-26.5962461" lon="152.7272992">
<ele>91.261</ele>
<time>2016-05-21T03:36:55.508Z</time>
</trkpt>
<trkpt lat="-26.5959309" lon="152.7273515">
<ele>91.842</ele>
<time>2016-05-21T03:36:58.717Z</time>
</trkpt>
<trkpt lat="-26.5957213" lon="152.7273783">
<ele>93.035</ele>
<time>2016-05-21T03:37:00.853Z</time>
</trkpt>
<trkpt lat="-26.5955232" lon="152.7274059">
<ele>94.791</ele>
<time>2016-05-21T03:37:02.826Z</time>
</trkpt>
<trkpt lat="-26.5953337" lon="152.7274422">
<ele>96.617</ele>
<time>2016-05-21T03:37:04.609Z</time>
</trkpt>
<trkpt lat="-26.5950236" lon="152.7274772">
<ele>98.021</ele>
<time>2016-05-21T03:37:07.408Z</time>
</trkpt>
<trkpt lat="-26.5946947" lon="152.7275375">
<ele>99.023</ele>
<time>2016-05-21T03:37:10.266Z</time>
</trkpt>
<trkpt lat="-26.5943468" lon="152.7275854">
<ele>99.694</ele>
<time>2016-05-21T03:37:13.160Z</time>
</trkpt>
<trkpt lat="-26.5939913" lon="152.7276668">
<ele>99.812</ele>
<time>2016-05-21T03:37:16.112Z</time>
</trkpt>
<trkpt lat="-26.5937671" lon="152.7276931">
<ele>98.972</ele>
<time>2016-05-21T03:37:17.938Z</time>
</trkpt>
<trkpt lat="-26.5935299" lon="152.7277452">
<ele>97.283</ele>
<time>2016-05-21T03:37:19.752Z</time>
</trkpt>
<trkpt lat="-26.5932780" lon="152.7277949">
<ele>95.461</ele>
<time>2016-05-21T03:37:21.607Z</time>
</trkpt>
<trkpt lat="-26.5928455" lon="152.7278794">
<ele>94.130</ele>
<time>2016-05-21T03:37:24.588Z</time>
</trkpt>
<trkpt lat="-26.5925417" lon="152.7279540">
<ele>93.499</ele>
<time>2016-05-21T03:37:26.704Z</time>
</trkpt>
<trkpt lat="-26.5922587" lon="152.7280130">
<ele>93.509</ele>
<time>2016-05-21T03:37:28.659Z</time>
</trkpt>
<trkpt lat="-26.5919649" lon="152.7280633">
<ele>93.997</ele>
<time>2016-05-21T03:37:30.686Z</time>
</trkpt>
<trkpt lat="-26.5916619" lon="152.7281073">
<ele>95.038</ele>
<time>2016-05-21T03:37:32.798Z</time>
</trkpt>
<trkpt lat="-26.5912403" lon="152.7281845">
<ele>96.471</ele>
<time>2016-05-21T03:37:35.892Z</time>
</trkpt>
<trkpt lat="-26.5908292" lon="152.7282582">
<ele>97.608</ele>
<time>2016-05-21T03:37:39.280Z</time>
</trkpt>
<trkpt lat="-26.5904516" lon="152.7283106">
<ele>97.844</ele>
<time>2016-05-21T03:37:42.898Z</time>
</trkpt>
<trkpt lat="-26.5901384" lon="152.7283938">
<ele>97.187</ele>
<time>2016-05-21T03:37:46.106Z</time>
</trkpt>
<trkpt lat="-26.5899702" lon="152.7286302">
<ele>96.180</ele>
<time>2016-05-21T03:37:48.494Z</time>
</trkpt>
<trkpt lat="-26.5899824" lon="152.7289927">
<ele>95.474</ele>
<time>2016-05-21T03:37:51.053Z</time>
</trkpt>
<trkpt lat="-26.5900297" lon="152.7294267">
<ele>95.357</ele>
<time>2016-05-21T03:37:53.849Z</time>
</trkpt>
<trkpt lat="-26.5900258" lon="152.7299126">
<ele>95.729</ele>
<time>2016-05-21T03:37:56.727Z</time>
</trkpt>
<trkpt lat="-26.5899706" lon="152.7302486">
<ele>96.211</ele>
<time>2016-05-21T03:37:58.670Z</time>
</trkpt>
<trkpt lat="-26.5897905" lon="152.7307225">
<ele>96.265</ele>
<time>2016-05-21T03:38:01.300Z</time>
</trkpt>
<trkpt lat="-26.5896117" lon="152.7310885">
<ele>95.748</ele>
<time>2016-05-21T03:38:03.167Z</time>
</trkpt>
<trkpt lat="-26.5893269" lon="152.7314220">
<ele>95.328</ele>
<time>2016-05-21T03:38:05.139Z</time>
</trkpt>
<trkpt lat="-26.5890172" lon="152.7317641">
<ele>95.812</ele>
<time>2016-05-21T03:38:07.136Z</time>
</trkpt>
<trkpt lat="-26.5884380" lon="152.7324867">
<ele>96.984</ele>
<time>2016-05-21T03:38:11.329Z</time>
</trkpt>
<trkpt lat="-26.5882531" lon="152.7328720">
<ele>97.953</ele>
<time>2016-05-21T03:38:13.318Z</time>
</trkpt>
<trkpt lat="-26.5880952" lon="152.7334879">
<ele>98.212</ele>
<time>2016-05-21T03:38:16.260Z</time>
</trkpt>
<trkpt lat="-26.5880025" lon="152.7339110">
<ele>97.949</ele>
<time>2016-05-21T03:38:18.233Z</time>
</trkpt>
<trkpt lat="-26.5879126" lon="152.7343322">
<ele>97.629</ele>
<time>2016-05-21T03:38:20.179Z</time>
</trkpt>
<trkpt lat="-26.5877736" lon="152.7350033">
<ele>97.554</ele>
<time>2016-05-21T03:38:23.278Z</time>
</trkpt>
<trkpt lat="-26.5876778" lon="152.7354303">
<ele>97.648</ele>
<time>2016-05-21T03:38:25.324Z</time>
</trkpt>
<trkpt lat="-26.5875388" lon="152.7360354">
<ele>97.680</ele>
<time>2016-05-21T03:38:28.461Z</time>
</trkpt>
<trkpt lat="-26.5874484" lon="152.7364037">
<ele>97.317</ele>
<time>2016-05-21T03:38:30.404Z</time>
</trkpt>
<trkpt lat="-26.5873046" lon="152.7369575">
<ele>96.164</ele>
<time>2016-05-21T03:38:33.227Z</time>
</trkpt>
<trkpt lat="-26.5870983" lon="152.7375475">
<ele>94.497</ele>
<time>2016-05-21T03:38:36.127Z</time>
</trkpt>
<trkpt lat="-26.5868031" lon="152.7381351">
<ele>93.433</ele>
<time>2016-05-21T03:38:39.096Z</time>
</trkpt>
<trkpt lat="-26.5865612" lon="152.7384770">
<ele>93.483</ele>
<time>2016-05-21T03:38:40.970Z</time>
</trkpt>
<trkpt lat="-26.5860628" lon="152.7389350">
<ele>94.048</ele>
<time>2016-05-21T03:38:43.745Z</time>
</trkpt>
<trkpt lat="-26.5856718" lon="152.7392761">
<ele>95.325</ele>
<time>2016-05-21T03:38:45.765Z</time>
</trkpt>
<trkpt lat="-26.5851408" lon="152.7398468">
<ele>98.158</ele>
<time>2016-05-21T03:38:48.636Z</time>
</trkpt>
<trkpt lat="-26.5846718" lon="152.7405546">
<ele>102.107</ele>
<time>2016-05-21T03:38:51.584Z</time>
</trkpt>
<trkpt lat="-26.5843489" lon="152.7410482">
<ele>106.052</ele>
<time>2016-05-21T03:38:53.577Z</time>
</trkpt>
<trkpt lat="-26.5841900" lon="152.7413156">
<ele>109.195</ele>
<time>2016-05-21T03:38:54.609Z</time>
</trkpt>
<trkpt lat="-26.5835510" lon="152.7423426">
<ele>111.062</ele>
<time>2016-05-21T03:38:58.583Z</time>
</trkpt>
<trkpt lat="-26.5832781" lon="152.7428835">
<ele>111.867</ele>
<time>2016-05-21T03:39:00.526Z</time>
</trkpt>
<trkpt lat="-26.5830145" lon="152.7437777">
<ele>111.899</ele>
<time>2016-05-21T03:39:03.473Z</time>
</trkpt>
<trkpt lat="-26.5828050" lon="152.7446932">
<ele>111.088</ele>
<time>2016-05-21T03:39:06.537Z</time>
</trkpt>
<trkpt lat="-26.5824741" lon="152.7455150">
<ele>108.211</ele>
<time>2016-05-21T03:39:09.582Z</time>
</trkpt>
<trkpt lat="-26.5822026" lon="152.7460074">
<ele>103.058</ele>
<time>2016-05-21T03:39:11.543Z</time>
</trkpt>
<trkpt lat="-26.5818789" lon="152.7464624">
<ele>98.513</ele>
<time>2016-05-21T03:39:13.456Z</time>
</trkpt>
<trkpt lat="-26.5813016" lon="152.7471690">
<ele>97.188</ele>
<time>2016-05-21T03:39:16.575Z</time>
</trkpt>
<trkpt lat="-26.5807708" lon="152.7478115">
<ele>98.883</ele>
<time>2016-05-21T03:39:19.639Z</time>
</trkpt>
<trkpt lat="-26.5804154" lon="152.7481785">
<ele>102.774</ele>
<time>2016-05-21T03:39:21.638Z</time>
</trkpt>
<trkpt lat="-26.5800349" lon="152.7484987">
<ele>107.643</ele>
<time>2016-05-21T03:39:23.618Z</time>
</trkpt>
<trkpt lat="-26.5793956" lon="152.7487707">
<ele>111.740</ele>
<time>2016-05-21T03:39:26.417Z</time>
</trkpt>
<trkpt lat="-26.5786511" lon="152.7488816">
<ele>114.695</ele>
<time>2016-05-21T03:39:29.406Z</time>
</trkpt>
<trkpt lat="-26.5778785" lon="152.7487036">
<ele>117.719</ele>
<time>2016-05-21T03:39:32.444Z</time>
</trkpt>
<trkpt lat="-26.5774073" lon="152.7484567">
<ele>120.779</ele>
<time>2016-05-21T03:39:34.384Z</time>
</trkpt>
<trkpt lat="-26.5768827" lon="152.7482232">
<ele>122.224</ele>
<time>2016-05-21T03:39:36.501Z</time>
</trkpt>
<trkpt lat="-26.5763929" lon="152.7479382">
<ele>121.473</ele>
<time>2016-05-21T03:39:38.617Z</time>
</trkpt>
<trkpt lat="-26.5757027" lon="152.7476155">
<ele>119.061</ele>
<time>2016-05-21T03:39:41.565Z</time>
</trkpt>
<trkpt lat="-26.5752123" lon="152.7474566">
<ele>115.249</ele>
<time>2016-05-21T03:39:43.657Z</time>
</trkpt>
<trkpt lat="-26.5745575" lon="152.7474288">
<ele>110.934</ele>
<time>2016-05-21T03:39:46.280Z</time>
</trkpt>
<trkpt lat="-26.5738949" lon="152.7476352">
<ele>107.583</ele>
<time>2016-05-21T03:39:48.721Z</time>
</trkpt>
<trkpt lat="-26.5733174" lon="152.7478222">
<ele>105.382</ele>
<time>2016-05-21T03:39:50.703Z</time>
</trkpt>
<trkpt lat="-26.5724119" lon="152.7482874">
<ele>103.697</ele>
<time>2016-05-21T03:39:53.710Z</time>
</trkpt>
<trkpt lat="-26.5717035" lon="152.7486706">
<ele>101.891</ele>
<time>2016-05-21T03:39:56.004Z</time>
</trkpt>
<trkpt lat="-26.5707442" lon="152.7490989">
<ele>99.506</ele>
<time>2016-05-21T03:39:59.188Z</time>
</trkpt>
<trkpt lat="-26.5701694" lon="152.7493493">
<ele>96.255</ele>
<time>2016-05-21T03:40:01.382Z</time>
</trkpt>
<trkpt lat="-26.5697105" lon="152.7496060">
<ele>92.679</ele>
<time>2016-05-21T03:40:03.456Z</time>
</trkpt>
<trkpt lat="-26.5693524" lon="152.7498591">
<ele>90.157</ele>
<time>2016-05-21T03:40:05.227Z</time>
</trkpt>
<trkpt lat="-26.5689118" lon="152.7505099">
<ele>89.014</ele>
<time>2016-05-21T03:40:08.277Z</time>
</trkpt>
<trkpt lat="-26.5687154" lon="152.7509608">
<ele>88.049</ele>
<time>2016-05-21T03:40:10.018Z</time>
</trkpt>
<trkpt lat="-26.5686015" lon="152.7515258">
<ele>86.694</ele>
<time>2016-05-21T03:40:11.860Z</time>
</trkpt>
<trkpt lat="-26.5685228" lon="152.7521993">
<ele>85.522</ele>
<time>2016-05-21T03:40:13.901Z</time>
</trkpt>
<trkpt lat="-26.5685862" lon="152.7532665">
<ele>85.029</ele>
<time>2016-05-21T03:40:17.010Z</time>
</trkpt>
<trkpt lat="-26.5685802" lon="152.7539626">
<ele>85.431</ele>
<time>2016-05-21T03:40:19.061Z</time>
</trkpt>
<trkpt lat="-26.5685688" lon="152.7549386">
<ele>86.798</ele>
<time>2016-05-21T03:40:21.910Z</time>
</trkpt>
<trkpt lat="-26.5685715" lon="152.7556128">
<ele>88.520</ele>
<time>2016-05-21T03:40:23.815Z</time>
</trkpt>
<trkpt lat="-26.5684919" lon="152.7567893">
<ele>89.804</ele>
<time>2016-05-21T03:40:27.032Z</time>
</trkpt>
<trkpt lat="-26.5684166" lon="152.7578807">
<ele>90.487</ele>
<time>2016-05-21T03:40:30.010Z</time>
</trkpt>
<trkpt lat="-26.5683354" lon="152.7589963">
<ele>90.146</ele>
<time>2016-05-21T03:40:33.117Z</time>
</trkpt>
<trkpt lat="-26.5682850" lon="152.7600278">
<ele>88.208</ele>
<time>2016-05-21T03:40:36.069Z</time>
</trkpt>
<trkpt lat="-26.5682329" lon="152.7607325">
<ele>85.488</ele>
<time>2016-05-21T03:40:38.148Z</time>
</trkpt>
<trkpt lat="-26.5681616" lon="152.7614226">
<ele>83.526</ele>
<time>2016-05-21T03:40:40.342Z</time>
</trkpt>
<trkpt lat="-26.5681154" lon="152.7620595">
<ele>82.624</ele>
<time>2016-05-21T03:40:42.463Z</time>
</trkpt>
<trkpt lat="-26.5680451" lon="152.7629068">
<ele>82.144</ele>
<time>2016-05-21T03:40:45.427Z</time>
</trkpt>
<trkpt lat="-26.5679439" lon="152.7634672">
<ele>81.666</ele>
<time>2016-05-21T03:40:47.406Z</time>
</trkpt>
<trkpt lat="-26.5676110" lon="152.7642550">
<ele>81.141</ele>
<time>2016-05-21T03:40:50.360Z</time>
</trkpt>
<trkpt lat="-26.5670878" lon="152.7649261">
<ele>80.749</ele>
<time>2016-05-21T03:40:53.236Z</time>
</trkpt>
<trkpt lat="-26.5664048" lon="152.7655380">
<ele>80.626</ele>
<time>2016-05-21T03:40:56.344Z</time>
</trkpt>
<trkpt lat="-26.5657296" lon="152.7660761">
<ele>80.759</ele>
<time>2016-05-21T03:40:59.286Z</time>
</trkpt>
<trkpt lat="-26.5649665" lon="152.7665379">
<ele>81.064</ele>
<time>2016-05-21T03:41:02.153Z</time>
</trkpt>
<trkpt lat="-26.5643998" lon="152.7667902">
<ele>81.560</ele>
<time>2016-05-21T03:41:04.111Z</time>
</trkpt>
<trkpt lat="-26.5635149" lon="152.7671354">
<ele>82.278</ele>
<time>2016-05-21T03:41:07.200Z</time>
</trkpt>
<trkpt lat="-26.5629586" lon="152.7673420">
<ele>82.952</ele>
<time>2016-05-21T03:41:09.205Z</time>
</trkpt>
<trkpt lat="-26.5624227" lon="152.7675736">
<ele>83.284</ele>
<time>2016-05-21T03:41:11.177Z</time>
</trkpt>
<trkpt lat="-26.5616749" lon="152.7680277">
<ele>83.445</ele>
<time>2016-05-21T03:41:13.971Z</time>
</trkpt>
<trkpt lat="-26.5611970" lon="152.7684436">
<ele>84.514</ele>
<time>2016-05-21T03:41:15.806Z</time>
</trkpt>
<trkpt lat="-26.5606934" lon="152.7689626">
<ele>87.621</ele>
<time>2016-05-21T03:41:17.781Z</time>
</trkpt>
<trkpt lat="-26.5598868" lon="152.7697682">
<ele>92.439</ele>
<time>2016-05-21T03:41:20.694Z</time>
</trkpt>
<trkpt lat="-26.5593277" lon="152.7703362">
<ele>98.257</ele>
<time>2016-05-21T03:41:22.663Z</time>
</trkpt>
<trkpt lat="-26.5584803" lon="152.7712430">
<ele>104.067</ele>
<time>2016-05-21T03:41:25.698Z</time>
</trkpt>
<trkpt lat="-26.5576317" lon="152.7721380">
<ele>105.527</ele>
<time>2016-05-21T03:41:28.846Z</time>
</trkpt>
<trkpt lat="-26.5568200" lon="152.7729457">
<ele>100.532</ele>
<time>2016-05-21T03:41:32.001Z</time>
</trkpt>
<trkpt lat="-26.5560814" lon="152.7736818">
<ele>94.619</ele>
<time>2016-05-21T03:41:35.007Z</time>
</trkpt>
<trkpt lat="-26.5553119" lon="152.7743643">
<ele>93.624</ele>
<time>2016-05-21T03:41:38.054Z</time>
</trkpt>
<trkpt lat="-26.5545126" lon="152.7749201">
<ele>96.786</ele>
<time>2016-05-21T03:41:41.065Z</time>
</trkpt>
<trkpt lat="-26.5539774" lon="152.7752862">
<ele>100.376</ele>
<time>2016-05-21T03:41:43.164Z</time>
</trkpt>
<trkpt lat="-26.5534730" lon="152.7756282">
<ele>102.022</ele>
<time>2016-05-21T03:41:45.183Z</time>
</trkpt>
<trkpt lat="-26.5527194" lon="152.7760534">
<ele>101.623</ele>
<time>2016-05-21T03:41:48.154Z</time>
</trkpt>
<trkpt lat="-26.5518993" lon="152.7762017">
<ele>100.024</ele>
<time>2016-05-21T03:41:51.088Z</time>
</trkpt>
<trkpt lat="-26.5510264" lon="152.7761001">
<ele>97.648</ele>
<time>2016-05-21T03:41:54.098Z</time>
</trkpt>
<trkpt lat="-26.5501620" lon="152.7758139">
<ele>94.852</ele>
<time>2016-05-21T03:41:57.194Z</time>
</trkpt>
<trkpt lat="-26.5496191" lon="152.7756614">
<ele>92.749</ele>
<time>2016-05-21T03:41:59.134Z</time>
</trkpt>
<trkpt lat="-26.5487616" lon="152.7755646">
<ele>91.686</ele>
<time>2016-05-21T03:42:01.993Z</time>
</trkpt>
<trkpt lat="-26.5481292" lon="152.7756417">
<ele>90.969</ele>
<time>2016-05-21T03:42:03.988Z</time>
</trkpt>
<trkpt lat="-26.5474856" lon="152.7757310">
<ele>90.981</ele>
<time>2016-05-21T03:42:05.989Z</time>
</trkpt>
<trkpt lat="-26.5465343" lon="152.7758699">
<ele>92.507</ele>
<time>2016-05-21T03:42:08.981Z</time>
</trkpt>
<trkpt lat="-26.5455875" lon="152.7759419">
<ele>94.884</ele>
<time>2016-05-21T03:42:11.840Z</time>
</trkpt>
<trkpt lat="-26.5445462" lon="152.7759422">
<ele>96.726</ele>
<time>2016-05-21T03:42:14.807Z</time>
</trkpt>
<trkpt lat="-26.5438276" lon="152.7759294">
<ele>98.051</ele>
<time>2016-05-21T03:42:16.761Z</time>
</trkpt>
<trkpt lat="-26.5426901" lon="152.7759103">
<ele>99.704</ele>
<time>2016-05-21T03:42:19.759Z</time>
</trkpt>
<trkpt lat="-26.5419193" lon="152.7759336">
<ele>102.256</ele>
<time>2016-05-21T03:42:21.765Z</time>
</trkpt>
<trkpt lat="-26.5407212" lon="152.7759232">
<ele>105.894</ele>
<time>2016-05-21T03:42:25.004Z</time>
</trkpt>
<trkpt lat="-26.5400028" lon="152.7759125">
<ele>109.668</ele>
<time>2016-05-21T03:42:27.104Z</time>
</trkpt>
<trkpt lat="-26.5396497" lon="152.7759037">
<ele>111.638</ele>
<time>2016-05-21T03:42:28.172Z</time>
</trkpt>
<trkpt lat="-26.5383605" lon="152.7758941">
<ele>111.227</ele>
<time>2016-05-21T03:42:32.309Z</time>
</trkpt>
<trkpt lat="-26.5377843" lon="152.7759453">
<ele>109.868</ele>
<time>2016-05-21T03:42:34.227Z</time>
</trkpt>
<trkpt lat="-26.5369244" lon="152.7761563">
<ele>109.335</ele>
<time>2016-05-21T03:42:37.124Z</time>
</trkpt>
<trkpt lat="-26.5363507" lon="152.7763889">
<ele>110.593</ele>
<time>2016-05-21T03:42:39.117Z</time>
</trkpt>
<trkpt lat="-26.5357945" lon="152.7767184">
<ele>113.966</ele>
<time>2016-05-21T03:42:41.215Z</time>
</trkpt>
<trkpt lat="-26.5352599" lon="152.7770682">
<ele>118.916</ele>
<time>2016-05-21T03:42:43.363Z</time>
</trkpt>
<trkpt lat="-26.5347741" lon="152.7774335">
<ele>123.857</ele>
<time>2016-05-21T03:42:45.451Z</time>
</trkpt>
<trkpt lat="-26.5345450" lon="152.7776293">
<ele>127.181</ele>
<time>2016-05-21T03:42:46.487Z</time>
</trkpt>
<trkpt lat="-26.5337425" lon="152.7784775">
<ele>128.479</ele>
<time>2016-05-21T03:42:50.282Z</time>
</trkpt>
<trkpt lat="-26.5333804" lon="152.7790681">
<ele>129.291</ele>
<time>2016-05-21T03:42:52.447Z</time>
</trkpt>
<trkpt lat="-26.5330840" lon="152.7796421">
<ele>131.191</ele>
<time>2016-05-21T03:42:54.489Z</time>
</trkpt>
<trkpt lat="-26.5326410" lon="152.7804762">
<ele>133.552</ele>
<time>2016-05-21T03:42:57.636Z</time>
</trkpt>
<trkpt lat="-26.5321480" lon="152.7811746">
<ele>133.761</ele>
<time>2016-05-21T03:43:00.658Z</time>
</trkpt>
<trkpt lat="-26.5317534" lon="152.7815320">
<ele>130.092</ele>
<time>2016-05-21T03:43:02.569Z</time>
</trkpt>
<trkpt lat="-26.5310381" lon="152.7818486">
<ele>123.743</ele>
<time>2016-05-21T03:43:05.305Z</time>
</trkpt>
<trkpt lat="-26.5304884" lon="152.7820184">
<ele>117.886</ele>
<time>2016-05-21T03:43:07.213Z</time>
</trkpt>
<trkpt lat="-26.5298847" lon="152.7821898">
<ele>115.664</ele>
<time>2016-05-21T03:43:09.262Z</time>
</trkpt>
<trkpt lat="-26.5292803" lon="152.7823852">
<ele>117.609</ele>
<time>2016-05-21T03:43:11.330Z</time>
</trkpt>
<trkpt lat="-26.5284549" lon="152.7827468">
<ele>120.226</ele>
<time>2016-05-21T03:43:14.196Z</time>
</trkpt>
<trkpt lat="-26.5279014" lon="152.7831010">
<ele>120.224</ele>
<time>2016-05-21T03:43:16.221Z</time>
</trkpt>
<trkpt lat="-26.5270751" lon="152.7836196">
<ele>118.134</ele>
<time>2016-05-21T03:43:19.183Z</time>
</trkpt>
<trkpt lat="-26.5265131" lon="152.7839479">
<ele>117.202</ele>
<time>2016-05-21T03:43:21.167Z</time>
</trkpt>
<trkpt lat="-26.5256825" lon="152.7844673">
<ele>119.095</ele>
<time>2016-05-21T03:43:24.171Z</time>
</trkpt>
<trkpt lat="-26.5248835" lon="152.7850114">
<ele>121.506</ele>
<time>2016-05-21T03:43:27.068Z</time>
</trkpt>
<trkpt lat="-26.5240609" lon="152.7856363">
<ele>122.119</ele>
<time>2016-05-21T03:43:29.983Z</time>
</trkpt>
<trkpt lat="-26.5234880" lon="152.7861089">
<ele>121.532</ele>
<time>2016-05-21T03:43:32.037Z</time>
</trkpt>
<trkpt lat="-26.5229237" lon="152.7865822">
<ele>120.658</ele>
<time>2016-05-21T03:43:34.113Z</time>
</trkpt>
<trkpt lat="-26.5223994" lon="152.7870563">
<ele>118.844</ele>
<time>2016-05-21T03:43:36.140Z</time>
</trkpt>
<trkpt lat="-26.5215750" lon="152.7876913">
<ele>115.716</ele>
<time>2016-05-21T03:43:39.355Z</time>
</trkpt>
<trkpt lat="-26.5207780" lon="152.7882089">
<ele>111.755</ele>
<time>2016-05-21T03:43:42.457Z</time>
</trkpt>
<trkpt lat="-26.5202483" lon="152.7884022">
<ele>106.351</ele>
<time>2016-05-21T03:43:44.320Z</time>
</trkpt>
<trkpt lat="-26.5193447" lon="152.7884954">
<ele>99.815</ele>
<time>2016-05-21T03:43:47.266Z</time>
</trkpt>
<trkpt lat="-26.5187459" lon="152.7885281">
<ele>94.896</ele>
<time>2016-05-21T03:43:49.195Z</time>
</trkpt>
<trkpt lat="-26.5181196" lon="152.7886005">
<ele>92.976</ele>
<time>2016-05-21T03:43:51.232Z</time>
</trkpt>
<trkpt lat="-26.5172073" lon="152.7888676">
<ele>92.601</ele>
<time>2016-05-21T03:43:54.408Z</time>
</trkpt>
<trkpt lat="-26.5165015" lon="152.7893517">
<ele>91.832</ele>
<time>2016-05-21T03:43:57.225Z</time>
</trkpt>
<trkpt lat="-26.5158137" lon="152.7899968">
<ele>90.248</ele>
<time>2016-05-21T03:44:00.195Z</time>
</trkpt>
<trkpt lat="-26.5154005" lon="152.7904848">
<ele>89.631</ele>
<time>2016-05-21T03:44:02.183Z</time>
</trkpt>
<trkpt lat="-26.5149721" lon="152.7909795">
<ele>91.059</ele>
<time>2016-05-21T03:44:04.225Z</time>
</trkpt>
<trkpt lat="-26.5144357" lon="152.7917171">
<ele>93.067</ele>
<time>2016-05-21T03:44:07.043Z</time>
</trkpt>
<trkpt lat="-26.5141221" lon="152.7923259">
<ele>93.532</ele>
<time>2016-05-21T03:44:09.108Z</time>
</trkpt>
<trkpt lat="-26.5138033" lon="152.7932158">
<ele>92.173</ele>
<time>2016-05-21T03:44:11.870Z</time>
</trkpt>
<trkpt lat="-26.5135232" lon="152.7942746">
<ele>90.440</ele>
<time>2016-05-21T03:44:14.962Z</time>
</trkpt>
<trkpt lat="-26.5134427" lon="152.7949834">
<ele>90.630</ele>
<time>2016-05-21T03:44:16.941Z</time>
</trkpt>
<trkpt lat="-26.5134533" lon="152.7956834">
<ele>93.261</ele>
<time>2016-05-21T03:44:18.884Z</time>
</trkpt>
<trkpt lat="-26.5135178" lon="152.7963876">
<ele>96.151</ele>
<time>2016-05-21T03:44:20.854Z</time>
</trkpt>
<trkpt lat="-26.5135916" lon="152.7974704">
<ele>97.390</ele>
<time>2016-05-21T03:44:23.983Z</time>
</trkpt>
<trkpt lat="-26.5136279" lon="152.7981334">
<ele>97.399</ele>
<time>2016-05-21T03:44:25.974Z</time>
</trkpt>
<trkpt lat="-26.5136281" lon="152.7987864">
<ele>96.320</ele>
<time>2016-05-21T03:44:27.966Z</time>
</trkpt>
<trkpt lat="-26.5135152" lon="152.7994209">
<ele>93.671</ele>
<time>2016-05-21T03:44:29.928Z</time>
</trkpt>
<trkpt lat="-26.5133237" lon="152.8000796">
<ele>90.326</ele>
<time>2016-05-21T03:44:32.007Z</time>
</trkpt>
<trkpt lat="-26.5130938" lon="152.8007387">
<ele>88.002</ele>
<time>2016-05-21T03:44:34.119Z</time>
</trkpt>
<trkpt lat="-26.5128699" lon="152.8013528">
<ele>87.162</ele>
<time>2016-05-21T03:44:36.086Z</time>
</trkpt>
<trkpt lat="-26.5126556" lon="152.8023321">
<ele>86.883</ele>
<time>2016-05-21T03:44:38.943Z</time>
</trkpt>
<trkpt lat="-26.5125793" lon="152.8030347">
<ele>86.342</ele>
<time>2016-05-21T03:44:40.929Z</time>
</trkpt>
<trkpt lat="-26.5125932" lon="152.8040695">
<ele>86.676</ele>
<time>2016-05-21T03:44:43.904Z</time>
</trkpt>
<trkpt lat="-26.5125960" lon="152.8050741">
<ele>88.970</ele>
<time>2016-05-21T03:44:46.915Z</time>
</trkpt>
<trkpt lat="-26.5126117" lon="152.8060417">
<ele>91.735</ele>
<time>2016-05-21T03:44:50.028Z</time>
</trkpt>
<trkpt lat="-26.5125855" lon="152.8066744">
<ele>92.944</ele>
<time>2016-05-21T03:44:52.161Z</time>
</trkpt>
<trkpt lat="-26.5125029" lon="152.8075223">
<ele>92.400</ele>
<time>2016-05-21T03:44:55.044Z</time>
</trkpt>
<trkpt lat="-26.5121956" lon="152.8081305">
<ele>90.448</ele>
<time>2016-05-21T03:44:57.346Z</time>
</trkpt>
<trkpt lat="-26.5119523" lon="152.8086490">
<ele>87.519</ele>
<time>2016-05-21T03:44:59.268Z</time>
</trkpt>
<trkpt lat="-26.5116108" lon="152.8094911">
<ele>84.383</ele>
<time>2016-05-21T03:45:02.242Z</time>
</trkpt>
<trkpt lat="-26.5114612" lon="152.8100741">
<ele>81.326</ele>
<time>2016-05-21T03:45:04.096Z</time>
</trkpt>
<trkpt lat="-26.5113471" lon="152.8107702">
<ele>78.440</ele>
<time>2016-05-21T03:45:06.209Z</time>
</trkpt>
<trkpt lat="-26.5115402" lon="152.8117003">
<ele>76.827</ele>
<time>2016-05-21T03:45:08.971Z</time>
</trkpt>
<trkpt lat="-26.5116701" lon="152.8123701">
<ele>76.937</ele>
<time>2016-05-21T03:45:10.944Z</time>
</trkpt>
<trkpt lat="-26.5117731" lon="152.8130561">
<ele>77.717</ele>
<time>2016-05-21T03:45:12.946Z</time>
</trkpt>
<trkpt lat="-26.5119353" lon="152.8140768">
<ele>78.212</ele>
<time>2016-05-21T03:45:15.992Z</time>
</trkpt>
<trkpt lat="-26.5120194" lon="152.8147247">
<ele>79.400</ele>
<time>2016-05-21T03:45:17.970Z</time>
</trkpt>
<trkpt lat="-26.5121134" lon="152.8153774">
<ele>82.134</ele>
<time>2016-05-21T03:45:19.991Z</time>
</trkpt>
<trkpt lat="-26.5121779" lon="152.8160295">
<ele>84.922</ele>
<time>2016-05-21T03:45:21.999Z</time>
</trkpt>
<trkpt lat="-26.5121412" lon="152.8169886">
<ele>86.051</ele>
<time>2016-05-21T03:45:24.790Z</time>
</trkpt>
<trkpt lat="-26.5118930" lon="152.8181280">
<ele>86.073</ele>
<time>2016-05-21T03:45:27.972Z</time>
</trkpt>
<trkpt lat="-26.5117669" lon="152.8188465">
<ele>86.437</ele>
<time>2016-05-21T03:45:29.946Z</time>
</trkpt>
<trkpt lat="-26.5114947" lon="152.8198718">
<ele>88.367</ele>
<time>2016-05-21T03:45:33.086Z</time>
</trkpt>
<trkpt lat="-26.5113793" lon="152.8204905">
<ele>91.549</ele>
<time>2016-05-21T03:45:35.025Z</time>
</trkpt>
<trkpt lat="-26.5112904" lon="152.8214402">
<ele>94.094</ele>
<time>2016-05-21T03:45:38.046Z</time>
</trkpt>
<trkpt lat="-26.5113348" lon="152.8220593">
<ele>94.842</ele>
<time>2016-05-21T03:45:39.935Z</time>
</trkpt>
<trkpt lat="-26.5114176" lon="152.8227009">
<ele>95.194</ele>
<time>2016-05-21T03:45:41.844Z</time>
</trkpt>
<trkpt lat="-26.5116364" lon="152.8237498">
<ele>96.650</ele>
<time>2016-05-21T03:45:44.853Z</time>
</trkpt>
<trkpt lat="-26.5117763" lon="152.8244603">
<ele>99.825</ele>
<time>2016-05-21T03:45:46.890Z</time>
</trkpt>
<trkpt lat="-26.5119752" lon="152.8254797">
<ele>104.162</ele>
<time>2016-05-21T03:45:49.883Z</time>
</trkpt>
<trkpt lat="-26.5122197" lon="152.8264977">
<ele>106.353</ele>
<time>2016-05-21T03:45:53.094Z</time>
</trkpt>
<trkpt lat="-26.5123488" lon="152.8271372">
<ele>103.878</ele>
<time>2016-05-21T03:45:55.213Z</time>
</trkpt>
<trkpt lat="-26.5125325" lon="152.8279893">
<ele>99.044</ele>
<time>2016-05-21T03:45:58.156Z</time>
</trkpt>
<trkpt lat="-26.5126587" lon="152.8285578">
<ele>94.722</ele>
<time>2016-05-21T03:46:00.098Z</time>
</trkpt>
<trkpt lat="-26.5128645" lon="152.8294453">
<ele>91.656</ele>
<time>2016-05-21T03:46:03.218Z</time>
</trkpt>
<trkpt lat="-26.5130532" lon="152.8299638">
<ele>89.880</ele>
<time>2016-05-21T03:46:05.207Z</time>
</trkpt>
<trkpt lat="-26.5130333" lon="152.8307628">
<ele>88.925</ele>
<time>2016-05-21T03:46:08.051Z</time>
</trkpt>
<trkpt lat="-26.5128981" lon="152.8313918">
<ele>87.787</ele>
<time>2016-05-21T03:46:10.233Z</time>
</trkpt>
<trkpt lat="-26.5124870" lon="152.8323318">
<ele>86.164</ele>
<time>2016-05-21T03:46:13.473Z</time>
</trkpt>
<trkpt lat="-26.5120753" lon="152.8332649">
<ele>86.128</ele>
<time>2016-05-21T03:46:16.715Z</time>
</trkpt>
<trkpt lat="-26.5117149" lon="152.8340740">
<ele>89.075</ele>
<time>2016-05-21T03:46:19.728Z</time>
</trkpt>
<trkpt lat="-26.5115004" lon="152.8346101">
<ele>92.443</ele>
<time>2016-05-21T03:46:21.747Z</time>
</trkpt>
<trkpt lat="-26.5112625" lon="152.8353821">
<ele>93.741</ele>
<time>2016-05-21T03:46:24.645Z</time>
</trkpt>
<trkpt lat="-26.5111236" lon="152.8359313">
<ele>93.818</ele>
<time>2016-05-21T03:46:26.691Z</time>
</trkpt>
<trkpt lat="-26.5110247" lon="152.8367426">
<ele>94.010</ele>
<time>2016-05-21T03:46:29.611Z</time>
</trkpt>
<trkpt lat="-26.5110548" lon="152.8372916">
<ele>94.516</ele>
<time>2016-05-21T03:46:31.535Z</time>
</trkpt>
<trkpt lat="-26.5111194" lon="152.8378669">
<ele>95.048</ele>
<time>2016-05-21T03:46:33.572Z</time>
</trkpt>
<trkpt lat="-26.5112690" lon="152.8387003">
<ele>95.415</ele>
<time>2016-05-21T03:46:36.620Z</time>
</trkpt>
<trkpt lat="-26.5114737" lon="152.8394632">
<ele>94.933</ele>
<time>2016-05-21T03:46:39.497Z</time>
</trkpt>
<trkpt lat="-26.5117340" lon="152.8402562">
<ele>93.341</ele>
<time>2016-05-21T03:46:42.572Z</time>
</trkpt>
<trkpt lat="-26.5118900" lon="152.8407888">
<ele>91.507</ele>
<time>2016-05-21T03:46:44.742Z</time>
</trkpt>
<trkpt lat="-26.5120055" lon="152.8412709">
<ele>90.272</ele>
<time>2016-05-21T03:46:46.692Z</time>
</trkpt>
<trkpt lat="-26.5120781" lon="152.8419949">
<ele>89.649</ele>
<time>2016-05-21T03:46:49.516Z</time>
</trkpt>
<trkpt lat="-26.5120605" lon="152.8427677">
<ele>89.440</ele>
<time>2016-05-21T03:46:52.432Z</time>
</trkpt>
<trkpt lat="-26.5120206" lon="152.8433124">
<ele>89.848</ele>
<time>2016-05-21T03:46:54.456Z</time>
</trkpt>
<trkpt lat="-26.5118560" lon="152.8438337">
<ele>91.028</ele>
<time>2016-05-21T03:46:56.487Z</time>
</trkpt>
<trkpt lat="-26.5114631" lon="152.8445875">
<ele>92.206</ele>
<time>2016-05-21T03:46:59.673Z</time>
</trkpt>
<trkpt lat="-26.5110046" lon="152.8452031">
<ele>92.249</ele>
<time>2016-05-21T03:47:02.391Z</time>
</trkpt>
<trkpt lat="-26.5106408" lon="152.8456011">
<ele>91.082</ele>
<time>2016-05-21T03:47:04.193Z</time>
</trkpt>
<trkpt lat="-26.5098951" lon="152.8462244">
<ele>90.120</ele>
<time>2016-05-21T03:47:07.147Z</time>
</trkpt>
<trkpt lat="-26.5093671" lon="152.8466587">
<ele>91.169</ele>
<time>2016-05-21T03:47:09.149Z</time>
</trkpt>
<trkpt lat="-26.5088353" lon="152.8471031">
<ele>94.552</ele>
<time>2016-05-21T03:47:11.166Z</time>
</trkpt>
<trkpt lat="-26.5083064" lon="152.8475476">
<ele>98.898</ele>
<time>2016-05-21T03:47:13.207Z</time>
</trkpt>
<trkpt lat="-26.5077816" lon="152.8479980">
<ele>102.344</ele>
<time>2016-05-21T03:47:15.308Z</time>
</trkpt>
<trkpt lat="-26.5070256" lon="152.8486296">
<ele>103.617</ele>
<time>2016-05-21T03:47:18.519Z</time>
</trkpt>
<trkpt lat="-26.5065854" lon="152.8490383">
<ele>101.857</ele>
<time>2016-05-21T03:47:20.549Z</time>
</trkpt>
<trkpt lat="-26.5061478" lon="152.8496391">
<ele>97.905</ele>
<time>2016-05-21T03:47:22.977Z</time>
</trkpt>
<trkpt lat="-26.5058111" lon="152.8501587">
<ele>94.636</ele>
<time>2016-05-21T03:47:24.841Z</time>
</trkpt>
<trkpt lat="-26.5053722" lon="152.8508406">
<ele>94.277</ele>
<time>2016-05-21T03:47:27.168Z</time>
</trkpt>
<trkpt lat="-26.5048075" lon="152.8517633">
<ele>97.152</ele>
<time>2016-05-21T03:47:30.069Z</time>
</trkpt>
<trkpt lat="-26.5043952" lon="152.8524271">
<ele>102.122</ele>
<time>2016-05-21T03:47:32.097Z</time>
</trkpt>
<trkpt lat="-26.5041855" lon="152.8527647">
<ele>107.360</ele>
<time>2016-05-21T03:47:33.110Z</time>
</trkpt>
<trkpt lat="-26.5033214" lon="152.8541600">
<ele>111.641</ele>
<time>2016-05-21T03:47:37.202Z</time>
</trkpt>
<trkpt lat="-26.5026895" lon="152.8551846">
<ele>114.636</ele>
<time>2016-05-21T03:47:40.194Z</time>
</trkpt>
<trkpt lat="-26.5023198" lon="152.8558719">
<ele>116.428</ele>
<time>2016-05-21T03:47:42.101Z</time>
</trkpt>
<trkpt lat="-26.5018055" lon="152.8569777">
<ele>116.969</ele>
<time>2016-05-21T03:47:44.988Z</time>
</trkpt>
<trkpt lat="-26.5012493" lon="152.8581185">
<ele>115.715</ele>
<time>2016-05-21T03:47:48.081Z</time>
</trkpt>
<trkpt lat="-26.5007265" lon="152.8591829">
<ele>112.773</ele>
<time>2016-05-21T03:47:51.200Z</time>
</trkpt>
<trkpt lat="-26.5004056" lon="152.8598522">
<ele>109.036</ele>
<time>2016-05-21T03:47:53.205Z</time>
</trkpt>
<trkpt lat="-26.4999357" lon="152.8608235">
<ele>105.690</ele>
<time>2016-05-21T03:47:56.230Z</time>
</trkpt>
<trkpt lat="-26.4994810" lon="152.8617722">
<ele>103.060</ele>
<time>2016-05-21T03:47:59.384Z</time>
</trkpt>
<trkpt lat="-26.4991707" lon="152.8623620">
<ele>100.850</ele>
<time>2016-05-21T03:48:01.416Z</time>
</trkpt>
<trkpt lat="-26.4988667" lon="152.8629165">
<ele>99.281</ele>
<time>2016-05-21T03:48:03.338Z</time>
</trkpt>
<trkpt lat="-26.4983780" lon="152.8637689">
<ele>98.827</ele>
<time>2016-05-21T03:48:06.333Z</time>
</trkpt>
<trkpt lat="-26.4980372" lon="152.8643336">
<ele>99.606</ele>
<time>2016-05-21T03:48:08.402Z</time>
</trkpt>
<trkpt lat="-26.4975523" lon="152.8651382">
<ele>101.311</ele>
<time>2016-05-21T03:48:11.437Z</time>
</trkpt>
<trkpt lat="-26.4972474" lon="152.8656572">
<ele>102.864</ele>
<time>2016-05-21T03:48:13.428Z</time>
</trkpt>
<trkpt lat="-26.4967940" lon="152.8664336">
<ele>103.964</ele>
<time>2016-05-21T03:48:16.620Z</time>
</trkpt>
<trkpt lat="-26.4964842" lon="152.8668542">
<ele>105.086</ele>
<time>2016-05-21T03:48:18.536Z</time>
</trkpt>
<trkpt lat="-26.4958932" lon="152.8673885">
<ele>105.545</ele>
<time>2016-05-21T03:48:21.459Z</time>
</trkpt>
<trkpt lat="-26.4951881" lon="152.8678234">
<ele>104.699</ele>
<time>2016-05-21T03:48:24.318Z</time>
</trkpt>
<trkpt lat="-26.4946472" lon="152.8679976">
<ele>103.537</ele>
<time>2016-05-21T03:48:26.212Z</time>
</trkpt>
<trkpt lat="-26.4940723" lon="152.8681689">
<ele>103.205</ele>
<time>2016-05-21T03:48:28.167Z</time>
</trkpt>
<trkpt lat="-26.4937729" lon="152.8682569">
<ele>104.429</ele>
<time>2016-05-21T03:48:29.174Z</time>
</trkpt>
<trkpt lat="-26.4925657" lon="152.8686003">
<ele>107.017</ele>
<time>2016-05-21T03:48:33.085Z</time>
</trkpt>
<trkpt lat="-26.4915995" lon="152.8687113">
<ele>109.627</ele>
<time>2016-05-21T03:48:35.972Z</time>
</trkpt>
<trkpt lat="-26.4905763" lon="152.8687299">
<ele>111.579</ele>
<time>2016-05-21T03:48:38.936Z</time>
</trkpt>
<trkpt lat="-26.4895236" lon="152.8687409">
<ele>113.869</ele>
<time>2016-05-21T03:48:42.090Z</time>
</trkpt>
<trkpt lat="-26.4888659" lon="152.8687369">
<ele>117.133</ele>
<time>2016-05-21T03:48:44.121Z</time>
</trkpt>
<trkpt lat="-26.4879174" lon="152.8687467">
<ele>120.311</ele>
<time>2016-05-21T03:48:47.118Z</time>
</trkpt>
<trkpt lat="-26.4873070" lon="152.8687527">
<ele>121.704</ele>
<time>2016-05-21T03:48:49.110Z</time>
</trkpt>
<trkpt lat="-26.4863757" lon="152.8687690">
<ele>120.728</ele>
<time>2016-05-21T03:48:52.570Z</time>
</trkpt>
<trkpt lat="-26.4855696" lon="152.8688962">
<ele>118.035</ele>
<time>2016-05-21T03:48:56.189Z</time>
</trkpt>
<trkpt lat="-26.4849545" lon="152.8691189">
<ele>114.385</ele>
<time>2016-05-21T03:48:59.355Z</time>
</trkpt>
<trkpt lat="-26.4845868" lon="152.8693215">
<ele>110.617</ele>
<time>2016-05-21T03:49:01.347Z</time>
</trkpt>
<trkpt lat="-26.4842630" lon="152.8695665">
<ele>108.223</ele>
<time>2016-05-21T03:49:03.203Z</time>
</trkpt>
<trkpt lat="-26.4839447" lon="152.8698821">
<ele>108.154</ele>
<time>2016-05-21T03:49:05.235Z</time>
</trkpt>
<trkpt lat="-26.4835448" lon="152.8704384">
<ele>110.079</ele>
<time>2016-05-21T03:49:08.362Z</time>
</trkpt>
<trkpt lat="-26.4833374" lon="152.8708382">
<ele>113.252</ele>
<time>2016-05-21T03:49:10.419Z</time>
</trkpt>
<trkpt lat="-26.4831834" lon="152.8712513">
<ele>119.291</ele>
<time>2016-05-21T03:49:12.439Z</time>
</trkpt>
<trkpt lat="-26.4829204" lon="152.8718365">
<ele>128.842</ele>
<time>2016-05-21T03:49:15.421Z</time>
</trkpt>
<trkpt lat="-26.4825814" lon="152.8723653">
<ele>137.443</ele>
<time>2016-05-21T03:49:18.387Z</time>
</trkpt>
<trkpt lat="-26.4821650" lon="152.8728470">
<ele>140.516</ele>
<time>2016-05-21T03:49:21.496Z</time>
</trkpt>
<trkpt lat="-26.4818804" lon="152.8731625">
<ele>138.683</ele>
<time>2016-05-21T03:49:23.645Z</time>
</trkpt>
<trkpt lat="-26.4816084" lon="152.8734485">
<ele>135.462</ele>
<time>2016-05-21T03:49:25.675Z</time>
</trkpt>
<trkpt lat="-26.4811344" lon="152.8737479">
<ele>134.519</ele>
<time>2016-05-21T03:49:28.626Z</time>
</trkpt>
<trkpt lat="-26.4808013" lon="152.8739136">
<ele>136.401</ele>
<time>2016-05-21T03:49:30.582Z</time>
</trkpt>
<trkpt lat="-26.4803187" lon="152.8742182">
<ele>138.600</ele>
<time>2016-05-21T03:49:33.514Z</time>
</trkpt>
<trkpt lat="-26.4800216" lon="152.8744947">
<ele>139.011</ele>
<time>2016-05-21T03:49:35.474Z</time>
</trkpt>
<trkpt lat="-26.4796959" lon="152.8750068">
<ele>138.059</ele>
<time>2016-05-21T03:49:38.205Z</time>
</trkpt>
<trkpt lat="-26.4794772" lon="152.8756727">
<ele>136.593</ele>
<time>2016-05-21T03:49:41.126Z</time>
</trkpt>
<trkpt lat="-26.4794143" lon="152.8763762">
<ele>134.512</ele>
<time>2016-05-21T03:49:43.946Z</time>
</trkpt>
<trkpt lat="-26.4795584" lon="152.8771071">
<ele>130.453</ele>
<time>2016-05-21T03:49:46.979Z</time>
</trkpt>
<trkpt lat="-26.4797068" lon="152.8775751">
<ele>124.493</ele>
<time>2016-05-21T03:49:49.124Z</time>
</trkpt>
<trkpt lat="-26.4798359" lon="152.8780001">
<ele>119.538</ele>
<time>2016-05-21T03:49:51.093Z</time>
</trkpt>
<trkpt lat="-26.4799330" lon="152.8786701">
<ele>117.278</ele>
<time>2016-05-21T03:49:54.123Z</time>
</trkpt>
<trkpt lat="-26.4799145" lon="152.8791179">
<ele>116.561</ele>
<time>2016-05-21T03:49:56.097Z</time>
</trkpt>
<trkpt lat="-26.4798749" lon="152.8795742">
<ele>116.394</ele>
<time>2016-05-21T03:49:58.109Z</time>
</trkpt>
<trkpt lat="-26.4796962" lon="152.8802152">
<ele>116.011</ele>
<time>2016-05-21T03:50:00.978Z</time>
</trkpt>
<trkpt lat="-26.4793292" lon="152.8807653">
<ele>113.947</ele>
<time>2016-05-21T03:50:03.602Z</time>
</trkpt>
<trkpt lat="-26.4789979" lon="152.8811849">
<ele>109.933</ele>
<time>2016-05-21T03:50:05.637Z</time>
</trkpt>
<trkpt lat="-26.4785190" lon="152.8819250">
<ele>105.863</ele>
<time>2016-05-21T03:50:08.901Z</time>
</trkpt>
<trkpt lat="-26.4782361" lon="152.8824053">
<ele>103.251</ele>
<time>2016-05-21T03:50:10.956Z</time>
</trkpt>
<trkpt lat="-26.4779497" lon="152.8831592">
<ele>101.120</ele>
<time>2016-05-21T03:50:13.888Z</time>
</trkpt>
<trkpt lat="-26.4777824" lon="152.8839698">
<ele>97.359</ele>
<time>2016-05-21T03:50:17.080Z</time>
</trkpt>
<trkpt lat="-26.4777136" lon="152.8844685">
<ele>92.165</ele>
<time>2016-05-21T03:50:19.164Z</time>
</trkpt>
<trkpt lat="-26.4777223" lon="152.8851728">
<ele>87.818</ele>
<time>2016-05-21T03:50:22.275Z</time>
</trkpt>
<trkpt lat="-26.4776958" lon="152.8858499">
<ele>83.983</ele>
<time>2016-05-21T03:50:25.491Z</time>
</trkpt>
<trkpt lat="-26.4776097" lon="152.8861963">
<ele>79.204</ele>
<time>2016-05-21T03:50:27.142Z</time>
</trkpt>
<trkpt lat="-26.4771137" lon="152.8868204">
<ele>74.686</ele>
<time>2016-05-21T03:50:30.694Z</time>
</trkpt>
<trkpt lat="-26.4768026" lon="152.8871215">
<ele>72.048</ele>
<time>2016-05-21T03:50:32.541Z</time>
</trkpt>
<trkpt lat="-26.4764241" lon="152.8873145">
<ele>70.667</ele>
<time>2016-05-21T03:50:34.430Z</time>
</trkpt>
<trkpt lat="-26.4757352" lon="152.8875932">
<ele>69.297</ele>
<time>2016-05-21T03:50:37.845Z</time>
</trkpt>
<trkpt lat="-26.4752799" lon="152.8879779">
<ele>67.512</ele>
<time>2016-05-21T03:50:40.526Z</time>
</trkpt>
<trkpt lat="-26.4749908" lon="152.8883445">
<ele>65.406</ele>
<time>2016-05-21T03:50:42.633Z</time>
</trkpt>
<trkpt lat="-26.4747048" lon="152.8886945">
<ele>63.280</ele>
<time>2016-05-21T03:50:44.770Z</time>
</trkpt>
<trkpt lat="-26.4744205" lon="152.8890477">
<ele>61.700</ele>
<time>2016-05-21T03:50:46.963Z</time>
</trkpt>
<trkpt lat="-26.4741685" lon="152.8895600">
<ele>60.422</ele>
<time>2016-05-21T03:50:49.617Z</time>
</trkpt>
<trkpt lat="-26.4740419" lon="152.8901859">
<ele>59.013</ele>
<time>2016-05-21T03:50:52.226Z</time>
</trkpt>
<trkpt lat="-26.4739504" lon="152.8906218">
<ele>58.235</ele>
<time>2016-05-21T03:50:53.848Z</time>
</trkpt>
<trkpt lat="-26.4737706" lon="152.8914127">
<ele>58.841</ele>
<time>2016-05-21T03:50:56.515Z</time>
</trkpt>
<trkpt lat="-26.4735204" lon="152.8923668">
<ele>60.594</ele>
<time>2016-05-21T03:50:59.505Z</time>
</trkpt>
<trkpt lat="-26.4732090" lon="152.8933703">
<ele>63.390</ele>
<time>2016-05-21T03:51:02.716Z</time>
</trkpt>
<trkpt lat="-26.4730406" lon="152.8939532">
<ele>66.649</ele>
<time>2016-05-21T03:51:04.644Z</time>
</trkpt>
<trkpt lat="-26.4728907" lon="152.8945229">
<ele>68.284</ele>
<time>2016-05-21T03:51:06.563Z</time>
</trkpt>
<trkpt lat="-26.4727139" lon="152.8950961">
<ele>67.178</ele>
<time>2016-05-21T03:51:08.540Z</time>
</trkpt>
<trkpt lat="-26.4723982" lon="152.8959518">
<ele>64.875</ele>
<time>2016-05-21T03:51:11.607Z</time>
</trkpt>
<trkpt lat="-26.4720472" lon="152.8967707">
<ele>63.159</ele>
<time>2016-05-21T03:51:14.643Z</time>
</trkpt>
<trkpt lat="-26.4717955" lon="152.8972987">
<ele>62.316</ele>
<time>2016-05-21T03:51:16.656Z</time>
</trkpt>
<trkpt lat="-26.4713743" lon="152.8980610">
<ele>62.024</ele>
<time>2016-05-21T03:51:19.688Z</time>
</trkpt>
<trkpt lat="-26.4709347" lon="152.8987724">
<ele>61.982</ele>
<time>2016-05-21T03:51:22.576Z</time>
</trkpt>
<trkpt lat="-26.4706374" lon="152.8992588">
<ele>61.759</ele>
<time>2016-05-21T03:51:24.515Z</time>
</trkpt>
<trkpt lat="-26.4703082" lon="152.8997546">
<ele>61.173</ele>
<time>2016-05-21T03:51:26.545Z</time>
</trkpt>
<trkpt lat="-26.4698267" lon="152.9004844">
<ele>60.570</ele>
<time>2016-05-21T03:51:29.545Z</time>
</trkpt>
<trkpt lat="-26.4693466" lon="152.9012196">
<ele>59.793</ele>
<time>2016-05-21T03:51:32.607Z</time>
</trkpt>
<trkpt lat="-26.4689118" lon="152.9019030">
<ele>58.462</ele>
<time>2016-05-21T03:51:35.508Z</time>
</trkpt>
<trkpt lat="-26.4684610" lon="152.9026182">
<ele>56.896</ele>
<time>2016-05-21T03:51:38.623Z</time>
</trkpt>
<trkpt lat="-26.4680643" lon="152.9033476">
<ele>54.190</ele>
<time>2016-05-21T03:51:41.731Z</time>
</trkpt>
<trkpt lat="-26.4677760" lon="152.9040844">
<ele>49.661</ele>
<time>2016-05-21T03:51:44.692Z</time>
</trkpt>
<trkpt lat="-26.4675674" lon="152.9048569">
<ele>44.905</ele>
<time>2016-05-21T03:51:47.642Z</time>
</trkpt>
<trkpt lat="-26.4675069" lon="152.9053886">
<ele>41.385</ele>
<time>2016-05-21T03:51:49.575Z</time>
</trkpt>
<trkpt lat="-26.4674702" lon="152.9062067">
<ele>39.317</ele>
<time>2016-05-21T03:51:52.453Z</time>
</trkpt>
<trkpt lat="-26.4674897" lon="152.9067767">
<ele>39.774</ele>
<time>2016-05-21T03:51:54.434Z</time>
</trkpt>
<trkpt lat="-26.4675429" lon="152.9076270">
<ele>43.323</ele>
<time>2016-05-21T03:51:57.382Z</time>
</trkpt>
<trkpt lat="-26.4675965" lon="152.9082069">
<ele>47.953</ele>
<time>2016-05-21T03:51:59.383Z</time>
</trkpt>
<trkpt lat="-26.4676543" lon="152.9090797">
<ele>50.941</ele>
<time>2016-05-21T03:52:02.379Z</time>
</trkpt>
<trkpt lat="-26.4676809" lon="152.9096558">
<ele>51.616</ele>
<time>2016-05-21T03:52:04.358Z</time>
</trkpt>
<trkpt lat="-26.4676064" lon="152.9105356">
<ele>50.809</ele>
<time>2016-05-21T03:52:07.428Z</time>
</trkpt>
<trkpt lat="-26.4675349" lon="152.9111165">
<ele>50.236</ele>
<time>2016-05-21T03:52:09.537Z</time>
</trkpt>
<trkpt lat="-26.4674934" lon="152.9119077">
<ele>50.902</ele>
<time>2016-05-21T03:52:12.495Z</time>
</trkpt>
<trkpt lat="-26.4675672" lon="152.9126825">
<ele>50.994</ele>
<time>2016-05-21T03:52:15.299Z</time>
</trkpt>
<trkpt lat="-26.4677066" lon="152.9132220">
<ele>48.944</ele>
<time>2016-05-21T03:52:17.274Z</time>
</trkpt>
<trkpt lat="-26.4679534" lon="152.9140627">
<ele>46.649</ele>
<time>2016-05-21T03:52:20.329Z</time>
</trkpt>
<trkpt lat="-26.4680622" lon="152.9149114">
<ele>46.122</ele>
<time>2016-05-21T03:52:23.185Z</time>
</trkpt>
<trkpt lat="-26.4680282" lon="152.9155098">
<ele>46.777</ele>
<time>2016-05-21T03:52:25.150Z</time>
</trkpt>
<trkpt lat="-26.4679930" lon="152.9164259">
<ele>47.729</ele>
<time>2016-05-21T03:52:28.154Z</time>
</trkpt>
<trkpt lat="-26.4679675" lon="152.9170339">
<ele>48.710</ele>
<time>2016-05-21T03:52:30.161Z</time>
</trkpt>
<trkpt lat="-26.4679204" lon="152.9179501">
<ele>49.200</ele>
<time>2016-05-21T03:52:33.236Z</time>
</trkpt>
<trkpt lat="-26.4678871" lon="152.9188252">
<ele>48.654</ele>
<time>2016-05-21T03:52:36.228Z</time>
</trkpt>
<trkpt lat="-26.4678667" lon="152.9196886">
<ele>47.436</ele>
<time>2016-05-21T03:52:39.294Z</time>
</trkpt>
<trkpt lat="-26.4678834" lon="152.9205133">
<ele>46.415</ele>
<time>2016-05-21T03:52:42.310Z</time>
</trkpt>
<trkpt lat="-26.4680687" lon="152.9212908">
<ele>45.021</ele>
<time>2016-05-21T03:52:45.236Z</time>
</trkpt>
<trkpt lat="-26.4682834" lon="152.9218067">
<ele>42.487</ele>
<time>2016-05-21T03:52:47.322Z</time>
</trkpt>
<trkpt lat="-26.4686143" lon="152.9225464">
<ele>40.027</ele>
<time>2016-05-21T03:52:50.384Z</time>
</trkpt>
<trkpt lat="-26.4687884" lon="152.9233136">
<ele>38.818</ele>
<time>2016-05-21T03:52:53.263Z</time>
</trkpt>
<trkpt lat="-26.4687807" lon="152.9238736">
<ele>38.326</ele>
<time>2016-05-21T03:52:55.300Z</time>
</trkpt>
<trkpt lat="-26.4687385" lon="152.9244357">
<ele>37.660</ele>
<time>2016-05-21T03:52:57.352Z</time>
</trkpt>
<trkpt lat="-26.4685709" lon="152.9252302">
<ele>36.329</ele>
<time>2016-05-21T03:53:00.267Z</time>
</trkpt>
<trkpt lat="-26.4683085" lon="152.9257596">
<ele>34.699</ele>
<time>2016-05-21T03:53:02.397Z</time>
</trkpt>
<trkpt lat="-26.4680787" lon="152.9262385">
<ele>33.544</ele>
<time>2016-05-21T03:53:04.309Z</time>
</trkpt>
<trkpt lat="-26.4677821" lon="152.9270180">
<ele>33.264</ele>
<time>2016-05-21T03:53:07.343Z</time>
</trkpt>
<trkpt lat="-26.4676525" lon="152.9275515">
<ele>33.844</ele>
<time>2016-05-21T03:53:09.348Z</time>
</trkpt>
<trkpt lat="-26.4675597" lon="152.9283529">
<ele>34.842</ele>
<time>2016-05-21T03:53:12.309Z</time>
</trkpt>
<trkpt lat="-26.4674861" lon="152.9289039">
<ele>35.233</ele>
<time>2016-05-21T03:53:14.358Z</time>
</trkpt>
<trkpt lat="-26.4674295" lon="152.9291735">
<ele>34.446</ele>
<time>2016-05-21T03:53:15.377Z</time>
</trkpt>
<trkpt lat="-26.4671085" lon="152.9302113">
<ele>33.179</ele>
<time>2016-05-21T03:53:19.347Z</time>
</trkpt>
<trkpt lat="-26.4669289" lon="152.9306889">
<ele>32.348</ele>
<time>2016-05-21T03:53:21.213Z</time>
</trkpt>
<trkpt lat="-26.4667017" lon="152.9314609">
<ele>32.040</ele>
<time>2016-05-21T03:53:24.207Z</time>
</trkpt>
<trkpt lat="-26.4665436" lon="152.9322406">
<ele>31.860</ele>
<time>2016-05-21T03:53:27.391Z</time>
</trkpt>
<trkpt lat="-26.4665293" lon="152.9326808">
<ele>30.969</ele>
<time>2016-05-21T03:53:29.160Z</time>
</trkpt>
<trkpt lat="-26.4666167" lon="152.9331588">
<ele>28.984</ele>
<time>2016-05-21T03:53:31.098Z</time>
</trkpt>
<trkpt lat="-26.4668520" lon="152.9338959">
<ele>26.882</ele>
<time>2016-05-21T03:53:34.041Z</time>
</trkpt>
<trkpt lat="-26.4670943" lon="152.9343892">
<ele>26.078</ele>
<time>2016-05-21T03:53:36.071Z</time>
</trkpt>
<trkpt lat="-26.4673440" lon="152.9348768">
<ele>26.779</ele>
<time>2016-05-21T03:53:38.063Z</time>
</trkpt>
<trkpt lat="-26.4677117" lon="152.9356371">
<ele>28.060</ele>
<time>2016-05-21T03:53:41.054Z</time>
</trkpt>
<trkpt lat="-26.4679741" lon="152.9361523">
<ele>29.003</ele>
<time>2016-05-21T03:53:43.091Z</time>
</trkpt>
<trkpt lat="-26.4682514" lon="152.9366664">
<ele>29.412</ele>
<time>2016-05-21T03:53:45.165Z</time>
</trkpt>
<trkpt lat="-26.4685090" lon="152.9371672">
<ele>29.410</ele>
<time>2016-05-21T03:53:47.172Z</time>
</trkpt>
<trkpt lat="-26.4689333" lon="152.9378821">
<ele>29.187</ele>
<time>2016-05-21T03:53:50.178Z</time>
</trkpt>
<trkpt lat="-26.4694126" lon="152.9385423">
<ele>28.812</ele>
<time>2016-05-21T03:53:53.111Z</time>
</trkpt>
<trkpt lat="-26.4698267" lon="152.9389702">
<ele>28.381</ele>
<time>2016-05-21T03:53:55.275Z</time>
</trkpt>
<trkpt lat="-26.4704029" lon="152.9395748">
<ele>28.098</ele>
<time>2016-05-21T03:53:58.361Z</time>
</trkpt>
<trkpt lat="-26.4707859" lon="152.9399432">
<ele>28.096</ele>
<time>2016-05-21T03:54:00.346Z</time>
</trkpt>
<trkpt lat="-26.4713711" lon="152.9404707">
<ele>28.295</ele>
<time>2016-05-21T03:54:03.270Z</time>
</trkpt>
<trkpt lat="-26.4717639" lon="152.9408350">
<ele>28.495</ele>
<time>2016-05-21T03:54:05.242Z</time>
</trkpt>
<trkpt lat="-26.4723775" lon="152.9413291">
<ele>28.560</ele>
<time>2016-05-21T03:54:08.158Z</time>
</trkpt>
<trkpt lat="-26.4728197" lon="152.9416277">
<ele>29.546</ele>
<time>2016-05-21T03:54:10.146Z</time>
</trkpt>
<trkpt lat="-26.4734989" lon="152.9420270">
<ele>32.384</ele>
<time>2016-05-21T03:54:13.072Z</time>
</trkpt>
<trkpt lat="-26.4739644" lon="152.9422863">
<ele>35.817</ele>
<time>2016-05-21T03:54:15.045Z</time>
</trkpt>
<trkpt lat="-26.4746975" lon="152.9426235">
<ele>38.157</ele>
<time>2016-05-21T03:54:18.069Z</time>
</trkpt>
<trkpt lat="-26.4754448" lon="152.9429249">
<ele>39.968</ele>
<time>2016-05-21T03:54:21.133Z</time>
</trkpt>
<trkpt lat="-26.4759249" lon="152.9430985">
<ele>42.691</ele>
<time>2016-05-21T03:54:23.070Z</time>
</trkpt>
<trkpt lat="-26.4764233" lon="152.9432739">
<ele>46.933</ele>
<time>2016-05-21T03:54:25.070Z</time>
</trkpt>
<trkpt lat="-26.4771824" lon="152.9434922">
<ele>51.691</ele>
<time>2016-05-21T03:54:28.089Z</time>
</trkpt>
<trkpt lat="-26.4776857" lon="152.9436135">
<ele>55.501</ele>
<time>2016-05-21T03:54:30.101Z</time>
</trkpt>
<trkpt lat="-26.4781904" lon="152.9437169">
<ele>57.947</ele>
<time>2016-05-21T03:54:32.120Z</time>
</trkpt>
<trkpt lat="-26.4789215" lon="152.9438763">
<ele>59.530</ele>
<time>2016-05-21T03:54:35.032Z</time>
</trkpt>
<trkpt lat="-26.4796851" lon="152.9440966">
<ele>60.504</ele>
<time>2016-05-21T03:54:38.096Z</time>
</trkpt>
<trkpt lat="-26.4801941" lon="152.9442428">
<ele>60.258</ele>
<time>2016-05-21T03:54:40.148Z</time>
</trkpt>
<trkpt lat="-26.4809265" lon="152.9444730">
<ele>57.879</ele>
<time>2016-05-21T03:54:43.150Z</time>
</trkpt>
<trkpt lat="-26.4816479" lon="152.9446931">
<ele>54.303</ele>
<time>2016-05-21T03:54:46.147Z</time>
</trkpt>
<trkpt lat="-26.4821234" lon="152.9448272">
<ele>51.390</ele>
<time>2016-05-21T03:54:48.107Z</time>
</trkpt>
<trkpt lat="-26.4828426" lon="152.9450456">
<ele>48.806</ele>
<time>2016-05-21T03:54:51.117Z</time>
</trkpt>
<trkpt lat="-26.4833334" lon="152.9452039">
<ele>45.543</ele>
<time>2016-05-21T03:54:53.264Z</time>
</trkpt>
<trkpt lat="-26.4840122" lon="152.9454063">
<ele>42.155</ele>
<time>2016-05-21T03:54:56.546Z</time>
</trkpt>
<trkpt lat="-26.4842243" lon="152.9454716">
<ele>39.048</ele>
<time>2016-05-21T03:54:57.620Z</time>
</trkpt>
<trkpt lat="-26.4850034" lon="152.9457073">
<ele>36.050</ele>
<time>2016-05-21T03:55:01.854Z</time>
</trkpt>
<trkpt lat="-26.4853744" lon="152.9457740">
<ele>32.247</ele>
<time>2016-05-21T03:55:03.934Z</time>
</trkpt>
<trkpt lat="-26.4858964" lon="152.9458779">
<ele>27.216</ele>
<time>2016-05-21T03:55:07.159Z</time>
</trkpt>
<trkpt lat="-26.4862228" lon="152.9459691">
<ele>22.547</ele>
<time>2016-05-21T03:55:09.605Z</time>
</trkpt>
<trkpt lat="-26.4865364" lon="152.9459522">
<ele>19.362</ele>
<time>2016-05-21T03:55:12.805Z</time>
</trkpt>
<trkpt lat="-26.4868129" lon="152.9459333">
<ele>17.041</ele>
<time>2016-05-21T03:55:16.706Z</time>
</trkpt>
<trkpt lat="-26.4870747" lon="152.9460051">
<ele>15.267</ele>
<time>2016-05-21T03:55:19.838Z</time>
</trkpt>
<trkpt lat="-26.4871673" lon="152.9460861">
<ele>13.369</ele>
<time>2016-05-21T03:55:21.034Z</time>
</trkpt>
<trkpt lat="-26.4872557" lon="152.9463392">
<ele>11.010</ele>
<time>2016-05-21T03:55:22.989Z</time>
</trkpt>
<trkpt lat="-26.4872078" lon="152.9465153">
<ele>9.260</ele>
<time>2016-05-21T03:55:24.270Z</time>
</trkpt>
<trkpt lat="-26.4870718" lon="152.9467200">
<ele>9.153</ele>
<time>2016-05-21T03:55:25.845Z</time>
</trkpt>
<trkpt lat="-26.4868169" lon="152.9470708">
<ele>13.215</ele>
<time>2016-05-21T03:55:28.619Z</time>
</trkpt>
<trkpt lat="-26.4866365" lon="152.9473437">
<ele>22.218</ele>
<time>2016-05-21T03:55:30.781Z</time>
</trkpt>
<trkpt lat="-26.4863702" lon="152.9477087">
<ele>30.728</ele>
<time>2016-05-21T03:55:33.994Z</time>
</trkpt>
<trkpt lat="-26.4861896" lon="152.9479461">
<ele>32.549</ele>
<time>2016-05-21T03:55:36.315Z</time>
</trkpt>
<trkpt lat="-26.4859044" lon="152.9482273">
<ele>28.116</ele>
<time>2016-05-21T03:55:39.572Z</time>
</trkpt>
<trkpt lat="-26.4856860" lon="152.9483405">
<ele>22.177</ele>
<time>2016-05-21T03:55:41.600Z</time>
</trkpt>
<trkpt lat="-26.4854425" lon="152.9483422">
<ele>18.213</ele>
<time>2016-05-21T03:55:43.637Z</time>
</trkpt>
<trkpt lat="-26.4852069" lon="152.9482610">
<ele>16.243</ele>
<time>2016-05-21T03:55:45.690Z</time>
</trkpt>
<trkpt lat="-26.4849543" lon="152.9479781">
<ele>15.563</ele>
<time>2016-05-21T03:55:48.650Z</time>
</trkpt>
<trkpt lat="-26.4848717" lon="152.9477306">
<ele>15.378</ele>
<time>2016-05-21T03:55:50.578Z</time>
</trkpt>
<trkpt lat="-26.4848630" lon="152.9474671">
<ele>15.185</ele>
<time>2016-05-21T03:55:52.428Z</time>
</trkpt>
<trkpt lat="-26.4849200" lon="152.9471856">
<ele>15.097</ele>
<time>2016-05-21T03:55:54.314Z</time>
</trkpt>
<trkpt lat="-26.4850829" lon="152.9469896">
<ele>15.477</ele>
<time>2016-05-21T03:55:55.894Z</time>
</trkpt>
<trkpt lat="-26.4853437" lon="152.9468309">
<ele>16.278</ele>
<time>2016-05-21T03:55:57.751Z</time>
</trkpt>
<trkpt lat="-26.4856762" lon="152.9467924">
<ele>17.052</ele>
<time>2016-05-21T03:55:59.509Z</time>
</trkpt>
<trkpt lat="-26.4861577" lon="152.9469164">
<ele>17.627</ele>
<time>2016-05-21T03:56:01.914Z</time>
</trkpt>
<trkpt lat="-26.4867668" lon="152.9470904">
<ele>18.806</ele>
<time>2016-05-21T03:56:04.688Z</time>
</trkpt>
<trkpt lat="-26.4875028" lon="152.9473001">
<ele>22.344</ele>
<time>2016-05-21T03:56:07.793Z</time>
</trkpt>
<trkpt lat="-26.4883506" lon="152.9475474">
<ele>28.977</ele>
<time>2016-05-21T03:56:11.168Z</time>
</trkpt>
<trkpt lat="-26.4891190" lon="152.9477600">
<ele>36.242</ele>
<time>2016-05-21T03:56:14.313Z</time>
</trkpt>
<trkpt lat="-26.4898759" lon="152.9479267">
<ele>40.194</ele>
<time>2016-05-21T03:56:17.751Z</time>
</trkpt>
<trkpt lat="-26.4905493" lon="152.9480554">
<ele>39.174</ele>
<time>2016-05-21T03:56:21.147Z</time>
</trkpt>
<trkpt lat="-26.4911450" lon="152.9481481">
<ele>34.583</ele>
<time>2016-05-21T03:56:24.085Z</time>
</trkpt>
<trkpt lat="-26.4915215" lon="152.9482175">
<ele>28.683</ele>
<time>2016-05-21T03:56:25.843Z</time>
</trkpt>
<trkpt lat="-26.4919132" lon="152.9483053">
<ele>23.541</ele>
<time>2016-05-21T03:56:27.484Z</time>
</trkpt>
<trkpt lat="-26.4926003" lon="152.9484288">
<ele>20.753</ele>
<time>2016-05-21T03:56:30.118Z</time>
</trkpt>
<trkpt lat="-26.4931174" lon="152.9485023">
<ele>21.002</ele>
<time>2016-05-21T03:56:31.908Z</time>
</trkpt>
<trkpt lat="-26.4933825" lon="152.9485635">
<ele>23.689</ele>
<time>2016-05-21T03:56:32.837Z</time>
</trkpt>
<trkpt lat="-26.4946076" lon="152.9488678">
<ele>26.923</ele>
<time>2016-05-21T03:56:36.847Z</time>
</trkpt>
<trkpt lat="-26.4952405" lon="152.9490377">
<ele>25.976</ele>
<time>2016-05-21T03:56:38.986Z</time>
</trkpt>
<trkpt lat="-26.4961351" lon="152.9492556">
<ele>18.912</ele>
<time>2016-05-21T03:56:42.165Z</time>
</trkpt>
<trkpt lat="-26.4969739" lon="152.9494820">
<ele>10.938</ele>
<time>2016-05-21T03:56:45.278Z</time>
</trkpt>
<trkpt lat="-26.4975045" lon="152.9496354">
<ele>6.997</ele>
<time>2016-05-21T03:56:47.224Z</time>
</trkpt>
<trkpt lat="-26.4980302" lon="152.9498075">
<ele>6.452</ele>
<time>2016-05-21T03:56:49.159Z</time>
</trkpt>
<trkpt lat="-26.4988480" lon="152.9501013">
<ele>7.389</ele>
<time>2016-05-21T03:56:52.194Z</time>
</trkpt>
<trkpt lat="-26.4993783" lon="152.9503140">
<ele>8.416</ele>
<time>2016-05-21T03:56:54.178Z</time>
</trkpt>
<trkpt lat="-26.4998993" lon="152.9505465">
<ele>8.969</ele>
<time>2016-05-21T03:56:56.152Z</time>
</trkpt>
<trkpt lat="-26.5004195" lon="152.9507993">
<ele>8.983</ele>
<time>2016-05-21T03:56:58.148Z</time>
</trkpt>
<trkpt lat="-26.5012029" lon="152.9512022">
<ele>8.617</ele>
<time>2016-05-21T03:57:01.171Z</time>
</trkpt>
<trkpt lat="-26.5017182" lon="152.9514695">
<ele>8.190</ele>
<time>2016-05-21T03:57:03.173Z</time>
</trkpt>
<trkpt lat="-26.5024758" lon="152.9518978">
<ele>9.748</ele>
<time>2016-05-21T03:57:06.174Z</time>
</trkpt>
<trkpt lat="-26.5027299" lon="152.9520366">
<ele>14.457</ele>
<time>2016-05-21T03:57:07.170Z</time>
</trkpt>
<trkpt lat="-26.5037722" lon="152.9525394">
<ele>19.427</ele>
<time>2016-05-21T03:57:11.106Z</time>
</trkpt>
<trkpt lat="-26.5043053" lon="152.9527751">
<ele>21.684</ele>
<time>2016-05-21T03:57:13.092Z</time>
</trkpt>
<trkpt lat="-26.5051207" lon="152.9530981">
<ele>21.761</ele>
<time>2016-05-21T03:57:16.081Z</time>
</trkpt>
<trkpt lat="-26.5059452" lon="152.9533766">
<ele>21.111</ele>
<time>2016-05-21T03:57:19.042Z</time>
</trkpt>
<trkpt lat="-26.5067959" lon="152.9536266">
<ele>20.682</ele>
<time>2016-05-21T03:57:22.044Z</time>
</trkpt>
<trkpt lat="-26.5073636" lon="152.9537742">
<ele>21.084</ele>
<time>2016-05-21T03:57:24.036Z</time>
</trkpt>
<trkpt lat="-26.5082243" lon="152.9539553">
<ele>22.311</ele>
<time>2016-05-21T03:57:27.052Z</time>
</trkpt>
<trkpt lat="-26.5090722" lon="152.9541239">
<ele>23.142</ele>
<time>2016-05-21T03:57:30.034Z</time>
</trkpt>
<trkpt lat="-26.5099335" lon="152.9542323">
<ele>22.535</ele>
<time>2016-05-21T03:57:33.022Z</time>
</trkpt>
<trkpt lat="-26.5108267" lon="152.9542720">
<ele>21.270</ele>
<time>2016-05-21T03:57:36.131Z</time>
</trkpt>
<trkpt lat="-26.5113857" lon="152.9543142">
<ele>19.910</ele>
<time>2016-05-21T03:57:38.096Z</time>
</trkpt>
<trkpt lat="-26.5122237" lon="152.9543691">
<ele>17.900</ele>
<time>2016-05-21T03:57:41.041Z</time>
</trkpt>
<trkpt lat="-26.5127880" lon="152.9544057">
<ele>15.288</ele>
<time>2016-05-21T03:57:43.015Z</time>
</trkpt>
<trkpt lat="-26.5136462" lon="152.9544528">
<ele>12.935</ele>
<time>2016-05-21T03:57:46.001Z</time>
</trkpt>
<trkpt lat="-26.5145190" lon="152.9544740">
<ele>11.446</ele>
<time>2016-05-21T03:57:49.024Z</time>
</trkpt>
<trkpt lat="-26.5150978" lon="152.9545009">
<ele>11.183</ele>
<time>2016-05-21T03:57:51.031Z</time>
</trkpt>
<trkpt lat="-26.5156771" lon="152.9545356">
<ele>11.907</ele>
<time>2016-05-21T03:57:53.040Z</time>
</trkpt>
<trkpt lat="-26.5165278" lon="152.9545735">
<ele>12.992</ele>
<time>2016-05-21T03:57:55.976Z</time>
</trkpt>
<trkpt lat="-26.5173942" lon="152.9546092">
<ele>13.872</ele>
<time>2016-05-21T03:57:58.951Z</time>
</trkpt>
<trkpt lat="-26.5179828" lon="152.9546201">
<ele>13.968</ele>
<time>2016-05-21T03:58:00.984Z</time>
</trkpt>
<trkpt lat="-26.5188680" lon="152.9546538">
<ele>13.020</ele>
<time>2016-05-21T03:58:04.069Z</time>
</trkpt>
<trkpt lat="-26.5194285" lon="152.9546772">
<ele>11.320</ele>
<time>2016-05-21T03:58:06.023Z</time>
</trkpt>
<trkpt lat="-26.5202905" lon="152.9547112">
<ele>9.384</ele>
<time>2016-05-21T03:58:09.065Z</time>
</trkpt>
<trkpt lat="-26.5208569" lon="152.9547431">
<ele>7.884</ele>
<time>2016-05-21T03:58:11.058Z</time>
</trkpt>
<trkpt lat="-26.5211437" lon="152.9547615">
<ele>7.205</ele>
<time>2016-05-21T03:58:12.065Z</time>
</trkpt>
<trkpt lat="-26.5222920" lon="152.9548154">
<ele>7.050</ele>
<time>2016-05-21T03:58:16.013Z</time>
</trkpt>
<trkpt lat="-26.5228831" lon="152.9548349">
<ele>7.096</ele>
<time>2016-05-21T03:58:18.065Z</time>
</trkpt>
<trkpt lat="-26.5237506" lon="152.9548690">
<ele>7.057</ele>
<time>2016-05-21T03:58:21.085Z</time>
</trkpt>
<trkpt lat="-26.5246036" lon="152.9549117">
<ele>6.640</ele>
<time>2016-05-21T03:58:24.015Z</time>
</trkpt>
<trkpt lat="-26.5251809" lon="152.9549276">
<ele>5.747</ele>
<time>2016-05-21T03:58:25.982Z</time>
</trkpt>
<trkpt lat="-26.5260595" lon="152.9549644">
<ele>4.691</ele>
<time>2016-05-21T03:58:28.980Z</time>
</trkpt>
<trkpt lat="-26.5266482" lon="152.9549900">
<ele>3.961</ele>
<time>2016-05-21T03:58:30.995Z</time>
</trkpt>
<trkpt lat="-26.5275159" lon="152.9550149">
<ele>3.732</ele>
<time>2016-05-21T03:58:33.966Z</time>
</trkpt>
<trkpt lat="-26.5283881" lon="152.9550583">
<ele>3.805</ele>
<time>2016-05-21T03:58:36.951Z</time>
</trkpt>
<trkpt lat="-26.5292597" lon="152.9550763">
<ele>3.965</ele>
<time>2016-05-21T03:58:39.924Z</time>
</trkpt>
<trkpt lat="-26.5301337" lon="152.9550751">
<ele>4.146</ele>
<time>2016-05-21T03:58:42.888Z</time>
</trkpt>
<trkpt lat="-26.5310225" lon="152.9550654">
<ele>4.457</ele>
<time>2016-05-21T03:58:45.871Z</time>
</trkpt>
<trkpt lat="-26.5316171" lon="152.9550371">
<ele>4.941</ele>
<time>2016-05-21T03:58:47.862Z</time>
</trkpt>
<trkpt lat="-26.5325150" lon="152.9549917">
<ele>5.736</ele>
<time>2016-05-21T03:58:50.876Z</time>
</trkpt>
<trkpt lat="-26.5331064" lon="152.9549979">
<ele>7.856</ele>
<time>2016-05-21T03:58:52.871Z</time>
</trkpt>
<trkpt lat="-26.5339940" lon="152.9550865">
<ele>11.760</ele>
<time>2016-05-21T03:58:55.897Z</time>
</trkpt>
<trkpt lat="-26.5348715" lon="152.9552675">
<ele>15.944</ele>
<time>2016-05-21T03:58:58.944Z</time>
</trkpt>
<trkpt lat="-26.5354273" lon="152.9554407">
<ele>18.723</ele>
<time>2016-05-21T03:59:00.905Z</time>
</trkpt>
<trkpt lat="-26.5362500" lon="152.9557938">
<ele>19.910</ele>
<time>2016-05-21T03:59:03.899Z</time>
</trkpt>
<trkpt lat="-26.5367863" lon="152.9560767">
<ele>20.261</ele>
<time>2016-05-21T03:59:05.929Z</time>
</trkpt>
<trkpt lat="-26.5375343" lon="152.9565680">
<ele>20.798</ele>
<time>2016-05-21T03:59:08.927Z</time>
</trkpt>
<trkpt lat="-26.5380150" lon="152.9569304">
<ele>22.474</ele>
<time>2016-05-21T03:59:10.942Z</time>
</trkpt>
<trkpt lat="-26.5387381" lon="152.9574560">
<ele>25.106</ele>
<time>2016-05-21T03:59:13.947Z</time>
</trkpt>
<trkpt lat="-26.5392391" lon="152.9577909">
<ele>26.822</ele>
<time>2016-05-21T03:59:15.986Z</time>
</trkpt>
<trkpt lat="-26.5400143" lon="152.9582126">
<ele>26.141</ele>
<time>2016-05-21T03:59:18.994Z</time>
</trkpt>
<trkpt lat="-26.5402857" lon="152.9583238">
<ele>23.627</ele>
<time>2016-05-21T03:59:20.001Z</time>
</trkpt>
<trkpt lat="-26.5413969" lon="152.9586848">
<ele>20.666</ele>
<time>2016-05-21T03:59:23.944Z</time>
</trkpt>
<trkpt lat="-26.5419651" lon="152.9588471">
<ele>18.044</ele>
<time>2016-05-21T03:59:25.939Z</time>
</trkpt>
<trkpt lat="-26.5428084" lon="152.9591007">
<ele>15.868</ele>
<time>2016-05-21T03:59:28.909Z</time>
</trkpt>
<trkpt lat="-26.5436508" lon="152.9593520">
<ele>14.019</ele>
<time>2016-05-21T03:59:31.857Z</time>
</trkpt>
<trkpt lat="-26.5442183" lon="152.9595202">
<ele>12.315</ele>
<time>2016-05-21T03:59:33.826Z</time>
</trkpt>
<trkpt lat="-26.5447881" lon="152.9596929">
<ele>10.786</ele>
<time>2016-05-21T03:59:35.804Z</time>
</trkpt>
<trkpt lat="-26.5456676" lon="152.9599359">
<ele>9.753</ele>
<time>2016-05-21T03:59:38.859Z</time>
</trkpt>
<trkpt lat="-26.5462296" lon="152.9601058">
<ele>9.359</ele>
<time>2016-05-21T03:59:40.849Z</time>
</trkpt>
<trkpt lat="-26.5467914" lon="152.9602945">
<ele>9.193</ele>
<time>2016-05-21T03:59:42.855Z</time>
</trkpt>
<trkpt lat="-26.5473506" lon="152.9604529">
<ele>9.143</ele>
<time>2016-05-21T03:59:44.820Z</time>
</trkpt>
<trkpt lat="-26.5482201" lon="152.9606933">
<ele>9.530</ele>
<time>2016-05-21T03:59:47.853Z</time>
</trkpt>
<trkpt lat="-26.5490807" lon="152.9609554">
<ele>10.198</ele>
<time>2016-05-21T03:59:50.865Z</time>
</trkpt>
<trkpt lat="-26.5496503" lon="152.9611619">
<ele>10.568</ele>
<time>2016-05-21T03:59:52.886Z</time>
</trkpt>
<trkpt lat="-26.5504784" lon="152.9614883">
<ele>10.415</ele>
<time>2016-05-21T03:59:55.866Z</time>
</trkpt>
<trkpt lat="-26.5510259" lon="152.9617306">
<ele>10.032</ele>
<time>2016-05-21T03:59:57.872Z</time>
</trkpt>
<trkpt lat="-26.5518400" lon="152.9621242">
<ele>9.587</ele>
<time>2016-05-21T04:00:00.892Z</time>
</trkpt>
<trkpt lat="-26.5526271" lon="152.9625532">
<ele>8.931</ele>
<time>2016-05-21T04:00:03.868Z</time>
</trkpt>
<trkpt lat="-26.5534055" lon="152.9630181">
<ele>8.276</ele>
<time>2016-05-21T04:00:06.909Z</time>
</trkpt>
<trkpt lat="-26.5541328" lon="152.9635366">
<ele>7.925</ele>
<time>2016-05-21T04:00:09.907Z</time>
</trkpt>
<trkpt lat="-26.5546081" lon="152.9639189">
<ele>7.765</ele>
<time>2016-05-21T04:00:11.948Z</time>
</trkpt>
<trkpt lat="-26.5553087" lon="152.9644592">
<ele>7.635</ele>
<time>2016-05-21T04:00:14.927Z</time>
</trkpt>
<trkpt lat="-26.5559798" lon="152.9650612">
<ele>7.225</ele>
<time>2016-05-21T04:00:17.938Z</time>
</trkpt>
<trkpt lat="-26.5566754" lon="152.9656134">
<ele>6.451</ele>
<time>2016-05-21T04:00:20.897Z</time>
</trkpt>
<trkpt lat="-26.5571936" lon="152.9659601">
<ele>5.782</ele>
<time>2016-05-21T04:00:22.987Z</time>
</trkpt>
<trkpt lat="-26.5579710" lon="152.9663828">
<ele>5.861</ele>
<time>2016-05-21T04:00:25.981Z</time>
</trkpt>
<trkpt lat="-26.5587799" lon="152.9667068">
<ele>6.706</ele>
<time>2016-05-21T04:00:28.967Z</time>
</trkpt>
<trkpt lat="-26.5593336" lon="152.9668783">
<ele>7.779</ele>
<time>2016-05-21T04:00:30.940Z</time>
</trkpt>
<trkpt lat="-26.5598991" lon="152.9670118">
<ele>8.394</ele>
<time>2016-05-21T04:00:32.907Z</time>
</trkpt>
<trkpt lat="-26.5604707" lon="152.9671074">
<ele>8.266</ele>
<time>2016-05-21T04:00:34.870Z</time>
</trkpt>
<trkpt lat="-26.5610453" lon="152.9671583">
<ele>7.738</ele>
<time>2016-05-21T04:00:36.824Z</time>
</trkpt>
<trkpt lat="-26.5619375" lon="152.9671466">
<ele>7.330</ele>
<time>2016-05-21T04:00:39.834Z</time>
</trkpt>
<trkpt lat="-26.5625306" lon="152.9670658">
<ele>7.051</ele>
<time>2016-05-21T04:00:41.838Z</time>
</trkpt>
<trkpt lat="-26.5631237" lon="152.9669740">
<ele>6.697</ele>
<time>2016-05-21T04:00:43.848Z</time>
</trkpt>
<trkpt lat="-26.5639941" lon="152.9667394">
<ele>5.837</ele>
<time>2016-05-21T04:00:46.856Z</time>
</trkpt>
<trkpt lat="-26.5648332" lon="152.9664430">
<ele>4.432</ele>
<time>2016-05-21T04:00:49.801Z</time>
</trkpt>
<trkpt lat="-26.5656636" lon="152.9660277">
<ele>3.371</ele>
<time>2016-05-21T04:00:52.826Z</time>
</trkpt>
<trkpt lat="-26.5661860" lon="152.9657030">
<ele>3.320</ele>
<time>2016-05-21T04:00:54.813Z</time>
</trkpt>
<trkpt lat="-26.5667232" lon="152.9653745">
<ele>3.874</ele>
<time>2016-05-21T04:00:56.848Z</time>
</trkpt>
<trkpt lat="-26.5675302" lon="152.9649246">
<ele>4.652</ele>
<time>2016-05-21T04:00:59.857Z</time>
</trkpt>
<trkpt lat="-26.5680922" lon="152.9646738">
<ele>5.534</ele>
<time>2016-05-21T04:01:01.909Z</time>
</trkpt>
<trkpt lat="-26.5686325" lon="152.9644706">
<ele>6.199</ele>
<time>2016-05-21T04:01:03.852Z</time>
</trkpt>
<trkpt lat="-26.5691940" lon="152.9642975">
<ele>6.405</ele>
<time>2016-05-21T04:01:05.849Z</time>
</trkpt>
<trkpt lat="-26.5700621" lon="152.9640748">
<ele>6.291</ele>
<time>2016-05-21T04:01:08.929Z</time>
</trkpt>
<trkpt lat="-26.5709161" lon="152.9639517">
<ele>6.104</ele>
<time>2016-05-21T04:01:11.929Z</time>
</trkpt>
<trkpt lat="-26.5714826" lon="152.9638811">
<ele>6.125</ele>
<time>2016-05-21T04:01:13.906Z</time>
</trkpt>
<trkpt lat="-26.5720490" lon="152.9638073">
<ele>6.431</ele>
<time>2016-05-21T04:01:15.876Z</time>
</trkpt>
<trkpt lat="-26.5726253" lon="152.9637353">
<ele>6.660</ele>
<time>2016-05-21T04:01:17.870Z</time>
</trkpt>
<trkpt lat="-26.5731899" lon="152.9636539">
<ele>6.352</ele>
<time>2016-05-21T04:01:19.829Z</time>
</trkpt>
<trkpt lat="-26.5740643" lon="152.9635410">
<ele>5.486</ele>
<time>2016-05-21T04:01:22.870Z</time>
</trkpt>
<trkpt lat="-26.5749271" lon="152.9634325">
<ele>4.450</ele>
<time>2016-05-21T04:01:25.896Z</time>
</trkpt>
<trkpt lat="-26.5754985" lon="152.9633579">
<ele>3.210</ele>
<time>2016-05-21T04:01:27.902Z</time>
</trkpt>
<trkpt lat="-26.5763383" lon="152.9632477">
<ele>1.568</ele>
<time>2016-05-21T04:01:30.838Z</time>
</trkpt>
<trkpt lat="-26.5772042" lon="152.9631440">
<ele>0.077</ele>
<time>2016-05-21T04:01:33.851Z</time>
</trkpt>
<trkpt lat="-26.5777751" lon="152.9631272">
<ele>0.000</ele>
<time>2016-05-21T04:01:35.836Z</time>
</trkpt>
<trkpt lat="-26.5786229" lon="152.9631605">
<ele>0.353</ele>
<time>2016-05-21T04:01:38.798Z</time>
</trkpt>
<trkpt lat="-26.5794908" lon="152.9632655">
<ele>1.299</ele>
<time>2016-05-21T04:01:41.876Z</time>
</trkpt>
<trkpt lat="-26.5803149" lon="152.9634692">
<ele>2.165</ele>
<time>2016-05-21T04:01:44.888Z</time>
</trkpt>
<trkpt lat="-26.5811104" lon="152.9637583">
<ele>3.198</ele>
<time>2016-05-21T04:01:47.873Z</time>
</trkpt>
<trkpt lat="-26.5818895" lon="152.9641417">
<ele>4.132</ele>
<time>2016-05-21T04:01:50.886Z</time>
</trkpt>
<trkpt lat="-26.5826170" lon="152.9646034">
<ele>4.744</ele>
<time>2016-05-21T04:01:53.842Z</time>
</trkpt>
<trkpt lat="-26.5830956" lon="152.9649550">
<ele>5.332</ele>
<time>2016-05-21T04:01:55.877Z</time>
</trkpt>
<trkpt lat="-26.5837428" lon="152.9655369">
<ele>5.968</ele>
<time>2016-05-21T04:01:58.814Z</time>
</trkpt>
<trkpt lat="-26.5841712" lon="152.9659422">
<ele>6.420</ele>
<time>2016-05-21T04:02:00.774Z</time>
</trkpt>
<trkpt lat="-26.5848738" lon="152.9665445">
<ele>6.661</ele>
<time>2016-05-21T04:02:03.792Z</time>
</trkpt>
<trkpt lat="-26.5853530" lon="152.9669293">
<ele>6.867</ele>
<time>2016-05-21T04:02:05.783Z</time>
</trkpt>
<trkpt lat="-26.5861018" lon="152.9674835">
<ele>6.885</ele>
<time>2016-05-21T04:02:08.812Z</time>
</trkpt>
<trkpt lat="-26.5868592" lon="152.9680001">
<ele>6.562</ele>
<time>2016-05-21T04:02:11.846Z</time>
</trkpt>
<trkpt lat="-26.5873770" lon="152.9682932">
<ele>6.241</ele>
<time>2016-05-21T04:02:13.836Z</time>
</trkpt>
<trkpt lat="-26.5881527" lon="152.9687063">
<ele>6.233</ele>
<time>2016-05-21T04:02:16.762Z</time>
</trkpt>
<trkpt lat="-26.5887005" lon="152.9689369">
<ele>6.402</ele>
<time>2016-05-21T04:02:18.744Z</time>
</trkpt>
<trkpt lat="-26.5892599" lon="152.9691492">
<ele>6.700</ele>
<time>2016-05-21T04:02:20.756Z</time>
</trkpt>
<trkpt lat="-26.5901202" lon="152.9694378">
<ele>7.409</ele>
<time>2016-05-21T04:02:23.892Z</time>
</trkpt>
<trkpt lat="-26.5906659" lon="152.9695913">
<ele>9.084</ele>
<time>2016-05-21T04:02:25.878Z</time>
</trkpt>
<trkpt lat="-26.5914758" lon="152.9698360">
<ele>11.861</ele>
<time>2016-05-21T04:02:28.835Z</time>
</trkpt>
<trkpt lat="-26.5920350" lon="152.9700345">
<ele>15.437</ele>
<time>2016-05-21T04:02:30.867Z</time>
</trkpt>
<trkpt lat="-26.5923078" lon="152.9701380">
<ele>21.364</ele>
<time>2016-05-21T04:02:31.863Z</time>
</trkpt>
<trkpt lat="-26.5934018" lon="152.9706269">
<ele>29.993</ele>
<time>2016-05-21T04:02:35.809Z</time>
</trkpt>
<trkpt lat="-26.5939624" lon="152.9708841">
<ele>37.673</ele>
<time>2016-05-21T04:02:37.868Z</time>
</trkpt>
<trkpt lat="-26.5945159" lon="152.9711238">
<ele>41.690</ele>
<time>2016-05-21T04:02:39.908Z</time>
</trkpt>
<trkpt lat="-26.5950616" lon="152.9713259">
<ele>42.789</ele>
<time>2016-05-21T04:02:41.883Z</time>
</trkpt>
<trkpt lat="-26.5959078" lon="152.9715616">
<ele>42.399</ele>
<time>2016-05-21T04:02:44.861Z</time>
</trkpt>
<trkpt lat="-26.5964785" lon="152.9716827">
<ele>41.755</ele>
<time>2016-05-21T04:02:46.839Z</time>
</trkpt>
<trkpt lat="-26.5970720" lon="152.9717826">
<ele>40.774</ele>
<time>2016-05-21T04:02:48.898Z</time>
</trkpt>
<trkpt lat="-26.5979324" lon="152.9719755">
<ele>39.019</ele>
<time>2016-05-21T04:02:51.969Z</time>
</trkpt>
<trkpt lat="-26.5984799" lon="152.9720780">
<ele>36.654</ele>
<time>2016-05-21T04:02:53.911Z</time>
</trkpt>
<trkpt lat="-26.5990466" lon="152.9721832">
<ele>34.235</ele>
<time>2016-05-21T04:02:55.902Z</time>
</trkpt>
<trkpt lat="-26.5996232" lon="152.9722947">
<ele>32.576</ele>
<time>2016-05-21T04:02:57.930Z</time>
</trkpt>
<trkpt lat="-26.6004860" lon="152.9724609">
<ele>32.539</ele>
<time>2016-05-21T04:03:00.971Z</time>
</trkpt>
<trkpt lat="-26.6010485" lon="152.9725636">
<ele>34.100</ele>
<time>2016-05-21T04:03:02.945Z</time>
</trkpt>
<trkpt lat="-26.6018942" lon="152.9727161">
<ele>36.240</ele>
<time>2016-05-21T04:03:05.894Z</time>
</trkpt>
<trkpt lat="-26.6027553" lon="152.9728801">
<ele>37.605</ele>
<time>2016-05-21T04:03:08.875Z</time>
</trkpt>
<trkpt lat="-26.6036234" lon="152.9730350">
<ele>37.465</ele>
<time>2016-05-21T04:03:11.851Z</time>
</trkpt>
<trkpt lat="-26.6042028" lon="152.9731472">
<ele>35.389</ele>
<time>2016-05-21T04:03:13.856Z</time>
</trkpt>
<trkpt lat="-26.6047753" lon="152.9732857">
<ele>31.610</ele>
<time>2016-05-21T04:03:15.867Z</time>
</trkpt>
<trkpt lat="-26.6053396" lon="152.9734413">
<ele>27.147</ele>
<time>2016-05-21T04:03:17.874Z</time>
</trkpt>
<trkpt lat="-26.6059010" lon="152.9736201">
<ele>22.771</ele>
<time>2016-05-21T04:03:19.894Z</time>
</trkpt>
<trkpt lat="-26.6064380" lon="152.9738395">
<ele>18.842</ele>
<time>2016-05-21T04:03:21.871Z</time>
</trkpt>
<trkpt lat="-26.6072294" lon="152.9742097">
<ele>15.966</ele>
<time>2016-05-21T04:03:24.826Z</time>
</trkpt>
<trkpt lat="-26.6077440" lon="152.9744824">
<ele>14.841</ele>
<time>2016-05-21T04:03:26.779Z</time>
</trkpt>
<trkpt lat="-26.6085129" lon="152.9749252">
<ele>15.348</ele>
<time>2016-05-21T04:03:29.734Z</time>
</trkpt>
<trkpt lat="-26.6092768" lon="152.9754467">
<ele>16.273</ele>
<time>2016-05-21T04:03:32.793Z</time>
</trkpt>
<trkpt lat="-26.6100407" lon="152.9759361">
<ele>16.707</ele>
<time>2016-05-21T04:03:35.831Z</time>
</trkpt>
<trkpt lat="-26.6105411" lon="152.9762558">
<ele>16.610</ele>
<time>2016-05-21T04:03:37.832Z</time>
</trkpt>
<trkpt lat="-26.6112840" lon="152.9767667">
<ele>15.378</ele>
<time>2016-05-21T04:03:40.852Z</time>
</trkpt>
<trkpt lat="-26.6117725" lon="152.9771117">
<ele>12.165</ele>
<time>2016-05-21T04:03:42.843Z</time>
</trkpt>
<trkpt lat="-26.6125195" lon="152.9776240">
<ele>8.003</ele>
<time>2016-05-21T04:03:45.866Z</time>
</trkpt>
<trkpt lat="-26.6132560" lon="152.9781306">
<ele>5.099</ele>
<time>2016-05-21T04:03:48.889Z</time>
</trkpt>
<trkpt lat="-26.6137317" lon="152.9784605">
<ele>4.396</ele>
<time>2016-05-21T04:03:50.860Z</time>
</trkpt>
<trkpt lat="-26.6144395" lon="152.9789626">
<ele>5.409</ele>
<time>2016-05-21T04:03:53.819Z</time>
</trkpt>
<trkpt lat="-26.6149161" lon="152.9793085">
<ele>6.783</ele>
<time>2016-05-21T04:03:55.817Z</time>
</trkpt>
<trkpt lat="-26.6156349" lon="152.9798354">
<ele>7.481</ele>
<time>2016-05-21T04:03:58.819Z</time>
</trkpt>
<trkpt lat="-26.6161283" lon="152.9801616">
<ele>7.640</ele>
<time>2016-05-21T04:04:00.801Z</time>
</trkpt>
<trkpt lat="-26.6166243" lon="152.9805113">
<ele>7.681</ele>
<time>2016-05-21T04:04:02.815Z</time>
</trkpt>
<trkpt lat="-26.6171142" lon="152.9808475">
<ele>7.633</ele>
<time>2016-05-21T04:04:04.791Z</time>
</trkpt>
<trkpt lat="-26.6178218" lon="152.9813701">
<ele>6.918</ele>
<time>2016-05-21T04:04:07.716Z</time>
</trkpt>
<trkpt lat="-26.6185073" lon="152.9819962">
<ele>4.904</ele>
<time>2016-05-21T04:04:10.768Z</time>
</trkpt>
<trkpt lat="-26.6191305" lon="152.9826890">
<ele>2.150</ele>
<time>2016-05-21T04:04:13.820Z</time>
</trkpt>
<trkpt lat="-26.6194884" lon="152.9831707">
<ele>0.000</ele>
<time>2016-05-21T04:04:15.786Z</time>
</trkpt>
<trkpt lat="-26.6198175" lon="152.9836745">
<ele>0.000</ele>
<time>2016-05-21T04:04:17.762Z</time>
</trkpt>
<trkpt lat="-26.6201385" lon="152.9842005">
<ele>0.000</ele>
<time>2016-05-21T04:04:19.793Z</time>
</trkpt>
<trkpt lat="-26.6206168" lon="152.9849570">
<ele>0.000</ele>
<time>2016-05-21T04:04:22.778Z</time>
</trkpt>
<trkpt lat="-26.6209439" lon="152.9854383">
<ele>0.636</ele>
<time>2016-05-21T04:04:24.716Z</time>
</trkpt>
<trkpt lat="-26.6215589" lon="152.9861042">
<ele>2.271</ele>
<time>2016-05-21T04:04:27.746Z</time>
</trkpt>
<trkpt lat="-26.6219803" lon="152.9864962">
<ele>4.160</ele>
<time>2016-05-21T04:04:29.661Z</time>
</trkpt>
<trkpt lat="-26.6224439" lon="152.9868782">
<ele>5.709</ele>
<time>2016-05-21T04:04:31.674Z</time>
</trkpt>
<trkpt lat="-26.6232074" lon="152.9873557">
<ele>7.059</ele>
<time>2016-05-21T04:04:34.752Z</time>
</trkpt>
<trkpt lat="-26.6237162" lon="152.9876344">
<ele>8.718</ele>
<time>2016-05-21T04:04:36.749Z</time>
</trkpt>
<trkpt lat="-26.6244949" lon="152.9879696">
<ele>11.035</ele>
<time>2016-05-21T04:04:39.680Z</time>
</trkpt>
<trkpt lat="-26.6250577" lon="152.9880640">
<ele>13.586</ele>
<time>2016-05-21T04:04:41.668Z</time>
</trkpt>
<trkpt lat="-26.6256105" lon="152.9881339">
<ele>16.441</ele>
<time>2016-05-21T04:04:43.604Z</time>
</trkpt>
<trkpt lat="-26.6264729" lon="152.9881945">
<ele>20.183</ele>
<time>2016-05-21T04:04:46.581Z</time>
</trkpt>
<trkpt lat="-26.6270556" lon="152.9881692">
<ele>23.740</ele>
<time>2016-05-21T04:04:48.586Z</time>
</trkpt>
<trkpt lat="-26.6279341" lon="152.9881540">
<ele>25.671</ele>
<time>2016-05-21T04:04:51.654Z</time>
</trkpt>
<trkpt lat="-26.6285187" lon="152.9881342">
<ele>25.993</ele>
<time>2016-05-21T04:04:53.721Z</time>
</trkpt>
<trkpt lat="-26.6293491" lon="152.9881215">
<ele>24.737</ele>
<time>2016-05-21T04:04:56.611Z</time>
</trkpt>
<trkpt lat="-26.6299292" lon="152.9881170">
<ele>21.390</ele>
<time>2016-05-21T04:04:58.607Z</time>
</trkpt>
<trkpt lat="-26.6308111" lon="152.9880947">
<ele>16.517</ele>
<time>2016-05-21T04:05:01.674Z</time>
</trkpt>
<trkpt lat="-26.6313868" lon="152.9880771">
<ele>11.997</ele>
<time>2016-05-21T04:05:03.685Z</time>
</trkpt>
<trkpt lat="-26.6322357" lon="152.9880577">
<ele>8.728</ele>
<time>2016-05-21T04:05:06.633Z</time>
</trkpt>
<trkpt lat="-26.6331093" lon="152.9879887">
<ele>6.458</ele>
<time>2016-05-21T04:05:09.649Z</time>
</trkpt>
<trkpt lat="-26.6339755" lon="152.9879146">
<ele>5.444</ele>
<time>2016-05-21T04:05:12.634Z</time>
</trkpt>
<trkpt lat="-26.6348482" lon="152.9878314">
<ele>5.911</ele>
<time>2016-05-21T04:05:15.625Z</time>
</trkpt>
<trkpt lat="-26.6354381" lon="152.9877582">
<ele>6.981</ele>
<time>2016-05-21T04:05:17.628Z</time>
</trkpt>
<trkpt lat="-26.6360276" lon="152.9876755">
<ele>7.722</ele>
<time>2016-05-21T04:05:19.631Z</time>
</trkpt>
<trkpt lat="-26.6369242" lon="152.9875493">
<ele>7.632</ele>
<time>2016-05-21T04:05:22.713Z</time>
</trkpt>
<trkpt lat="-26.6375016" lon="152.9874876">
<ele>6.457</ele>
<time>2016-05-21T04:05:24.716Z</time>
</trkpt>
<trkpt lat="-26.6380713" lon="152.9874234">
<ele>4.656</ele>
<time>2016-05-21T04:05:26.705Z</time>
</trkpt>
<trkpt lat="-26.6386459" lon="152.9873962">
<ele>3.029</ele>
<time>2016-05-21T04:05:28.695Z</time>
</trkpt>
<trkpt lat="-26.6392205" lon="152.9873970">
<ele>1.910</ele>
<time>2016-05-21T04:05:30.675Z</time>
</trkpt>
<trkpt lat="-26.6400850" lon="152.9874298">
<ele>1.431</ele>
<time>2016-05-21T04:05:33.648Z</time>
</trkpt>
<trkpt lat="-26.6406682" lon="152.9874727">
<ele>1.677</ele>
<time>2016-05-21T04:05:35.681Z</time>
</trkpt>
<trkpt lat="-26.6412314" lon="152.9875494">
<ele>2.347</ele>
<time>2016-05-21T04:05:37.657Z</time>
</trkpt>
<trkpt lat="-26.6420995" lon="152.9876751">
<ele>2.944</ele>
<time>2016-05-21T04:05:40.712Z</time>
</trkpt>
<trkpt lat="-26.6426315" lon="152.9878568">
<ele>2.961</ele>
<time>2016-05-21T04:05:42.658Z</time>
</trkpt>
<trkpt lat="-26.6434626" lon="152.9880784">
<ele>2.328</ele>
<time>2016-05-21T04:05:45.662Z</time>
</trkpt>
<trkpt lat="-26.6440246" lon="152.9882212">
<ele>1.693</ele>
<time>2016-05-21T04:05:47.689Z</time>
</trkpt>
<trkpt lat="-26.6448478" lon="152.9884204">
<ele>2.086</ele>
<time>2016-05-21T04:05:50.650Z</time>
</trkpt>
<trkpt lat="-26.6454044" lon="152.9885581">
<ele>3.624</ele>
<time>2016-05-21T04:05:52.650Z</time>
</trkpt>
<trkpt lat="-26.6462343" lon="152.9887652">
<ele>5.709</ele>
<time>2016-05-21T04:05:55.619Z</time>
</trkpt>
<trkpt lat="-26.6470740" lon="152.9889845">
<ele>7.906</ele>
<time>2016-05-21T04:05:58.594Z</time>
</trkpt>
<trkpt lat="-26.6476353" lon="152.9891418">
<ele>9.571</ele>
<time>2016-05-21T04:06:00.590Z</time>
</trkpt>
<trkpt lat="-26.6481898" lon="152.9892656">
<ele>10.019</ele>
<time>2016-05-21T04:06:02.541Z</time>
</trkpt>
<trkpt lat="-26.6490413" lon="152.9894739">
<ele>9.156</ele>
<time>2016-05-21T04:06:05.547Z</time>
</trkpt>
<trkpt lat="-26.6498836" lon="152.9897184">
<ele>7.430</ele>
<time>2016-05-21T04:06:08.564Z</time>
</trkpt>
<trkpt lat="-26.6507001" lon="152.9900144">
<ele>5.964</ele>
<time>2016-05-21T04:06:11.544Z</time>
</trkpt>
<trkpt lat="-26.6515131" lon="152.9903381">
<ele>5.797</ele>
<time>2016-05-21T04:06:14.521Z</time>
</trkpt>
<trkpt lat="-26.6523067" lon="152.9907238">
<ele>6.985</ele>
<time>2016-05-21T04:06:17.497Z</time>
</trkpt>
<trkpt lat="-26.6531141" lon="152.9911166">
<ele>8.750</ele>
<time>2016-05-21T04:06:20.533Z</time>
</trkpt>
<trkpt lat="-26.6538765" lon="152.9915625">
<ele>10.609</ele>
<time>2016-05-21T04:06:23.527Z</time>
</trkpt>
<trkpt lat="-26.6543768" lon="152.9918821">
<ele>13.766</ele>
<time>2016-05-21T04:06:25.540Z</time>
</trkpt>
<trkpt lat="-26.6551568" lon="152.9923379">
<ele>18.715</ele>
<time>2016-05-21T04:06:28.709Z</time>
</trkpt>
<trkpt lat="-26.6558985" lon="152.9927757">
<ele>24.038</ele>
<time>2016-05-21T04:06:32.163Z</time>
</trkpt>
<trkpt lat="-26.6565039" lon="152.9931483">
<ele>28.262</ele>
<time>2016-05-21T04:06:35.476Z</time>
</trkpt>
<trkpt lat="-26.6568627" lon="152.9933417">
<ele>30.301</ele>
<time>2016-05-21T04:06:37.386Z</time>
</trkpt>
<trkpt lat="-26.6572198" lon="152.9935603">
<ele>29.990</ele>
<time>2016-05-21T04:06:39.258Z</time>
</trkpt>
<trkpt lat="-26.6575726" lon="152.9938060">
<ele>29.132</ele>
<time>2016-05-21T04:06:41.058Z</time>
</trkpt>
<trkpt lat="-26.6582002" lon="152.9940891">
<ele>29.253</ele>
<time>2016-05-21T04:06:43.775Z</time>
</trkpt>
<trkpt lat="-26.6588945" lon="152.9944321">
<ele>30.163</ele>
<time>2016-05-21T04:06:46.535Z</time>
</trkpt>
<trkpt lat="-26.6596906" lon="152.9948424">
<ele>31.853</ele>
<time>2016-05-21T04:06:49.518Z</time>
</trkpt>
<trkpt lat="-26.6605265" lon="152.9952189">
<ele>34.439</ele>
<time>2016-05-21T04:06:52.556Z</time>
</trkpt>
<trkpt lat="-26.6613524" lon="152.9955556">
<ele>36.314</ele>
<time>2016-05-21T04:06:55.538Z</time>
</trkpt>
<trkpt lat="-26.6619101" lon="152.9957630">
<ele>35.805</ele>
<time>2016-05-21T04:06:57.522Z</time>
</trkpt>
<trkpt lat="-26.6627623" lon="152.9960570">
<ele>33.128</ele>
<time>2016-05-21T04:07:00.520Z</time>
</trkpt>
<trkpt lat="-26.6633335" lon="152.9962458">
<ele>28.424</ele>
<time>2016-05-21T04:07:02.533Z</time>
</trkpt>
<trkpt lat="-26.6638993" lon="152.9964079">
<ele>21.721</ele>
<time>2016-05-21T04:07:04.511Z</time>
</trkpt>
<trkpt lat="-26.6647494" lon="152.9966784">
<ele>15.113</ele>
<time>2016-05-21T04:07:07.513Z</time>
</trkpt>
<trkpt lat="-26.6656488" lon="152.9968832">
<ele>12.641</ele>
<time>2016-05-21T04:07:10.666Z</time>
</trkpt>
<trkpt lat="-26.6662211" lon="152.9970021">
<ele>15.291</ele>
<time>2016-05-21T04:07:12.685Z</time>
</trkpt>
<trkpt lat="-26.6667754" lon="152.9971246">
<ele>19.201</ele>
<time>2016-05-21T04:07:14.640Z</time>
</trkpt>
<trkpt lat="-26.6673594" lon="152.9972428">
<ele>20.926</ele>
<time>2016-05-21T04:07:16.686Z</time>
</trkpt>
<trkpt lat="-26.6681959" lon="152.9974180">
<ele>20.752</ele>
<time>2016-05-21T04:07:19.563Z</time>
</trkpt>
<trkpt lat="-26.6687749" lon="152.9975059">
<ele>20.046</ele>
<time>2016-05-21T04:07:21.519Z</time>
</trkpt>
<trkpt lat="-26.6694018" lon="152.9976357">
<ele>19.479</ele>
<time>2016-05-21T04:07:23.666Z</time>
</trkpt>
<trkpt lat="-26.6702644" lon="152.9978196">
<ele>19.046</ele>
<time>2016-05-21T04:07:26.658Z</time>
</trkpt>
<trkpt lat="-26.6711225" lon="152.9980293">
<ele>18.209</ele>
<time>2016-05-21T04:07:29.629Z</time>
</trkpt>
<trkpt lat="-26.6716944" lon="152.9982024">
<ele>16.543</ele>
<time>2016-05-21T04:07:31.629Z</time>
</trkpt>
<trkpt lat="-26.6725461" lon="152.9984777">
<ele>14.688</ele>
<time>2016-05-21T04:07:34.610Z</time>
</trkpt>
<trkpt lat="-26.6731149" lon="152.9986840">
<ele>13.847</ele>
<time>2016-05-21T04:07:36.625Z</time>
</trkpt>
<trkpt lat="-26.6739727" lon="152.9990270">
<ele>14.330</ele>
<time>2016-05-21T04:07:39.722Z</time>
</trkpt>
<trkpt lat="-26.6747640" lon="152.9993865">
<ele>15.454</ele>
<time>2016-05-21T04:07:42.625Z</time>
</trkpt>
<trkpt lat="-26.6753127" lon="152.9996452">
<ele>16.491</ele>
<time>2016-05-21T04:07:44.642Z</time>
</trkpt>
<trkpt lat="-26.6761120" lon="153.0000882">
<ele>17.847</ele>
<time>2016-05-21T04:07:47.663Z</time>
</trkpt>
<trkpt lat="-26.6766261" lon="153.0003952">
<ele>19.874</ele>
<time>2016-05-21T04:07:49.638Z</time>
</trkpt>
<trkpt lat="-26.6773851" lon="153.0008691">
<ele>21.673</ele>
<time>2016-05-21T04:07:52.583Z</time>
</trkpt>
<trkpt lat="-26.6778957" lon="153.0011909">
<ele>21.841</ele>
<time>2016-05-21T04:07:54.567Z</time>
</trkpt>
<trkpt lat="-26.6786714" lon="153.0016826">
<ele>20.306</ele>
<time>2016-05-21T04:07:57.605Z</time>
</trkpt>
<trkpt lat="-26.6792277" lon="153.0019985">
<ele>17.938</ele>
<time>2016-05-21T04:07:59.763Z</time>
</trkpt>
<trkpt lat="-26.6797437" lon="153.0022888">
<ele>14.701</ele>
<time>2016-05-21T04:08:01.774Z</time>
</trkpt>
<trkpt lat="-26.6802751" lon="153.0025346">
<ele>10.622</ele>
<time>2016-05-21T04:08:03.774Z</time>
</trkpt>
<trkpt lat="-26.6810909" lon="153.0028056">
<ele>7.174</ele>
<time>2016-05-21T04:08:06.728Z</time>
</trkpt>
<trkpt lat="-26.6816527" lon="153.0029410">
<ele>4.839</ele>
<time>2016-05-21T04:08:08.731Z</time>
</trkpt>
<trkpt lat="-26.6824982" lon="153.0030895">
<ele>3.036</ele>
<time>2016-05-21T04:08:11.715Z</time>
</trkpt>
<trkpt lat="-26.6830539" lon="153.0032153">
<ele>2.409</ele>
<time>2016-05-21T04:08:13.682Z</time>
</trkpt>
<trkpt lat="-26.6839011" lon="153.0033829">
<ele>3.476</ele>
<time>2016-05-21T04:08:16.651Z</time>
</trkpt>
<trkpt lat="-26.6844842" lon="153.0034939">
<ele>5.281</ele>
<time>2016-05-21T04:08:18.689Z</time>
</trkpt>
<trkpt lat="-26.6853214" lon="153.0036640">
<ele>6.815</ele>
<time>2016-05-21T04:08:21.611Z</time>
</trkpt>
<trkpt lat="-26.6861951" lon="153.0038212">
<ele>8.307</ele>
<time>2016-05-21T04:08:24.651Z</time>
</trkpt>
<trkpt lat="-26.6870558" lon="153.0039470">
<ele>10.426</ele>
<time>2016-05-21T04:08:27.627Z</time>
</trkpt>
<trkpt lat="-26.6876247" lon="153.0040324">
<ele>12.928</ele>
<time>2016-05-21T04:08:29.587Z</time>
</trkpt>
<trkpt lat="-26.6884955" lon="153.0041940">
<ele>14.786</ele>
<time>2016-05-21T04:08:32.596Z</time>
</trkpt>
<trkpt lat="-26.6893507" lon="153.0044436">
<ele>15.422</ele>
<time>2016-05-21T04:08:35.638Z</time>
</trkpt>
<trkpt lat="-26.6898917" lon="153.0046811">
<ele>14.819</ele>
<time>2016-05-21T04:08:37.651Z</time>
</trkpt>
<trkpt lat="-26.6906478" lon="153.0051300">
<ele>13.456</ele>
<time>2016-05-21T04:08:40.628Z</time>
</trkpt>
<trkpt lat="-26.6911273" lon="153.0054972">
<ele>11.853</ele>
<time>2016-05-21T04:08:42.646Z</time>
</trkpt>
<trkpt lat="-26.6915709" lon="153.0058857">
<ele>10.392</ele>
<time>2016-05-21T04:08:44.598Z</time>
</trkpt>
<trkpt lat="-26.6922035" lon="153.0065573">
<ele>9.364</ele>
<time>2016-05-21T04:08:47.607Z</time>
</trkpt>
<trkpt lat="-26.6928233" lon="153.0072243">
<ele>8.940</ele>
<time>2016-05-21T04:08:50.576Z</time>
</trkpt>
<trkpt lat="-26.6932411" lon="153.0076684">
<ele>9.357</ele>
<time>2016-05-21T04:08:52.578Z</time>
</trkpt>
<trkpt lat="-26.6938656" lon="153.0083432">
<ele>10.708</ele>
<time>2016-05-21T04:08:55.649Z</time>
</trkpt>
<trkpt lat="-26.6944771" lon="153.0089879">
<ele>12.580</ele>
<time>2016-05-21T04:08:58.706Z</time>
</trkpt>
<trkpt lat="-26.6950586" lon="153.0096016">
<ele>14.305</ele>
<time>2016-05-21T04:09:01.664Z</time>
</trkpt>
<trkpt lat="-26.6952669" lon="153.0098037">
<ele>14.349</ele>
<time>2016-05-21T04:09:02.678Z</time>
</trkpt>
<trkpt lat="-26.6960857" lon="153.0106191">
<ele>12.080</ele>
<time>2016-05-21T04:09:06.617Z</time>
</trkpt>
<trkpt lat="-26.6965256" lon="153.0110310">
<ele>9.989</ele>
<time>2016-05-21T04:09:08.691Z</time>
</trkpt>
<trkpt lat="-26.6969118" lon="153.0114644">
<ele>10.543</ele>
<time>2016-05-21T04:09:10.671Z</time>
</trkpt>
<trkpt lat="-26.6975486" lon="153.0120721">
<ele>12.825</ele>
<time>2016-05-21T04:09:13.752Z</time>
</trkpt>
<trkpt lat="-26.6979523" lon="153.0125005">
<ele>14.741</ele>
<time>2016-05-21T04:09:15.857Z</time>
</trkpt>
<trkpt lat="-26.6985259" lon="153.0130933">
<ele>15.579</ele>
<time>2016-05-21T04:09:18.907Z</time>
</trkpt>
<trkpt lat="-26.6990781" lon="153.0136807">
<ele>15.750</ele>
<time>2016-05-21T04:09:21.932Z</time>
</trkpt>
<trkpt lat="-26.6996152" lon="153.0142368">
<ele>15.577</ele>
<time>2016-05-21T04:09:24.781Z</time>
</trkpt>
<trkpt lat="-26.7001870" lon="153.0148237">
<ele>15.193</ele>
<time>2016-05-21T04:09:27.713Z</time>
</trkpt>
<trkpt lat="-26.7007629" lon="153.0154439">
<ele>14.842</ele>
<time>2016-05-21T04:09:30.675Z</time>
</trkpt>
<trkpt lat="-26.7011458" lon="153.0158522">
<ele>14.720</ele>
<time>2016-05-21T04:09:32.577Z</time>
</trkpt>
<trkpt lat="-26.7015417" lon="153.0162744">
<ele>15.372</ele>
<time>2016-05-21T04:09:34.535Z</time>
</trkpt>
<trkpt lat="-26.7021820" lon="153.0169082">
<ele>17.175</ele>
<time>2016-05-21T04:09:37.609Z</time>
</trkpt>
<trkpt lat="-26.7026080" lon="153.0173078">
<ele>19.646</ele>
<time>2016-05-21T04:09:39.636Z</time>
</trkpt>
<trkpt lat="-26.7030593" lon="153.0176664">
<ele>22.302</ele>
<time>2016-05-21T04:09:41.658Z</time>
</trkpt>
<trkpt lat="-26.7037616" lon="153.0181762">
<ele>24.913</ele>
<time>2016-05-21T04:09:44.654Z</time>
</trkpt>
<trkpt lat="-26.7042148" lon="153.0184885">
<ele>26.977</ele>
<time>2016-05-21T04:09:46.466Z</time>
</trkpt>
<trkpt lat="-26.7047161" lon="153.0188051">
<ele>28.597</ele>
<time>2016-05-21T04:09:48.404Z</time>
</trkpt>
<trkpt lat="-26.7055407" lon="153.0192393">
<ele>30.330</ele>
<time>2016-05-21T04:09:51.440Z</time>
</trkpt>
<trkpt lat="-26.7060870" lon="153.0194963">
<ele>32.256</ele>
<time>2016-05-21T04:09:53.432Z</time>
</trkpt>
<trkpt lat="-26.7069086" lon="153.0198870">
<ele>34.028</ele>
<time>2016-05-21T04:09:56.493Z</time>
</trkpt>
<trkpt lat="-26.7074317" lon="153.0201251">
<ele>35.553</ele>
<time>2016-05-21T04:09:58.459Z</time>
</trkpt>
<trkpt lat="-26.7079734" lon="153.0203768">
<ele>36.847</ele>
<time>2016-05-21T04:10:00.514Z</time>
</trkpt>
<trkpt lat="-26.7082349" lon="153.0205509">
<ele>37.740</ele>
<time>2016-05-21T04:10:01.581Z</time>
</trkpt>
<trkpt lat="-26.7092595" lon="153.0211124">
<ele>37.486</ele>
<time>2016-05-21T04:10:05.543Z</time>
</trkpt>
<trkpt lat="-26.7100047" lon="153.0216004">
<ele>35.864</ele>
<time>2016-05-21T04:10:08.483Z</time>
</trkpt>
<trkpt lat="-26.7107078" lon="153.0221883">
<ele>33.705</ele>
<time>2016-05-21T04:10:11.418Z</time>
</trkpt>
<trkpt lat="-26.7111760" lon="153.0226368">
<ele>31.495</ele>
<time>2016-05-21T04:10:13.500Z</time>
</trkpt>
<trkpt lat="-26.7118227" lon="153.0233429">
<ele>29.352</ele>
<time>2016-05-21T04:10:16.645Z</time>
</trkpt>
<trkpt lat="-26.7123711" lon="153.0240769">
<ele>27.648</ele>
<time>2016-05-21T04:10:19.688Z</time>
</trkpt>
<trkpt lat="-26.7127268" lon="153.0245814">
<ele>26.217</ele>
<time>2016-05-21T04:10:21.757Z</time>
</trkpt>
<trkpt lat="-26.7131831" lon="153.0253591">
<ele>24.865</ele>
<time>2016-05-21T04:10:24.812Z</time>
</trkpt>
<trkpt lat="-26.7135826" lon="153.0261182">
<ele>23.447</ele>
<time>2016-05-21T04:10:27.627Z</time>
</trkpt>
<trkpt lat="-26.7138158" lon="153.0266527">
<ele>21.854</ele>
<time>2016-05-21T04:10:29.466Z</time>
</trkpt>
<trkpt lat="-26.7142182" lon="153.0275204">
<ele>20.605</ele>
<time>2016-05-21T04:10:32.402Z</time>
</trkpt>
<trkpt lat="-26.7144594" lon="153.0281261">
<ele>20.531</ele>
<time>2016-05-21T04:10:34.418Z</time>
</trkpt>
<trkpt lat="-26.7147038" lon="153.0287294">
<ele>21.593</ele>
<time>2016-05-21T04:10:36.491Z</time>
</trkpt>
<trkpt lat="-26.7149737" lon="153.0292949">
<ele>22.700</ele>
<time>2016-05-21T04:10:38.515Z</time>
</trkpt>
<trkpt lat="-26.7152502" lon="153.0298671">
<ele>22.667</ele>
<time>2016-05-21T04:10:40.565Z</time>
</trkpt>
<trkpt lat="-26.7157475" lon="153.0310002">
<ele>21.581</ele>
<time>2016-05-21T04:10:44.374Z</time>
</trkpt>
<trkpt lat="-26.7160316" lon="153.0315914">
<ele>20.437</ele>
<time>2016-05-21T04:10:46.352Z</time>
</trkpt>
<trkpt lat="-26.7164479" lon="153.0325008">
<ele>21.226</ele>
<time>2016-05-21T04:10:49.345Z</time>
</trkpt>
<trkpt lat="-26.7167401" lon="153.0331043">
<ele>25.192</ele>
<time>2016-05-21T04:10:51.376Z</time>
</trkpt>
<trkpt lat="-26.7171632" lon="153.0339880">
<ele>30.922</ele>
<time>2016-05-21T04:10:54.448Z</time>
</trkpt>
<trkpt lat="-26.7175591" lon="153.0348312">
<ele>35.756</ele>
<time>2016-05-21T04:10:57.465Z</time>
</trkpt>
<trkpt lat="-26.7178154" lon="153.0353830">
<ele>38.301</ele>
<time>2016-05-21T04:10:59.400Z</time>
</trkpt>
<trkpt lat="-26.7180838" lon="153.0359533">
<ele>38.748</ele>
<time>2016-05-21T04:11:01.400Z</time>
</trkpt>
<trkpt lat="-26.7183647" lon="153.0365289">
<ele>38.557</ele>
<time>2016-05-21T04:11:03.461Z</time>
</trkpt>
<trkpt lat="-26.7187429" lon="153.0373705">
<ele>39.063</ele>
<time>2016-05-21T04:11:06.581Z</time>
</trkpt>
<trkpt lat="-26.7189753" lon="153.0378824">
<ele>40.604</ele>
<time>2016-05-21T04:11:08.510Z</time>
</trkpt>
<trkpt lat="-26.7193260" lon="153.0386686">
<ele>42.500</ele>
<time>2016-05-21T04:11:11.496Z</time>
</trkpt>
<trkpt lat="-26.7195569" lon="153.0391889">
<ele>43.886</ele>
<time>2016-05-21T04:11:13.491Z</time>
</trkpt>
<trkpt lat="-26.7198754" lon="153.0399584">
<ele>44.464</ele>
<time>2016-05-21T04:11:16.427Z</time>
</trkpt>
<trkpt lat="-26.7200691" lon="153.0404965">
<ele>44.077</ele>
<time>2016-05-21T04:11:18.415Z</time>
</trkpt>
<trkpt lat="-26.7202951" lon="153.0410055">
<ele>42.670</ele>
<time>2016-05-21T04:11:20.350Z</time>
</trkpt>
<trkpt lat="-26.7206827" lon="153.0417972">
<ele>40.612</ele>
<time>2016-05-21T04:11:23.398Z</time>
</trkpt>
<trkpt lat="-26.7211464" lon="153.0425351">
<ele>38.370</ele>
<time>2016-05-21T04:11:26.495Z</time>
</trkpt>
<trkpt lat="-26.7214599" lon="153.0429864">
<ele>36.123</ele>
<time>2016-05-21T04:11:28.463Z</time>
</trkpt>
<trkpt lat="-26.7220000" lon="153.0436174">
<ele>33.598</ele>
<time>2016-05-21T04:11:31.432Z</time>
</trkpt>
<trkpt lat="-26.7224020" lon="153.0440161">
<ele>30.664</ele>
<time>2016-05-21T04:11:33.467Z</time>
</trkpt>
<trkpt lat="-26.7230141" lon="153.0445565">
<ele>28.131</ele>
<time>2016-05-21T04:11:36.424Z</time>
</trkpt>
<trkpt lat="-26.7234535" lon="153.0448791">
<ele>26.380</ele>
<time>2016-05-21T04:11:38.410Z</time>
</trkpt>
<trkpt lat="-26.7241410" lon="153.0453417">
<ele>24.822</ele>
<time>2016-05-21T04:11:41.441Z</time>
</trkpt>
<trkpt lat="-26.7246193" lon="153.0456029">
<ele>23.273</ele>
<time>2016-05-21T04:11:43.476Z</time>
</trkpt>
<trkpt lat="-26.7251091" lon="153.0458251">
<ele>21.769</ele>
<time>2016-05-21T04:11:45.501Z</time>
</trkpt>
<trkpt lat="-26.7258496" lon="153.0460921">
<ele>19.882</ele>
<time>2016-05-21T04:11:48.456Z</time>
</trkpt>
<trkpt lat="-26.7263629" lon="153.0462441">
<ele>17.347</ele>
<time>2016-05-21T04:11:50.460Z</time>
</trkpt>
<trkpt lat="-26.7271457" lon="153.0464062">
<ele>14.519</ele>
<time>2016-05-21T04:11:53.445Z</time>
</trkpt>
<trkpt lat="-26.7276734" lon="153.0464674">
<ele>11.730</ele>
<time>2016-05-21T04:11:55.436Z</time>
</trkpt>
<trkpt lat="-26.7284834" lon="153.0464911">
<ele>9.784</ele>
<time>2016-05-21T04:11:58.498Z</time>
</trkpt>
<trkpt lat="-26.7292689" lon="153.0465109">
<ele>9.197</ele>
<time>2016-05-21T04:12:01.482Z</time>
</trkpt>
<trkpt lat="-26.7297924" lon="153.0465187">
<ele>9.446</ele>
<time>2016-05-21T04:12:03.470Z</time>
</trkpt>
<trkpt lat="-26.7300563" lon="153.0465227">
<ele>9.703</ele>
<time>2016-05-21T04:12:04.471Z</time>
</trkpt>
<trkpt lat="-26.7311269" lon="153.0465560">
<ele>9.794</ele>
<time>2016-05-21T04:12:08.464Z</time>
</trkpt>
<trkpt lat="-26.7319515" lon="153.0465977">
<ele>9.877</ele>
<time>2016-05-21T04:12:11.569Z</time>
</trkpt>
<trkpt lat="-26.7327617" lon="153.0466510">
<ele>10.159</ele>
<time>2016-05-21T04:12:14.728Z</time>
</trkpt>
<trkpt lat="-26.7332528" lon="153.0467088">
<ele>10.458</ele>
<time>2016-05-21T04:12:16.679Z</time>
</trkpt>
<trkpt lat="-26.7339757" lon="153.0468093">
<ele>10.094</ele>
<time>2016-05-21T04:12:19.557Z</time>
</trkpt>
<trkpt lat="-26.7347268" lon="153.0469260">
<ele>8.680</ele>
<time>2016-05-21T04:12:22.529Z</time>
</trkpt>
<trkpt lat="-26.7352549" lon="153.0469964">
<ele>7.566</ele>
<time>2016-05-21T04:12:24.658Z</time>
</trkpt>
<trkpt lat="-26.7357359" lon="153.0470553">
<ele>8.229</ele>
<time>2016-05-21T04:12:26.548Z</time>
</trkpt>
<trkpt lat="-26.7362265" lon="153.0471167">
<ele>10.087</ele>
<time>2016-05-21T04:12:28.441Z</time>
</trkpt>
<trkpt lat="-26.7370158" lon="153.0472104">
<ele>11.942</ele>
<time>2016-05-21T04:12:31.374Z</time>
</trkpt>
<trkpt lat="-26.7378333" lon="153.0473039">
<ele>13.435</ele>
<time>2016-05-21T04:12:34.413Z</time>
</trkpt>
<trkpt lat="-26.7386417" lon="153.0474054">
<ele>14.502</ele>
<time>2016-05-21T04:12:37.500Z</time>
</trkpt>
<trkpt lat="-26.7391800" lon="153.0474634">
<ele>14.988</ele>
<time>2016-05-21T04:12:39.599Z</time>
</trkpt>
<trkpt lat="-26.7394367" lon="153.0474991">
<ele>14.925</ele>
<time>2016-05-21T04:12:40.606Z</time>
</trkpt>
<trkpt lat="-26.7405014" lon="153.0476702">
<ele>14.528</ele>
<time>2016-05-21T04:12:44.781Z</time>
</trkpt>
<trkpt lat="-26.7409896" lon="153.0477896">
<ele>14.130</ele>
<time>2016-05-21T04:12:46.714Z</time>
</trkpt>
<trkpt lat="-26.7417564" lon="153.0479480">
<ele>13.882</ele>
<time>2016-05-21T04:12:49.724Z</time>
</trkpt>
<trkpt lat="-26.7422454" lon="153.0480661">
<ele>13.522</ele>
<time>2016-05-21T04:12:51.637Z</time>
</trkpt>
<trkpt lat="-26.7427603" lon="153.0481710">
<ele>12.824</ele>
<time>2016-05-21T04:12:53.641Z</time>
</trkpt>
<trkpt lat="-26.7435373" lon="153.0483165">
<ele>11.958</ele>
<time>2016-05-21T04:12:56.675Z</time>
</trkpt>
<trkpt lat="-26.7440550" lon="153.0483843">
<ele>11.350</ele>
<time>2016-05-21T04:12:58.691Z</time>
</trkpt>
<trkpt lat="-26.7451016" lon="153.0484606">
<ele>11.223</ele>
<time>2016-05-21T04:13:02.717Z</time>
</trkpt>
<trkpt lat="-26.7456143" lon="153.0484591">
<ele>11.528</ele>
<time>2016-05-21T04:13:04.689Z</time>
</trkpt>
<trkpt lat="-26.7463870" lon="153.0483851">
<ele>12.029</ele>
<time>2016-05-21T04:13:07.658Z</time>
</trkpt>
<trkpt lat="-26.7471646" lon="153.0482551">
<ele>12.363</ele>
<time>2016-05-21T04:13:10.633Z</time>
</trkpt>
<trkpt lat="-26.7479500" lon="153.0480917">
<ele>12.322</ele>
<time>2016-05-21T04:13:13.592Z</time>
</trkpt>
<trkpt lat="-26.7484807" lon="153.0479668">
<ele>12.373</ele>
<time>2016-05-21T04:13:15.574Z</time>
</trkpt>
<trkpt lat="-26.7490250" lon="153.0478471">
<ele>13.096</ele>
<time>2016-05-21T04:13:17.604Z</time>
</trkpt>
<trkpt lat="-26.7498485" lon="153.0476755">
<ele>14.295</ele>
<time>2016-05-21T04:13:20.680Z</time>
</trkpt>
<trkpt lat="-26.7506217" lon="153.0475422">
<ele>15.982</ele>
<time>2016-05-21T04:13:23.536Z</time>
</trkpt>
<trkpt lat="-26.7511564" lon="153.0474387">
<ele>18.259</ele>
<time>2016-05-21T04:13:25.493Z</time>
</trkpt>
<trkpt lat="-26.7516668" lon="153.0473646">
<ele>20.088</ele>
<time>2016-05-21T04:13:27.342Z</time>
</trkpt>
<trkpt lat="-26.7525009" lon="153.0472315">
<ele>20.621</ele>
<time>2016-05-21T04:13:30.362Z</time>
</trkpt>
<trkpt lat="-26.7530571" lon="153.0471495">
<ele>20.600</ele>
<time>2016-05-21T04:13:32.402Z</time>
</trkpt>
<trkpt lat="-26.7536137" lon="153.0470739">
<ele>20.810</ele>
<time>2016-05-21T04:13:34.451Z</time>
</trkpt>
<trkpt lat="-26.7544390" lon="153.0469796">
<ele>20.955</ele>
<time>2016-05-21T04:13:37.482Z</time>
</trkpt>
<trkpt lat="-26.7552545" lon="153.0469005">
<ele>19.603</ele>
<time>2016-05-21T04:13:40.450Z</time>
</trkpt>
<trkpt lat="-26.7558072" lon="153.0468570">
<ele>16.314</ele>
<time>2016-05-21T04:13:42.441Z</time>
</trkpt>
<trkpt lat="-26.7566546" lon="153.0467714">
<ele>12.909</ele>
<time>2016-05-21T04:13:45.468Z</time>
</trkpt>
<trkpt lat="-26.7574925" lon="153.0466977">
<ele>10.977</ele>
<time>2016-05-21T04:13:48.473Z</time>
</trkpt>
<trkpt lat="-26.7580597" lon="153.0466450">
<ele>10.142</ele>
<time>2016-05-21T04:13:50.545Z</time>
</trkpt>
<trkpt lat="-26.7585948" lon="153.0465934">
<ele>9.551</ele>
<time>2016-05-21T04:13:52.552Z</time>
</trkpt>
<trkpt lat="-26.7591340" lon="153.0465451">
<ele>8.912</ele>
<time>2016-05-21T04:13:54.609Z</time>
</trkpt>
<trkpt lat="-26.7599298" lon="153.0464551">
<ele>8.419</ele>
<time>2016-05-21T04:13:57.858Z</time>
</trkpt>
<trkpt lat="-26.7604392" lon="153.0464032">
<ele>8.225</ele>
<time>2016-05-21T04:14:00.034Z</time>
</trkpt>
<trkpt lat="-26.7611065" lon="153.0463562">
<ele>7.855</ele>
<time>2016-05-21T04:14:02.932Z</time>
</trkpt>
<trkpt lat="-26.7618198" lon="153.0462528">
<ele>6.958</ele>
<time>2016-05-21T04:14:06.072Z</time>
</trkpt>
<trkpt lat="-26.7622772" lon="153.0461949">
<ele>6.077</ele>
<time>2016-05-21T04:14:08.087Z</time>
</trkpt>
<trkpt lat="-26.7629384" lon="153.0460796">
<ele>5.766</ele>
<time>2016-05-21T04:14:10.955Z</time>
</trkpt>
<trkpt lat="-26.7636143" lon="153.0459485">
<ele>5.796</ele>
<time>2016-05-21T04:14:13.709Z</time>
</trkpt>
<trkpt lat="-26.7640963" lon="153.0458360">
<ele>5.832</ele>
<time>2016-05-21T04:14:15.587Z</time>
</trkpt>
<trkpt lat="-26.7645988" lon="153.0457248">
<ele>6.145</ele>
<time>2016-05-21T04:14:17.518Z</time>
</trkpt>
<trkpt lat="-26.7653857" lon="153.0455548">
<ele>6.988</ele>
<time>2016-05-21T04:14:20.484Z</time>
</trkpt>
<trkpt lat="-26.7659118" lon="153.0454532">
<ele>7.784</ele>
<time>2016-05-21T04:14:22.447Z</time>
</trkpt>
<trkpt lat="-26.7664476" lon="153.0453402">
<ele>7.990</ele>
<time>2016-05-21T04:14:24.455Z</time>
</trkpt>
<trkpt lat="-26.7672430" lon="153.0451660">
<ele>7.990</ele>
<time>2016-05-21T04:14:27.534Z</time>
</trkpt>
<trkpt lat="-26.7677665" lon="153.0450456">
<ele>8.216</ele>
<time>2016-05-21T04:14:29.638Z</time>
</trkpt>
<trkpt lat="-26.7684814" lon="153.0448010">
<ele>8.237</ele>
<time>2016-05-21T04:14:32.656Z</time>
</trkpt>
<trkpt lat="-26.7689141" lon="153.0445870">
<ele>7.361</ele>
<time>2016-05-21T04:14:34.535Z</time>
</trkpt>
<trkpt lat="-26.7693605" lon="153.0443612">
<ele>5.671</ele>
<time>2016-05-21T04:14:36.472Z</time>
</trkpt>
<trkpt lat="-26.7700698" lon="153.0440270">
<ele>3.960</ele>
<time>2016-05-21T04:14:39.503Z</time>
</trkpt>
<trkpt lat="-26.7705455" lon="153.0438360">
<ele>3.048</ele>
<time>2016-05-21T04:14:41.475Z</time>
</trkpt>
<trkpt lat="-26.7710370" lon="153.0436649">
<ele>3.123</ele>
<time>2016-05-21T04:14:43.461Z</time>
</trkpt>
<trkpt lat="-26.7717984" lon="153.0434402">
<ele>3.652</ele>
<time>2016-05-21T04:14:46.413Z</time>
</trkpt>
<trkpt lat="-26.7725982" lon="153.0432659">
<ele>4.559</ele>
<time>2016-05-21T04:14:49.429Z</time>
</trkpt>
<trkpt lat="-26.7734140" lon="153.0431412">
<ele>5.981</ele>
<time>2016-05-21T04:14:52.507Z</time>
</trkpt>
<trkpt lat="-26.7741887" lon="153.0430744">
<ele>7.456</ele>
<time>2016-05-21T04:14:55.412Z</time>
</trkpt>
<trkpt lat="-26.7749911" lon="153.0430541">
<ele>8.615</ele>
<time>2016-05-21T04:14:58.408Z</time>
</trkpt>
<trkpt lat="-26.7755035" lon="153.0430858">
<ele>9.488</ele>
<time>2016-05-21T04:15:00.332Z</time>
</trkpt>
<trkpt lat="-26.7763050" lon="153.0431563">
<ele>9.978</ele>
<time>2016-05-21T04:15:03.348Z</time>
</trkpt>
<trkpt lat="-26.7768373" lon="153.0432374">
<ele>10.260</ele>
<time>2016-05-21T04:15:05.354Z</time>
</trkpt>
<trkpt lat="-26.7776290" lon="153.0434029">
<ele>10.676</ele>
<time>2016-05-21T04:15:08.337Z</time>
</trkpt>
<trkpt lat="-26.7781481" lon="153.0435240">
<ele>11.499</ele>
<time>2016-05-21T04:15:10.278Z</time>
</trkpt>
<trkpt lat="-26.7789473" lon="153.0437091">
<ele>12.803</ele>
<time>2016-05-21T04:15:13.127Z</time>
</trkpt>
<trkpt lat="-26.7798128" lon="153.0439046">
<ele>14.262</ele>
<time>2016-05-21T04:15:16.091Z</time>
</trkpt>
<trkpt lat="-26.7804039" lon="153.0440631">
<ele>16.031</ele>
<time>2016-05-21T04:15:18.149Z</time>
</trkpt>
<trkpt lat="-26.7812602" lon="153.0442813">
<ele>18.473</ele>
<time>2016-05-21T04:15:21.172Z</time>
</trkpt>
<trkpt lat="-26.7821014" lon="153.0444787">
<ele>21.102</ele>
<time>2016-05-21T04:15:24.122Z</time>
</trkpt>
<trkpt lat="-26.7829734" lon="153.0446857">
<ele>23.136</ele>
<time>2016-05-21T04:15:27.210Z</time>
</trkpt>
<trkpt lat="-26.7837999" lon="153.0448864">
<ele>24.246</ele>
<time>2016-05-21T04:15:30.188Z</time>
</trkpt>
<trkpt lat="-26.7843710" lon="153.0450263">
<ele>24.264</ele>
<time>2016-05-21T04:15:32.222Z</time>
</trkpt>
<trkpt lat="-26.7852169" lon="153.0452191">
<ele>23.324</ele>
<time>2016-05-21T04:15:35.216Z</time>
</trkpt>
<trkpt lat="-26.7857838" lon="153.0453309">
<ele>21.611</ele>
<time>2016-05-21T04:15:37.246Z</time>
</trkpt>
<trkpt lat="-26.7866228" lon="153.0454513">
<ele>19.653</ele>
<time>2016-05-21T04:15:40.266Z</time>
</trkpt>
<trkpt lat="-26.7871772" lon="153.0455065">
<ele>18.483</ele>
<time>2016-05-21T04:15:42.241Z</time>
</trkpt>
<trkpt lat="-26.7880245" lon="153.0455620">
<ele>18.574</ele>
<time>2016-05-21T04:15:45.217Z</time>
</trkpt>
<trkpt lat="-26.7886006" lon="153.0455690">
<ele>19.203</ele>
<time>2016-05-21T04:15:47.224Z</time>
</trkpt>
<trkpt lat="-26.7891665" lon="153.0455621">
<ele>19.713</ele>
<time>2016-05-21T04:15:49.196Z</time>
</trkpt>
<trkpt lat="-26.7897400" lon="153.0455378">
<ele>20.039</ele>
<time>2016-05-21T04:15:51.197Z</time>
</trkpt>
<trkpt lat="-26.7906104" lon="153.0454450">
<ele>20.210</ele>
<time>2016-05-21T04:15:54.256Z</time>
</trkpt>
<trkpt lat="-26.7914728" lon="153.0453281">
<ele>19.694</ele>
<time>2016-05-21T04:15:57.356Z</time>
</trkpt>
<trkpt lat="-26.7920282" lon="153.0452211">
<ele>18.216</ele>
<time>2016-05-21T04:15:59.391Z</time>
</trkpt>
<trkpt lat="-26.7928410" lon="153.0450326">
<ele>16.626</ele>
<time>2016-05-21T04:16:02.418Z</time>
</trkpt>
<trkpt lat="-26.7936401" lon="153.0447975">
<ele>15.800</ele>
<time>2016-05-21T04:16:05.479Z</time>
</trkpt>
<trkpt lat="-26.7944141" lon="153.0445425">
<ele>15.626</ele>
<time>2016-05-21T04:16:08.521Z</time>
</trkpt>
<trkpt lat="-26.7949221" lon="153.0443605">
<ele>15.806</ele>
<time>2016-05-21T04:16:10.555Z</time>
</trkpt>
<trkpt lat="-26.7956648" lon="153.0440996">
<ele>16.112</ele>
<time>2016-05-21T04:16:13.578Z</time>
</trkpt>
<trkpt lat="-26.7963867" lon="153.0438531">
<ele>16.324</ele>
<time>2016-05-21T04:16:16.545Z</time>
</trkpt>
<trkpt lat="-26.7971244" lon="153.0436085">
<ele>16.109</ele>
<time>2016-05-21T04:16:19.557Z</time>
</trkpt>
<trkpt lat="-26.7976190" lon="153.0434466">
<ele>15.310</ele>
<time>2016-05-21T04:16:21.563Z</time>
</trkpt>
<trkpt lat="-26.7981042" lon="153.0432800">
<ele>14.032</ele>
<time>2016-05-21T04:16:23.514Z</time>
</trkpt>
<trkpt lat="-26.7986018" lon="153.0431132">
<ele>12.572</ele>
<time>2016-05-21T04:16:25.497Z</time>
</trkpt>
<trkpt lat="-26.7993450" lon="153.0428555">
<ele>11.209</ele>
<time>2016-05-21T04:16:28.425Z</time>
</trkpt>
<trkpt lat="-26.7998556" lon="153.0426670">
<ele>10.191</ele>
<time>2016-05-21T04:16:30.430Z</time>
</trkpt>
<trkpt lat="-26.8006255" lon="153.0424094">
<ele>9.651</ele>
<time>2016-05-21T04:16:33.385Z</time>
</trkpt>
<trkpt lat="-26.8014013" lon="153.0421397">
<ele>9.677</ele>
<time>2016-05-21T04:16:36.325Z</time>
</trkpt>
<trkpt lat="-26.8019273" lon="153.0419582">
<ele>10.108</ele>
<time>2016-05-21T04:16:38.312Z</time>
</trkpt>
<trkpt lat="-26.8024562" lon="153.0417728">
<ele>10.536</ele>
<time>2016-05-21T04:16:40.308Z</time>
</trkpt>
<trkpt lat="-26.8029921" lon="153.0416019">
<ele>10.434</ele>
<time>2016-05-21T04:16:42.300Z</time>
</trkpt>
<trkpt lat="-26.8035221" lon="153.0414206">
<ele>9.713</ele>
<time>2016-05-21T04:16:44.278Z</time>
</trkpt>
<trkpt lat="-26.8040475" lon="153.0412336">
<ele>8.922</ele>
<time>2016-05-21T04:16:46.270Z</time>
</trkpt>
<trkpt lat="-26.8045876" lon="153.0410424">
<ele>8.531</ele>
<time>2016-05-21T04:16:48.343Z</time>
</trkpt>
<trkpt lat="-26.8050985" lon="153.0408836">
<ele>8.261</ele>
<time>2016-05-21T04:16:50.286Z</time>
</trkpt>
<trkpt lat="-26.8058831" lon="153.0406113">
<ele>7.589</ele>
<time>2016-05-21T04:16:53.280Z</time>
</trkpt>
<trkpt lat="-26.8066695" lon="153.0403362">
<ele>6.569</ele>
<time>2016-05-21T04:16:56.297Z</time>
</trkpt>
<trkpt lat="-26.8074512" lon="153.0400822">
<ele>6.004</ele>
<time>2016-05-21T04:16:59.267Z</time>
</trkpt>
<trkpt lat="-26.8082520" lon="153.0398281">
<ele>6.325</ele>
<time>2016-05-21T04:17:02.275Z</time>
</trkpt>
<trkpt lat="-26.8087802" lon="153.0396504">
<ele>7.492</ele>
<time>2016-05-21T04:17:04.290Z</time>
</trkpt>
<trkpt lat="-26.8093100" lon="153.0394805">
<ele>9.380</ele>
<time>2016-05-21T04:17:06.319Z</time>
</trkpt>
<trkpt lat="-26.8100724" lon="153.0392386">
<ele>11.286</ele>
<time>2016-05-21T04:17:09.268Z</time>
</trkpt>
<trkpt lat="-26.8105977" lon="153.0390660">
<ele>12.503</ele>
<time>2016-05-21T04:17:11.302Z</time>
</trkpt>
<trkpt lat="-26.8111179" lon="153.0389027">
<ele>13.130</ele>
<time>2016-05-21T04:17:13.312Z</time>
</trkpt>
<trkpt lat="-26.8118983" lon="153.0386623">
<ele>13.503</ele>
<time>2016-05-21T04:17:16.356Z</time>
</trkpt>
<trkpt lat="-26.8126596" lon="153.0384303">
<ele>13.861</ele>
<time>2016-05-21T04:17:19.352Z</time>
</trkpt>
<trkpt lat="-26.8131705" lon="153.0382793">
<ele>14.176</ele>
<time>2016-05-21T04:17:21.356Z</time>
</trkpt>
<trkpt lat="-26.8139387" lon="153.0380479">
<ele>14.321</ele>
<time>2016-05-21T04:17:24.386Z</time>
</trkpt>
<trkpt lat="-26.8144468" lon="153.0378972">
<ele>14.474</ele>
<time>2016-05-21T04:17:26.416Z</time>
</trkpt>
<trkpt lat="-26.8149533" lon="153.0377512">
<ele>14.752</ele>
<time>2016-05-21T04:17:28.447Z</time>
</trkpt>
<trkpt lat="-26.8156785" lon="153.0375393">
<ele>15.030</ele>
<time>2016-05-21T04:17:31.363Z</time>
</trkpt>
<trkpt lat="-26.8164034" lon="153.0373222">
<ele>15.253</ele>
<time>2016-05-21T04:17:34.258Z</time>
</trkpt>
<trkpt lat="-26.8171659" lon="153.0371235">
<ele>15.726</ele>
<time>2016-05-21T04:17:37.266Z</time>
</trkpt>
<trkpt lat="-26.8179230" lon="153.0369168">
<ele>16.616</ele>
<time>2016-05-21T04:17:40.232Z</time>
</trkpt>
<trkpt lat="-26.8184389" lon="153.0367716">
<ele>17.511</ele>
<time>2016-05-21T04:17:42.249Z</time>
</trkpt>
<trkpt lat="-26.8192238" lon="153.0365564">
<ele>17.981</ele>
<time>2016-05-21T04:17:45.357Z</time>
</trkpt>
<trkpt lat="-26.8197299" lon="153.0364326">
<ele>18.018</ele>
<time>2016-05-21T04:17:47.389Z</time>
</trkpt>
<trkpt lat="-26.8202315" lon="153.0362948">
<ele>17.781</ele>
<time>2016-05-21T04:17:49.449Z</time>
</trkpt>
<trkpt lat="-26.8207232" lon="153.0361644">
<ele>17.389</ele>
<time>2016-05-21T04:17:51.467Z</time>
</trkpt>
<trkpt lat="-26.8211973" lon="153.0360388">
<ele>16.919</ele>
<time>2016-05-21T04:17:53.389Z</time>
</trkpt>
<trkpt lat="-26.8216910" lon="153.0359143">
<ele>16.707</ele>
<time>2016-05-21T04:17:55.348Z</time>
</trkpt>
<trkpt lat="-26.8221908" lon="153.0357944">
<ele>17.376</ele>
<time>2016-05-21T04:17:57.303Z</time>
</trkpt>
<trkpt lat="-26.8229671" lon="153.0355890">
<ele>18.943</ele>
<time>2016-05-21T04:18:00.227Z</time>
</trkpt>
<trkpt lat="-26.8234942" lon="153.0354599">
<ele>20.603</ele>
<time>2016-05-21T04:18:02.121Z</time>
</trkpt>
<trkpt lat="-26.8240489" lon="153.0353312">
<ele>21.804</ele>
<time>2016-05-21T04:18:04.077Z</time>
</trkpt>
<trkpt lat="-26.8249071" lon="153.0351362">
<ele>22.690</ele>
<time>2016-05-21T04:18:07.116Z</time>
</trkpt>
<trkpt lat="-26.8257440" lon="153.0349288">
<ele>23.249</ele>
<time>2016-05-21T04:18:10.161Z</time>
</trkpt>
<trkpt lat="-26.8262864" lon="153.0348069">
<ele>22.332</ele>
<time>2016-05-21T04:18:12.083Z</time>
</trkpt>
<trkpt lat="-26.8268463" lon="153.0346778">
<ele>19.496</ele>
<time>2016-05-21T04:18:14.044Z</time>
</trkpt>
<trkpt lat="-26.8277168" lon="153.0344821">
<ele>16.531</ele>
<time>2016-05-21T04:18:16.984Z</time>
</trkpt>
<trkpt lat="-26.8283184" lon="153.0343418">
<ele>15.004</ele>
<time>2016-05-21T04:18:18.991Z</time>
</trkpt>
<trkpt lat="-26.8289215" lon="153.0342085">
<ele>14.545</ele>
<time>2016-05-21T04:18:20.987Z</time>
</trkpt>
<trkpt lat="-26.8295258" lon="153.0340749">
<ele>14.352</ele>
<time>2016-05-21T04:18:22.982Z</time>
</trkpt>
<trkpt lat="-26.8304187" lon="153.0338906">
<ele>14.090</ele>
<time>2016-05-21T04:18:25.922Z</time>
</trkpt>
<trkpt lat="-26.8310357" lon="153.0337648">
<ele>13.961</ele>
<time>2016-05-21T04:18:27.966Z</time>
</trkpt>
<trkpt lat="-26.8319378" lon="153.0335827">
<ele>14.104</ele>
<time>2016-05-21T04:18:31.032Z</time>
</trkpt>
<trkpt lat="-26.8325229" lon="153.0334576">
<ele>14.269</ele>
<time>2016-05-21T04:18:33.051Z</time>
</trkpt>
<trkpt lat="-26.8333916" lon="153.0332721">
<ele>14.187</ele>
<time>2016-05-21T04:18:36.058Z</time>
</trkpt>
<trkpt lat="-26.8339678" lon="153.0331507">
<ele>13.738</ele>
<time>2016-05-21T04:18:38.031Z</time>
</trkpt>
<trkpt lat="-26.8348637" lon="153.0329578">
<ele>12.926</ele>
<time>2016-05-21T04:18:41.109Z</time>
</trkpt>
<trkpt lat="-26.8354400" lon="153.0328326">
<ele>12.073</ele>
<time>2016-05-21T04:18:43.089Z</time>
</trkpt>
<trkpt lat="-26.8360118" lon="153.0327060">
<ele>11.572</ele>
<time>2016-05-21T04:18:45.045Z</time>
</trkpt>
<trkpt lat="-26.8368897" lon="153.0325195">
<ele>11.426</ele>
<time>2016-05-21T04:18:47.985Z</time>
</trkpt>
<trkpt lat="-26.8374952" lon="153.0323926">
<ele>11.411</ele>
<time>2016-05-21T04:18:49.992Z</time>
</trkpt>
<trkpt lat="-26.8384080" lon="153.0322029">
<ele>11.288</ele>
<time>2016-05-21T04:18:53.042Z</time>
</trkpt>
<trkpt lat="-26.8389920" lon="153.0320785">
<ele>10.996</ele>
<time>2016-05-21T04:18:55.034Z</time>
</trkpt>
<trkpt lat="-26.8395831" lon="153.0319448">
<ele>10.678</ele>
<time>2016-05-21T04:18:57.062Z</time>
</trkpt>
<trkpt lat="-26.8401599" lon="153.0318218">
<ele>10.317</ele>
<time>2016-05-21T04:18:59.031Z</time>
</trkpt>
<trkpt lat="-26.8410532" lon="153.0316359">
<ele>9.786</ele>
<time>2016-05-21T04:19:02.000Z</time>
</trkpt>
<trkpt lat="-26.8416543" lon="153.0315020">
<ele>9.210</ele>
<time>2016-05-21T04:19:04.002Z</time>
</trkpt>
<trkpt lat="-26.8425357" lon="153.0312987">
<ele>8.761</ele>
<time>2016-05-21T04:19:07.005Z</time>
</trkpt>
<trkpt lat="-26.8433870" lon="153.0310517">
<ele>8.515</ele>
<time>2016-05-21T04:19:09.946Z</time>
</trkpt>
<trkpt lat="-26.8442654" lon="153.0307696">
<ele>9.211</ele>
<time>2016-05-21T04:19:12.989Z</time>
</trkpt>
<trkpt lat="-26.8448369" lon="153.0305832">
<ele>11.390</ele>
<time>2016-05-21T04:19:14.981Z</time>
</trkpt>
<trkpt lat="-26.8453949" lon="153.0303689">
<ele>13.725</ele>
<time>2016-05-21T04:19:16.958Z</time>
</trkpt>
<trkpt lat="-26.8462257" lon="153.0300232">
<ele>14.763</ele>
<time>2016-05-21T04:19:19.915Z</time>
</trkpt>
<trkpt lat="-26.8470587" lon="153.0296445">
<ele>14.827</ele>
<time>2016-05-21T04:19:22.899Z</time>
</trkpt>
<trkpt lat="-26.8478756" lon="153.0292406">
<ele>14.791</ele>
<time>2016-05-21T04:19:25.858Z</time>
</trkpt>
<trkpt lat="-26.8486874" lon="153.0287883">
<ele>15.491</ele>
<time>2016-05-21T04:19:28.896Z</time>
</trkpt>
<trkpt lat="-26.8492049" lon="153.0284817">
<ele>17.226</ele>
<time>2016-05-21T04:19:30.878Z</time>
</trkpt>
<trkpt lat="-26.8499670" lon="153.0280083">
<ele>19.054</ele>
<time>2016-05-21T04:19:33.858Z</time>
</trkpt>
<trkpt lat="-26.8507158" lon="153.0275091">
<ele>18.723</ele>
<time>2016-05-21T04:19:36.848Z</time>
</trkpt>
<trkpt lat="-26.8512129" lon="153.0271623">
<ele>15.410</ele>
<time>2016-05-21T04:19:38.856Z</time>
</trkpt>
<trkpt lat="-26.8516928" lon="153.0268110">
<ele>11.506</ele>
<time>2016-05-21T04:19:40.808Z</time>
</trkpt>
<trkpt lat="-26.8521626" lon="153.0264299">
<ele>9.469</ele>
<time>2016-05-21T04:19:42.768Z</time>
</trkpt>
<trkpt lat="-26.8528874" lon="153.0258452">
<ele>9.149</ele>
<time>2016-05-21T04:19:45.759Z</time>
</trkpt>
<trkpt lat="-26.8535985" lon="153.0252227">
<ele>9.397</ele>
<time>2016-05-21T04:19:48.758Z</time>
</trkpt>
<trkpt lat="-26.8540483" lon="153.0248011">
<ele>9.298</ele>
<time>2016-05-21T04:19:50.675Z</time>
</trkpt>
<trkpt lat="-26.8547449" lon="153.0241116">
<ele>8.670</ele>
<time>2016-05-21T04:19:53.653Z</time>
</trkpt>
<trkpt lat="-26.8554226" lon="153.0233776">
<ele>7.811</ele>
<time>2016-05-21T04:19:56.688Z</time>
</trkpt>
<trkpt lat="-26.8560608" lon="153.0226431">
<ele>6.976</ele>
<time>2016-05-21T04:19:59.672Z</time>
</trkpt>
<trkpt lat="-26.8564778" lon="153.0221531">
<ele>6.285</ele>
<time>2016-05-21T04:20:01.662Z</time>
</trkpt>
<trkpt lat="-26.8568826" lon="153.0216524">
<ele>5.921</ele>
<time>2016-05-21T04:20:03.660Z</time>
</trkpt>
<trkpt lat="-26.8575135" lon="153.0209146">
<ele>6.028</ele>
<time>2016-05-21T04:20:06.699Z</time>
</trkpt>
<trkpt lat="-26.8579155" lon="153.0204295">
<ele>6.692</ele>
<time>2016-05-21T04:20:08.665Z</time>
</trkpt>
<trkpt lat="-26.8585570" lon="153.0197304">
<ele>7.767</ele>
<time>2016-05-21T04:20:11.630Z</time>
</trkpt>
<trkpt lat="-26.8589802" lon="153.0192512">
<ele>8.615</ele>
<time>2016-05-21T04:20:13.623Z</time>
</trkpt>
<trkpt lat="-26.8594081" lon="153.0187759">
<ele>8.832</ele>
<time>2016-05-21T04:20:15.625Z</time>
</trkpt>
<trkpt lat="-26.8598616" lon="153.0183205">
<ele>8.756</ele>
<time>2016-05-21T04:20:17.646Z</time>
</trkpt>
<trkpt lat="-26.8603084" lon="153.0178698">
<ele>8.752</ele>
<time>2016-05-21T04:20:19.632Z</time>
</trkpt>
<trkpt lat="-26.8607539" lon="153.0174141">
<ele>8.685</ele>
<time>2016-05-21T04:20:21.616Z</time>
</trkpt>
<trkpt lat="-26.8614351" lon="153.0167491">
<ele>8.359</ele>
<time>2016-05-21T04:20:24.596Z</time>
</trkpt>
<trkpt lat="-26.8619039" lon="153.0163166">
<ele>7.984</ele>
<time>2016-05-21T04:20:26.623Z</time>
</trkpt>
<trkpt lat="-26.8626124" lon="153.0156975">
<ele>7.577</ele>
<time>2016-05-21T04:20:29.678Z</time>
</trkpt>
<trkpt lat="-26.8630721" lon="153.0153034">
<ele>6.922</ele>
<time>2016-05-21T04:20:31.665Z</time>
</trkpt>
<trkpt lat="-26.8635388" lon="153.0149225">
<ele>6.227</ele>
<time>2016-05-21T04:20:33.637Z</time>
</trkpt>
<trkpt lat="-26.8640347" lon="153.0145570">
<ele>5.917</ele>
<time>2016-05-21T04:20:35.650Z</time>
</trkpt>
<trkpt lat="-26.8647775" lon="153.0140030">
<ele>6.027</ele>
<time>2016-05-21T04:20:38.659Z</time>
</trkpt>
<trkpt lat="-26.8652876" lon="153.0136392">
<ele>6.278</ele>
<time>2016-05-21T04:20:40.696Z</time>
</trkpt>
<trkpt lat="-26.8660406" lon="153.0131392">
<ele>6.131</ele>
<time>2016-05-21T04:20:43.656Z</time>
</trkpt>
<trkpt lat="-26.8665482" lon="153.0128258">
<ele>5.379</ele>
<time>2016-05-21T04:20:45.613Z</time>
</trkpt>
<trkpt lat="-26.8670736" lon="153.0125137">
<ele>4.402</ele>
<time>2016-05-21T04:20:47.617Z</time>
</trkpt>
<trkpt lat="-26.8676010" lon="153.0122078">
<ele>3.757</ele>
<time>2016-05-21T04:20:49.621Z</time>
</trkpt>
<trkpt lat="-26.8681169" lon="153.0119003">
<ele>3.613</ele>
<time>2016-05-21T04:20:51.590Z</time>
</trkpt>
<trkpt lat="-26.8689247" lon="153.0114531">
<ele>4.026</ele>
<time>2016-05-21T04:20:54.613Z</time>
</trkpt>
<trkpt lat="-26.8694725" lon="153.0111795">
<ele>4.804</ele>
<time>2016-05-21T04:20:56.628Z</time>
</trkpt>
<trkpt lat="-26.8700354" lon="153.0108957">
<ele>5.431</ele>
<time>2016-05-21T04:20:58.720Z</time>
</trkpt>
<trkpt lat="-26.8708456" lon="153.0105303">
<ele>5.443</ele>
<time>2016-05-21T04:21:01.742Z</time>
</trkpt>
<trkpt lat="-26.8716583" lon="153.0101898">
<ele>4.975</ele>
<time>2016-05-21T04:21:04.778Z</time>
</trkpt>
<trkpt lat="-26.8724583" lon="153.0098679">
<ele>4.458</ele>
<time>2016-05-21T04:21:07.780Z</time>
</trkpt>
<trkpt lat="-26.8729916" lon="153.0096732">
<ele>4.372</ele>
<time>2016-05-21T04:21:09.773Z</time>
</trkpt>
<trkpt lat="-26.8738027" lon="153.0094046">
<ele>4.586</ele>
<time>2016-05-21T04:21:12.816Z</time>
</trkpt>
<trkpt lat="-26.8745934" lon="153.0091308">
<ele>4.392</ele>
<time>2016-05-21T04:21:15.823Z</time>
</trkpt>
<trkpt lat="-26.8751155" lon="153.0089429">
<ele>3.383</ele>
<time>2016-05-21T04:21:17.807Z</time>
</trkpt>
<trkpt lat="-26.8759289" lon="153.0087226">
<ele>1.912</ele>
<time>2016-05-21T04:21:20.810Z</time>
</trkpt>
<trkpt lat="-26.8764799" lon="153.0085786">
<ele>0.612</ele>
<time>2016-05-21T04:21:22.859Z</time>
</trkpt>
<trkpt lat="-26.8772795" lon="153.0083826">
<ele>0.000</ele>
<time>2016-05-21T04:21:25.888Z</time>
</trkpt>
<trkpt lat="-26.8777948" lon="153.0082485">
<ele>0.000</ele>
<time>2016-05-21T04:21:27.861Z</time>
</trkpt>
<trkpt lat="-26.8785644" lon="153.0080569">
<ele>0.000</ele>
<time>2016-05-21T04:21:30.829Z</time>
</trkpt>
<trkpt lat="-26.8790935" lon="153.0079258">
<ele>0.000</ele>
<time>2016-05-21T04:21:32.874Z</time>
</trkpt>
<trkpt lat="-26.8798677" lon="153.0077252">
<ele>0.089</ele>
<time>2016-05-21T04:21:35.869Z</time>
</trkpt>
<trkpt lat="-26.8803808" lon="153.0076046">
<ele>0.979</ele>
<time>2016-05-21T04:21:37.834Z</time>
</trkpt>
<trkpt lat="-26.8811608" lon="153.0073970">
<ele>1.868</ele>
<time>2016-05-21T04:21:40.806Z</time>
</trkpt>
<trkpt lat="-26.8816859" lon="153.0072623">
<ele>3.077</ele>
<time>2016-05-21T04:21:42.802Z</time>
</trkpt>
<trkpt lat="-26.8824560" lon="153.0070406">
<ele>4.230</ele>
<time>2016-05-21T04:21:45.768Z</time>
</trkpt>
<trkpt lat="-26.8829733" lon="153.0069023">
<ele>4.876</ele>
<time>2016-05-21T04:21:47.747Z</time>
</trkpt>
<trkpt lat="-26.8834979" lon="153.0067623">
<ele>5.186</ele>
<time>2016-05-21T04:21:49.749Z</time>
</trkpt>
<trkpt lat="-26.8840144" lon="153.0066190">
<ele>5.574</ele>
<time>2016-05-21T04:21:51.722Z</time>
</trkpt>
<trkpt lat="-26.8848013" lon="153.0063916">
<ele>6.521</ele>
<time>2016-05-21T04:21:54.790Z</time>
</trkpt>
<trkpt lat="-26.8850694" lon="153.0063076">
<ele>7.947</ele>
<time>2016-05-21T04:21:55.836Z</time>
</trkpt>
<trkpt lat="-26.8861244" lon="153.0059854">
<ele>9.281</ele>
<time>2016-05-21T04:21:59.781Z</time>
</trkpt>
<trkpt lat="-26.8866650" lon="153.0058321">
<ele>10.174</ele>
<time>2016-05-21T04:22:01.728Z</time>
</trkpt>
<trkpt lat="-26.8872214" lon="153.0056681">
<ele>10.493</ele>
<time>2016-05-21T04:22:03.734Z</time>
</trkpt>
<trkpt lat="-26.8880327" lon="153.0054196">
<ele>10.197</ele>
<time>2016-05-21T04:22:06.690Z</time>
</trkpt>
<trkpt lat="-26.8888300" lon="153.0051646">
<ele>9.714</ele>
<time>2016-05-21T04:22:09.634Z</time>
</trkpt>
<trkpt lat="-26.8896403" lon="153.0049169">
<ele>9.529</ele>
<time>2016-05-21T04:22:12.644Z</time>
</trkpt>
<trkpt lat="-26.8904387" lon="153.0046689">
<ele>9.810</ele>
<time>2016-05-21T04:22:15.591Z</time>
</trkpt>
<trkpt lat="-26.8909903" lon="153.0044906">
<ele>10.386</ele>
<time>2016-05-21T04:22:17.594Z</time>
</trkpt>
<trkpt lat="-26.8915419" lon="153.0043090">
<ele>10.904</ele>
<time>2016-05-21T04:22:19.580Z</time>
</trkpt>
<trkpt lat="-26.8920973" lon="153.0041351">
<ele>11.173</ele>
<time>2016-05-21T04:22:21.569Z</time>
</trkpt>
<trkpt lat="-26.8929353" lon="153.0038592">
<ele>11.251</ele>
<time>2016-05-21T04:22:24.637Z</time>
</trkpt>
<trkpt lat="-26.8937466" lon="153.0035813">
<ele>11.153</ele>
<time>2016-05-21T04:22:27.662Z</time>
</trkpt>
<trkpt lat="-26.8942659" lon="153.0033956">
<ele>10.910</ele>
<time>2016-05-21T04:22:29.588Z</time>
</trkpt>
<trkpt lat="-26.8950918" lon="153.0031090">
<ele>10.752</ele>
<time>2016-05-21T04:22:32.569Z</time>
</trkpt>
<trkpt lat="-26.8959335" lon="153.0028146">
<ele>10.943</ele>
<time>2016-05-21T04:22:35.577Z</time>
</trkpt>
<trkpt lat="-26.8967644" lon="153.0025264">
<ele>11.432</ele>
<time>2016-05-21T04:22:38.570Z</time>
</trkpt>
<trkpt lat="-26.8973141" lon="153.0023266">
<ele>12.012</ele>
<time>2016-05-21T04:22:40.583Z</time>
</trkpt>
<trkpt lat="-26.8981181" lon="153.0020445">
<ele>12.566</ele>
<time>2016-05-21T04:22:43.558Z</time>
</trkpt>
<trkpt lat="-26.8986639" lon="153.0018475">
<ele>13.145</ele>
<time>2016-05-21T04:22:45.620Z</time>
</trkpt>
<trkpt lat="-26.8991796" lon="153.0016515">
<ele>13.787</ele>
<time>2016-05-21T04:22:47.592Z</time>
</trkpt>
<trkpt lat="-26.8999679" lon="153.0013628">
<ele>14.326</ele>
<time>2016-05-21T04:22:50.593Z</time>
</trkpt>
<trkpt lat="-26.9007662" lon="153.0010720">
<ele>14.555</ele>
<time>2016-05-21T04:22:53.667Z</time>
</trkpt>
<trkpt lat="-26.9012737" lon="153.0008755">
<ele>14.366</ele>
<time>2016-05-21T04:22:55.665Z</time>
</trkpt>
<trkpt lat="-26.9020235" lon="153.0005928">
<ele>13.830</ele>
<time>2016-05-21T04:22:58.627Z</time>
</trkpt>
<trkpt lat="-26.9025442" lon="153.0003961">
<ele>13.270</ele>
<time>2016-05-21T04:23:00.686Z</time>
</trkpt>
<trkpt lat="-26.9030374" lon="153.0001962">
<ele>12.699</ele>
<time>2016-05-21T04:23:02.649Z</time>
</trkpt>
<trkpt lat="-26.9037824" lon="152.9999117">
<ele>11.963</ele>
<time>2016-05-21T04:23:05.561Z</time>
</trkpt>
<trkpt lat="-26.9045558" lon="152.9996175">
<ele>11.333</ele>
<time>2016-05-21T04:23:08.574Z</time>
</trkpt>
<trkpt lat="-26.9050647" lon="152.9994082">
<ele>10.723</ele>
<time>2016-05-21T04:23:10.583Z</time>
</trkpt>
<trkpt lat="-26.9055797" lon="152.9991944">
<ele>9.778</ele>
<time>2016-05-21T04:23:12.605Z</time>
</trkpt>
<trkpt lat="-26.9060981" lon="152.9989830">
<ele>8.850</ele>
<time>2016-05-21T04:23:14.626Z</time>
</trkpt>
<trkpt lat="-26.9068619" lon="152.9986800">
<ele>8.447</ele>
<time>2016-05-21T04:23:17.569Z</time>
</trkpt>
<trkpt lat="-26.9073764" lon="152.9984696">
<ele>8.699</ele>
<time>2016-05-21T04:23:19.529Z</time>
</trkpt>
<trkpt lat="-26.9081654" lon="152.9981509">
<ele>9.415</ele>
<time>2016-05-21T04:23:22.495Z</time>
</trkpt>
<trkpt lat="-26.9086979" lon="152.9979532">
<ele>10.528</ele>
<time>2016-05-21T04:23:24.473Z</time>
</trkpt>
<trkpt lat="-26.9092234" lon="152.9977470">
<ele>12.216</ele>
<time>2016-05-21T04:23:26.452Z</time>
</trkpt>
<trkpt lat="-26.9097392" lon="152.9975622">
<ele>14.023</ele>
<time>2016-05-21T04:23:28.406Z</time>
</trkpt>
<trkpt lat="-26.9102642" lon="152.9973822">
<ele>15.117</ele>
<time>2016-05-21T04:23:30.413Z</time>
</trkpt>
<trkpt lat="-26.9110428" lon="152.9971145">
<ele>15.088</ele>
<time>2016-05-21T04:23:33.401Z</time>
</trkpt>
<trkpt lat="-26.9118329" lon="152.9968507">
<ele>13.931</ele>
<time>2016-05-21T04:23:36.426Z</time>
</trkpt>
<trkpt lat="-26.9126277" lon="152.9965955">
<ele>12.563</ele>
<time>2016-05-21T04:23:39.506Z</time>
</trkpt>
<trkpt lat="-26.9128911" lon="152.9965117">
<ele>12.087</ele>
<time>2016-05-21T04:23:40.528Z</time>
</trkpt>
<trkpt lat="-26.9139387" lon="152.9962026">
<ele>12.418</ele>
<time>2016-05-21T04:23:44.545Z</time>
</trkpt>
<trkpt lat="-26.9144624" lon="152.9960583">
<ele>13.253</ele>
<time>2016-05-21T04:23:46.552Z</time>
</trkpt>
<trkpt lat="-26.9152307" lon="152.9958444">
<ele>15.005</ele>
<time>2016-05-21T04:23:49.456Z</time>
</trkpt>
<trkpt lat="-26.9157743" lon="152.9957057">
<ele>17.378</ele>
<time>2016-05-21T04:23:51.445Z</time>
</trkpt>
<trkpt lat="-26.9166035" lon="152.9955020">
<ele>19.024</ele>
<time>2016-05-21T04:23:54.416Z</time>
</trkpt>
<trkpt lat="-26.9174554" lon="152.9953016">
<ele>19.356</ele>
<time>2016-05-21T04:23:57.490Z</time>
</trkpt>
<trkpt lat="-26.9180020" lon="152.9951764">
<ele>19.012</ele>
<time>2016-05-21T04:23:59.511Z</time>
</trkpt>
<trkpt lat="-26.9188036" lon="152.9950059">
<ele>18.098</ele>
<time>2016-05-21T04:24:02.447Z</time>
</trkpt>
<trkpt lat="-26.9193639" lon="152.9949023">
<ele>16.320</ele>
<time>2016-05-21T04:24:04.440Z</time>
</trkpt>
<trkpt lat="-26.9202144" lon="152.9947153">
<ele>14.306</ele>
<time>2016-05-21T04:24:07.442Z</time>
</trkpt>
<trkpt lat="-26.9207929" lon="152.9946195">
<ele>12.793</ele>
<time>2016-05-21T04:24:09.447Z</time>
</trkpt>
<trkpt lat="-26.9213633" lon="152.9945110">
<ele>11.740</ele>
<time>2016-05-21T04:24:11.410Z</time>
</trkpt>
<trkpt lat="-26.9222521" lon="152.9943556">
<ele>11.023</ele>
<time>2016-05-21T04:24:14.474Z</time>
</trkpt>
<trkpt lat="-26.9231047" lon="152.9942406">
<ele>10.484</ele>
<time>2016-05-21T04:24:17.409Z</time>
</trkpt>
<trkpt lat="-26.9239871" lon="152.9941418">
<ele>9.957</ele>
<time>2016-05-21T04:24:20.396Z</time>
</trkpt>
<trkpt lat="-26.9248832" lon="152.9940391">
<ele>9.401</ele>
<time>2016-05-21T04:24:23.409Z</time>
</trkpt>
<trkpt lat="-26.9257841" lon="152.9939509">
<ele>8.869</ele>
<time>2016-05-21T04:24:26.473Z</time>
</trkpt>
<trkpt lat="-26.9266562" lon="152.9938807">
<ele>8.500</ele>
<time>2016-05-21T04:24:29.484Z</time>
</trkpt>
<trkpt lat="-26.9272255" lon="152.9938222">
<ele>8.300</ele>
<time>2016-05-21T04:24:31.470Z</time>
</trkpt>
<trkpt lat="-26.9278065" lon="152.9937533">
<ele>8.069</ele>
<time>2016-05-21T04:24:33.501Z</time>
</trkpt>
<trkpt lat="-26.9286629" lon="152.9937065">
<ele>7.836</ele>
<time>2016-05-21T04:24:36.456Z</time>
</trkpt>
<trkpt lat="-26.9292893" lon="152.9936891">
<ele>7.720</ele>
<time>2016-05-21T04:24:38.596Z</time>
</trkpt>
<trkpt lat="-26.9301560" lon="152.9936481">
<ele>7.725</ele>
<time>2016-05-21T04:24:41.555Z</time>
</trkpt>
<trkpt lat="-26.9310540" lon="152.9936442">
<ele>7.611</ele>
<time>2016-05-21T04:24:44.588Z</time>
</trkpt>
<trkpt lat="-26.9319533" lon="152.9936259">
<ele>7.035</ele>
<time>2016-05-21T04:24:47.579Z</time>
</trkpt>
<trkpt lat="-26.9325519" lon="152.9936211">
<ele>6.152</ele>
<time>2016-05-21T04:24:49.534Z</time>
</trkpt>
<trkpt lat="-26.9331595" lon="152.9936050">
<ele>5.515</ele>
<time>2016-05-21T04:24:51.478Z</time>
</trkpt>
<trkpt lat="-26.9341134" lon="152.9935694">
<ele>5.284</ele>
<time>2016-05-21T04:24:54.493Z</time>
</trkpt>
<trkpt lat="-26.9347318" lon="152.9935627">
<ele>5.285</ele>
<time>2016-05-21T04:24:56.472Z</time>
</trkpt>
<trkpt lat="-26.9356401" lon="152.9935213">
<ele>5.671</ele>
<time>2016-05-21T04:24:59.412Z</time>
</trkpt>
<trkpt lat="-26.9365702" lon="152.9934858">
<ele>6.832</ele>
<time>2016-05-21T04:25:02.403Z</time>
</trkpt>
<trkpt lat="-26.9371956" lon="152.9934471">
<ele>9.303</ele>
<time>2016-05-21T04:25:04.395Z</time>
</trkpt>
<trkpt lat="-26.9381464" lon="152.9933523">
<ele>13.179</ele>
<time>2016-05-21T04:25:07.428Z</time>
</trkpt>
<trkpt lat="-26.9387799" lon="152.9932928">
<ele>17.100</ele>
<time>2016-05-21T04:25:09.483Z</time>
</trkpt>
<trkpt lat="-26.9396679" lon="152.9931554">
<ele>19.159</ele>
<time>2016-05-21T04:25:12.400Z</time>
</trkpt>
<trkpt lat="-26.9402855" lon="152.9930444">
<ele>18.807</ele>
<time>2016-05-21T04:25:14.411Z</time>
</trkpt>
<trkpt lat="-26.9411911" lon="152.9929000">
<ele>17.044</ele>
<time>2016-05-21T04:25:17.331Z</time>
</trkpt>
<trkpt lat="-26.9421293" lon="152.9927353">
<ele>15.446</ele>
<time>2016-05-21T04:25:20.350Z</time>
</trkpt>
<trkpt lat="-26.9430581" lon="152.9925311">
<ele>14.992</ele>
<time>2016-05-21T04:25:23.364Z</time>
</trkpt>
<trkpt lat="-26.9439804" lon="152.9923223">
<ele>15.545</ele>
<time>2016-05-21T04:25:26.369Z</time>
</trkpt>
<trkpt lat="-26.9445867" lon="152.9921514">
<ele>16.252</ele>
<time>2016-05-21T04:25:28.380Z</time>
</trkpt>
<trkpt lat="-26.9454705" lon="152.9919211">
<ele>16.522</ele>
<time>2016-05-21T04:25:31.332Z</time>
</trkpt>
<trkpt lat="-26.9460669" lon="152.9917599">
<ele>16.880</ele>
<time>2016-05-21T04:25:33.338Z</time>
</trkpt>
<trkpt lat="-26.9466637" lon="152.9915898">
<ele>18.039</ele>
<time>2016-05-21T04:25:35.356Z</time>
</trkpt>
<trkpt lat="-26.9475430" lon="152.9913208">
<ele>19.623</ele>
<time>2016-05-21T04:25:38.386Z</time>
</trkpt>
<trkpt lat="-26.9478285" lon="152.9912259">
<ele>20.749</ele>
<time>2016-05-21T04:25:39.383Z</time>
</trkpt>
<trkpt lat="-26.9489785" lon="152.9908335">
<ele>21.181</ele>
<time>2016-05-21T04:25:43.380Z</time>
</trkpt>
<trkpt lat="-26.9495621" lon="152.9906352">
<ele>21.214</ele>
<time>2016-05-21T04:25:45.404Z</time>
</trkpt>
<trkpt lat="-26.9504115" lon="152.9903468">
<ele>21.171</ele>
<time>2016-05-21T04:25:48.361Z</time>
</trkpt>
<trkpt lat="-26.9509785" lon="152.9901126">
<ele>21.253</ele>
<time>2016-05-21T04:25:50.387Z</time>
</trkpt>
<trkpt lat="-26.9515315" lon="152.9898893">
<ele>21.441</ele>
<time>2016-05-21T04:25:52.363Z</time>
</trkpt>
<trkpt lat="-26.9523662" lon="152.9895646">
<ele>21.603</ele>
<time>2016-05-21T04:25:55.368Z</time>
</trkpt>
<trkpt lat="-26.9526498" lon="152.9894480">
<ele>22.089</ele>
<time>2016-05-21T04:25:56.394Z</time>
</trkpt>
<trkpt lat="-26.9537707" lon="152.9889864">
<ele>23.146</ele>
<time>2016-05-21T04:26:00.415Z</time>
</trkpt>
<trkpt lat="-26.9546225" lon="152.9886504">
<ele>24.094</ele>
<time>2016-05-21T04:26:03.453Z</time>
</trkpt>
<trkpt lat="-26.9551843" lon="152.9884259">
<ele>24.364</ele>
<time>2016-05-21T04:26:05.479Z</time>
</trkpt>
<trkpt lat="-26.9557211" lon="152.9882207">
<ele>24.107</ele>
<time>2016-05-21T04:26:07.408Z</time>
</trkpt>
<trkpt lat="-26.9565513" lon="152.9879029">
<ele>23.627</ele>
<time>2016-05-21T04:26:10.392Z</time>
</trkpt>
<trkpt lat="-26.9570960" lon="152.9877058">
<ele>23.227</ele>
<time>2016-05-21T04:26:12.344Z</time>
</trkpt>
<trkpt lat="-26.9576605" lon="152.9875052">
<ele>22.881</ele>
<time>2016-05-21T04:26:14.360Z</time>
</trkpt>
<trkpt lat="-26.9582264" lon="152.9873086">
<ele>22.295</ele>
<time>2016-05-21T04:26:16.358Z</time>
</trkpt>
<trkpt lat="-26.9588066" lon="152.9871164">
<ele>21.180</ele>
<time>2016-05-21T04:26:18.386Z</time>
</trkpt>
<trkpt lat="-26.9596719" lon="152.9868535">
<ele>19.664</ele>
<time>2016-05-21T04:26:21.433Z</time>
</trkpt>
<trkpt lat="-26.9602374" lon="152.9866758">
<ele>18.440</ele>
<time>2016-05-21T04:26:23.459Z</time>
</trkpt>
<trkpt lat="-26.9610497" lon="152.9864219">
<ele>18.057</ele>
<time>2016-05-21T04:26:26.374Z</time>
</trkpt>
<trkpt lat="-26.9618917" lon="152.9861600">
<ele>18.059</ele>
<time>2016-05-21T04:26:29.394Z</time>
</trkpt>
<trkpt lat="-26.9624563" lon="152.9859913">
<ele>17.784</ele>
<time>2016-05-21T04:26:31.415Z</time>
</trkpt>
<trkpt lat="-26.9632906" lon="152.9857503">
<ele>17.174</ele>
<time>2016-05-21T04:26:34.396Z</time>
</trkpt>
<trkpt lat="-26.9641446" lon="152.9855202">
<ele>16.679</ele>
<time>2016-05-21T04:26:37.438Z</time>
</trkpt>
<trkpt lat="-26.9649726" lon="152.9853002">
<ele>16.727</ele>
<time>2016-05-21T04:26:40.398Z</time>
</trkpt>
<trkpt lat="-26.9655269" lon="152.9851641">
<ele>17.628</ele>
<time>2016-05-21T04:26:42.372Z</time>
</trkpt>
<trkpt lat="-26.9663812" lon="152.9849681">
<ele>19.052</ele>
<time>2016-05-21T04:26:45.437Z</time>
</trkpt>
<trkpt lat="-26.9669492" lon="152.9848307">
<ele>19.737</ele>
<time>2016-05-21T04:26:47.492Z</time>
</trkpt>
<trkpt lat="-26.9680582" lon="152.9845788">
<ele>19.003</ele>
<time>2016-05-21T04:26:51.491Z</time>
</trkpt>
<trkpt lat="-26.9686085" lon="152.9844530">
<ele>17.914</ele>
<time>2016-05-21T04:26:53.488Z</time>
</trkpt>
<trkpt lat="-26.9694260" lon="152.9842741">
<ele>17.736</ele>
<time>2016-05-21T04:26:56.471Z</time>
</trkpt>
<trkpt lat="-26.9702350" lon="152.9840733">
<ele>18.250</ele>
<time>2016-05-21T04:26:59.444Z</time>
</trkpt>
<trkpt lat="-26.9707906" lon="152.9839538">
<ele>18.558</ele>
<time>2016-05-21T04:27:01.486Z</time>
</trkpt>
<trkpt lat="-26.9716139" lon="152.9837752">
<ele>18.454</ele>
<time>2016-05-21T04:27:04.540Z</time>
</trkpt>
<trkpt lat="-26.9724200" lon="152.9835888">
<ele>18.470</ele>
<time>2016-05-21T04:27:07.550Z</time>
</trkpt>
<trkpt lat="-26.9729372" lon="152.9834671">
<ele>18.846</ele>
<time>2016-05-21T04:27:09.469Z</time>
</trkpt>
<trkpt lat="-26.9737640" lon="152.9832828">
<ele>19.306</ele>
<time>2016-05-21T04:27:12.494Z</time>
</trkpt>
<trkpt lat="-26.9743114" lon="152.9831600">
<ele>19.673</ele>
<time>2016-05-21T04:27:14.497Z</time>
</trkpt>
<trkpt lat="-26.9751227" lon="152.9829889">
<ele>20.056</ele>
<time>2016-05-21T04:27:17.473Z</time>
</trkpt>
<trkpt lat="-26.9756708" lon="152.9828703">
<ele>20.198</ele>
<time>2016-05-21T04:27:19.491Z</time>
</trkpt>
<trkpt lat="-26.9762100" lon="152.9827522">
<ele>19.884</ele>
<time>2016-05-21T04:27:21.481Z</time>
</trkpt>
<trkpt lat="-26.9769878" lon="152.9825618">
<ele>19.514</ele>
<time>2016-05-21T04:27:24.355Z</time>
</trkpt>
<trkpt lat="-26.9778136" lon="152.9823541">
<ele>19.477</ele>
<time>2016-05-21T04:27:27.404Z</time>
</trkpt>
<trkpt lat="-26.9783508" lon="152.9822162">
<ele>20.057</ele>
<time>2016-05-21T04:27:29.395Z</time>
</trkpt>
<trkpt lat="-26.9788814" lon="152.9820694">
<ele>21.269</ele>
<time>2016-05-21T04:27:31.379Z</time>
</trkpt>
<trkpt lat="-26.9796854" lon="152.9818206">
<ele>22.631</ele>
<time>2016-05-21T04:27:34.425Z</time>
</trkpt>
<trkpt lat="-26.9804772" lon="152.9815625">
<ele>23.334</ele>
<time>2016-05-21T04:27:37.468Z</time>
</trkpt>
<trkpt lat="-26.9807445" lon="152.9814712">
<ele>23.092</ele>
<time>2016-05-21T04:27:38.491Z</time>
</trkpt>
<trkpt lat="-26.9818051" lon="152.9810943">
<ele>22.506</ele>
<time>2016-05-21T04:27:42.498Z</time>
</trkpt>
<trkpt lat="-26.9823361" lon="152.9809034">
<ele>22.599</ele>
<time>2016-05-21T04:27:44.485Z</time>
</trkpt>
<trkpt lat="-26.9831123" lon="152.9806077">
<ele>23.628</ele>
<time>2016-05-21T04:27:47.417Z</time>
</trkpt>
<trkpt lat="-26.9836283" lon="152.9803820">
<ele>25.006</ele>
<time>2016-05-21T04:27:49.397Z</time>
</trkpt>
<trkpt lat="-26.9844131" lon="152.9800515">
<ele>26.002</ele>
<time>2016-05-21T04:27:52.386Z</time>
</trkpt>
<trkpt lat="-26.9852138" lon="152.9797042">
<ele>26.448</ele>
<time>2016-05-21T04:27:55.473Z</time>
</trkpt>
<trkpt lat="-26.9854829" lon="152.9795959">
<ele>26.434</ele>
<time>2016-05-21T04:27:56.495Z</time>
</trkpt>
<trkpt lat="-26.9865644" lon="152.9792256">
<ele>25.835</ele>
<time>2016-05-21T04:28:00.465Z</time>
</trkpt>
<trkpt lat="-26.9874129" lon="152.9789593">
<ele>24.691</ele>
<time>2016-05-21T04:28:03.507Z</time>
</trkpt>
<trkpt lat="-26.9879619" lon="152.9787954">
<ele>23.524</ele>
<time>2016-05-21T04:28:05.463Z</time>
</trkpt>
<trkpt lat="-26.9888128" lon="152.9785755">
<ele>22.731</ele>
<time>2016-05-21T04:28:08.476Z</time>
</trkpt>
<trkpt lat="-26.9893898" lon="152.9784505">
<ele>21.961</ele>
<time>2016-05-21T04:28:10.512Z</time>
</trkpt>
<trkpt lat="-26.9902408" lon="152.9782741">
<ele>20.686</ele>
<time>2016-05-21T04:28:13.539Z</time>
</trkpt>
<trkpt lat="-26.9910753" lon="152.9781269">
<ele>18.931</ele>
<time>2016-05-21T04:28:16.554Z</time>
</trkpt>
<trkpt lat="-26.9918737" lon="152.9780132">
<ele>17.093</ele>
<time>2016-05-21T04:28:19.436Z</time>
</trkpt>
<trkpt lat="-26.9924339" lon="152.9779659">
<ele>15.466</ele>
<time>2016-05-21T04:28:21.428Z</time>
</trkpt>
<trkpt lat="-26.9932681" lon="152.9779388">
<ele>14.401</ele>
<time>2016-05-21T04:28:24.402Z</time>
</trkpt>
<trkpt lat="-26.9938367" lon="152.9779156">
<ele>13.186</ele>
<time>2016-05-21T04:28:26.446Z</time>
</trkpt>
<trkpt lat="-26.9943935" lon="152.9778901">
<ele>11.026</ele>
<time>2016-05-21T04:28:28.455Z</time>
</trkpt>
<trkpt lat="-26.9952420" lon="152.9778839">
<ele>8.899</ele>
<time>2016-05-21T04:28:31.543Z</time>
</trkpt>
<trkpt lat="-26.9960592" lon="152.9778490">
<ele>7.507</ele>
<time>2016-05-21T04:28:34.575Z</time>
</trkpt>
<trkpt lat="-26.9968613" lon="152.9778036">
<ele>6.253</ele>
<time>2016-05-21T04:28:37.598Z</time>
</trkpt>
<trkpt lat="-26.9976391" lon="152.9777808">
<ele>5.201</ele>
<time>2016-05-21T04:28:40.485Z</time>
</trkpt>
<trkpt lat="-26.9981882" lon="152.9777640">
<ele>4.849</ele>
<time>2016-05-21T04:28:42.458Z</time>
</trkpt>
<trkpt lat="-26.9990429" lon="152.9777163">
<ele>5.197</ele>
<time>2016-05-21T04:28:45.472Z</time>
</trkpt>
<trkpt lat="-26.9996209" lon="152.9776916">
<ele>5.859</ele>
<time>2016-05-21T04:28:47.488Z</time>
</trkpt>
<trkpt lat="-27.0004740" lon="152.9776560">
<ele>6.551</ele>
<time>2016-05-21T04:28:50.437Z</time>
</trkpt>
<trkpt lat="-27.0010503" lon="152.9776351">
<ele>7.263</ele>
<time>2016-05-21T04:28:52.411Z</time>
</trkpt>
<trkpt lat="-27.0019285" lon="152.9775957">
<ele>8.205</ele>
<time>2016-05-21T04:28:55.417Z</time>
</trkpt>
<trkpt lat="-27.0025047" lon="152.9775768">
<ele>9.499</ele>
<time>2016-05-21T04:28:57.408Z</time>
</trkpt>
<trkpt lat="-27.0030860" lon="152.9775452">
<ele>10.723</ele>
<time>2016-05-21T04:28:59.438Z</time>
</trkpt>
<trkpt lat="-27.0039335" lon="152.9775100">
<ele>11.110</ele>
<time>2016-05-21T04:29:02.420Z</time>
</trkpt>
<trkpt lat="-27.0044976" lon="152.9774972">
<ele>10.211</ele>
<time>2016-05-21T04:29:04.439Z</time>
</trkpt>
<trkpt lat="-27.0050538" lon="152.9774893">
<ele>8.434</ele>
<time>2016-05-21T04:29:06.457Z</time>
</trkpt>
<trkpt lat="-27.0055975" lon="152.9774790">
<ele>6.629</ele>
<time>2016-05-21T04:29:08.440Z</time>
</trkpt>
<trkpt lat="-27.0064150" lon="152.9774415">
<ele>5.067</ele>
<time>2016-05-21T04:29:11.421Z</time>
</trkpt>
<trkpt lat="-27.0072456" lon="152.9774248">
<ele>3.815</ele>
<time>2016-05-21T04:29:14.420Z</time>
</trkpt>
<trkpt lat="-27.0078031" lon="152.9773961">
<ele>3.005</ele>
<time>2016-05-21T04:29:16.421Z</time>
</trkpt>
<trkpt lat="-27.0083619" lon="152.9773615">
<ele>2.503</ele>
<time>2016-05-21T04:29:18.421Z</time>
</trkpt>
<trkpt lat="-27.0089364" lon="152.9773280">
<ele>2.815</ele>
<time>2016-05-21T04:29:20.470Z</time>
</trkpt>
<trkpt lat="-27.0095014" lon="152.9772931">
<ele>4.318</ele>
<time>2016-05-21T04:29:22.484Z</time>
</trkpt>
<trkpt lat="-27.0100974" lon="152.9772594">
<ele>6.021</ele>
<time>2016-05-21T04:29:24.622Z</time>
</trkpt>
<trkpt lat="-27.0109018" lon="152.9772287">
<ele>6.914</ele>
<time>2016-05-21T04:29:27.534Z</time>
</trkpt>
<trkpt lat="-27.0114406" lon="152.9772101">
<ele>7.076</ele>
<time>2016-05-21T04:29:29.481Z</time>
</trkpt>
<trkpt lat="-27.0122859" lon="152.9771796">
<ele>7.099</ele>
<time>2016-05-21T04:29:32.524Z</time>
</trkpt>
<trkpt lat="-27.0128113" lon="152.9771786">
<ele>7.369</ele>
<time>2016-05-21T04:29:34.407Z</time>
</trkpt>
<trkpt lat="-27.0133626" lon="152.9771697">
<ele>7.672</ele>
<time>2016-05-21T04:29:36.374Z</time>
</trkpt>
<trkpt lat="-27.0142060" lon="152.9771778">
<ele>7.381</ele>
<time>2016-05-21T04:29:39.406Z</time>
</trkpt>
<trkpt lat="-27.0144878" lon="152.9771877">
<ele>6.313</ele>
<time>2016-05-21T04:29:40.416Z</time>
</trkpt>
<trkpt lat="-27.0156150" lon="152.9772185">
<ele>5.122</ele>
<time>2016-05-21T04:29:44.421Z</time>
</trkpt>
<trkpt lat="-27.0164632" lon="152.9772691">
<ele>4.375</ele>
<time>2016-05-21T04:29:47.410Z</time>
</trkpt>
<trkpt lat="-27.0173276" lon="152.9773099">
<ele>3.956</ele>
<time>2016-05-21T04:29:50.424Z</time>
</trkpt>
<trkpt lat="-27.0179085" lon="152.9773304">
<ele>3.829</ele>
<time>2016-05-21T04:29:52.446Z</time>
</trkpt>
<trkpt lat="-27.0184842" lon="152.9773536">
<ele>4.464</ele>
<time>2016-05-21T04:29:54.478Z</time>
</trkpt>
<trkpt lat="-27.0190648" lon="152.9773722">
<ele>6.212</ele>
<time>2016-05-21T04:29:56.533Z</time>
</trkpt>
<trkpt lat="-27.0202115" lon="152.9774413">
<ele>8.434</ele>
<time>2016-05-21T04:30:00.619Z</time>
</trkpt>
<trkpt lat="-27.0207570" lon="152.9774714">
<ele>10.488</ele>
<time>2016-05-21T04:30:02.599Z</time>
</trkpt>
<trkpt lat="-27.0215814" lon="152.9775149">
<ele>12.446</ele>
<time>2016-05-21T04:30:05.603Z</time>
</trkpt>
<trkpt lat="-27.0221320" lon="152.9775436">
<ele>14.012</ele>
<time>2016-05-21T04:30:07.609Z</time>
</trkpt>
<trkpt lat="-27.0229415" lon="152.9775954">
<ele>14.708</ele>
<time>2016-05-21T04:30:10.597Z</time>
</trkpt>
<trkpt lat="-27.0237532" lon="152.9776373">
<ele>14.648</ele>
<time>2016-05-21T04:30:13.594Z</time>
</trkpt>
<trkpt lat="-27.0245693" lon="152.9776792">
<ele>14.106</ele>
<time>2016-05-21T04:30:16.548Z</time>
</trkpt>
<trkpt lat="-27.0251435" lon="152.9777105">
<ele>13.397</ele>
<time>2016-05-21T04:30:18.570Z</time>
</trkpt>
<trkpt lat="-27.0262980" lon="152.9777817">
<ele>13.128</ele>
<time>2016-05-21T04:30:22.561Z</time>
</trkpt>
<trkpt lat="-27.0268794" lon="152.9778068">
<ele>13.861</ele>
<time>2016-05-21T04:30:24.568Z</time>
</trkpt>
<trkpt lat="-27.0277358" lon="152.9778545">
<ele>15.409</ele>
<time>2016-05-21T04:30:27.529Z</time>
</trkpt>
<trkpt lat="-27.0285998" lon="152.9779046">
<ele>16.975</ele>
<time>2016-05-21T04:30:30.506Z</time>
</trkpt>
<trkpt lat="-27.0294646" lon="152.9779558">
<ele>18.601</ele>
<time>2016-05-21T04:30:33.486Z</time>
</trkpt>
<trkpt lat="-27.0300439" lon="152.9779873">
<ele>20.774</ele>
<time>2016-05-21T04:30:35.479Z</time>
</trkpt>
<trkpt lat="-27.0309081" lon="152.9780466">
<ele>22.976</ele>
<time>2016-05-21T04:30:38.443Z</time>
</trkpt>
<trkpt lat="-27.0314917" lon="152.9780684">
<ele>24.440</ele>
<time>2016-05-21T04:30:40.436Z</time>
</trkpt>
<trkpt lat="-27.0320800" lon="152.9780878">
<ele>25.463</ele>
<time>2016-05-21T04:30:42.443Z</time>
</trkpt>
<trkpt lat="-27.0329683" lon="152.9781119">
<ele>26.501</ele>
<time>2016-05-21T04:30:45.478Z</time>
</trkpt>
<trkpt lat="-27.0335462" lon="152.9781360">
<ele>27.333</ele>
<time>2016-05-21T04:30:47.458Z</time>
</trkpt>
<trkpt lat="-27.0341231" lon="152.9781512">
<ele>27.445</ele>
<time>2016-05-21T04:30:49.436Z</time>
</trkpt>
<trkpt lat="-27.0349941" lon="152.9781395">
<ele>26.672</ele>
<time>2016-05-21T04:30:52.440Z</time>
</trkpt>
<trkpt lat="-27.0358576" lon="152.9781173">
<ele>25.435</ele>
<time>2016-05-21T04:30:55.420Z</time>
</trkpt>
<trkpt lat="-27.0364330" lon="152.9781010">
<ele>24.573</ele>
<time>2016-05-21T04:30:57.390Z</time>
</trkpt>
<trkpt lat="-27.0373123" lon="152.9780672">
<ele>24.560</ele>
<time>2016-05-21T04:31:00.387Z</time>
</trkpt>
<trkpt lat="-27.0381958" lon="152.9780545">
<ele>25.342</ele>
<time>2016-05-21T04:31:03.420Z</time>
</trkpt>
<trkpt lat="-27.0384945" lon="152.9780431">
<ele>26.477</ele>
<time>2016-05-21T04:31:04.453Z</time>
</trkpt>
<trkpt lat="-27.0396529" lon="152.9780136">
<ele>27.329</ele>
<time>2016-05-21T04:31:08.451Z</time>
</trkpt>
<trkpt lat="-27.0402355" lon="152.9779844">
<ele>27.336</ele>
<time>2016-05-21T04:31:10.491Z</time>
</trkpt>
<trkpt lat="-27.0408011" lon="152.9779632">
<ele>26.303</ele>
<time>2016-05-21T04:31:12.524Z</time>
</trkpt>
<trkpt lat="-27.0413502" lon="152.9779520">
<ele>24.457</ele>
<time>2016-05-21T04:31:14.542Z</time>
</trkpt>
<trkpt lat="-27.0418950" lon="152.9779399">
<ele>21.990</ele>
<time>2016-05-21T04:31:16.574Z</time>
</trkpt>
<trkpt lat="-27.0424300" lon="152.9779252">
<ele>19.368</ele>
<time>2016-05-21T04:31:18.595Z</time>
</trkpt>
<trkpt lat="-27.0432086" lon="152.9779005">
<ele>17.351</ele>
<time>2016-05-21T04:31:21.571Z</time>
</trkpt>
<trkpt lat="-27.0437315" lon="152.9778682">
<ele>16.149</ele>
<time>2016-05-21T04:31:23.549Z</time>
</trkpt>
<trkpt lat="-27.0442694" lon="152.9778485">
<ele>15.872</ele>
<time>2016-05-21T04:31:25.562Z</time>
</trkpt>
<trkpt lat="-27.0450489" lon="152.9777933">
<ele>16.529</ele>
<time>2016-05-21T04:31:28.446Z</time>
</trkpt>
<trkpt lat="-27.0455886" lon="152.9777404">
<ele>17.013</ele>
<time>2016-05-21T04:31:30.426Z</time>
</trkpt>
<trkpt lat="-27.0464103" lon="152.9776595">
<ele>16.348</ele>
<time>2016-05-21T04:31:33.480Z</time>
</trkpt>
<trkpt lat="-27.0471961" lon="152.9775512">
<ele>14.809</ele>
<time>2016-05-21T04:31:36.459Z</time>
</trkpt>
<trkpt lat="-27.0479902" lon="152.9774555">
<ele>13.141</ele>
<time>2016-05-21T04:31:39.454Z</time>
</trkpt>
<trkpt lat="-27.0487981" lon="152.9773509">
<ele>11.526</ele>
<time>2016-05-21T04:31:42.480Z</time>
</trkpt>
<trkpt lat="-27.0496023" lon="152.9772494">
<ele>9.860</ele>
<time>2016-05-21T04:31:45.473Z</time>
</trkpt>
<trkpt lat="-27.0501461" lon="152.9771921">
<ele>8.445</ele>
<time>2016-05-21T04:31:47.470Z</time>
</trkpt>
<trkpt lat="-27.0509520" lon="152.9771179">
<ele>7.716</ele>
<time>2016-05-21T04:31:50.371Z</time>
</trkpt>
<trkpt lat="-27.0515155" lon="152.9770591">
<ele>7.302</ele>
<time>2016-05-21T04:31:52.384Z</time>
</trkpt>
<trkpt lat="-27.0520788" lon="152.9770076">
<ele>6.715</ele>
<time>2016-05-21T04:31:54.431Z</time>
</trkpt>
<trkpt lat="-27.0523567" lon="152.9769825">
<ele>6.100</ele>
<time>2016-05-21T04:31:55.442Z</time>
</trkpt>
<trkpt lat="-27.0534840" lon="152.9769535">
<ele>5.747</ele>
<time>2016-05-21T04:31:59.496Z</time>
</trkpt>
<trkpt lat="-27.0543150" lon="152.9769721">
<ele>5.364</ele>
<time>2016-05-21T04:32:02.474Z</time>
</trkpt>
<trkpt lat="-27.0551827" lon="152.9770069">
<ele>4.343</ele>
<time>2016-05-21T04:32:05.623Z</time>
</trkpt>
<trkpt lat="-27.0557183" lon="152.9770320">
<ele>2.699</ele>
<time>2016-05-21T04:32:07.613Z</time>
</trkpt>
<trkpt lat="-27.0565044" lon="152.9770877">
<ele>0.762</ele>
<time>2016-05-21T04:32:10.625Z</time>
</trkpt>
<trkpt lat="-27.0570229" lon="152.9771370">
<ele>0.000</ele>
<time>2016-05-21T04:32:12.549Z</time>
</trkpt>
<trkpt lat="-27.0581679" lon="152.9772098">
<ele>0.000</ele>
<time>2016-05-21T04:32:16.576Z</time>
</trkpt>
<trkpt lat="-27.0587390" lon="152.9772543">
<ele>0.000</ele>
<time>2016-05-21T04:32:18.549Z</time>
</trkpt>
<trkpt lat="-27.0595899" lon="152.9773115">
<ele>0.000</ele>
<time>2016-05-21T04:32:21.505Z</time>
</trkpt>
<trkpt lat="-27.0601727" lon="152.9773420">
<ele>2.343</ele>
<time>2016-05-21T04:32:23.539Z</time>
</trkpt>
<trkpt lat="-27.0607446" lon="152.9773838">
<ele>5.267</ele>
<time>2016-05-21T04:32:25.550Z</time>
</trkpt>
<trkpt lat="-27.0613219" lon="152.9774203">
<ele>6.149</ele>
<time>2016-05-21T04:32:27.608Z</time>
</trkpt>
<trkpt lat="-27.0616125" lon="152.9774372">
<ele>5.477</ele>
<time>2016-05-21T04:32:28.649Z</time>
</trkpt>
<trkpt lat="-27.0627436" lon="152.9774959">
<ele>4.513</ele>
<time>2016-05-21T04:32:32.815Z</time>
</trkpt>
<trkpt lat="-27.0632700" lon="152.9775256">
<ele>4.049</ele>
<time>2016-05-21T04:32:34.856Z</time>
</trkpt>
<trkpt lat="-27.0640190" lon="152.9775794">
<ele>3.410</ele>
<time>2016-05-21T04:32:37.786Z</time>
</trkpt>
<trkpt lat="-27.0647914" lon="152.9776283">
<ele>1.946</ele>
<time>2016-05-21T04:32:40.790Z</time>
</trkpt>
<trkpt lat="-27.0653013" lon="152.9776647">
<ele>0.221</ele>
<time>2016-05-21T04:32:42.765Z</time>
</trkpt>
<trkpt lat="-27.0658291" lon="152.9776871">
<ele>0.000</ele>
<time>2016-05-21T04:32:44.800Z</time>
</trkpt>
<trkpt lat="-27.0665974" lon="152.9777193">
<ele>0.000</ele>
<time>2016-05-21T04:32:47.751Z</time>
</trkpt>
<trkpt lat="-27.0671296" lon="152.9777169">
<ele>0.000</ele>
<time>2016-05-21T04:32:49.781Z</time>
</trkpt>
<trkpt lat="-27.0676468" lon="152.9777290">
<ele>0.000</ele>
<time>2016-05-21T04:32:51.754Z</time>
</trkpt>
<trkpt lat="-27.0684285" lon="152.9776896">
<ele>0.000</ele>
<time>2016-05-21T04:32:54.769Z</time>
</trkpt>
<trkpt lat="-27.0689386" lon="152.9776648">
<ele>0.000</ele>
<time>2016-05-21T04:32:56.744Z</time>
</trkpt>
<trkpt lat="-27.0694506" lon="152.9776173">
<ele>0.020</ele>
<time>2016-05-21T04:32:58.735Z</time>
</trkpt>
<trkpt lat="-27.0699609" lon="152.9775737">
<ele>1.424</ele>
<time>2016-05-21T04:33:00.717Z</time>
</trkpt>
<trkpt lat="-27.0704675" lon="152.9775113">
<ele>2.246</ele>
<time>2016-05-21T04:33:02.684Z</time>
</trkpt>
<trkpt lat="-27.0709886" lon="152.9774400">
<ele>2.930</ele>
<time>2016-05-21T04:33:04.705Z</time>
</trkpt>
<trkpt lat="-27.0715041" lon="152.9773443">
<ele>3.730</ele>
<time>2016-05-21T04:33:06.714Z</time>
</trkpt>
<trkpt lat="-27.0722593" lon="152.9772246">
<ele>4.243</ele>
<time>2016-05-21T04:33:09.633Z</time>
</trkpt>
<trkpt lat="-27.0730338" lon="152.9771025">
<ele>4.313</ele>
<time>2016-05-21T04:33:12.643Z</time>
</trkpt>
<trkpt lat="-27.0735518" lon="152.9770105">
<ele>4.153</ele>
<time>2016-05-21T04:33:14.679Z</time>
</trkpt>
<trkpt lat="-27.0740578" lon="152.9769206">
<ele>3.830</ele>
<time>2016-05-21T04:33:16.674Z</time>
</trkpt>
<trkpt lat="-27.0748272" lon="152.9767884">
<ele>3.379</ele>
<time>2016-05-21T04:33:19.692Z</time>
</trkpt>
<trkpt lat="-27.0753241" lon="152.9767118">
<ele>2.890</ele>
<time>2016-05-21T04:33:21.624Z</time>
</trkpt>
<trkpt lat="-27.0761029" lon="152.9765754">
<ele>2.502</ele>
<time>2016-05-21T04:33:24.631Z</time>
</trkpt>
<trkpt lat="-27.0766224" lon="152.9764827">
<ele>2.313</ele>
<time>2016-05-21T04:33:26.637Z</time>
</trkpt>
<trkpt lat="-27.0771427" lon="152.9763916">
<ele>2.390</ele>
<time>2016-05-21T04:33:28.666Z</time>
</trkpt>
<trkpt lat="-27.0776575" lon="152.9763259">
<ele>3.039</ele>
<time>2016-05-21T04:33:30.693Z</time>
</trkpt>
<trkpt lat="-27.0781679" lon="152.9762491">
<ele>4.236</ele>
<time>2016-05-21T04:33:32.728Z</time>
</trkpt>
<trkpt lat="-27.0786683" lon="152.9761711">
<ele>5.383</ele>
<time>2016-05-21T04:33:34.732Z</time>
</trkpt>
<trkpt lat="-27.0794200" lon="152.9760395">
<ele>5.972</ele>
<time>2016-05-21T04:33:37.733Z</time>
</trkpt>
<trkpt lat="-27.0799334" lon="152.9759402">
<ele>5.688</ele>
<time>2016-05-21T04:33:39.772Z</time>
</trkpt>
<trkpt lat="-27.0804337" lon="152.9758637">
<ele>4.655</ele>
<time>2016-05-21T04:33:41.741Z</time>
</trkpt>
<trkpt lat="-27.0812049" lon="152.9757316">
<ele>3.787</ele>
<time>2016-05-21T04:33:44.806Z</time>
</trkpt>
<trkpt lat="-27.0817041" lon="152.9756484">
<ele>3.829</ele>
<time>2016-05-21T04:33:46.796Z</time>
</trkpt>
<trkpt lat="-27.0822115" lon="152.9755747">
<ele>4.559</ele>
<time>2016-05-21T04:33:48.804Z</time>
</trkpt>
<trkpt lat="-27.0829753" lon="152.9754978">
<ele>5.336</ele>
<time>2016-05-21T04:33:51.792Z</time>
</trkpt>
<trkpt lat="-27.0834812" lon="152.9754586">
<ele>5.307</ele>
<time>2016-05-21T04:33:53.757Z</time>
</trkpt>
<trkpt lat="-27.0842643" lon="152.9754254">
<ele>4.403</ele>
<time>2016-05-21T04:33:56.752Z</time>
</trkpt>
<trkpt lat="-27.0847976" lon="152.9754120">
<ele>3.653</ele>
<time>2016-05-21T04:33:58.787Z</time>
</trkpt>
<trkpt lat="-27.0855688" lon="152.9754468">
<ele>3.581</ele>
<time>2016-05-21T04:34:01.738Z</time>
</trkpt>
<trkpt lat="-27.0863664" lon="152.9754664">
<ele>3.801</ele>
<time>2016-05-21T04:34:04.749Z</time>
</trkpt>
<trkpt lat="-27.0868909" lon="152.9754992">
<ele>4.217</ele>
<time>2016-05-21T04:34:06.716Z</time>
</trkpt>
<trkpt lat="-27.0874330" lon="152.9755288">
<ele>4.820</ele>
<time>2016-05-21T04:34:08.759Z</time>
</trkpt>
<trkpt lat="-27.0879659" lon="152.9755461">
<ele>5.449</ele>
<time>2016-05-21T04:34:10.781Z</time>
</trkpt>
<trkpt lat="-27.0884907" lon="152.9755788">
<ele>5.858</ele>
<time>2016-05-21T04:34:12.777Z</time>
</trkpt>
<trkpt lat="-27.0890150" lon="152.9756131">
<ele>5.706</ele>
<time>2016-05-21T04:34:14.769Z</time>
</trkpt>
<trkpt lat="-27.0898020" lon="152.9756516">
<ele>4.927</ele>
<time>2016-05-21T04:34:17.735Z</time>
</trkpt>
<trkpt lat="-27.0903229" lon="152.9756730">
<ele>4.042</ele>
<time>2016-05-21T04:34:19.673Z</time>
</trkpt>
<trkpt lat="-27.0911510" lon="152.9757105">
<ele>3.640</ele>
<time>2016-05-21T04:34:22.738Z</time>
</trkpt>
<trkpt lat="-27.0916845" lon="152.9757367">
<ele>3.838</ele>
<time>2016-05-21T04:34:24.748Z</time>
</trkpt>
<trkpt lat="-27.0924605" lon="152.9757771">
<ele>4.459</ele>
<time>2016-05-21T04:34:27.735Z</time>
</trkpt>
<trkpt lat="-27.0929691" lon="152.9757948">
<ele>5.330</ele>
<time>2016-05-21T04:34:29.678Z</time>
</trkpt>
<trkpt lat="-27.0937718" lon="152.9758410">
<ele>6.218</ele>
<time>2016-05-21T04:34:32.718Z</time>
</trkpt>
<trkpt lat="-27.0945618" lon="152.9758824">
<ele>6.578</ele>
<time>2016-05-21T04:34:35.708Z</time>
</trkpt>
<trkpt lat="-27.0953579" lon="152.9759232">
<ele>5.964</ele>
<time>2016-05-21T04:34:38.717Z</time>
</trkpt>
<trkpt lat="-27.0958846" lon="152.9759517">
<ele>4.680</ele>
<time>2016-05-21T04:34:40.708Z</time>
</trkpt>
<trkpt lat="-27.0966837" lon="152.9759906">
<ele>3.537</ele>
<time>2016-05-21T04:34:43.724Z</time>
</trkpt>
<trkpt lat="-27.0971936" lon="152.9760157">
<ele>2.919</ele>
<time>2016-05-21T04:34:45.639Z</time>
</trkpt>
<trkpt lat="-27.0977147" lon="152.9760450">
<ele>2.540</ele>
<time>2016-05-21T04:34:47.582Z</time>
</trkpt>
<trkpt lat="-27.0982581" lon="152.9760708">
<ele>2.266</ele>
<time>2016-05-21T04:34:49.592Z</time>
</trkpt>
<trkpt lat="-27.0990652" lon="152.9761197">
<ele>2.774</ele>
<time>2016-05-21T04:34:52.549Z</time>
</trkpt>
<trkpt lat="-27.0996157" lon="152.9761487">
<ele>4.447</ele>
<time>2016-05-21T04:34:54.553Z</time>
</trkpt>
<trkpt lat="-27.1001734" lon="152.9761642">
<ele>6.197</ele>
<time>2016-05-21T04:34:56.573Z</time>
</trkpt>
<trkpt lat="-27.1007192" lon="152.9761850">
<ele>7.162</ele>
<time>2016-05-21T04:34:58.549Z</time>
</trkpt>
<trkpt lat="-27.1012833" lon="152.9762093">
<ele>7.625</ele>
<time>2016-05-21T04:35:00.605Z</time>
</trkpt>
<trkpt lat="-27.1021154" lon="152.9762387">
<ele>7.885</ele>
<time>2016-05-21T04:35:03.704Z</time>
</trkpt>
<trkpt lat="-27.1026509" lon="152.9762600">
<ele>8.285</ele>
<time>2016-05-21T04:35:05.726Z</time>
</trkpt>
<trkpt lat="-27.1034465" lon="152.9763089">
<ele>9.085</ele>
<time>2016-05-21T04:35:08.766Z</time>
</trkpt>
<trkpt lat="-27.1039668" lon="152.9763378">
<ele>9.674</ele>
<time>2016-05-21T04:35:10.778Z</time>
</trkpt>
<trkpt lat="-27.1044861" lon="152.9763628">
<ele>9.302</ele>
<time>2016-05-21T04:35:12.816Z</time>
</trkpt>
<trkpt lat="-27.1049919" lon="152.9763967">
<ele>7.830</ele>
<time>2016-05-21T04:35:14.824Z</time>
</trkpt>
<trkpt lat="-27.1057340" lon="152.9764311">
<ele>5.896</ele>
<time>2016-05-21T04:35:17.782Z</time>
</trkpt>
<trkpt lat="-27.1062291" lon="152.9764603">
<ele>4.282</ele>
<time>2016-05-21T04:35:19.757Z</time>
</trkpt>
<trkpt lat="-27.1069649" lon="152.9765042">
<ele>2.942</ele>
<time>2016-05-21T04:35:22.689Z</time>
</trkpt>
<trkpt lat="-27.1074702" lon="152.9765284">
<ele>1.596</ele>
<time>2016-05-21T04:35:24.695Z</time>
</trkpt>
<trkpt lat="-27.1079711" lon="152.9765484">
<ele>0.524</ele>
<time>2016-05-21T04:35:26.684Z</time>
</trkpt>
<trkpt lat="-27.1084845" lon="152.9765795">
<ele>0.000</ele>
<time>2016-05-21T04:35:28.730Z</time>
</trkpt>
<trkpt lat="-27.1092474" lon="152.9766095">
<ele>0.000</ele>
<time>2016-05-21T04:35:31.817Z</time>
</trkpt>
<trkpt lat="-27.1097302" lon="152.9766277">
<ele>0.142</ele>
<time>2016-05-21T04:35:33.784Z</time>
</trkpt>
<trkpt lat="-27.1102275" lon="152.9766525">
<ele>1.659</ele>
<time>2016-05-21T04:35:35.783Z</time>
</trkpt>
<trkpt lat="-27.1107212" lon="152.9766763">
<ele>3.921</ele>
<time>2016-05-21T04:35:37.746Z</time>
</trkpt>
<trkpt lat="-27.1114734" lon="152.9767189">
<ele>6.169</ele>
<time>2016-05-21T04:35:40.750Z</time>
</trkpt>
<trkpt lat="-27.1122125" lon="152.9767627">
<ele>7.954</ele>
<time>2016-05-21T04:35:43.698Z</time>
</trkpt>
<trkpt lat="-27.1127309" lon="152.9767901">
<ele>9.211</ele>
<time>2016-05-21T04:35:45.760Z</time>
</trkpt>
<trkpt lat="-27.1134916" lon="152.9768305">
<ele>10.039</ele>
<time>2016-05-21T04:35:48.843Z</time>
</trkpt>
<trkpt lat="-27.1139784" lon="152.9768541">
<ele>10.142</ele>
<time>2016-05-21T04:35:50.868Z</time>
</trkpt>
<trkpt lat="-27.1142170" lon="152.9768685">
<ele>9.441</ele>
<time>2016-05-21T04:35:51.862Z</time>
</trkpt>
<trkpt lat="-27.1151919" lon="152.9769153">
<ele>8.571</ele>
<time>2016-05-21T04:35:55.842Z</time>
</trkpt>
<trkpt lat="-27.1156896" lon="152.9769355">
<ele>7.864</ele>
<time>2016-05-21T04:35:57.851Z</time>
</trkpt>
<trkpt lat="-27.1164322" lon="152.9769838">
<ele>7.166</ele>
<time>2016-05-21T04:36:00.855Z</time>
</trkpt>
<trkpt lat="-27.1169337" lon="152.9770245">
<ele>6.694</ele>
<time>2016-05-21T04:36:02.894Z</time>
</trkpt>
<trkpt lat="-27.1176514" lon="152.9770547">
<ele>6.761</ele>
<time>2016-05-21T04:36:05.803Z</time>
</trkpt>
<trkpt lat="-27.1181610" lon="152.9770732">
<ele>7.199</ele>
<time>2016-05-21T04:36:07.867Z</time>
</trkpt>
<trkpt lat="-27.1189005" lon="152.9771127">
<ele>7.056</ele>
<time>2016-05-21T04:36:10.904Z</time>
</trkpt>
<trkpt lat="-27.1193844" lon="152.9771354">
<ele>5.776</ele>
<time>2016-05-21T04:36:12.899Z</time>
</trkpt>
<trkpt lat="-27.1201080" lon="152.9771711">
<ele>3.981</ele>
<time>2016-05-21T04:36:15.873Z</time>
</trkpt>
<trkpt lat="-27.1205956" lon="152.9771939">
<ele>2.129</ele>
<time>2016-05-21T04:36:17.872Z</time>
</trkpt>
<trkpt lat="-27.1210767" lon="152.9772307">
<ele>0.367</ele>
<time>2016-05-21T04:36:19.840Z</time>
</trkpt>
<trkpt lat="-27.1218195" lon="152.9772660">
<ele>0.000</ele>
<time>2016-05-21T04:36:22.849Z</time>
</trkpt>
<trkpt lat="-27.1223233" lon="152.9772895">
<ele>0.310</ele>
<time>2016-05-21T04:36:24.896Z</time>
</trkpt>
<trkpt lat="-27.1230541" lon="152.9773102">
<ele>1.446</ele>
<time>2016-05-21T04:36:27.933Z</time>
</trkpt>
<trkpt lat="-27.1232978" lon="152.9773249">
<ele>2.097</ele>
<time>2016-05-21T04:36:28.943Z</time>
</trkpt>
<trkpt lat="-27.1242575" lon="152.9773701">
<ele>2.108</ele>
<time>2016-05-21T04:36:32.825Z</time>
</trkpt>
<trkpt lat="-27.1250037" lon="152.9774080">
<ele>1.657</ele>
<time>2016-05-21T04:36:35.781Z</time>
</trkpt>
<trkpt lat="-27.1255158" lon="152.9774410">
<ele>1.157</ele>
<time>2016-05-21T04:36:37.812Z</time>
</trkpt>
<trkpt lat="-27.1262603" lon="152.9774897">
<ele>0.895</ele>
<time>2016-05-21T04:36:40.772Z</time>
</trkpt>
<trkpt lat="-27.1267639" lon="152.9775106">
<ele>0.847</ele>
<time>2016-05-21T04:36:42.773Z</time>
</trkpt>
<trkpt lat="-27.1275224" lon="152.9775609">
<ele>0.981</ele>
<time>2016-05-21T04:36:45.802Z</time>
</trkpt>
<trkpt lat="-27.1280284" lon="152.9775838">
<ele>1.245</ele>
<time>2016-05-21T04:36:47.794Z</time>
</trkpt>
<trkpt lat="-27.1287972" lon="152.9776041">
<ele>1.550</ele>
<time>2016-05-21T04:36:50.772Z</time>
</trkpt>
<trkpt lat="-27.1295617" lon="152.9776556">
<ele>1.854</ele>
<time>2016-05-21T04:36:53.756Z</time>
</trkpt>
<trkpt lat="-27.1300800" lon="152.9776788">
<ele>2.168</ele>
<time>2016-05-21T04:36:55.786Z</time>
</trkpt>
<trkpt lat="-27.1308332" lon="152.9777199">
<ele>2.513</ele>
<time>2016-05-21T04:36:58.743Z</time>
</trkpt>
<trkpt lat="-27.1313492" lon="152.9777510">
<ele>3.185</ele>
<time>2016-05-21T04:37:00.778Z</time>
</trkpt>
<trkpt lat="-27.1321019" lon="152.9777789">
<ele>4.390</ele>
<time>2016-05-21T04:37:03.801Z</time>
</trkpt>
<trkpt lat="-27.1323476" lon="152.9777931">
<ele>5.648</ele>
<time>2016-05-21T04:37:04.787Z</time>
</trkpt>
<trkpt lat="-27.1333753" lon="152.9778534">
<ele>6.495</ele>
<time>2016-05-21T04:37:08.846Z</time>
</trkpt>
<trkpt lat="-27.1338873" lon="152.9778686">
<ele>7.072</ele>
<time>2016-05-21T04:37:10.852Z</time>
</trkpt>
<trkpt lat="-27.1346639" lon="152.9779129">
<ele>7.732</ele>
<time>2016-05-21T04:37:13.923Z</time>
</trkpt>
<trkpt lat="-27.1354170" lon="152.9779396">
<ele>8.628</ele>
<time>2016-05-21T04:37:16.920Z</time>
</trkpt>
<trkpt lat="-27.1361655" lon="152.9779860">
<ele>9.498</ele>
<time>2016-05-21T04:37:19.939Z</time>
</trkpt>
<trkpt lat="-27.1369149" lon="152.9780215">
<ele>10.361</ele>
<time>2016-05-21T04:37:22.993Z</time>
</trkpt>
<trkpt lat="-27.1374178" lon="152.9780569">
<ele>11.425</ele>
<time>2016-05-21T04:37:25.033Z</time>
</trkpt>
<trkpt lat="-27.1379075" lon="152.9780818">
<ele>12.268</ele>
<time>2016-05-21T04:37:27.022Z</time>
</trkpt>
<trkpt lat="-27.1384051" lon="152.9780994">
<ele>12.425</ele>
<time>2016-05-21T04:37:29.055Z</time>
</trkpt>
<trkpt lat="-27.1391085" lon="152.9781319">
<ele>12.145</ele>
<time>2016-05-21T04:37:31.959Z</time>
</trkpt>
<trkpt lat="-27.1395751" lon="152.9781538">
<ele>11.851</ele>
<time>2016-05-21T04:37:33.853Z</time>
</trkpt>
<trkpt lat="-27.1400649" lon="152.9781818">
<ele>11.725</ele>
<time>2016-05-21T04:37:35.818Z</time>
</trkpt>
<trkpt lat="-27.1408328" lon="152.9782341">
<ele>11.704</ele>
<time>2016-05-21T04:37:38.876Z</time>
</trkpt>
<trkpt lat="-27.1413360" lon="152.9782590">
<ele>11.765</ele>
<time>2016-05-21T04:37:40.879Z</time>
</trkpt>
<trkpt lat="-27.1420846" lon="152.9782955">
<ele>11.822</ele>
<time>2016-05-21T04:37:43.859Z</time>
</trkpt>
<trkpt lat="-27.1425907" lon="152.9783118">
<ele>11.866</ele>
<time>2016-05-21T04:37:45.868Z</time>
</trkpt>
<trkpt lat="-27.1430929" lon="152.9783478">
<ele>11.800</ele>
<time>2016-05-21T04:37:47.866Z</time>
</trkpt>
<trkpt lat="-27.1438557" lon="152.9783973">
<ele>11.189</ele>
<time>2016-05-21T04:37:50.912Z</time>
</trkpt>
<trkpt lat="-27.1443589" lon="152.9784116">
<ele>9.688</ele>
<time>2016-05-21T04:37:52.922Z</time>
</trkpt>
<trkpt lat="-27.1448512" lon="152.9784330">
<ele>7.726</ele>
<time>2016-05-21T04:37:54.891Z</time>
</trkpt>
<trkpt lat="-27.1455909" lon="152.9784214">
<ele>5.849</ele>
<time>2016-05-21T04:37:57.854Z</time>
</trkpt>
<trkpt lat="-27.1460990" lon="152.9783937">
<ele>4.444</ele>
<time>2016-05-21T04:37:59.901Z</time>
</trkpt>
<trkpt lat="-27.1465887" lon="152.9783545">
<ele>3.776</ele>
<time>2016-05-21T04:38:01.876Z</time>
</trkpt>
<trkpt lat="-27.1473461" lon="152.9783022">
<ele>3.715</ele>
<time>2016-05-21T04:38:04.912Z</time>
</trkpt>
<trkpt lat="-27.1478247" lon="152.9782685">
<ele>3.724</ele>
<time>2016-05-21T04:38:06.829Z</time>
</trkpt>
<trkpt lat="-27.1485534" lon="152.9782035">
<ele>3.347</ele>
<time>2016-05-21T04:38:09.743Z</time>
</trkpt>
<trkpt lat="-27.1493010" lon="152.9781220">
<ele>2.797</ele>
<time>2016-05-21T04:38:12.728Z</time>
</trkpt>
<trkpt lat="-27.1500540" lon="152.9780496">
<ele>2.678</ele>
<time>2016-05-21T04:38:15.746Z</time>
</trkpt>
<trkpt lat="-27.1505574" lon="152.9779955">
<ele>3.153</ele>
<time>2016-05-21T04:38:17.787Z</time>
</trkpt>
<trkpt lat="-27.1512998" lon="152.9779212">
<ele>3.892</ele>
<time>2016-05-21T04:38:20.817Z</time>
</trkpt>
<trkpt lat="-27.1520328" lon="152.9778580">
<ele>4.479</ele>
<time>2016-05-21T04:38:23.815Z</time>
</trkpt>
<trkpt lat="-27.1525216" lon="152.9778053">
<ele>4.508</ele>
<time>2016-05-21T04:38:25.826Z</time>
</trkpt>
<trkpt lat="-27.1530007" lon="152.9777803">
<ele>3.959</ele>
<time>2016-05-21T04:38:27.792Z</time>
</trkpt>
<trkpt lat="-27.1537232" lon="152.9777514">
<ele>3.251</ele>
<time>2016-05-21T04:38:30.757Z</time>
</trkpt>
<trkpt lat="-27.1544649" lon="152.9777254">
<ele>2.740</ele>
<time>2016-05-21T04:38:33.773Z</time>
</trkpt>
<trkpt lat="-27.1551887" lon="152.9777333">
<ele>2.452</ele>
<time>2016-05-21T04:38:36.668Z</time>
</trkpt>
<trkpt lat="-27.1559417" lon="152.9777751">
<ele>2.617</ele>
<time>2016-05-21T04:38:39.693Z</time>
</trkpt>
<trkpt lat="-27.1564497" lon="152.9778129">
<ele>3.325</ele>
<time>2016-05-21T04:38:41.764Z</time>
</trkpt>
<trkpt lat="-27.1571769" lon="152.9778878">
<ele>4.139</ele>
<time>2016-05-21T04:38:44.756Z</time>
</trkpt>
<trkpt lat="-27.1576551" lon="152.9779639">
<ele>4.599</ele>
<time>2016-05-21T04:38:46.724Z</time>
</trkpt>
<trkpt lat="-27.1583869" lon="152.9780863">
<ele>4.720</ele>
<time>2016-05-21T04:38:49.729Z</time>
</trkpt>
<trkpt lat="-27.1591089" lon="152.9782405">
<ele>4.835</ele>
<time>2016-05-21T04:38:52.738Z</time>
</trkpt>
<trkpt lat="-27.1598236" lon="152.9784087">
<ele>5.142</ele>
<time>2016-05-21T04:38:55.756Z</time>
</trkpt>
<trkpt lat="-27.1605531" lon="152.9785999">
<ele>5.618</ele>
<time>2016-05-21T04:38:58.897Z</time>
</trkpt>
<trkpt lat="-27.1610105" lon="152.9787367">
<ele>5.850</ele>
<time>2016-05-21T04:39:00.909Z</time>
</trkpt>
<trkpt lat="-27.1616707" lon="152.9789272">
<ele>5.296</ele>
<time>2016-05-21T04:39:03.791Z</time>
</trkpt>
<trkpt lat="-27.1623437" lon="152.9791231">
<ele>4.203</ele>
<time>2016-05-21T04:39:06.717Z</time>
</trkpt>
<trkpt lat="-27.1627987" lon="152.9792551">
<ele>3.330</ele>
<time>2016-05-21T04:39:08.718Z</time>
</trkpt>
<trkpt lat="-27.1634780" lon="152.9794507">
<ele>2.787</ele>
<time>2016-05-21T04:39:11.732Z</time>
</trkpt>
<trkpt lat="-27.1639216" lon="152.9795811">
<ele>2.315</ele>
<time>2016-05-21T04:39:13.712Z</time>
</trkpt>
<trkpt lat="-27.1646038" lon="152.9798030">
<ele>1.854</ele>
<time>2016-05-21T04:39:16.784Z</time>
</trkpt>
<trkpt lat="-27.1650442" lon="152.9799380">
<ele>1.453</ele>
<time>2016-05-21T04:39:18.768Z</time>
</trkpt>
<trkpt lat="-27.1657010" lon="152.9801348">
<ele>1.085</ele>
<time>2016-05-21T04:39:21.739Z</time>
</trkpt>
<trkpt lat="-27.1663727" lon="152.9803234">
<ele>0.821</ele>
<time>2016-05-21T04:39:24.698Z</time>
</trkpt>
<trkpt lat="-27.1668276" lon="152.9804557">
<ele>1.057</ele>
<time>2016-05-21T04:39:26.658Z</time>
</trkpt>
<trkpt lat="-27.1675238" lon="152.9806714">
<ele>1.981</ele>
<time>2016-05-21T04:39:29.651Z</time>
</trkpt>
<trkpt lat="-27.1679877" lon="152.9808117">
<ele>3.512</ele>
<time>2016-05-21T04:39:31.654Z</time>
</trkpt>
<trkpt lat="-27.1686739" lon="152.9810207">
<ele>5.353</ele>
<time>2016-05-21T04:39:34.611Z</time>
</trkpt>
<trkpt lat="-27.1691426" lon="152.9811559">
<ele>6.811</ele>
<time>2016-05-21T04:39:36.596Z</time>
</trkpt>
<trkpt lat="-27.1696124" lon="152.9812969">
<ele>7.601</ele>
<time>2016-05-21T04:39:38.585Z</time>
</trkpt>
<trkpt lat="-27.1700854" lon="152.9814319">
<ele>8.152</ele>
<time>2016-05-21T04:39:40.593Z</time>
</trkpt>
<trkpt lat="-27.1707865" lon="152.9816597">
<ele>8.541</ele>
<time>2016-05-21T04:39:43.611Z</time>
</trkpt>
<trkpt lat="-27.1712312" lon="152.9817865">
<ele>8.695</ele>
<time>2016-05-21T04:39:45.498Z</time>
</trkpt>
<trkpt lat="-27.1719391" lon="152.9819907">
<ele>8.617</ele>
<time>2016-05-21T04:39:48.474Z</time>
</trkpt>
<trkpt lat="-27.1724103" lon="152.9821187">
<ele>8.387</ele>
<time>2016-05-21T04:39:50.441Z</time>
</trkpt>
<trkpt lat="-27.1731225" lon="152.9823328">
<ele>8.179</ele>
<time>2016-05-21T04:39:53.439Z</time>
</trkpt>
<trkpt lat="-27.1736056" lon="152.9824679">
<ele>8.098</ele>
<time>2016-05-21T04:39:55.474Z</time>
</trkpt>
<trkpt lat="-27.1743248" lon="152.9826634">
<ele>8.500</ele>
<time>2016-05-21T04:39:58.528Z</time>
</trkpt>
<trkpt lat="-27.1750337" lon="152.9828722">
<ele>9.534</ele>
<time>2016-05-21T04:40:01.598Z</time>
</trkpt>
<trkpt lat="-27.1754894" lon="152.9829965">
<ele>10.545</ele>
<time>2016-05-21T04:40:03.570Z</time>
</trkpt>
<trkpt lat="-27.1761673" lon="152.9832110">
<ele>11.026</ele>
<time>2016-05-21T04:40:06.486Z</time>
</trkpt>
<trkpt lat="-27.1766369" lon="152.9833321">
<ele>11.128</ele>
<time>2016-05-21T04:40:08.437Z</time>
</trkpt>
<trkpt lat="-27.1773696" lon="152.9835189">
<ele>11.221</ele>
<time>2016-05-21T04:40:11.461Z</time>
</trkpt>
<trkpt lat="-27.1780930" lon="152.9837203">
<ele>12.020</ele>
<time>2016-05-21T04:40:14.485Z</time>
</trkpt>
<trkpt lat="-27.1788154" lon="152.9839156">
<ele>13.695</ele>
<time>2016-05-21T04:40:17.544Z</time>
</trkpt>
<trkpt lat="-27.1792776" lon="152.9840425">
<ele>15.293</ele>
<time>2016-05-21T04:40:19.524Z</time>
</trkpt>
<trkpt lat="-27.1799702" lon="152.9842439">
<ele>16.051</ele>
<time>2016-05-21T04:40:22.510Z</time>
</trkpt>
<trkpt lat="-27.1806718" lon="152.9844518">
<ele>16.390</ele>
<time>2016-05-21T04:40:25.528Z</time>
</trkpt>
<trkpt lat="-27.1811422" lon="152.9845850">
<ele>16.912</ele>
<time>2016-05-21T04:40:27.517Z</time>
</trkpt>
<trkpt lat="-27.1816216" lon="152.9847139">
<ele>17.644</ele>
<time>2016-05-21T04:40:29.524Z</time>
</trkpt>
<trkpt lat="-27.1821049" lon="152.9848573">
<ele>18.361</ele>
<time>2016-05-21T04:40:31.566Z</time>
</trkpt>
<trkpt lat="-27.1827935" lon="152.9850449">
<ele>19.395</ele>
<time>2016-05-21T04:40:34.478Z</time>
</trkpt>
<trkpt lat="-27.1832656" lon="152.9851652">
<ele>20.907</ele>
<time>2016-05-21T04:40:36.466Z</time>
</trkpt>
<trkpt lat="-27.1839719" lon="152.9853655">
<ele>22.240</ele>
<time>2016-05-21T04:40:39.445Z</time>
</trkpt>
<trkpt lat="-27.1846841" lon="152.9855698">
<ele>22.858</ele>
<time>2016-05-21T04:40:42.447Z</time>
</trkpt>
<trkpt lat="-27.1851562" lon="152.9857099">
<ele>23.069</ele>
<time>2016-05-21T04:40:44.450Z</time>
</trkpt>
<trkpt lat="-27.1858675" lon="152.9859017">
<ele>23.252</ele>
<time>2016-05-21T04:40:47.449Z</time>
</trkpt>
<trkpt lat="-27.1863375" lon="152.9860268">
<ele>23.443</ele>
<time>2016-05-21T04:40:49.412Z</time>
</trkpt>
<trkpt lat="-27.1868212" lon="152.9861571">
<ele>23.453</ele>
<time>2016-05-21T04:40:51.417Z</time>
</trkpt>
<trkpt lat="-27.1875488" lon="152.9863377">
<ele>23.034</ele>
<time>2016-05-21T04:40:54.412Z</time>
</trkpt>
<trkpt lat="-27.1880489" lon="152.9864447">
<ele>22.218</ele>
<time>2016-05-21T04:40:56.439Z</time>
</trkpt>
<trkpt lat="-27.1887996" lon="152.9866129">
<ele>21.492</ele>
<time>2016-05-21T04:40:59.490Z</time>
</trkpt>
<trkpt lat="-27.1892955" lon="152.9867262">
<ele>21.154</ele>
<time>2016-05-21T04:41:01.506Z</time>
</trkpt>
<trkpt lat="-27.1900399" lon="152.9868738">
<ele>20.716</ele>
<time>2016-05-21T04:41:04.506Z</time>
</trkpt>
<trkpt lat="-27.1905276" lon="152.9869821">
<ele>19.744</ele>
<time>2016-05-21T04:41:06.496Z</time>
</trkpt>
<trkpt lat="-27.1912527" lon="152.9871174">
<ele>18.459</ele>
<time>2016-05-21T04:41:09.426Z</time>
</trkpt>
<trkpt lat="-27.1919804" lon="152.9872578">
<ele>17.126</ele>
<time>2016-05-21T04:41:12.311Z</time>
</trkpt>
<trkpt lat="-27.1925055" lon="152.9873546">
<ele>15.708</ele>
<time>2016-05-21T04:41:14.364Z</time>
</trkpt>
<trkpt lat="-27.1930128" lon="152.9874583">
<ele>14.446</ele>
<time>2016-05-21T04:41:16.387Z</time>
</trkpt>
<trkpt lat="-27.1935342" lon="152.9875461">
<ele>14.101</ele>
<time>2016-05-21T04:41:18.469Z</time>
</trkpt>
<trkpt lat="-27.1942889" lon="152.9876884">
<ele>14.952</ele>
<time>2016-05-21T04:41:21.468Z</time>
</trkpt>
<trkpt lat="-27.1947855" lon="152.9877790">
<ele>16.161</ele>
<time>2016-05-21T04:41:23.430Z</time>
</trkpt>
<trkpt lat="-27.1952827" lon="152.9878836">
<ele>17.054</ele>
<time>2016-05-21T04:41:25.401Z</time>
</trkpt>
<trkpt lat="-27.1957864" lon="152.9879950">
<ele>17.889</ele>
<time>2016-05-21T04:41:27.406Z</time>
</trkpt>
<trkpt lat="-27.1965483" lon="152.9881321">
<ele>18.814</ele>
<time>2016-05-21T04:41:30.432Z</time>
</trkpt>
<trkpt lat="-27.1970516" lon="152.9882292">
<ele>19.573</ele>
<time>2016-05-21T04:41:32.431Z</time>
</trkpt>
<trkpt lat="-27.1977998" lon="152.9883699">
<ele>20.225</ele>
<time>2016-05-21T04:41:35.418Z</time>
</trkpt>
<trkpt lat="-27.1985442" lon="152.9885059">
<ele>20.969</ele>
<time>2016-05-21T04:41:38.448Z</time>
</trkpt>
<trkpt lat="-27.1992502" lon="152.9886534">
<ele>21.507</ele>
<time>2016-05-21T04:41:41.417Z</time>
</trkpt>
<trkpt lat="-27.1997234" lon="152.9887634">
<ele>21.474</ele>
<time>2016-05-21T04:41:43.466Z</time>
</trkpt>
<trkpt lat="-27.2004034" lon="152.9888945">
<ele>20.997</ele>
<time>2016-05-21T04:41:46.387Z</time>
</trkpt>
<trkpt lat="-27.2011136" lon="152.9890180">
<ele>20.351</ele>
<time>2016-05-21T04:41:49.392Z</time>
</trkpt>
<trkpt lat="-27.2015909" lon="152.9891097">
<ele>19.700</ele>
<time>2016-05-21T04:41:51.410Z</time>
</trkpt>
<trkpt lat="-27.2020568" lon="152.9891965">
<ele>19.232</ele>
<time>2016-05-21T04:41:53.406Z</time>
</trkpt>
<trkpt lat="-27.2025161" lon="152.9892896">
<ele>19.004</ele>
<time>2016-05-21T04:41:55.380Z</time>
</trkpt>
<trkpt lat="-27.2032176" lon="152.9894384">
<ele>18.854</ele>
<time>2016-05-21T04:41:58.359Z</time>
</trkpt>
<trkpt lat="-27.2036841" lon="152.9895296">
<ele>19.046</ele>
<time>2016-05-21T04:42:00.307Z</time>
</trkpt>
<trkpt lat="-27.2041638" lon="152.9896236">
<ele>20.052</ele>
<time>2016-05-21T04:42:02.295Z</time>
</trkpt>
<trkpt lat="-27.2048917" lon="152.9897678">
<ele>21.536</ele>
<time>2016-05-21T04:42:05.294Z</time>
</trkpt>
<trkpt lat="-27.2053786" lon="152.9898778">
<ele>22.394</ele>
<time>2016-05-21T04:42:07.290Z</time>
</trkpt>
<trkpt lat="-27.2058661" lon="152.9899913">
<ele>22.188</ele>
<time>2016-05-21T04:42:09.290Z</time>
</trkpt>
<trkpt lat="-27.2063572" lon="152.9901139">
<ele>21.509</ele>
<time>2016-05-21T04:42:11.333Z</time>
</trkpt>
<trkpt lat="-27.2070619" lon="152.9903204">
<ele>21.099</ele>
<time>2016-05-21T04:42:14.308Z</time>
</trkpt>
<trkpt lat="-27.2077802" lon="152.9905428">
<ele>21.048</ele>
<time>2016-05-21T04:42:17.354Z</time>
</trkpt>
<trkpt lat="-27.2082388" lon="152.9906912">
<ele>20.837</ele>
<time>2016-05-21T04:42:19.302Z</time>
</trkpt>
<trkpt lat="-27.2089483" lon="152.9909518">
<ele>20.235</ele>
<time>2016-05-21T04:42:22.350Z</time>
</trkpt>
<trkpt lat="-27.2094035" lon="152.9911465">
<ele>19.863</ele>
<time>2016-05-21T04:42:24.344Z</time>
</trkpt>
<trkpt lat="-27.2100884" lon="152.9914300">
<ele>20.125</ele>
<time>2016-05-21T04:42:27.308Z</time>
</trkpt>
<trkpt lat="-27.2107891" lon="152.9917331">
<ele>20.630</ele>
<time>2016-05-21T04:42:30.320Z</time>
</trkpt>
<trkpt lat="-27.2112395" lon="152.9919469">
<ele>20.936</ele>
<time>2016-05-21T04:42:32.271Z</time>
</trkpt>
<trkpt lat="-27.2117106" lon="152.9921722">
<ele>20.914</ele>
<time>2016-05-21T04:42:34.254Z</time>
</trkpt>
<trkpt lat="-27.2124623" lon="152.9926391">
<ele>20.607</ele>
<time>2016-05-21T04:42:37.502Z</time>
</trkpt>
<trkpt lat="-27.2129138" lon="152.9928503">
<ele>19.932</ele>
<time>2016-05-21T04:42:39.394Z</time>
</trkpt>
<trkpt lat="-27.2133797" lon="152.9931340">
<ele>18.774</ele>
<time>2016-05-21T04:42:41.501Z</time>
</trkpt>
<trkpt lat="-27.2139943" lon="152.9934569">
<ele>17.549</ele>
<time>2016-05-21T04:42:44.244Z</time>
</trkpt>
<trkpt lat="-27.2146583" lon="152.9938778">
<ele>16.843</ele>
<time>2016-05-21T04:42:47.320Z</time>
</trkpt>
<trkpt lat="-27.2152750" lon="152.9943155">
<ele>16.331</ele>
<time>2016-05-21T04:42:50.247Z</time>
</trkpt>
<trkpt lat="-27.2158932" lon="152.9947705">
<ele>15.533</ele>
<time>2016-05-21T04:42:53.178Z</time>
</trkpt>
<trkpt lat="-27.2163236" lon="152.9950886">
<ele>15.060</ele>
<time>2016-05-21T04:42:55.219Z</time>
</trkpt>
<trkpt lat="-27.2169457" lon="152.9955177">
<ele>15.507</ele>
<time>2016-05-21T04:42:58.134Z</time>
</trkpt>
<trkpt lat="-27.2173817" lon="152.9958468">
<ele>16.290</ele>
<time>2016-05-21T04:43:00.240Z</time>
</trkpt>
<trkpt lat="-27.2178076" lon="152.9961806">
<ele>16.990</ele>
<time>2016-05-21T04:43:02.334Z</time>
</trkpt>
<trkpt lat="-27.2184100" lon="152.9966205">
<ele>17.734</ele>
<time>2016-05-21T04:43:05.237Z</time>
</trkpt>
<trkpt lat="-27.2190601" lon="152.9970809">
<ele>18.251</ele>
<time>2016-05-21T04:43:08.338Z</time>
</trkpt>
<trkpt lat="-27.2197104" lon="152.9974725">
<ele>18.242</ele>
<time>2016-05-21T04:43:11.300Z</time>
</trkpt>
<trkpt lat="-27.2203775" lon="152.9978356">
<ele>17.977</ele>
<time>2016-05-21T04:43:14.260Z</time>
</trkpt>
<trkpt lat="-27.2208238" lon="152.9980713">
<ele>18.437</ele>
<time>2016-05-21T04:43:16.257Z</time>
</trkpt>
<trkpt lat="-27.2212559" lon="152.9983266">
<ele>20.055</ele>
<time>2016-05-21T04:43:18.235Z</time>
</trkpt>
<trkpt lat="-27.2221779" lon="152.9987954">
<ele>21.782</ele>
<time>2016-05-21T04:43:22.312Z</time>
</trkpt>
<trkpt lat="-27.2228549" lon="152.9991343">
<ele>23.704</ele>
<time>2016-05-21T04:43:25.307Z</time>
</trkpt>
<trkpt lat="-27.2235016" lon="152.9994302">
<ele>26.855</ele>
<time>2016-05-21T04:43:28.142Z</time>
</trkpt>
<trkpt lat="-27.2241864" lon="152.9997501">
<ele>30.222</ele>
<time>2016-05-21T04:43:31.144Z</time>
</trkpt>
<trkpt lat="-27.2246309" lon="152.9999605">
<ele>32.321</ele>
<time>2016-05-21T04:43:33.107Z</time>
</trkpt>
<trkpt lat="-27.2253225" lon="153.0003162">
<ele>33.209</ele>
<time>2016-05-21T04:43:36.201Z</time>
</trkpt>
<trkpt lat="-27.2260052" lon="153.0006437">
<ele>33.284</ele>
<time>2016-05-21T04:43:39.201Z</time>
</trkpt>
<trkpt lat="-27.2266830" lon="153.0009776">
<ele>32.897</ele>
<time>2016-05-21T04:43:42.156Z</time>
</trkpt>
<trkpt lat="-27.2271488" lon="153.0012075">
<ele>32.480</ele>
<time>2016-05-21T04:43:44.173Z</time>
</trkpt>
<trkpt lat="-27.2276012" lon="153.0014161">
<ele>32.275</ele>
<time>2016-05-21T04:43:46.100Z</time>
</trkpt>
<trkpt lat="-27.2283141" lon="153.0017903">
<ele>32.065</ele>
<time>2016-05-21T04:43:49.157Z</time>
</trkpt>
<trkpt lat="-27.2287826" lon="153.0020201">
<ele>31.363</ele>
<time>2016-05-21T04:43:51.126Z</time>
</trkpt>
<trkpt lat="-27.2295019" lon="153.0023294">
<ele>30.318</ele>
<time>2016-05-21T04:43:54.141Z</time>
</trkpt>
<trkpt lat="-27.2299267" lon="153.0025271">
<ele>29.590</ele>
<time>2016-05-21T04:43:56.001Z</time>
</trkpt>
<trkpt lat="-27.2306139" lon="153.0028761">
<ele>29.392</ele>
<time>2016-05-21T04:43:59.095Z</time>
</trkpt>
<trkpt lat="-27.2308351" lon="153.0029949">
<ele>29.532</ele>
<time>2016-05-21T04:44:00.087Z</time>
</trkpt>
<trkpt lat="-27.2317914" lon="153.0034303">
<ele>29.798</ele>
<time>2016-05-21T04:44:04.193Z</time>
</trkpt>
<trkpt lat="-27.2322338" lon="153.0036486">
<ele>29.643</ele>
<time>2016-05-21T04:44:06.093Z</time>
</trkpt>
<trkpt lat="-27.2329277" lon="153.0040062">
<ele>28.519</ele>
<time>2016-05-21T04:44:09.094Z</time>
</trkpt>
<trkpt lat="-27.2334009" lon="153.0042481">
<ele>26.407</ele>
<time>2016-05-21T04:44:11.145Z</time>
</trkpt>
<trkpt lat="-27.2338457" lon="153.0044786">
<ele>24.319</ele>
<time>2016-05-21T04:44:13.098Z</time>
</trkpt>
<trkpt lat="-27.2345253" lon="153.0048026">
<ele>23.149</ele>
<time>2016-05-21T04:44:16.076Z</time>
</trkpt>
<trkpt lat="-27.2349594" lon="153.0049746">
<ele>22.752</ele>
<time>2016-05-21T04:44:17.940Z</time>
</trkpt>
<trkpt lat="-27.2354389" lon="153.0052316">
<ele>22.651</ele>
<time>2016-05-21T04:44:20.069Z</time>
</trkpt>
<trkpt lat="-27.2360922" lon="153.0055795">
<ele>22.712</ele>
<time>2016-05-21T04:44:22.966Z</time>
</trkpt>
<trkpt lat="-27.2365417" lon="153.0058029">
<ele>22.825</ele>
<time>2016-05-21T04:44:24.956Z</time>
</trkpt>
<trkpt lat="-27.2371715" lon="153.0061932">
<ele>22.989</ele>
<time>2016-05-21T04:44:27.879Z</time>
</trkpt>
<trkpt lat="-27.2375949" lon="153.0064931">
<ele>23.185</ele>
<time>2016-05-21T04:44:29.915Z</time>
</trkpt>
<trkpt lat="-27.2379980" lon="153.0068196">
<ele>24.001</ele>
<time>2016-05-21T04:44:31.943Z</time>
</trkpt>
<trkpt lat="-27.2386054" lon="153.0074274">
<ele>25.753</ele>
<time>2016-05-21T04:44:35.257Z</time>
</trkpt>
<trkpt lat="-27.2389766" lon="153.0077746">
<ele>27.170</ele>
<time>2016-05-21T04:44:37.219Z</time>
</trkpt>
<trkpt lat="-27.2393358" lon="153.0081573">
<ele>27.178</ele>
<time>2016-05-21T04:44:39.231Z</time>
</trkpt>
<trkpt lat="-27.2398430" lon="153.0087714">
<ele>26.657</ele>
<time>2016-05-21T04:44:42.262Z</time>
</trkpt>
<trkpt lat="-27.2401683" lon="153.0092107">
<ele>26.642</ele>
<time>2016-05-21T04:44:44.333Z</time>
</trkpt>
<trkpt lat="-27.2404625" lon="153.0096132">
<ele>27.056</ele>
<time>2016-05-21T04:44:46.239Z</time>
</trkpt>
<trkpt lat="-27.2407729" lon="153.0100341">
<ele>26.778</ele>
<time>2016-05-21T04:44:48.244Z</time>
</trkpt>
<trkpt lat="-27.2412313" lon="153.0106432">
<ele>25.253</ele>
<time>2016-05-21T04:44:51.158Z</time>
</trkpt>
<trkpt lat="-27.2415334" lon="153.0110556">
<ele>23.423</ele>
<time>2016-05-21T04:44:53.105Z</time>
</trkpt>
<trkpt lat="-27.2419896" lon="153.0116776">
<ele>22.107</ele>
<time>2016-05-21T04:44:56.044Z</time>
</trkpt>
<trkpt lat="-27.2422987" lon="153.0121070">
<ele>21.230</ele>
<time>2016-05-21T04:44:58.060Z</time>
</trkpt>
<trkpt lat="-27.2427728" lon="153.0127347">
<ele>20.987</ele>
<time>2016-05-21T04:45:01.082Z</time>
</trkpt>
<trkpt lat="-27.2432268" lon="153.0133247">
<ele>21.422</ele>
<time>2016-05-21T04:45:03.967Z</time>
</trkpt>
<trkpt lat="-27.2435364" lon="153.0137381">
<ele>21.450</ele>
<time>2016-05-21T04:45:05.955Z</time>
</trkpt>
<trkpt lat="-27.2438493" lon="153.0141689">
<ele>20.111</ele>
<time>2016-05-21T04:45:07.978Z</time>
</trkpt>
<trkpt lat="-27.2443156" lon="153.0147993">
<ele>18.063</ele>
<time>2016-05-21T04:45:10.946Z</time>
</trkpt>
<trkpt lat="-27.2448287" lon="153.0154194">
<ele>16.493</ele>
<time>2016-05-21T04:45:13.986Z</time>
</trkpt>
<trkpt lat="-27.2453697" lon="153.0159996">
<ele>15.602</ele>
<time>2016-05-21T04:45:16.968Z</time>
</trkpt>
<trkpt lat="-27.2459500" lon="153.0165389">
<ele>15.059</ele>
<time>2016-05-21T04:45:19.932Z</time>
</trkpt>
<trkpt lat="-27.2465704" lon="153.0170586">
<ele>14.042</ele>
<time>2016-05-21T04:45:22.975Z</time>
</trkpt>
<trkpt lat="-27.2469770" lon="153.0173599">
<ele>12.140</ele>
<time>2016-05-21T04:45:24.899Z</time>
</trkpt>
<trkpt lat="-27.2476483" lon="153.0177930">
<ele>10.283</ele>
<time>2016-05-21T04:45:27.940Z</time>
</trkpt>
<trkpt lat="-27.2483437" lon="153.0181856">
<ele>9.019</ele>
<time>2016-05-21T04:45:30.987Z</time>
</trkpt>
<trkpt lat="-27.2488189" lon="153.0184094">
<ele>7.774</ele>
<time>2016-05-21T04:45:33.004Z</time>
</trkpt>
<trkpt lat="-27.2492975" lon="153.0185932">
<ele>6.631</ele>
<time>2016-05-21T04:45:34.998Z</time>
</trkpt>
<trkpt lat="-27.2497778" lon="153.0187486">
<ele>6.034</ele>
<time>2016-05-21T04:45:36.991Z</time>
</trkpt>
<trkpt lat="-27.2502593" lon="153.0188863">
<ele>5.853</ele>
<time>2016-05-21T04:45:38.987Z</time>
</trkpt>
<trkpt lat="-27.2509794" lon="153.0190413">
<ele>5.779</ele>
<time>2016-05-21T04:45:41.941Z</time>
</trkpt>
<trkpt lat="-27.2514688" lon="153.0191244">
<ele>6.170</ele>
<time>2016-05-21T04:45:43.949Z</time>
</trkpt>
<trkpt lat="-27.2522088" lon="153.0191949">
<ele>7.557</ele>
<time>2016-05-21T04:45:47.012Z</time>
</trkpt>
<trkpt lat="-27.2529213" lon="153.0192071">
<ele>9.718</ele>
<time>2016-05-21T04:45:50.029Z</time>
</trkpt>
<trkpt lat="-27.2533823" lon="153.0191901">
<ele>11.824</ele>
<time>2016-05-21T04:45:51.994Z</time>
</trkpt>
<trkpt lat="-27.2538584" lon="153.0191698">
<ele>13.270</ele>
<time>2016-05-21T04:45:53.996Z</time>
</trkpt>
<trkpt lat="-27.2543322" lon="153.0191657">
<ele>13.997</ele>
<time>2016-05-21T04:45:55.933Z</time>
</trkpt>
<trkpt lat="-27.2550714" lon="153.0191226">
<ele>14.708</ele>
<time>2016-05-21T04:45:58.921Z</time>
</trkpt>
<trkpt lat="-27.2555707" lon="153.0190932">
<ele>16.121</ele>
<time>2016-05-21T04:46:00.931Z</time>
</trkpt>
<trkpt lat="-27.2563090" lon="153.0190390">
<ele>18.072</ele>
<time>2016-05-21T04:46:03.900Z</time>
</trkpt>
<trkpt lat="-27.2568122" lon="153.0190061">
<ele>20.046</ele>
<time>2016-05-21T04:46:05.920Z</time>
</trkpt>
<trkpt lat="-27.2575509" lon="153.0189588">
<ele>21.997</ele>
<time>2016-05-21T04:46:08.898Z</time>
</trkpt>
<trkpt lat="-27.2580436" lon="153.0189224">
<ele>23.659</ele>
<time>2016-05-21T04:46:10.903Z</time>
</trkpt>
<trkpt lat="-27.2587773" lon="153.0188658">
<ele>24.222</ele>
<time>2016-05-21T04:46:13.892Z</time>
</trkpt>
<trkpt lat="-27.2595055" lon="153.0188239">
<ele>23.363</ele>
<time>2016-05-21T04:46:16.854Z</time>
</trkpt>
<trkpt lat="-27.2599991" lon="153.0187873">
<ele>21.894</ele>
<time>2016-05-21T04:46:18.863Z</time>
</trkpt>
<trkpt lat="-27.2607365" lon="153.0187387">
<ele>20.666</ele>
<time>2016-05-21T04:46:21.851Z</time>
</trkpt>
<trkpt lat="-27.2612430" lon="153.0187141">
<ele>19.962</ele>
<time>2016-05-21T04:46:23.892Z</time>
</trkpt>
<trkpt lat="-27.2619995" lon="153.0186545">
<ele>19.814</ele>
<time>2016-05-21T04:46:26.960Z</time>
</trkpt>
<trkpt lat="-27.2627271" lon="153.0186039">
<ele>19.953</ele>
<time>2016-05-21T04:46:29.960Z</time>
</trkpt>
<trkpt lat="-27.2632093" lon="153.0185668">
<ele>19.716</ele>
<time>2016-05-21T04:46:31.973Z</time>
</trkpt>
<trkpt lat="-27.2641666" lon="153.0184846">
<ele>18.649</ele>
<time>2016-05-21T04:46:35.973Z</time>
</trkpt>
<trkpt lat="-27.2646314" lon="153.0184555">
<ele>17.175</ele>
<time>2016-05-21T04:46:37.894Z</time>
</trkpt>
<trkpt lat="-27.2651168" lon="153.0184234">
<ele>15.859</ele>
<time>2016-05-21T04:46:39.891Z</time>
</trkpt>
<trkpt lat="-27.2658504" lon="153.0183716">
<ele>14.693</ele>
<time>2016-05-21T04:46:42.931Z</time>
</trkpt>
<trkpt lat="-27.2665723" lon="153.0183213">
<ele>13.577</ele>
<time>2016-05-21T04:46:45.943Z</time>
</trkpt>
<trkpt lat="-27.2670590" lon="153.0182949">
<ele>12.449</ele>
<time>2016-05-21T04:46:47.956Z</time>
</trkpt>
<trkpt lat="-27.2677816" lon="153.0182418">
<ele>11.357</ele>
<time>2016-05-21T04:46:50.933Z</time>
</trkpt>
<trkpt lat="-27.2685130" lon="153.0181860">
<ele>10.571</ele>
<time>2016-05-21T04:46:53.949Z</time>
</trkpt>
<trkpt lat="-27.2692487" lon="153.0181565">
<ele>9.889</ele>
<time>2016-05-21T04:46:56.989Z</time>
</trkpt>
<trkpt lat="-27.2697386" lon="153.0181191">
<ele>8.852</ele>
<time>2016-05-21T04:46:58.990Z</time>
</trkpt>
<trkpt lat="-27.2704895" lon="153.0180641">
<ele>7.387</ele>
<time>2016-05-21T04:47:02.038Z</time>
</trkpt>
<trkpt lat="-27.2709812" lon="153.0180246">
<ele>5.876</ele>
<time>2016-05-21T04:47:04.032Z</time>
</trkpt>
<trkpt lat="-27.2717074" lon="153.0179982">
<ele>4.791</ele>
<time>2016-05-21T04:47:06.975Z</time>
</trkpt>
<trkpt lat="-27.2724453" lon="153.0179533">
<ele>4.354</ele>
<time>2016-05-21T04:47:09.974Z</time>
</trkpt>
<trkpt lat="-27.2729406" lon="153.0179198">
<ele>4.448</ele>
<time>2016-05-21T04:47:11.975Z</time>
</trkpt>
<trkpt lat="-27.2736859" lon="153.0178823">
<ele>5.116</ele>
<time>2016-05-21T04:47:14.981Z</time>
</trkpt>
<trkpt lat="-27.2744311" lon="153.0179109">
<ele>6.366</ele>
<time>2016-05-21T04:47:17.987Z</time>
</trkpt>
<trkpt lat="-27.2749206" lon="153.0180007">
<ele>7.677</ele>
<time>2016-05-21T04:47:19.992Z</time>
</trkpt>
<trkpt lat="-27.2756451" lon="153.0181585">
<ele>8.358</ele>
<time>2016-05-21T04:47:23.002Z</time>
</trkpt>
<trkpt lat="-27.2763433" lon="153.0183759">
<ele>8.301</ele>
<time>2016-05-21T04:47:25.980Z</time>
</trkpt>
<trkpt lat="-27.2768040" lon="153.0185560">
<ele>7.800</ele>
<time>2016-05-21T04:47:28.043Z</time>
</trkpt>
<trkpt lat="-27.2770263" lon="153.0186404">
<ele>7.156</ele>
<time>2016-05-21T04:47:29.024Z</time>
</trkpt>
<trkpt lat="-27.2779397" lon="153.0190179">
<ele>6.653</ele>
<time>2016-05-21T04:47:33.001Z</time>
</trkpt>
<trkpt lat="-27.2784079" lon="153.0192216">
<ele>6.508</ele>
<time>2016-05-21T04:47:35.004Z</time>
</trkpt>
<trkpt lat="-27.2788657" lon="153.0194309">
<ele>6.813</ele>
<time>2016-05-21T04:47:36.986Z</time>
</trkpt>
<trkpt lat="-27.2793251" lon="153.0196459">
<ele>7.278</ele>
<time>2016-05-21T04:47:39.000Z</time>
</trkpt>
<trkpt lat="-27.2797767" lon="153.0198506">
<ele>7.322</ele>
<time>2016-05-21T04:47:40.992Z</time>
</trkpt>
<trkpt lat="-27.2804710" lon="153.0201404">
<ele>6.760</ele>
<time>2016-05-21T04:47:44.035Z</time>
</trkpt>
<trkpt lat="-27.2811734" lon="153.0203483">
<ele>5.934</ele>
<time>2016-05-21T04:47:47.008Z</time>
</trkpt>
<trkpt lat="-27.2816564" lon="153.0204507">
<ele>5.172</ele>
<time>2016-05-21T04:47:48.985Z</time>
</trkpt>
<trkpt lat="-27.2821603" lon="153.0205348">
<ele>4.636</ele>
<time>2016-05-21T04:47:51.014Z</time>
</trkpt>
<trkpt lat="-27.2829222" lon="153.0206077">
<ele>4.476</ele>
<time>2016-05-21T04:47:54.037Z</time>
</trkpt>
<trkpt lat="-27.2834245" lon="153.0206352">
<ele>4.716</ele>
<time>2016-05-21T04:47:56.021Z</time>
</trkpt>
<trkpt lat="-27.2839282" lon="153.0206677">
<ele>5.098</ele>
<time>2016-05-21T04:47:58.012Z</time>
</trkpt>
<trkpt lat="-27.2846931" lon="153.0206865">
<ele>5.396</ele>
<time>2016-05-21T04:48:01.021Z</time>
</trkpt>
<trkpt lat="-27.2854685" lon="153.0206669">
<ele>5.555</ele>
<time>2016-05-21T04:48:04.071Z</time>
</trkpt>
<trkpt lat="-27.2862161" lon="153.0206020">
<ele>5.486</ele>
<time>2016-05-21T04:48:07.074Z</time>
</trkpt>
<trkpt lat="-27.2864572" lon="153.0205642">
<ele>4.606</ele>
<time>2016-05-21T04:48:08.051Z</time>
</trkpt>
<trkpt lat="-27.2874459" lon="153.0204220">
<ele>2.758</ele>
<time>2016-05-21T04:48:12.002Z</time>
</trkpt>
<trkpt lat="-27.2879395" lon="153.0203271">
<ele>1.019</ele>
<time>2016-05-21T04:48:13.956Z</time>
</trkpt>
<trkpt lat="-27.2886920" lon="153.0201314">
<ele>0.400</ele>
<time>2016-05-21T04:48:16.977Z</time>
</trkpt>
<trkpt lat="-27.2891860" lon="153.0199856">
<ele>0.723</ele>
<time>2016-05-21T04:48:18.992Z</time>
</trkpt>
<trkpt lat="-27.2896779" lon="153.0198459">
<ele>0.957</ele>
<time>2016-05-21T04:48:21.001Z</time>
</trkpt>
<trkpt lat="-27.2901702" lon="153.0197018">
<ele>0.413</ele>
<time>2016-05-21T04:48:23.046Z</time>
</trkpt>
<trkpt lat="-27.2908828" lon="153.0194906">
<ele>0.000</ele>
<time>2016-05-21T04:48:26.051Z</time>
</trkpt>
<trkpt lat="-27.2913560" lon="153.0193591">
<ele>0.000</ele>
<time>2016-05-21T04:48:28.097Z</time>
</trkpt>
<trkpt lat="-27.2918162" lon="153.0192262">
<ele>0.000</ele>
<time>2016-05-21T04:48:30.182Z</time>
</trkpt>
<trkpt lat="-27.2922410" lon="153.0191023">
<ele>0.076</ele>
<time>2016-05-21T04:48:32.171Z</time>
</trkpt>
<trkpt lat="-27.2928738" lon="153.0189234">
<ele>0.000</ele>
<time>2016-05-21T04:48:35.119Z</time>
</trkpt>
<trkpt lat="-27.2935198" lon="153.0187421">
<ele>0.000</ele>
<time>2016-05-21T04:48:38.090Z</time>
</trkpt>
<trkpt lat="-27.2941783" lon="153.0185357">
<ele>0.000</ele>
<time>2016-05-21T04:48:41.112Z</time>
</trkpt>
<trkpt lat="-27.2946163" lon="153.0184004">
<ele>0.000</ele>
<time>2016-05-21T04:48:43.094Z</time>
</trkpt>
<trkpt lat="-27.2952809" lon="153.0181910">
<ele>0.000</ele>
<time>2016-05-21T04:48:46.116Z</time>
</trkpt>
<trkpt lat="-27.2957312" lon="153.0180540">
<ele>0.000</ele>
<time>2016-05-21T04:48:48.169Z</time>
</trkpt>
<trkpt lat="-27.2963890" lon="153.0178632">
<ele>0.000</ele>
<time>2016-05-21T04:48:51.142Z</time>
</trkpt>
<trkpt lat="-27.2968331" lon="153.0177287">
<ele>0.000</ele>
<time>2016-05-21T04:48:53.158Z</time>
</trkpt>
<trkpt lat="-27.2972669" lon="153.0176052">
<ele>0.000</ele>
<time>2016-05-21T04:48:55.146Z</time>
</trkpt>
<trkpt lat="-27.2979143" lon="153.0174086">
<ele>0.000</ele>
<time>2016-05-21T04:48:58.164Z</time>
</trkpt>
<trkpt lat="-27.2985514" lon="153.0172085">
<ele>0.000</ele>
<time>2016-05-21T04:49:01.170Z</time>
</trkpt>
<trkpt lat="-27.2989842" lon="153.0170935">
<ele>0.000</ele>
<time>2016-05-21T04:49:03.183Z</time>
</trkpt>
<trkpt lat="-27.2994160" lon="153.0169768">
<ele>0.000</ele>
<time>2016-05-21T04:49:05.194Z</time>
</trkpt>
<trkpt lat="-27.2998339" lon="153.0168460">
<ele>0.000</ele>
<time>2016-05-21T04:49:07.170Z</time>
</trkpt>
<trkpt lat="-27.3004633" lon="153.0166654">
<ele>0.000</ele>
<time>2016-05-21T04:49:10.147Z</time>
</trkpt>
<trkpt lat="-27.3008624" lon="153.0165019">
<ele>0.000</ele>
<time>2016-05-21T04:49:12.084Z</time>
</trkpt>
<trkpt lat="-27.3013010" lon="153.0163968">
<ele>0.515</ele>
<time>2016-05-21T04:49:14.112Z</time>
</trkpt>
<trkpt lat="-27.3019526" lon="153.0162096">
<ele>1.408</ele>
<time>2016-05-21T04:49:17.150Z</time>
</trkpt>
<trkpt lat="-27.3023774" lon="153.0161077">
<ele>1.811</ele>
<time>2016-05-21T04:49:19.100Z</time>
</trkpt>
<trkpt lat="-27.3030264" lon="153.0159075">
<ele>2.089</ele>
<time>2016-05-21T04:49:22.126Z</time>
</trkpt>
<trkpt lat="-27.3036498" lon="153.0156313">
<ele>2.203</ele>
<time>2016-05-21T04:49:25.148Z</time>
</trkpt>
<trkpt lat="-27.3040448" lon="153.0154217">
<ele>2.040</ele>
<time>2016-05-21T04:49:27.115Z</time>
</trkpt>
<trkpt lat="-27.3044224" lon="153.0151760">
<ele>1.894</ele>
<time>2016-05-21T04:49:29.081Z</time>
</trkpt>
<trkpt lat="-27.3049684" lon="153.0147633">
<ele>2.014</ele>
<time>2016-05-21T04:49:32.052Z</time>
</trkpt>
<trkpt lat="-27.3053165" lon="153.0144394">
<ele>2.189</ele>
<time>2016-05-21T04:49:34.091Z</time>
</trkpt>
<trkpt lat="-27.3056621" lon="153.0141412">
<ele>2.099</ele>
<time>2016-05-21T04:49:36.062Z</time>
</trkpt>
<trkpt lat="-27.3061811" lon="153.0136699">
<ele>1.775</ele>
<time>2016-05-21T04:49:39.078Z</time>
</trkpt>
<trkpt lat="-27.3065587" lon="153.0133929">
<ele>1.266</ele>
<time>2016-05-21T04:49:41.097Z</time>
</trkpt>
<trkpt lat="-27.3069518" lon="153.0131372">
<ele>0.588</ele>
<time>2016-05-21T04:49:43.121Z</time>
</trkpt>
<trkpt lat="-27.3075539" lon="153.0128042">
<ele>0.071</ele>
<time>2016-05-21T04:49:46.112Z</time>
</trkpt>
<trkpt lat="-27.3081848" lon="153.0125473">
<ele>0.072</ele>
<time>2016-05-21T04:49:49.114Z</time>
</trkpt>
<trkpt lat="-27.3086235" lon="153.0124202">
<ele>0.629</ele>
<time>2016-05-21T04:49:51.140Z</time>
</trkpt>
<trkpt lat="-27.3092706" lon="153.0122789">
<ele>1.477</ele>
<time>2016-05-21T04:49:54.079Z</time>
</trkpt>
<trkpt lat="-27.3099309" lon="153.0121673">
<ele>2.147</ele>
<time>2016-05-21T04:49:57.054Z</time>
</trkpt>
<trkpt lat="-27.3103735" lon="153.0120968">
<ele>2.475</ele>
<time>2016-05-21T04:49:59.036Z</time>
</trkpt>
<trkpt lat="-27.3110405" lon="153.0119620">
<ele>2.626</ele>
<time>2016-05-21T04:50:02.033Z</time>
</trkpt>
<trkpt lat="-27.3114922" lon="153.0118585">
<ele>2.549</ele>
<time>2016-05-21T04:50:04.073Z</time>
</trkpt>
<trkpt lat="-27.3119252" lon="153.0117945">
<ele>2.114</ele>
<time>2016-05-21T04:50:05.984Z</time>
</trkpt>
<trkpt lat="-27.3126238" lon="153.0117103">
<ele>1.608</ele>
<time>2016-05-21T04:50:09.075Z</time>
</trkpt>
<trkpt lat="-27.3130770" lon="153.0117051">
<ele>1.782</ele>
<time>2016-05-21T04:50:11.076Z</time>
</trkpt>
<trkpt lat="-27.3139923" lon="153.0117746">
<ele>2.818</ele>
<time>2016-05-21T04:50:15.095Z</time>
</trkpt>
<trkpt lat="-27.3146684" lon="153.0119332">
<ele>3.756</ele>
<time>2016-05-21T04:50:18.098Z</time>
</trkpt>
<trkpt lat="-27.3153229" lon="153.0121353">
<ele>3.625</ele>
<time>2016-05-21T04:50:21.056Z</time>
</trkpt>
<trkpt lat="-27.3157495" lon="153.0123140">
<ele>2.538</ele>
<time>2016-05-21T04:50:23.039Z</time>
</trkpt>
<trkpt lat="-27.3161891" lon="153.0124870">
<ele>1.076</ele>
<time>2016-05-21T04:50:25.053Z</time>
</trkpt>
<trkpt lat="-27.3168558" lon="153.0127589">
<ele>0.000</ele>
<time>2016-05-21T04:50:28.107Z</time>
</trkpt>
<trkpt lat="-27.3173027" lon="153.0129005">
<ele>0.000</ele>
<time>2016-05-21T04:50:30.130Z</time>
</trkpt>
<trkpt lat="-27.3177580" lon="153.0130014">
<ele>0.000</ele>
<time>2016-05-21T04:50:32.147Z</time>
</trkpt>
<trkpt lat="-27.3186652" lon="153.0131866">
<ele>0.000</ele>
<time>2016-05-21T04:50:36.124Z</time>
</trkpt>
<trkpt lat="-27.3193432" lon="153.0133338">
<ele>0.136</ele>
<time>2016-05-21T04:50:39.096Z</time>
</trkpt>
<trkpt lat="-27.3198266" lon="153.0134195">
<ele>1.465</ele>
<time>2016-05-21T04:50:41.187Z</time>
</trkpt>
<trkpt lat="-27.3205194" lon="153.0135222">
<ele>3.929</ele>
<time>2016-05-21T04:50:44.169Z</time>
</trkpt>
<trkpt lat="-27.3212138" lon="153.0135485">
<ele>6.696</ele>
<time>2016-05-21T04:50:47.150Z</time>
</trkpt>
<trkpt lat="-27.3216797" lon="153.0135258">
<ele>8.510</ele>
<time>2016-05-21T04:50:49.155Z</time>
</trkpt>
<trkpt lat="-27.3223674" lon="153.0134541">
<ele>9.214</ele>
<time>2016-05-21T04:50:52.143Z</time>
</trkpt>
<trkpt lat="-27.3230492" lon="153.0133461">
<ele>9.545</ele>
<time>2016-05-21T04:50:55.158Z</time>
</trkpt>
<trkpt lat="-27.3234826" lon="153.0132834">
<ele>10.272</ele>
<time>2016-05-21T04:50:57.081Z</time>
</trkpt>
<trkpt lat="-27.3241585" lon="153.0131600">
<ele>11.207</ele>
<time>2016-05-21T04:51:00.091Z</time>
</trkpt>
<trkpt lat="-27.3248341" lon="153.0130402">
<ele>11.591</ele>
<time>2016-05-21T04:51:03.098Z</time>
</trkpt>
<trkpt lat="-27.3252854" lon="153.0129548">
<ele>10.967</ele>
<time>2016-05-21T04:51:05.130Z</time>
</trkpt>
<trkpt lat="-27.3257126" lon="153.0128947">
<ele>9.617</ele>
<time>2016-05-21T04:51:07.063Z</time>
</trkpt>
<trkpt lat="-27.3263828" lon="153.0127874">
<ele>8.158</ele>
<time>2016-05-21T04:51:10.112Z</time>
</trkpt>
<trkpt lat="-27.3268186" lon="153.0127111">
<ele>6.940</ele>
<time>2016-05-21T04:51:12.145Z</time>
</trkpt>
<trkpt lat="-27.3270145" lon="153.0126581">
<ele>5.992</ele>
<time>2016-05-21T04:51:13.075Z</time>
</trkpt>
<trkpt lat="-27.3278983" lon="153.0125042">
<ele>5.222</ele>
<time>2016-05-21T04:51:17.165Z</time>
</trkpt>
<trkpt lat="-27.3283310" lon="153.0124281">
<ele>4.649</ele>
<time>2016-05-21T04:51:19.168Z</time>
</trkpt>
<trkpt lat="-27.3287706" lon="153.0123756">
<ele>4.638</ele>
<time>2016-05-21T04:51:21.185Z</time>
</trkpt>
<trkpt lat="-27.3292087" lon="153.0123062">
<ele>5.241</ele>
<time>2016-05-21T04:51:23.179Z</time>
</trkpt>
<trkpt lat="-27.3296610" lon="153.0122529">
<ele>5.952</ele>
<time>2016-05-21T04:51:25.248Z</time>
</trkpt>
<trkpt lat="-27.3303059" lon="153.0121400">
<ele>6.304</ele>
<time>2016-05-21T04:51:28.379Z</time>
</trkpt>
<trkpt lat="-27.3308845" lon="153.0120223">
<ele>6.311</ele>
<time>2016-05-21T04:51:31.550Z</time>
</trkpt>
<trkpt lat="-27.3313690" lon="153.0118962">
<ele>5.861</ele>
<time>2016-05-21T04:51:34.660Z</time>
</trkpt>
<trkpt lat="-27.3316698" lon="153.0118088">
<ele>4.804</ele>
<time>2016-05-21T04:51:37.004Z</time>
</trkpt>
<trkpt lat="-27.3319281" lon="153.0117276">
<ele>3.262</ele>
<time>2016-05-21T04:51:39.324Z</time>
</trkpt>
<trkpt lat="-27.3322484" lon="153.0117855">
<ele>1.509</ele>
<time>2016-05-21T04:51:42.703Z</time>
</trkpt>
<trkpt lat="-27.3324268" lon="153.0120225">
<ele>0.000</ele>
<time>2016-05-21T04:51:45.803Z</time>
</trkpt>
<trkpt lat="-27.3324504" lon="153.0123192">
<ele>0.000</ele>
<time>2016-05-21T04:51:48.804Z</time>
</trkpt>
<trkpt lat="-27.3323478" lon="153.0124689">
<ele>0.000</ele>
<time>2016-05-21T04:51:50.647Z</time>
</trkpt>
<trkpt lat="-27.3320966" lon="153.0125948">
<ele>0.000</ele>
<time>2016-05-21T04:51:53.649Z</time>
</trkpt>
<trkpt lat="-27.3319009" lon="153.0125088">
<ele>0.000</ele>
<time>2016-05-21T04:51:55.772Z</time>
</trkpt>
<trkpt lat="-27.3316865" lon="153.0123057">
<ele>0.000</ele>
<time>2016-05-21T04:51:58.233Z</time>
</trkpt>
<trkpt lat="-27.3315773" lon="153.0119102">
<ele>0.000</ele>
<time>2016-05-21T04:52:00.824Z</time>
</trkpt>
<trkpt lat="-27.3315268" lon="153.0116012">
<ele>0.812</ele>
<time>2016-05-21T04:52:02.597Z</time>
</trkpt>
<trkpt lat="-27.3314627" lon="153.0112324">
<ele>2.573</ele>
<time>2016-05-21T04:52:04.573Z</time>
</trkpt>
<trkpt lat="-27.3314080" lon="153.0108424">
<ele>4.690</ele>
<time>2016-05-21T04:52:06.597Z</time>
</trkpt>
<trkpt lat="-27.3313462" lon="153.0102711">
<ele>6.322</ele>
<time>2016-05-21T04:52:09.627Z</time>
</trkpt>
<trkpt lat="-27.3313295" lon="153.0098985">
<ele>6.858</ele>
<time>2016-05-21T04:52:11.651Z</time>
</trkpt>
<trkpt lat="-27.3312952" lon="153.0095406">
<ele>5.792</ele>
<time>2016-05-21T04:52:13.616Z</time>
</trkpt>
<trkpt lat="-27.3312142" lon="153.0090197">
<ele>3.507</ele>
<time>2016-05-21T04:52:16.515Z</time>
</trkpt>
<trkpt lat="-27.3311578" lon="153.0086639">
<ele>1.201</ele>
<time>2016-05-21T04:52:18.577Z</time>
</trkpt>
<trkpt lat="-27.3310934" lon="153.0083443">
<ele>0.000</ele>
<time>2016-05-21T04:52:20.507Z</time>
</trkpt>
<trkpt lat="-27.3310570" lon="153.0081854">
<ele>0.000</ele>
<time>2016-05-21T04:52:21.452Z</time>
</trkpt>
<trkpt lat="-27.3309577" lon="153.0075121">
<ele>0.000</ele>
<time>2016-05-21T04:52:25.235Z</time>
</trkpt>
<trkpt lat="-27.3309184" lon="153.0071489">
<ele>0.000</ele>
<time>2016-05-21T04:52:27.200Z</time>
</trkpt>
<trkpt lat="-27.3309415" lon="153.0065684">
<ele>0.000</ele>
<time>2016-05-21T04:52:30.325Z</time>
</trkpt>
<trkpt lat="-27.3310109" lon="153.0062068">
<ele>0.000</ele>
<time>2016-05-21T04:52:32.399Z</time>
</trkpt>
<trkpt lat="-27.3310797" lon="153.0058871">
<ele>0.000</ele>
<time>2016-05-21T04:52:34.395Z</time>
</trkpt>
<trkpt lat="-27.3311734" lon="153.0054305">
<ele>0.000</ele>
<time>2016-05-21T04:52:37.847Z</time>
</trkpt>
<trkpt lat="-27.3312197" lon="153.0051863">
<ele>0.000</ele>
<time>2016-05-21T04:52:41.088Z</time>
</trkpt>
<trkpt lat="-27.3312307" lon="153.0050529">
<ele>0.000</ele>
<time>2016-05-21T04:52:43.707Z</time>
</trkpt>
<trkpt lat="-27.3312535" lon="153.0049147">
<ele>0.000</ele>
<time>2016-05-21T04:52:46.262Z</time>
</trkpt>
<trkpt lat="-27.3312815" lon="153.0047829">
<ele>0.000</ele>
<time>2016-05-21T04:52:47.867Z</time>
</trkpt>
<trkpt lat="-27.3313045" lon="153.0046053">
<ele>0.000</ele>
<time>2016-05-21T04:52:49.640Z</time>
</trkpt>
<trkpt lat="-27.3313338" lon="153.0043070">
<ele>0.000</ele>
<time>2016-05-21T04:52:52.027Z</time>
</trkpt>
<trkpt lat="-27.3313348" lon="153.0039681">
<ele>0.000</ele>
<time>2016-05-21T04:52:54.293Z</time>
</trkpt>
<trkpt lat="-27.3312970" lon="153.0035044">
<ele>0.000</ele>
<time>2016-05-21T04:52:57.215Z</time>
</trkpt>
<trkpt lat="-27.3312617" lon="153.0032046">
<ele>0.000</ele>
<time>2016-05-21T04:52:59.022Z</time>
</trkpt>
<trkpt lat="-27.3312156" lon="153.0028671">
<ele>0.000</ele>
<time>2016-05-21T04:53:01.025Z</time>
</trkpt>
<trkpt lat="-27.3311612" lon="153.0025148">
<ele>0.000</ele>
<time>2016-05-21T04:53:03.169Z</time>
</trkpt>
<trkpt lat="-27.3310951" lon="153.0020322">
<ele>0.000</ele>
<time>2016-05-21T04:53:06.090Z</time>
</trkpt>
<trkpt lat="-27.3310091" lon="153.0015067">
<ele>0.000</ele>
<time>2016-05-21T04:53:09.197Z</time>
</trkpt>
<trkpt lat="-27.3309545" lon="153.0011876">
<ele>0.000</ele>
<time>2016-05-21T04:53:11.050Z</time>
</trkpt>
<trkpt lat="-27.3308897" lon="153.0008356">
<ele>0.000</ele>
<time>2016-05-21T04:53:13.094Z</time>
</trkpt>
<trkpt lat="-27.3308310" lon="153.0004977">
<ele>0.000</ele>
<time>2016-05-21T04:53:15.056Z</time>
</trkpt>
<trkpt lat="-27.3307390" lon="152.9999899">
<ele>0.000</ele>
<time>2016-05-21T04:53:18.023Z</time>
</trkpt>
<trkpt lat="-27.3306536" lon="152.9994641">
<ele>0.000</ele>
<time>2016-05-21T04:53:21.078Z</time>
</trkpt>
<trkpt lat="-27.3305843" lon="152.9990318">
<ele>0.000</ele>
<time>2016-05-21T04:53:23.572Z</time>
</trkpt>
<trkpt lat="-27.3305285" lon="152.9986569">
<ele>0.000</ele>
<time>2016-05-21T04:53:25.684Z</time>
</trkpt>
<trkpt lat="-27.3304487" lon="152.9980934">
<ele>0.000</ele>
<time>2016-05-21T04:53:28.798Z</time>
</trkpt>
<trkpt lat="-27.3303994" lon="152.9977576">
<ele>0.000</ele>
<time>2016-05-21T04:53:30.592Z</time>
</trkpt>
<trkpt lat="-27.3302900" lon="152.9971820">
<ele>0.000</ele>
<time>2016-05-21T04:53:33.629Z</time>
</trkpt>
<trkpt lat="-27.3302157" lon="152.9967833">
<ele>0.000</ele>
<time>2016-05-21T04:53:35.646Z</time>
</trkpt>
<trkpt lat="-27.3301169" lon="152.9963731">
<ele>0.000</ele>
<time>2016-05-21T04:53:37.696Z</time>
</trkpt>
<trkpt lat="-27.3299443" lon="152.9957600">
<ele>0.000</ele>
<time>2016-05-21T04:53:40.766Z</time>
</trkpt>
<trkpt lat="-27.3298109" lon="152.9953492">
<ele>0.000</ele>
<time>2016-05-21T04:53:42.845Z</time>
</trkpt>
<trkpt lat="-27.3296780" lon="152.9949641">
<ele>0.000</ele>
<time>2016-05-21T04:53:44.827Z</time>
</trkpt>
<trkpt lat="-27.3295338" lon="152.9945683">
<ele>0.000</ele>
<time>2016-05-21T04:53:46.904Z</time>
</trkpt>
<trkpt lat="-27.3292997" lon="152.9940248">
<ele>0.000</ele>
<time>2016-05-21T04:53:49.832Z</time>
</trkpt>
<trkpt lat="-27.3291159" lon="152.9936619">
<ele>0.000</ele>
<time>2016-05-21T04:53:51.831Z</time>
</trkpt>
<trkpt lat="-27.3288369" lon="152.9931041">
<ele>0.000</ele>
<time>2016-05-21T04:53:54.912Z</time>
</trkpt>
<trkpt lat="-27.3285800" lon="152.9925666">
<ele>0.000</ele>
<time>2016-05-21T04:53:57.894Z</time>
</trkpt>
<trkpt lat="-27.3284120" lon="152.9921897">
<ele>0.170</ele>
<time>2016-05-21T04:53:59.996Z</time>
</trkpt>
<trkpt lat="-27.3282224" lon="152.9916529">
<ele>0.844</ele>
<time>2016-05-21T04:54:02.883Z</time>
</trkpt>
<trkpt lat="-27.3281091" lon="152.9910817">
<ele>1.194</ele>
<time>2016-05-21T04:54:05.824Z</time>
</trkpt>
<trkpt lat="-27.3280416" lon="152.9905000">
<ele>1.087</ele>
<time>2016-05-21T04:54:08.824Z</time>
</trkpt>
<trkpt lat="-27.3280083" lon="152.9901329">
<ele>0.532</ele>
<time>2016-05-21T04:54:10.784Z</time>
</trkpt>
<trkpt lat="-27.3279748" lon="152.9897700">
<ele>0.000</ele>
<time>2016-05-21T04:54:12.785Z</time>
</trkpt>
<trkpt lat="-27.3279199" lon="152.9892408">
<ele>0.000</ele>
<time>2016-05-21T04:54:15.741Z</time>
</trkpt>
<trkpt lat="-27.3278881" lon="152.9888769">
<ele>0.000</ele>
<time>2016-05-21T04:54:17.863Z</time>
</trkpt>
<trkpt lat="-27.3278569" lon="152.9883728">
<ele>0.000</ele>
<time>2016-05-21T04:54:20.989Z</time>
</trkpt>
<trkpt lat="-27.3278240" lon="152.9880698">
<ele>0.000</ele>
<time>2016-05-21T04:54:23.218Z</time>
</trkpt>
<trkpt lat="-27.3277727" lon="152.9876790">
<ele>0.000</ele>
<time>2016-05-21T04:54:26.785Z</time>
</trkpt>
<trkpt lat="-27.3277488" lon="152.9874182">
<ele>0.000</ele>
<time>2016-05-21T04:54:31.982Z</time>
</trkpt>
<trkpt lat="-27.3277314" lon="152.9873012">
<ele>0.000</ele>
<time>2016-05-21T04:54:35.772Z</time>
</trkpt>
<trkpt lat="-27.3277160" lon="152.9871914">
<ele>0.000</ele>
<time>2016-05-21T04:54:38.861Z</time>
</trkpt>
<trkpt lat="-27.3277020" lon="152.9870827">
<ele>0.000</ele>
<time>2016-05-21T04:54:40.479Z</time>
</trkpt>
<trkpt lat="-27.3276696" lon="152.9868302">
<ele>0.000</ele>
<time>2016-05-21T04:54:43.384Z</time>
</trkpt>
<trkpt lat="-27.3276296" lon="152.9865296">
<ele>0.000</ele>
<time>2016-05-21T04:54:45.922Z</time>
</trkpt>
<trkpt lat="-27.3275774" lon="152.9860201">
<ele>0.000</ele>
<time>2016-05-21T04:54:49.302Z</time>
</trkpt>
<trkpt lat="-27.3274947" lon="152.9854941">
<ele>0.000</ele>
<time>2016-05-21T04:54:52.399Z</time>
</trkpt>
<trkpt lat="-27.3274371" lon="152.9851077">
<ele>0.000</ele>
<time>2016-05-21T04:54:54.459Z</time>
</trkpt>
<trkpt lat="-27.3273915" lon="152.9847139">
<ele>0.000</ele>
<time>2016-05-21T04:54:56.442Z</time>
</trkpt>
<trkpt lat="-27.3273379" lon="152.9843089">
<ele>0.000</ele>
<time>2016-05-21T04:54:58.454Z</time>
</trkpt>
<trkpt lat="-27.3272517" lon="152.9837017">
<ele>0.000</ele>
<time>2016-05-21T04:55:01.477Z</time>
</trkpt>
<trkpt lat="-27.3271633" lon="152.9831020">
<ele>0.000</ele>
<time>2016-05-21T04:55:04.479Z</time>
</trkpt>
<trkpt lat="-27.3270844" lon="152.9825019">
<ele>0.000</ele>
<time>2016-05-21T04:55:07.482Z</time>
</trkpt>
<trkpt lat="-27.3269923" lon="152.9819131">
<ele>0.000</ele>
<time>2016-05-21T04:55:10.472Z</time>
</trkpt>
<trkpt lat="-27.3269652" lon="152.9817136">
<ele>0.000</ele>
<time>2016-05-21T04:55:11.490Z</time>
</trkpt>
<trkpt lat="-27.3268584" lon="152.9809261">
<ele>0.000</ele>
<time>2016-05-21T04:55:15.499Z</time>
</trkpt>
<trkpt lat="-27.3267872" lon="152.9803619">
<ele>0.000</ele>
<time>2016-05-21T04:55:18.386Z</time>
</trkpt>
<trkpt lat="-27.3267009" lon="152.9797808">
<ele>0.000</ele>
<time>2016-05-21T04:55:21.412Z</time>
</trkpt>
<trkpt lat="-27.3266465" lon="152.9794000">
<ele>0.000</ele>
<time>2016-05-21T04:55:23.414Z</time>
</trkpt>
<trkpt lat="-27.3265393" lon="152.9788625">
<ele>0.000</ele>
<time>2016-05-21T04:55:26.276Z</time>
</trkpt>
<trkpt lat="-27.3264947" lon="152.9784676">
<ele>0.000</ele>
<time>2016-05-21T04:55:28.331Z</time>
</trkpt>
<trkpt lat="-27.3264357" lon="152.9778938">
<ele>0.000</ele>
<time>2016-05-21T04:55:31.307Z</time>
</trkpt>
<trkpt lat="-27.3263820" lon="152.9775140">
<ele>0.000</ele>
<time>2016-05-21T04:55:33.281Z</time>
</trkpt>
<trkpt lat="-27.3263000" lon="152.9769294">
<ele>0.000</ele>
<time>2016-05-21T04:55:36.311Z</time>
</trkpt>
<trkpt lat="-27.3262216" lon="152.9763710">
<ele>0.000</ele>
<time>2016-05-21T04:55:39.215Z</time>
</trkpt>
<trkpt lat="-27.3261441" lon="152.9758186">
<ele>0.000</ele>
<time>2016-05-21T04:55:42.091Z</time>
</trkpt>
<trkpt lat="-27.3260906" lon="152.9754374">
<ele>0.000</ele>
<time>2016-05-21T04:55:44.052Z</time>
</trkpt>
<trkpt lat="-27.3260059" lon="152.9748334">
<ele>0.000</ele>
<time>2016-05-21T04:55:47.138Z</time>
</trkpt>
<trkpt lat="-27.3259498" lon="152.9742853">
<ele>0.000</ele>
<time>2016-05-21T04:55:49.910Z</time>
</trkpt>
<trkpt lat="-27.3258408" lon="152.9736439">
<ele>0.000</ele>
<time>2016-05-21T04:55:53.159Z</time>
</trkpt>
<trkpt lat="-27.3257849" lon="152.9732431">
<ele>0.000</ele>
<time>2016-05-21T04:55:55.152Z</time>
</trkpt>
<trkpt lat="-27.3257008" lon="152.9726459">
<ele>0.000</ele>
<time>2016-05-21T04:55:58.073Z</time>
</trkpt>
<trkpt lat="-27.3256378" lon="152.9722103">
<ele>0.000</ele>
<time>2016-05-21T04:56:00.121Z</time>
</trkpt>
<trkpt lat="-27.3255517" lon="152.9715619">
<ele>0.000</ele>
<time>2016-05-21T04:56:03.116Z</time>
</trkpt>
<trkpt lat="-27.3254659" lon="152.9709126">
<ele>0.000</ele>
<time>2016-05-21T04:56:06.123Z</time>
</trkpt>
<trkpt lat="-27.3253669" lon="152.9702739">
<ele>0.000</ele>
<time>2016-05-21T04:56:09.111Z</time>
</trkpt>
<trkpt lat="-27.3252742" lon="152.9696261">
<ele>0.000</ele>
<time>2016-05-21T04:56:12.117Z</time>
</trkpt>
<trkpt lat="-27.3252143" lon="152.9691765">
<ele>0.000</ele>
<time>2016-05-21T04:56:14.179Z</time>
</trkpt>
<trkpt lat="-27.3251150" lon="152.9685446">
<ele>0.000</ele>
<time>2016-05-21T04:56:17.102Z</time>
</trkpt>
<trkpt lat="-27.3250210" lon="152.9679041">
<ele>0.000</ele>
<time>2016-05-21T04:56:20.099Z</time>
</trkpt>
<trkpt lat="-27.3249283" lon="152.9672649">
<ele>0.000</ele>
<time>2016-05-21T04:56:23.097Z</time>
</trkpt>
<trkpt lat="-27.3248398" lon="152.9666298">
<ele>0.000</ele>
<time>2016-05-21T04:56:26.057Z</time>
</trkpt>
<trkpt lat="-27.3247482" lon="152.9659829">
<ele>0.000</ele>
<time>2016-05-21T04:56:29.081Z</time>
</trkpt>
<trkpt lat="-27.3246604" lon="152.9653340">
<ele>0.000</ele>
<time>2016-05-21T04:56:32.160Z</time>
</trkpt>
<trkpt lat="-27.3246156" lon="152.9649203">
<ele>0.000</ele>
<time>2016-05-21T04:56:34.160Z</time>
</trkpt>
<trkpt lat="-27.3246618" lon="152.9642998">
<ele>3.195</ele>
<time>2016-05-21T04:56:37.160Z</time>
</trkpt>
<trkpt lat="-27.3247526" lon="152.9639152">
<ele>7.625</ele>
<time>2016-05-21T04:56:39.049Z</time>
</trkpt>
<trkpt lat="-27.3249727" lon="152.9634859">
<ele>12.474</ele>
<time>2016-05-21T04:56:41.372Z</time>
</trkpt>
<trkpt lat="-27.3253739" lon="152.9630418">
<ele>16.760</ele>
<time>2016-05-21T04:56:44.353Z</time>
</trkpt>
<trkpt lat="-27.3257032" lon="152.9628502">
<ele>19.622</ele>
<time>2016-05-21T04:56:46.327Z</time>
</trkpt>
<trkpt lat="-27.3262462" lon="152.9627086">
<ele>21.008</ele>
<time>2016-05-21T04:56:49.257Z</time>
</trkpt>
<trkpt lat="-27.3268359" lon="152.9626184">
<ele>21.303</ele>
<time>2016-05-21T04:56:52.320Z</time>
</trkpt>
<trkpt lat="-27.3272132" lon="152.9625539">
<ele>20.599</ele>
<time>2016-05-21T04:56:54.288Z</time>
</trkpt>
<trkpt lat="-27.3277666" lon="152.9624675">
<ele>18.637</ele>
<time>2016-05-21T04:56:57.189Z</time>
</trkpt>
<trkpt lat="-27.3281535" lon="152.9623696">
<ele>15.631</ele>
<time>2016-05-21T04:56:59.255Z</time>
</trkpt>
<trkpt lat="-27.3285433" lon="152.9622658">
<ele>12.142</ele>
<time>2016-05-21T04:57:01.343Z</time>
</trkpt>
<trkpt lat="-27.3290960" lon="152.9621414">
<ele>8.976</ele>
<time>2016-05-21T04:57:04.288Z</time>
</trkpt>
<trkpt lat="-27.3294834" lon="152.9620613">
<ele>7.162</ele>
<time>2016-05-21T04:57:06.359Z</time>
</trkpt>
<trkpt lat="-27.3298419" lon="152.9620007">
<ele>7.167</ele>
<time>2016-05-21T04:57:08.252Z</time>
</trkpt>
<trkpt lat="-27.3304235" lon="152.9618954">
<ele>8.366</ele>
<time>2016-05-21T04:57:11.282Z</time>
</trkpt>
<trkpt lat="-27.3310118" lon="152.9617919">
<ele>9.597</ele>
<time>2016-05-21T04:57:14.304Z</time>
</trkpt>
<trkpt lat="-27.3313167" lon="152.9617385">
<ele>9.842</ele>
<time>2016-05-21T04:57:15.885Z</time>
</trkpt>
<trkpt lat="-27.3319708" lon="152.9616286">
<ele>9.007</ele>
<time>2016-05-21T04:57:19.300Z</time>
</trkpt>
<trkpt lat="-27.3323600" lon="152.9615999">
<ele>7.556</ele>
<time>2016-05-21T04:57:21.309Z</time>
</trkpt>
<trkpt lat="-27.3329449" lon="152.9615293">
<ele>6.014</ele>
<time>2016-05-21T04:57:24.326Z</time>
</trkpt>
<trkpt lat="-27.3333305" lon="152.9614770">
<ele>4.951</ele>
<time>2016-05-21T04:57:26.329Z</time>
</trkpt>
<trkpt lat="-27.3338975" lon="152.9614494">
<ele>5.002</ele>
<time>2016-05-21T04:57:29.315Z</time>
</trkpt>
<trkpt lat="-27.3344379" lon="152.9613840">
<ele>6.595</ele>
<time>2016-05-21T04:57:32.299Z</time>
</trkpt>
<trkpt lat="-27.3347833" lon="152.9613185">
<ele>9.289</ele>
<time>2016-05-21T04:57:34.286Z</time>
</trkpt>
<trkpt lat="-27.3353095" lon="152.9611622">
<ele>11.631</ele>
<time>2016-05-21T04:57:37.343Z</time>
</trkpt>
<trkpt lat="-27.3356674" lon="152.9610923">
<ele>12.950</ele>
<time>2016-05-21T04:57:39.350Z</time>
</trkpt>
<trkpt lat="-27.3362044" lon="152.9609937">
<ele>13.669</ele>
<time>2016-05-21T04:57:42.357Z</time>
</trkpt>
<trkpt lat="-27.3365588" lon="152.9609450">
<ele>13.792</ele>
<time>2016-05-21T04:57:44.362Z</time>
</trkpt>
<trkpt lat="-27.3370749" lon="152.9608198">
<ele>13.049</ele>
<time>2016-05-21T04:57:47.373Z</time>
</trkpt>
<trkpt lat="-27.3374175" lon="152.9607568">
<ele>11.906</ele>
<time>2016-05-21T04:57:49.362Z</time>
</trkpt>
<trkpt lat="-27.3379379" lon="152.9606643">
<ele>11.118</ele>
<time>2016-05-21T04:57:52.363Z</time>
</trkpt>
<trkpt lat="-27.3382957" lon="152.9606219">
<ele>11.330</ele>
<time>2016-05-21T04:57:54.389Z</time>
</trkpt>
<trkpt lat="-27.3388504" lon="152.9606899">
<ele>12.801</ele>
<time>2016-05-21T04:57:57.496Z</time>
</trkpt>
<trkpt lat="-27.3392120" lon="152.9608483">
<ele>14.738</ele>
<time>2016-05-21T04:57:59.630Z</time>
</trkpt>
<trkpt lat="-27.3396615" lon="152.9610303">
<ele>15.840</ele>
<time>2016-05-21T04:58:02.248Z</time>
</trkpt>
<trkpt lat="-27.3400813" lon="152.9611191">
<ele>15.569</ele>
<time>2016-05-21T04:58:04.577Z</time>
</trkpt>
<trkpt lat="-27.3404394" lon="152.9611594">
<ele>14.370</ele>
<time>2016-05-21T04:58:06.521Z</time>
</trkpt>
<trkpt lat="-27.3408182" lon="152.9611820">
<ele>12.930</ele>
<time>2016-05-21T04:58:08.547Z</time>
</trkpt>
<trkpt lat="-27.3413825" lon="152.9612383">
<ele>11.228</ele>
<time>2016-05-21T04:58:11.560Z</time>
</trkpt>
<trkpt lat="-27.3417628" lon="152.9612758">
<ele>8.687</ele>
<time>2016-05-21T04:58:13.588Z</time>
</trkpt>
<trkpt lat="-27.3423224" lon="152.9613226">
<ele>5.674</ele>
<time>2016-05-21T04:58:16.575Z</time>
</trkpt>
<trkpt lat="-27.3428883" lon="152.9613895">
<ele>3.064</ele>
<time>2016-05-21T04:58:19.635Z</time>
</trkpt>
<trkpt lat="-27.3434288" lon="152.9615164">
<ele>1.136</ele>
<time>2016-05-21T04:58:22.654Z</time>
</trkpt>
<trkpt lat="-27.3437676" lon="152.9616452">
<ele>0.012</ele>
<time>2016-05-21T04:58:24.614Z</time>
</trkpt>
<trkpt lat="-27.3442674" lon="152.9619241">
<ele>0.094</ele>
<time>2016-05-21T04:58:27.684Z</time>
</trkpt>
<trkpt lat="-27.3445552" lon="152.9621444">
<ele>1.588</ele>
<time>2016-05-21T04:58:29.697Z</time>
</trkpt>
<trkpt lat="-27.3448345" lon="152.9623841">
<ele>3.889</ele>
<time>2016-05-21T04:58:31.931Z</time>
</trkpt>
<trkpt lat="-27.3450460" lon="152.9625865">
<ele>5.612</ele>
<time>2016-05-21T04:58:33.979Z</time>
</trkpt>
<trkpt lat="-27.3452123" lon="152.9627845">
<ele>6.127</ele>
<time>2016-05-21T04:58:36.468Z</time>
</trkpt>
<trkpt lat="-27.3453159" lon="152.9629163">
<ele>5.566</ele>
<time>2016-05-21T04:58:38.834Z</time>
</trkpt>
<trkpt lat="-27.3454264" lon="152.9631104">
<ele>4.058</ele>
<time>2016-05-21T04:58:42.420Z</time>
</trkpt>
<trkpt lat="-27.3455238" lon="152.9632631">
<ele>2.239</ele>
<time>2016-05-21T04:58:45.370Z</time>
</trkpt>
<trkpt lat="-27.3457048" lon="152.9635367">
<ele>1.146</ele>
<time>2016-05-21T04:58:49.168Z</time>
</trkpt>
<trkpt lat="-27.3458430" lon="152.9637781">
<ele>1.184</ele>
<time>2016-05-21T04:58:51.456Z</time>
</trkpt>
<trkpt lat="-27.3459967" lon="152.9640248">
<ele>2.021</ele>
<time>2016-05-21T04:58:53.555Z</time>
</trkpt>
<trkpt lat="-27.3461511" lon="152.9642367">
<ele>3.232</ele>
<time>2016-05-21T04:58:55.304Z</time>
</trkpt>
<trkpt lat="-27.3463855" lon="152.9645796">
<ele>4.413</ele>
<time>2016-05-21T04:58:57.856Z</time>
</trkpt>
<trkpt lat="-27.3466897" lon="152.9650171">
<ele>5.051</ele>
<time>2016-05-21T04:59:01.021Z</time>
</trkpt>
<trkpt lat="-27.3470482" lon="152.9653874">
<ele>4.911</ele>
<time>2016-05-21T04:59:04.074Z</time>
</trkpt>
<trkpt lat="-27.3473076" lon="152.9656069">
<ele>4.346</ele>
<time>2016-05-21T04:59:06.079Z</time>
</trkpt>
<trkpt lat="-27.3475885" lon="152.9657862">
<ele>3.985</ele>
<time>2016-05-21T04:59:08.057Z</time>
</trkpt>
<trkpt lat="-27.3480024" lon="152.9659776">
<ele>4.207</ele>
<time>2016-05-21T04:59:10.766Z</time>
</trkpt>
<trkpt lat="-27.3483250" lon="152.9661058">
<ele>4.965</ele>
<time>2016-05-21T04:59:12.817Z</time>
</trkpt>
<trkpt lat="-27.3487945" lon="152.9662548">
<ele>5.903</ele>
<time>2016-05-21T04:59:15.741Z</time>
</trkpt>
<trkpt lat="-27.3491126" lon="152.9663640">
<ele>6.596</ele>
<time>2016-05-21T04:59:17.777Z</time>
</trkpt>
<trkpt lat="-27.3495720" lon="152.9665137">
<ele>6.897</ele>
<time>2016-05-21T04:59:20.777Z</time>
</trkpt>
<trkpt lat="-27.3498907" lon="152.9665685">
<ele>7.277</ele>
<time>2016-05-21T04:59:22.812Z</time>
</trkpt>
<trkpt lat="-27.3503733" lon="152.9665924">
<ele>8.536</ele>
<time>2016-05-21T04:59:25.827Z</time>
</trkpt>
<trkpt lat="-27.3506962" lon="152.9665885">
<ele>10.790</ele>
<time>2016-05-21T04:59:27.821Z</time>
</trkpt>
<trkpt lat="-27.3511945" lon="152.9665823">
<ele>13.246</ele>
<time>2016-05-21T04:59:30.889Z</time>
</trkpt>
<trkpt lat="-27.3516628" lon="152.9666317">
<ele>15.541</ele>
<time>2016-05-21T04:59:33.782Z</time>
</trkpt>
<trkpt lat="-27.3521493" lon="152.9668115">
<ele>17.671</ele>
<time>2016-05-21T04:59:36.889Z</time>
</trkpt>
<trkpt lat="-27.3524512" lon="152.9669429">
<ele>19.191</ele>
<time>2016-05-21T04:59:38.826Z</time>
</trkpt>
<trkpt lat="-27.3528894" lon="152.9672337">
<ele>19.851</ele>
<time>2016-05-21T04:59:41.867Z</time>
</trkpt>
<trkpt lat="-27.3532595" lon="152.9676176">
<ele>19.500</ele>
<time>2016-05-21T04:59:44.868Z</time>
</trkpt>
<trkpt lat="-27.3536213" lon="152.9680231">
<ele>18.069</ele>
<time>2016-05-21T04:59:47.885Z</time>
</trkpt>
<trkpt lat="-27.3538562" lon="152.9683313">
<ele>16.278</ele>
<time>2016-05-21T04:59:49.996Z</time>
</trkpt>
<trkpt lat="-27.3540776" lon="152.9686046">
<ele>14.982</ele>
<time>2016-05-21T04:59:51.944Z</time>
</trkpt>
<trkpt lat="-27.3542950" lon="152.9688663">
<ele>14.564</ele>
<time>2016-05-21T04:59:53.859Z</time>
</trkpt>
<trkpt lat="-27.3545639" lon="152.9690968">
<ele>15.059</ele>
<time>2016-05-21T04:59:55.887Z</time>
</trkpt>
<trkpt lat="-27.3550062" lon="152.9693556">
<ele>16.060</ele>
<time>2016-05-21T04:59:58.895Z</time>
</trkpt>
<trkpt lat="-27.3552726" lon="152.9695069">
<ele>17.148</ele>
<time>2016-05-21T05:00:00.770Z</time>
</trkpt>
<trkpt lat="-27.3555990" lon="152.9695224">
<ele>18.064</ele>
<time>2016-05-21T05:00:02.871Z</time>
</trkpt>
<trkpt lat="-27.3559133" lon="152.9695807">
<ele>18.540</ele>
<time>2016-05-21T05:00:04.916Z</time>
</trkpt>
<trkpt lat="-27.3563745" lon="152.9695832">
<ele>18.462</ele>
<time>2016-05-21T05:00:07.945Z</time>
</trkpt>
<trkpt lat="-27.3566583" lon="152.9695632">
<ele>17.628</ele>
<time>2016-05-21T05:00:10.223Z</time>
</trkpt>
<trkpt lat="-27.3569089" lon="152.9695624">
<ele>15.506</ele>
<time>2016-05-21T05:00:13.026Z</time>
</trkpt>
<trkpt lat="-27.3570232" lon="152.9695722">
<ele>12.000</ele>
<time>2016-05-21T05:00:15.000Z</time>
</trkpt>
<trkpt lat="-27.3570232" lon="152.9695722">
<ele>8.312</ele>
<time>2016-05-21T05:00:19.000Z</time>
</trkpt>
<trkpt lat="-27.3570232" lon="152.9695722">
<ele>6.311</ele>
<time>2016-05-21T05:00:38.849Z</time>
</trkpt>
<trkpt lat="-27.3571742" lon="152.9695939">
<ele>6.471</ele>
<time>2016-05-21T05:00:47.656Z</time>
</trkpt>
<trkpt lat="-27.3572674" lon="152.9696254">
<ele>6.944</ele>
<time>2016-05-21T05:00:49.343Z</time>
</trkpt>
<trkpt lat="-27.3573909" lon="152.9696324">
<ele>6.240</ele>
<time>2016-05-21T05:00:51.022Z</time>
</trkpt>
<trkpt lat="-27.3576086" lon="152.9694947">
<ele>5.052</ele>
<time>2016-05-21T05:00:54.024Z</time>
</trkpt>
<trkpt lat="-27.3576847" lon="152.9693372">
<ele>4.494</ele>
<time>2016-05-21T05:00:55.857Z</time>
</trkpt>
<trkpt lat="-27.3577123" lon="152.9692006">
<ele>4.602</ele>
<time>2016-05-21T05:00:57.421Z</time>
</trkpt>
<trkpt lat="-27.3577692" lon="152.9690812">
<ele>4.899</ele>
<time>2016-05-21T05:00:59.275Z</time>
</trkpt>
<trkpt lat="-27.3578866" lon="152.9690285">
<ele>5.026</ele>
<time>2016-05-21T05:01:01.954Z</time>
</trkpt>
<trkpt lat="-27.3580008" lon="152.9690900">
<ele>4.994</ele>
<time>2016-05-21T05:01:05.061Z</time>
</trkpt>
<trkpt lat="-27.3580998" lon="152.9691432">
<ele>5.014</ele>
<time>2016-05-21T05:01:07.116Z</time>
</trkpt>
<trkpt lat="-27.3582294" lon="152.9692130">
<ele>5.198</ele>
<time>2016-05-21T05:01:09.649Z</time>
</trkpt>
<trkpt lat="-27.3583343" lon="152.9692695">
<ele>5.420</ele>
<time>2016-05-21T05:01:12.013Z</time>
</trkpt>
<trkpt lat="-27.3583183" lon="152.9693772">
<ele>5.502</ele>
<time>2016-05-21T05:01:14.588Z</time>
</trkpt>
<trkpt lat="-27.3582452" lon="152.9694631">
<ele>5.387</ele>
<time>2016-05-21T05:01:19.000Z</time>
</trkpt>
<trkpt lat="-27.3582452" lon="152.9694631">
<ele>5.139</ele>
<time>2016-05-21T05:01:25.000Z</time>
</trkpt>
<trkpt lat="-27.3582452" lon="152.9694631">
<ele>4.962</ele>
<time>2016-05-21T05:02:45.375Z</time>
</trkpt>
<trkpt lat="-27.3580968" lon="152.9695785">
<ele>4.967</ele>
<time>2016-05-21T05:02:53.999Z</time>
</trkpt>
</trkseg>
</trk>
<extensions>
<fpdata xmlns="http://www.motionx.com/GPX-Extensions/1/1" sfv="10" origin="MotionXGPSFull 24.1 Build 5049R64">
<bin enc="base64">
RgIAAAACAAAAZMyxg+TP1UEBAAAAiQrwAPvP1UEAAOqq1S/LQKsSAAAgMbEBe9WjbyIc
UEDuVFJrNd4TQAAAAAAYAAAAQmFuZCBvZiBCaWtlcnMgIDIxLTUtMTYAFQAAADIxIE1h
eSAyMDE2ICA4OjM5IGFtAAAAAACzCvAA+8/VQZ30Yd38z9VBuBbYAFmQMawk3p9ALAAA
AAIAAACSE365axxjQAgcrJ8LYDvAe9WjbyIcUEAAAAAAAAAUQAAAAAAAABBAAAAAAADt
sEAAAAAAAAAAAAAAAAAAAAAAAChqQH42it0L4hlAAQAAAFdx1jUTdJi/AQAAAAEAAAAu
IL5yRo29P87DFTdz1sO/AQAAAAEAAAABAAAAe9WjbyIcUEAAAAAAAAAAAAEAAAAcAAAA
QmFuZF9vZl9CaWtlcnNfXzIxLTUtMTYuZ3B4AAEAAACvImPd/M/VQQoAAAABAAAAGAAA
AEJhbmQgb2YgQmlrZXJzICAyMS01LTE2AAAAAAAMAAAAAAAAAAAAAAAHEAAAT/l///rP
1UEAAAAAAAAAAAAAAAAAAAAA/yVEvAIAAAAAAAAAAAAAAAEAAAAnAAAAMjQuMSBCdWls
ZCA1MDQ5UjY0LCBNWEFFIDguMSBiLiA2MjZSNjQAAAAAABh1AAABAAAAAREAAAAOkj9X
/us/VwTIzrGD5M/VQcjOsYPkz9VBAAAAAABaIj8AAAAAAqvMsYPkz9VBBmdGUefP1UEA
ANjSpGymQAAAAAAC9DCJZOfP1UGDigZK6M/VQQAAUJ+PmK1AAAAAAAII5AdN6M/VQQK4
BVDoz9VBAAAgP36wrUAAAAAAAkq1B47sz9VBYATHk+zP1UEAANC3eN6tQAAAAAADavyY
Ue3P1UFq/JhR7c/VQQAAdoCF2rFAAAAAAAR+x0Ri7c/VQX7HRGLtz9VBAAC3rDQdskAA
AAAAAlezxpbsz9VBPj8Gn+3P1UEAAISLOhCzQAAAAAACPUWHqO3P1UE814bU7c/VQQAA
gNM4wLNAAAAAAAKPqkbX7c/VQXCTx6fuz9VBAAAEdzwCt0AAAAAAAuUJiKnuz9VBMCxG
tO/P1UEAADAANS27QAAAAAACnDAHuO/P1UFiagRS8c/VQQAApPOUysBAAAAAAALSM0pX
8c/VQS6RhWPxz9VBAABcrgvjwEAAAAAAAgYwC/Txz9VBtvMI9fHP1UEAALw1B+XAQAAA
AAAC6X5KvfXP1UGQae7Y+s/VQQAACgtPHMtAAAAAAAJb0ovf+s/VQYqxR+n6z9VBAABo
ycYvy0AAAAAAAe/KiP/6z9VBsDuQ//rP1UEAAOqq1S/LQAAAAAAAAAAA
</bin>
</fpdata>
</extensions>
</gpx>